<?xml version="1.0" encoding="UTF-8" standalone="no" ?>
<gpx xmlns="http://www.topografix.com/GPX/1/1" xmlns:xsi="http://www.w3.org/2001/XMLSchema-instance" xsi:schemaLocation="http://www.topografix.com/GPX/1/1 http://www.topografix.com/GPX/1/1/gpx.xsd" version="1.1" creator="VisuGPX - https://www.visugpx.com">
  <metadata>
    <name>Balade du Mont-Dore 2011</name>
    <desc><![CDATA[Balade réalisée lors de la rencontre annuelle des passionnés de Cagiva Elefant / Gran-Canyon au Mont-Dore.
Une majorité de petites routes pittoresques et quelques pistes roulantes sympathiques.
Certaines n\'ont pas pu êtres terminées pour éviter les orages...]]></desc>
  </metadata>
  <trk>
    <name><![CDATA[MONTDORE2011:22:52]]></name>
    <trkseg>
      <trkpt lat="45.57199" lon="2.81757">
        <ele>1282.54</ele>
        <time>2011-09-03T08:24:57Z</time>
      </trkpt>
      <trkpt lat="45.57199" lon="2.81757">
        <ele>1282.54</ele>
        <time>2011-09-03T08:24:58Z</time>
      </trkpt>
      <trkpt lat="45.57199" lon="2.81757">
        <ele>1282.54</ele>
        <time>2011-09-03T08:24:59Z</time>
      </trkpt>
      <trkpt lat="45.57199" lon="2.81756">
        <ele>1283.5</ele>
        <time>2011-09-03T08:28:05Z</time>
      </trkpt>
      <trkpt lat="45.57198" lon="2.81752">
        <ele>1283.5</ele>
        <time>2011-09-03T08:29:07Z</time>
      </trkpt>
      <trkpt lat="45.57198" lon="2.81752">
        <ele>1279.17</ele>
        <time>2011-09-03T08:29:14Z</time>
      </trkpt>
      <trkpt lat="45.57198" lon="2.81752">
        <ele>1281.09</ele>
        <time>2011-09-03T08:29:15Z</time>
      </trkpt>
      <trkpt lat="45.57198" lon="2.81752">
        <ele>1283.5</ele>
        <time>2011-09-03T08:29:17Z</time>
      </trkpt>
      <trkpt lat="45.57198" lon="2.81752">
        <ele>1283.5</ele>
        <time>2011-09-03T08:31:13Z</time>
      </trkpt>
      <trkpt lat="45.57164" lon="2.81765">
        <ele>1284.46</ele>
        <time>2011-09-03T08:31:22Z</time>
      </trkpt>
      <trkpt lat="45.57143" lon="2.81773">
        <ele>1284.94</ele>
        <time>2011-09-03T08:31:31Z</time>
      </trkpt>
      <trkpt lat="45.57138" lon="2.81804">
        <ele>1287.34</ele>
        <time>2011-09-03T08:31:38Z</time>
      </trkpt>
      <trkpt lat="45.5713" lon="2.81823">
        <ele>1287.34</ele>
        <time>2011-09-03T08:31:46Z</time>
      </trkpt>
      <trkpt lat="45.57129" lon="2.81824">
        <ele>1286.86</ele>
        <time>2011-09-03T08:32:03Z</time>
      </trkpt>
      <trkpt lat="45.57129" lon="2.81824">
        <ele>1287.82</ele>
        <time>2011-09-03T08:34:31Z</time>
      </trkpt>
      <trkpt lat="45.57135" lon="2.81823">
        <ele>1287.82</ele>
        <time>2011-09-03T08:34:36Z</time>
      </trkpt>
      <trkpt lat="45.57133" lon="2.818">
        <ele>1287.34</ele>
        <time>2011-09-03T08:34:42Z</time>
      </trkpt>
      <trkpt lat="45.57133" lon="2.81782">
        <ele>1286.38</ele>
        <time>2011-09-03T08:34:48Z</time>
      </trkpt>
      <trkpt lat="45.57134" lon="2.81782">
        <ele>1285.42</ele>
        <time>2011-09-03T08:34:49Z</time>
      </trkpt>
      <trkpt lat="45.57128" lon="2.81787">
        <ele>1286.38</ele>
        <time>2011-09-03T08:34:56Z</time>
      </trkpt>
      <trkpt lat="45.57131" lon="2.81796">
        <ele>1286.86</ele>
        <time>2011-09-03T08:34:59Z</time>
      </trkpt>
      <trkpt lat="45.57139" lon="2.81809">
        <ele>1287.34</ele>
        <time>2011-09-03T08:35:06Z</time>
      </trkpt>
      <trkpt lat="45.57129" lon="2.81826">
        <ele>1286.86</ele>
        <time>2011-09-03T08:35:15Z</time>
      </trkpt>
      <trkpt lat="45.57129" lon="2.81827">
        <ele>1287.34</ele>
        <time>2011-09-03T08:35:32Z</time>
      </trkpt>
      <trkpt lat="45.57127" lon="2.81832">
        <ele>1288.78</ele>
        <time>2011-09-03T08:35:34Z</time>
      </trkpt>
      <trkpt lat="45.5714" lon="2.81897">
        <ele>1293.11</ele>
        <time>2011-09-03T08:35:40Z</time>
      </trkpt>
      <trkpt lat="45.5715" lon="2.81906">
        <ele>1293.59</ele>
        <time>2011-09-03T08:35:41Z</time>
      </trkpt>
      <trkpt lat="45.57191" lon="2.81947">
        <ele>1296.48</ele>
        <time>2011-09-03T08:35:45Z</time>
      </trkpt>
      <trkpt lat="45.57224" lon="2.81983">
        <ele>1299.84</ele>
        <time>2011-09-03T08:35:48Z</time>
      </trkpt>
      <trkpt lat="45.5725" lon="2.8204">
        <ele>1306.09</ele>
        <time>2011-09-03T08:35:51Z</time>
      </trkpt>
      <trkpt lat="45.57278" lon="2.82132">
        <ele>1310.41</ele>
        <time>2011-09-03T08:35:55Z</time>
      </trkpt>
      <trkpt lat="45.57285" lon="2.82155">
        <ele>1311.38</ele>
        <time>2011-09-03T08:35:56Z</time>
      </trkpt>
      <trkpt lat="45.57309" lon="2.82218">
        <ele>1313.3</ele>
        <time>2011-09-03T08:35:59Z</time>
      </trkpt>
      <trkpt lat="45.57303" lon="2.82293">
        <ele>1317.14</ele>
        <time>2011-09-03T08:36:04Z</time>
      </trkpt>
      <trkpt lat="45.57283" lon="2.823">
        <ele>1320.03</ele>
        <time>2011-09-03T08:36:06Z</time>
      </trkpt>
      <trkpt lat="45.57272" lon="2.82294">
        <ele>1320.51</ele>
        <time>2011-09-03T08:36:07Z</time>
      </trkpt>
      <trkpt lat="45.57236" lon="2.82241">
        <ele>1323.39</ele>
        <time>2011-09-03T08:36:11Z</time>
      </trkpt>
      <trkpt lat="45.57223" lon="2.82187">
        <ele>1327.72</ele>
        <time>2011-09-03T08:36:14Z</time>
      </trkpt>
      <trkpt lat="45.57189" lon="2.82135">
        <ele>1333.01</ele>
        <time>2011-09-03T08:36:17Z</time>
      </trkpt>
      <trkpt lat="45.5713" lon="2.82066">
        <ele>1338.29</ele>
        <time>2011-09-03T08:36:21Z</time>
      </trkpt>
      <trkpt lat="45.57102" lon="2.82036">
        <ele>1339.25</ele>
        <time>2011-09-03T08:36:23Z</time>
      </trkpt>
      <trkpt lat="45.57058" lon="2.82028">
        <ele>1339.73</ele>
        <time>2011-09-03T08:36:27Z</time>
      </trkpt>
      <trkpt lat="45.57063" lon="2.82093">
        <ele>1342.14</ele>
        <time>2011-09-03T08:36:31Z</time>
      </trkpt>
      <trkpt lat="45.57084" lon="2.82152">
        <ele>1346.94</ele>
        <time>2011-09-03T08:36:34Z</time>
      </trkpt>
      <trkpt lat="45.57096" lon="2.82187">
        <ele>1348.39</ele>
        <time>2011-09-03T08:36:36Z</time>
      </trkpt>
      <trkpt lat="45.57092" lon="2.82246">
        <ele>1351.75</ele>
        <time>2011-09-03T08:36:40Z</time>
      </trkpt>
      <trkpt lat="45.57061" lon="2.82252">
        <ele>1355.12</ele>
        <time>2011-09-03T08:36:43Z</time>
      </trkpt>
      <trkpt lat="45.57048" lon="2.82245">
        <ele>1357.04</ele>
        <time>2011-09-03T08:36:44Z</time>
      </trkpt>
      <trkpt lat="45.57003" lon="2.82223">
        <ele>1364.73</ele>
        <time>2011-09-03T08:36:47Z</time>
      </trkpt>
      <trkpt lat="45.56953" lon="2.82211">
        <ele>1367.13</ele>
        <time>2011-09-03T08:36:50Z</time>
      </trkpt>
      <trkpt lat="45.56914" lon="2.82178">
        <ele>1368.57</ele>
        <time>2011-09-03T08:36:53Z</time>
      </trkpt>
      <trkpt lat="45.56902" lon="2.82162">
        <ele>1370.5</ele>
        <time>2011-09-03T08:36:54Z</time>
      </trkpt>
      <trkpt lat="45.56862" lon="2.8213">
        <ele>1375.78</ele>
        <time>2011-09-03T08:36:57Z</time>
      </trkpt>
      <trkpt lat="45.5683" lon="2.82118">
        <ele>1377.71</ele>
        <time>2011-09-03T08:36:59Z</time>
      </trkpt>
      <trkpt lat="45.56781" lon="2.82122">
        <ele>1382.51</ele>
        <time>2011-09-03T08:37:02Z</time>
      </trkpt>
      <trkpt lat="45.56749" lon="2.82145">
        <ele>1386.84</ele>
        <time>2011-09-03T08:37:04Z</time>
      </trkpt>
      <trkpt lat="45.56718" lon="2.82177">
        <ele>1390.2</ele>
        <time>2011-09-03T08:37:06Z</time>
      </trkpt>
      <trkpt lat="45.56688" lon="2.8222">
        <ele>1396.45</ele>
        <time>2011-09-03T08:37:08Z</time>
      </trkpt>
      <trkpt lat="45.56628" lon="2.82308">
        <ele>1400.3</ele>
        <time>2011-09-03T08:37:12Z</time>
      </trkpt>
      <trkpt lat="45.56614" lon="2.8233">
        <ele>1400.3</ele>
        <time>2011-09-03T08:37:13Z</time>
      </trkpt>
      <trkpt lat="45.56553" lon="2.82416">
        <ele>1404.14</ele>
        <time>2011-09-03T08:37:17Z</time>
      </trkpt>
      <trkpt lat="45.56539" lon="2.82438">
        <ele>1405.58</ele>
        <time>2011-09-03T08:37:18Z</time>
      </trkpt>
      <trkpt lat="45.56503" lon="2.82519">
        <ele>1411.83</ele>
        <time>2011-09-03T08:37:21Z</time>
      </trkpt>
      <trkpt lat="45.56485" lon="2.82583">
        <ele>1415.68</ele>
        <time>2011-09-03T08:37:23Z</time>
      </trkpt>
      <trkpt lat="45.56476" lon="2.82618">
        <ele>1419.52</ele>
        <time>2011-09-03T08:37:24Z</time>
      </trkpt>
      <trkpt lat="45.5646" lon="2.82686">
        <ele>1422.41</ele>
        <time>2011-09-03T08:37:26Z</time>
      </trkpt>
      <trkpt lat="45.56454" lon="2.82718">
        <ele>1420.97</ele>
        <time>2011-09-03T08:37:27Z</time>
      </trkpt>
      <trkpt lat="45.56449" lon="2.82813">
        <ele>1425.77</ele>
        <time>2011-09-03T08:37:30Z</time>
      </trkpt>
      <trkpt lat="45.56449" lon="2.82845">
        <ele>1427.7</ele>
        <time>2011-09-03T08:37:31Z</time>
      </trkpt>
      <trkpt lat="45.5643" lon="2.82967">
        <ele>1435.39</ele>
        <time>2011-09-03T08:37:35Z</time>
      </trkpt>
      <trkpt lat="45.56398" lon="2.83039">
        <ele>1437.31</ele>
        <time>2011-09-03T08:37:38Z</time>
      </trkpt>
      <trkpt lat="45.56388" lon="2.83059">
        <ele>1436.83</ele>
        <time>2011-09-03T08:37:39Z</time>
      </trkpt>
      <trkpt lat="45.56376" lon="2.83134">
        <ele>1440.19</ele>
        <time>2011-09-03T08:37:43Z</time>
      </trkpt>
      <trkpt lat="45.56392" lon="2.83232">
        <ele>1445.48</ele>
        <time>2011-09-03T08:37:47Z</time>
      </trkpt>
      <trkpt lat="45.56396" lon="2.8326">
        <ele>1445</ele>
        <time>2011-09-03T08:37:48Z</time>
      </trkpt>
      <trkpt lat="45.564" lon="2.8332">
        <ele>1447.4</ele>
        <time>2011-09-03T08:37:50Z</time>
      </trkpt>
      <trkpt lat="45.56402" lon="2.83385">
        <ele>1452.69</ele>
        <time>2011-09-03T08:37:52Z</time>
      </trkpt>
      <trkpt lat="45.56403" lon="2.83418">
        <ele>1451.73</ele>
        <time>2011-09-03T08:37:53Z</time>
      </trkpt>
      <trkpt lat="45.56409" lon="2.8363">
        <ele>1451.73</ele>
        <time>2011-09-03T08:38:00Z</time>
      </trkpt>
      <trkpt lat="45.56371" lon="2.83741">
        <ele>1454.61</ele>
        <time>2011-09-03T08:38:05Z</time>
      </trkpt>
      <trkpt lat="45.56356" lon="2.8376">
        <ele>1454.61</ele>
        <time>2011-09-03T08:38:06Z</time>
      </trkpt>
      <trkpt lat="45.56338" lon="2.83778">
        <ele>1456.53</ele>
        <time>2011-09-03T08:38:07Z</time>
      </trkpt>
      <trkpt lat="45.56179" lon="2.83861">
        <ele>1452.69</ele>
        <time>2011-09-03T08:38:15Z</time>
      </trkpt>
      <trkpt lat="45.56133" lon="2.83904">
        <ele>1448.36</ele>
        <time>2011-09-03T08:38:18Z</time>
      </trkpt>
      <trkpt lat="45.56099" lon="2.83971">
        <ele>1445.48</ele>
        <time>2011-09-03T08:38:21Z</time>
      </trkpt>
      <trkpt lat="45.5609" lon="2.83994">
        <ele>1442.6</ele>
        <time>2011-09-03T08:38:22Z</time>
      </trkpt>
      <trkpt lat="45.5605" lon="2.84076">
        <ele>1437.31</ele>
        <time>2011-09-03T08:38:26Z</time>
      </trkpt>
      <trkpt lat="45.56035" lon="2.84093">
        <ele>1436.83</ele>
        <time>2011-09-03T08:38:27Z</time>
      </trkpt>
      <trkpt lat="45.56006" lon="2.84128">
        <ele>1432.5</ele>
        <time>2011-09-03T08:38:29Z</time>
      </trkpt>
      <trkpt lat="45.55977" lon="2.84161">
        <ele>1432.02</ele>
        <time>2011-09-03T08:38:31Z</time>
      </trkpt>
      <trkpt lat="45.55934" lon="2.8419">
        <ele>1427.21</ele>
        <time>2011-09-03T08:38:34Z</time>
      </trkpt>
      <trkpt lat="45.55919" lon="2.84191">
        <ele>1426.25</ele>
        <time>2011-09-03T08:38:35Z</time>
      </trkpt>
      <trkpt lat="45.55865" lon="2.84254">
        <ele>1419.52</ele>
        <time>2011-09-03T08:38:41Z</time>
      </trkpt>
      <trkpt lat="45.55857" lon="2.84326">
        <ele>1417.12</ele>
        <time>2011-09-03T08:38:44Z</time>
      </trkpt>
      <trkpt lat="45.55853" lon="2.84351">
        <ele>1415.2</ele>
        <time>2011-09-03T08:38:45Z</time>
      </trkpt>
      <trkpt lat="45.55852" lon="2.84434">
        <ele>1413.28</ele>
        <time>2011-09-03T08:38:48Z</time>
      </trkpt>
      <trkpt lat="45.55846" lon="2.84522">
        <ele>1408.47</ele>
        <time>2011-09-03T08:38:51Z</time>
      </trkpt>
      <trkpt lat="45.55819" lon="2.84594">
        <ele>1406.07</ele>
        <time>2011-09-03T08:38:54Z</time>
      </trkpt>
      <trkpt lat="45.55795" lon="2.84641">
        <ele>1405.1</ele>
        <time>2011-09-03T08:38:56Z</time>
      </trkpt>
      <trkpt lat="45.55774" lon="2.8469">
        <ele>1401.26</ele>
        <time>2011-09-03T08:38:58Z</time>
      </trkpt>
      <trkpt lat="45.55765" lon="2.84713">
        <ele>1399.34</ele>
        <time>2011-09-03T08:38:59Z</time>
      </trkpt>
      <trkpt lat="45.55731" lon="2.84768">
        <ele>1390.2</ele>
        <time>2011-09-03T08:39:02Z</time>
      </trkpt>
      <trkpt lat="45.55725" lon="2.84828">
        <ele>1387.8</ele>
        <time>2011-09-03T08:39:05Z</time>
      </trkpt>
      <trkpt lat="45.55732" lon="2.84895">
        <ele>1383.47</ele>
        <time>2011-09-03T08:39:08Z</time>
      </trkpt>
      <trkpt lat="45.55717" lon="2.84936">
        <ele>1382.03</ele>
        <time>2011-09-03T08:39:10Z</time>
      </trkpt>
      <trkpt lat="45.55669" lon="2.84961">
        <ele>1384.44</ele>
        <time>2011-09-03T08:39:13Z</time>
      </trkpt>
      <trkpt lat="45.5562" lon="2.84975">
        <ele>1376.75</ele>
        <time>2011-09-03T08:39:17Z</time>
      </trkpt>
      <trkpt lat="45.55619" lon="2.85007">
        <ele>1372.42</ele>
        <time>2011-09-03T08:39:19Z</time>
      </trkpt>
      <trkpt lat="45.55627" lon="2.85021">
        <ele>1372.9</ele>
        <time>2011-09-03T08:39:20Z</time>
      </trkpt>
      <trkpt lat="45.55641" lon="2.85034">
        <ele>1371.94</ele>
        <time>2011-09-03T08:39:21Z</time>
      </trkpt>
      <trkpt lat="45.55693" lon="2.85066">
        <ele>1368.57</ele>
        <time>2011-09-03T08:39:24Z</time>
      </trkpt>
      <trkpt lat="45.55713" lon="2.85074">
        <ele>1369.05</ele>
        <time>2011-09-03T08:39:25Z</time>
      </trkpt>
      <trkpt lat="45.55753" lon="2.85084">
        <ele>1364.73</ele>
        <time>2011-09-03T08:39:27Z</time>
      </trkpt>
      <trkpt lat="45.5582" lon="2.85055">
        <ele>1359.44</ele>
        <time>2011-09-03T08:39:31Z</time>
      </trkpt>
      <trkpt lat="45.55894" lon="2.8502">
        <ele>1354.63</ele>
        <time>2011-09-03T08:39:36Z</time>
      </trkpt>
      <trkpt lat="45.55935" lon="2.85004">
        <ele>1351.75</ele>
        <time>2011-09-03T08:39:39Z</time>
      </trkpt>
      <trkpt lat="45.55975" lon="2.84996">
        <ele>1348.39</ele>
        <time>2011-09-03T08:39:42Z</time>
      </trkpt>
      <trkpt lat="45.56" lon="2.85027">
        <ele>1347.43</ele>
        <time>2011-09-03T08:39:44Z</time>
      </trkpt>
      <trkpt lat="45.56034" lon="2.85126">
        <ele>1344.06</ele>
        <time>2011-09-03T08:39:48Z</time>
      </trkpt>
      <trkpt lat="45.56034" lon="2.85154">
        <ele>1343.58</ele>
        <time>2011-09-03T08:39:49Z</time>
      </trkpt>
      <trkpt lat="45.56013" lon="2.85236">
        <ele>1341.66</ele>
        <time>2011-09-03T08:39:52Z</time>
      </trkpt>
      <trkpt lat="45.55984" lon="2.85306">
        <ele>1334.45</ele>
        <time>2011-09-03T08:39:55Z</time>
      </trkpt>
      <trkpt lat="45.55974" lon="2.85349">
        <ele>1328.68</ele>
        <time>2011-09-03T08:39:57Z</time>
      </trkpt>
      <trkpt lat="45.55984" lon="2.85388">
        <ele>1326.28</ele>
        <time>2011-09-03T08:39:59Z</time>
      </trkpt>
      <trkpt lat="45.5605" lon="2.85431">
        <ele>1321.95</ele>
        <time>2011-09-03T08:40:03Z</time>
      </trkpt>
      <trkpt lat="45.56064" lon="2.8545">
        <ele>1321.47</ele>
        <time>2011-09-03T08:40:04Z</time>
      </trkpt>
      <trkpt lat="45.56102" lon="2.85513">
        <ele>1318.1</ele>
        <time>2011-09-03T08:40:07Z</time>
      </trkpt>
      <trkpt lat="45.56114" lon="2.8553">
        <ele>1315.7</ele>
        <time>2011-09-03T08:40:08Z</time>
      </trkpt>
      <trkpt lat="45.56172" lon="2.85549">
        <ele>1308.97</ele>
        <time>2011-09-03T08:40:12Z</time>
      </trkpt>
      <trkpt lat="45.56213" lon="2.85567">
        <ele>1302.24</ele>
        <time>2011-09-03T08:40:15Z</time>
      </trkpt>
      <trkpt lat="45.56222" lon="2.85585">
        <ele>1303.2</ele>
        <time>2011-09-03T08:40:16Z</time>
      </trkpt>
      <trkpt lat="45.5623" lon="2.85608">
        <ele>1303.69</ele>
        <time>2011-09-03T08:40:17Z</time>
      </trkpt>
      <trkpt lat="45.56253" lon="2.85683">
        <ele>1299.36</ele>
        <time>2011-09-03T08:40:20Z</time>
      </trkpt>
      <trkpt lat="45.56239" lon="2.85797">
        <ele>1295.99</ele>
        <time>2011-09-03T08:40:25Z</time>
      </trkpt>
      <trkpt lat="45.56216" lon="2.85843">
        <ele>1293.59</ele>
        <time>2011-09-03T08:40:27Z</time>
      </trkpt>
      <trkpt lat="45.56198" lon="2.85891">
        <ele>1290.71</ele>
        <time>2011-09-03T08:40:29Z</time>
      </trkpt>
      <trkpt lat="45.5619" lon="2.85913">
        <ele>1287.82</ele>
        <time>2011-09-03T08:40:30Z</time>
      </trkpt>
      <trkpt lat="45.56183" lon="2.85972">
        <ele>1282.06</ele>
        <time>2011-09-03T08:40:33Z</time>
      </trkpt>
      <trkpt lat="45.56191" lon="2.85991">
        <ele>1281.57</ele>
        <time>2011-09-03T08:40:34Z</time>
      </trkpt>
      <trkpt lat="45.56194" lon="2.86093">
        <ele>1275.81</ele>
        <time>2011-09-03T08:40:40Z</time>
      </trkpt>
      <trkpt lat="45.56167" lon="2.86098">
        <ele>1273.88</ele>
        <time>2011-09-03T08:40:42Z</time>
      </trkpt>
      <trkpt lat="45.56152" lon="2.86094">
        <ele>1273.88</ele>
        <time>2011-09-03T08:40:43Z</time>
      </trkpt>
      <trkpt lat="45.56098" lon="2.86086">
        <ele>1268.12</ele>
        <time>2011-09-03T08:40:47Z</time>
      </trkpt>
      <trkpt lat="45.56081" lon="2.86112">
        <ele>1266.19</ele>
        <time>2011-09-03T08:40:49Z</time>
      </trkpt>
      <trkpt lat="45.56096" lon="2.86164">
        <ele>1261.39</ele>
        <time>2011-09-03T08:40:52Z</time>
      </trkpt>
      <trkpt lat="45.56113" lon="2.86193">
        <ele>1258.02</ele>
        <time>2011-09-03T08:40:54Z</time>
      </trkpt>
      <trkpt lat="45.56111" lon="2.86225">
        <ele>1255.14</ele>
        <time>2011-09-03T08:40:56Z</time>
      </trkpt>
      <trkpt lat="45.56089" lon="2.8624">
        <ele>1255.14</ele>
        <time>2011-09-03T08:40:58Z</time>
      </trkpt>
      <trkpt lat="45.56058" lon="2.86297">
        <ele>1249.37</ele>
        <time>2011-09-03T08:41:03Z</time>
      </trkpt>
      <trkpt lat="45.56062" lon="2.8632">
        <ele>1249.37</ele>
        <time>2011-09-03T08:41:04Z</time>
      </trkpt>
      <trkpt lat="45.56105" lon="2.86428">
        <ele>1246.49</ele>
        <time>2011-09-03T08:41:09Z</time>
      </trkpt>
      <trkpt lat="45.56126" lon="2.86491">
        <ele>1240.72</ele>
        <time>2011-09-03T08:41:12Z</time>
      </trkpt>
      <trkpt lat="45.56125" lon="2.86514">
        <ele>1238.8</ele>
        <time>2011-09-03T08:41:13Z</time>
      </trkpt>
      <trkpt lat="45.56147" lon="2.86584">
        <ele>1232.07</ele>
        <time>2011-09-03T08:41:18Z</time>
      </trkpt>
      <trkpt lat="45.56165" lon="2.86564">
        <ele>1229.66</ele>
        <time>2011-09-03T08:41:20Z</time>
      </trkpt>
      <trkpt lat="45.56228" lon="2.86479">
        <ele>1227.74</ele>
        <time>2011-09-03T08:41:25Z</time>
      </trkpt>
      <trkpt lat="45.56266" lon="2.86457">
        <ele>1224.38</ele>
        <time>2011-09-03T08:41:27Z</time>
      </trkpt>
      <trkpt lat="45.56284" lon="2.86448">
        <ele>1221.97</ele>
        <time>2011-09-03T08:41:28Z</time>
      </trkpt>
      <trkpt lat="45.56332" lon="2.86447">
        <ele>1216.69</ele>
        <time>2011-09-03T08:41:31Z</time>
      </trkpt>
      <trkpt lat="45.56356" lon="2.86478">
        <ele>1212.36</ele>
        <time>2011-09-03T08:41:33Z</time>
      </trkpt>
      <trkpt lat="45.56362" lon="2.86524">
        <ele>1210.92</ele>
        <time>2011-09-03T08:41:35Z</time>
      </trkpt>
      <trkpt lat="45.56359" lon="2.86611">
        <ele>1210.92</ele>
        <time>2011-09-03T08:41:38Z</time>
      </trkpt>
      <trkpt lat="45.56347" lon="2.86672">
        <ele>1201.79</ele>
        <time>2011-09-03T08:41:41Z</time>
      </trkpt>
      <trkpt lat="45.56336" lon="2.86682">
        <ele>1202.27</ele>
        <time>2011-09-03T08:41:42Z</time>
      </trkpt>
      <trkpt lat="45.5627" lon="2.86694">
        <ele>1198.9</ele>
        <time>2011-09-03T08:41:46Z</time>
      </trkpt>
      <trkpt lat="45.56238" lon="2.86722">
        <ele>1197.46</ele>
        <time>2011-09-03T08:41:48Z</time>
      </trkpt>
      <trkpt lat="45.56208" lon="2.86801">
        <ele>1195.54</ele>
        <time>2011-09-03T08:41:51Z</time>
      </trkpt>
      <trkpt lat="45.56195" lon="2.86886">
        <ele>1187.85</ele>
        <time>2011-09-03T08:41:54Z</time>
      </trkpt>
      <trkpt lat="45.56167" lon="2.8697">
        <ele>1182.08</ele>
        <time>2011-09-03T08:41:58Z</time>
      </trkpt>
      <trkpt lat="45.56125" lon="2.87062">
        <ele>1180.64</ele>
        <time>2011-09-03T08:42:02Z</time>
      </trkpt>
      <trkpt lat="45.56101" lon="2.87138">
        <ele>1172.47</ele>
        <time>2011-09-03T08:42:05Z</time>
      </trkpt>
      <trkpt lat="45.56094" lon="2.87161">
        <ele>1169.1</ele>
        <time>2011-09-03T08:42:06Z</time>
      </trkpt>
      <trkpt lat="45.56075" lon="2.87201">
        <ele>1167.66</ele>
        <time>2011-09-03T08:42:08Z</time>
      </trkpt>
      <trkpt lat="45.56033" lon="2.87251">
        <ele>1164.29</ele>
        <time>2011-09-03T08:42:11Z</time>
      </trkpt>
      <trkpt lat="45.55987" lon="2.87318">
        <ele>1158.05</ele>
        <time>2011-09-03T08:42:15Z</time>
      </trkpt>
      <trkpt lat="45.55958" lon="2.87368">
        <ele>1151.32</ele>
        <time>2011-09-03T08:42:18Z</time>
      </trkpt>
      <trkpt lat="45.55953" lon="2.87387">
        <ele>1149.87</ele>
        <time>2011-09-03T08:42:19Z</time>
      </trkpt>
      <trkpt lat="45.55908" lon="2.87439">
        <ele>1143.63</ele>
        <time>2011-09-03T08:42:25Z</time>
      </trkpt>
      <trkpt lat="45.55884" lon="2.87425">
        <ele>1139.78</ele>
        <time>2011-09-03T08:42:28Z</time>
      </trkpt>
      <trkpt lat="45.55879" lon="2.8742">
        <ele>1139.3</ele>
        <time>2011-09-03T08:42:29Z</time>
      </trkpt>
      <trkpt lat="45.55864" lon="2.87398">
        <ele>1138.82</ele>
        <time>2011-09-03T08:42:38Z</time>
      </trkpt>
      <trkpt lat="45.55851" lon="2.87365">
        <ele>1139.78</ele>
        <time>2011-09-03T08:42:54Z</time>
      </trkpt>
      <trkpt lat="45.5583" lon="2.87316">
        <ele>1144.11</ele>
        <time>2011-09-03T08:42:57Z</time>
      </trkpt>
      <trkpt lat="45.55757" lon="2.87215">
        <ele>1138.82</ele>
        <time>2011-09-03T08:43:03Z</time>
      </trkpt>
      <trkpt lat="45.55746" lon="2.87198">
        <ele>1138.82</ele>
        <time>2011-09-03T08:43:04Z</time>
      </trkpt>
      <trkpt lat="45.55713" lon="2.87152">
        <ele>1134.97</ele>
        <time>2011-09-03T08:43:07Z</time>
      </trkpt>
      <trkpt lat="45.55702" lon="2.8714">
        <ele>1131.61</ele>
        <time>2011-09-03T08:43:08Z</time>
      </trkpt>
      <trkpt lat="45.55673" lon="2.87108">
        <ele>1128.73</ele>
        <time>2011-09-03T08:43:11Z</time>
      </trkpt>
      <trkpt lat="45.5559" lon="2.87027">
        <ele>1124.4</ele>
        <time>2011-09-03T08:43:18Z</time>
      </trkpt>
      <trkpt lat="45.55566" lon="2.87003">
        <ele>1121.03</ele>
        <time>2011-09-03T08:43:20Z</time>
      </trkpt>
      <trkpt lat="45.55553" lon="2.86992">
        <ele>1121.52</ele>
        <time>2011-09-03T08:43:21Z</time>
      </trkpt>
      <trkpt lat="45.5549" lon="2.86923">
        <ele>1124.88</ele>
        <time>2011-09-03T08:43:26Z</time>
      </trkpt>
      <trkpt lat="45.55465" lon="2.86886">
        <ele>1128.24</ele>
        <time>2011-09-03T08:43:28Z</time>
      </trkpt>
      <trkpt lat="45.55439" lon="2.86847">
        <ele>1133.05</ele>
        <time>2011-09-03T08:43:30Z</time>
      </trkpt>
      <trkpt lat="45.55425" lon="2.86825">
        <ele>1135.94</ele>
        <time>2011-09-03T08:43:31Z</time>
      </trkpt>
      <trkpt lat="45.55399" lon="2.86783">
        <ele>1135.94</ele>
        <time>2011-09-03T08:43:33Z</time>
      </trkpt>
      <trkpt lat="45.55352" lon="2.86737">
        <ele>1140.26</ele>
        <time>2011-09-03T08:43:36Z</time>
      </trkpt>
      <trkpt lat="45.55313" lon="2.86725">
        <ele>1143.63</ele>
        <time>2011-09-03T08:43:38Z</time>
      </trkpt>
      <trkpt lat="45.55233" lon="2.8671">
        <ele>1148.43</ele>
        <time>2011-09-03T08:43:42Z</time>
      </trkpt>
      <trkpt lat="45.55175" lon="2.86696">
        <ele>1148.91</ele>
        <time>2011-09-03T08:43:45Z</time>
      </trkpt>
      <trkpt lat="45.55123" lon="2.86659">
        <ele>1146.51</ele>
        <time>2011-09-03T08:43:48Z</time>
      </trkpt>
      <trkpt lat="45.55108" lon="2.86641">
        <ele>1146.51</ele>
        <time>2011-09-03T08:43:49Z</time>
      </trkpt>
      <trkpt lat="45.55084" lon="2.86597">
        <ele>1143.14</ele>
        <time>2011-09-03T08:43:51Z</time>
      </trkpt>
      <trkpt lat="45.5505" lon="2.86532">
        <ele>1145.07</ele>
        <time>2011-09-03T08:43:54Z</time>
      </trkpt>
      <trkpt lat="45.54988" lon="2.865">
        <ele>1145.55</ele>
        <time>2011-09-03T08:43:59Z</time>
      </trkpt>
      <trkpt lat="45.54961" lon="2.86469">
        <ele>1148.43</ele>
        <time>2011-09-03T08:44:03Z</time>
      </trkpt>
      <trkpt lat="45.54958" lon="2.86372">
        <ele>1151.8</ele>
        <time>2011-09-03T08:44:08Z</time>
      </trkpt>
      <trkpt lat="45.54941" lon="2.86339">
        <ele>1153.72</ele>
        <time>2011-09-03T08:44:10Z</time>
      </trkpt>
      <trkpt lat="45.54919" lon="2.86258">
        <ele>1157.08</ele>
        <time>2011-09-03T08:44:15Z</time>
      </trkpt>
      <trkpt lat="45.5489" lon="2.86194">
        <ele>1157.56</ele>
        <time>2011-09-03T08:44:19Z</time>
      </trkpt>
      <trkpt lat="45.54863" lon="2.86194">
        <ele>1159.01</ele>
        <time>2011-09-03T08:44:21Z</time>
      </trkpt>
      <trkpt lat="45.54758" lon="2.86203">
        <ele>1162.37</ele>
        <time>2011-09-03T08:44:28Z</time>
      </trkpt>
      <trkpt lat="45.54641" lon="2.86171">
        <ele>1164.29</ele>
        <time>2011-09-03T08:44:35Z</time>
      </trkpt>
      <trkpt lat="45.54593" lon="2.86137">
        <ele>1166.22</ele>
        <time>2011-09-03T08:44:39Z</time>
      </trkpt>
      <trkpt lat="45.54575" lon="2.86115">
        <ele>1167.66</ele>
        <time>2011-09-03T08:44:41Z</time>
      </trkpt>
      <trkpt lat="45.54567" lon="2.86104">
        <ele>1166.22</ele>
        <time>2011-09-03T08:44:42Z</time>
      </trkpt>
      <trkpt lat="45.54558" lon="2.86092">
        <ele>1164.77</ele>
        <time>2011-09-03T08:44:43Z</time>
      </trkpt>
      <trkpt lat="45.5451" lon="2.8602">
        <ele>1164.29</ele>
        <time>2011-09-03T08:44:48Z</time>
      </trkpt>
      <trkpt lat="45.5448" lon="2.85992">
        <ele>1164.77</ele>
        <time>2011-09-03T08:44:51Z</time>
      </trkpt>
      <trkpt lat="45.54455" lon="2.85978">
        <ele>1164.29</ele>
        <time>2011-09-03T08:44:53Z</time>
      </trkpt>
      <trkpt lat="45.54422" lon="2.85982">
        <ele>1161.41</ele>
        <time>2011-09-03T08:44:56Z</time>
      </trkpt>
      <trkpt lat="45.54411" lon="2.85991">
        <ele>1161.41</ele>
        <time>2011-09-03T08:44:57Z</time>
      </trkpt>
      <trkpt lat="45.54365" lon="2.85989">
        <ele>1159.49</ele>
        <time>2011-09-03T08:45:01Z</time>
      </trkpt>
      <trkpt lat="45.54318" lon="2.85916">
        <ele>1156.6</ele>
        <time>2011-09-03T08:45:06Z</time>
      </trkpt>
      <trkpt lat="45.54306" lon="2.85912">
        <ele>1155.64</ele>
        <time>2011-09-03T08:45:07Z</time>
      </trkpt>
      <trkpt lat="45.54249" lon="2.85883">
        <ele>1150.35</ele>
        <time>2011-09-03T08:45:12Z</time>
      </trkpt>
      <trkpt lat="45.54249" lon="2.85865">
        <ele>1150.35</ele>
        <time>2011-09-03T08:45:13Z</time>
      </trkpt>
      <trkpt lat="45.54209" lon="2.85725">
        <ele>1147.95</ele>
        <time>2011-09-03T08:45:20Z</time>
      </trkpt>
      <trkpt lat="45.54157" lon="2.85656">
        <ele>1142.18</ele>
        <time>2011-09-03T08:45:25Z</time>
      </trkpt>
      <trkpt lat="45.54136" lon="2.85655">
        <ele>1140.74</ele>
        <time>2011-09-03T08:45:27Z</time>
      </trkpt>
      <trkpt lat="45.54103" lon="2.85719">
        <ele>1140.74</ele>
        <time>2011-09-03T08:45:32Z</time>
      </trkpt>
      <trkpt lat="45.54105" lon="2.85739">
        <ele>1140.26</ele>
        <time>2011-09-03T08:45:33Z</time>
      </trkpt>
      <trkpt lat="45.54122" lon="2.8586">
        <ele>1138.34</ele>
        <time>2011-09-03T08:45:40Z</time>
      </trkpt>
      <trkpt lat="45.54123" lon="2.85875">
        <ele>1139.3</ele>
        <time>2011-09-03T08:45:41Z</time>
      </trkpt>
      <trkpt lat="45.54121" lon="2.85888">
        <ele>1139.3</ele>
        <time>2011-09-03T08:45:42Z</time>
      </trkpt>
      <trkpt lat="45.54083" lon="2.85957">
        <ele>1138.82</ele>
        <time>2011-09-03T08:45:46Z</time>
      </trkpt>
      <trkpt lat="45.54065" lon="2.85997">
        <ele>1136.9</ele>
        <time>2011-09-03T08:45:48Z</time>
      </trkpt>
      <trkpt lat="45.54064" lon="2.86088">
        <ele>1140.74</ele>
        <time>2011-09-03T08:45:52Z</time>
      </trkpt>
      <trkpt lat="45.54071" lon="2.86163">
        <ele>1143.63</ele>
        <time>2011-09-03T08:45:55Z</time>
      </trkpt>
      <trkpt lat="45.54124" lon="2.86288">
        <ele>1147.95</ele>
        <time>2011-09-03T08:46:01Z</time>
      </trkpt>
      <trkpt lat="45.54189" lon="2.86384">
        <ele>1146.51</ele>
        <time>2011-09-03T08:46:08Z</time>
      </trkpt>
      <trkpt lat="45.54211" lon="2.86451">
        <ele>1146.99</ele>
        <time>2011-09-03T08:46:12Z</time>
      </trkpt>
      <trkpt lat="45.54235" lon="2.8655">
        <ele>1147.47</ele>
        <time>2011-09-03T08:46:17Z</time>
      </trkpt>
      <trkpt lat="45.54296" lon="2.86645">
        <ele>1147.47</ele>
        <time>2011-09-03T08:46:23Z</time>
      </trkpt>
      <trkpt lat="45.54306" lon="2.86659">
        <ele>1146.51</ele>
        <time>2011-09-03T08:46:24Z</time>
      </trkpt>
      <trkpt lat="45.54336" lon="2.86751">
        <ele>1143.14</ele>
        <time>2011-09-03T08:46:29Z</time>
      </trkpt>
      <trkpt lat="45.54343" lon="2.86792">
        <ele>1139.3</ele>
        <time>2011-09-03T08:46:31Z</time>
      </trkpt>
      <trkpt lat="45.54351" lon="2.86831">
        <ele>1137.38</ele>
        <time>2011-09-03T08:46:33Z</time>
      </trkpt>
      <trkpt lat="45.54399" lon="2.86935">
        <ele>1134.01</ele>
        <time>2011-09-03T08:46:40Z</time>
      </trkpt>
      <trkpt lat="45.54403" lon="2.86941">
        <ele>1133.53</ele>
        <time>2011-09-03T08:46:41Z</time>
      </trkpt>
      <trkpt lat="45.54414" lon="2.86954">
        <ele>1134.01</ele>
        <time>2011-09-03T08:46:44Z</time>
      </trkpt>
      <trkpt lat="45.54461" lon="2.87019">
        <ele>1132.09</ele>
        <time>2011-09-03T08:46:52Z</time>
      </trkpt>
      <trkpt lat="45.54491" lon="2.87068">
        <ele>1130.65</ele>
        <time>2011-09-03T08:46:55Z</time>
      </trkpt>
      <trkpt lat="45.54561" lon="2.87227">
        <ele>1130.65</ele>
        <time>2011-09-03T08:47:02Z</time>
      </trkpt>
      <trkpt lat="45.54601" lon="2.87289">
        <ele>1133.53</ele>
        <time>2011-09-03T08:47:05Z</time>
      </trkpt>
      <trkpt lat="45.54629" lon="2.87328">
        <ele>1132.57</ele>
        <time>2011-09-03T08:47:07Z</time>
      </trkpt>
      <trkpt lat="45.54685" lon="2.87431">
        <ele>1132.57</ele>
        <time>2011-09-03T08:47:12Z</time>
      </trkpt>
      <trkpt lat="45.54694" lon="2.87511">
        <ele>1133.53</ele>
        <time>2011-09-03T08:47:16Z</time>
      </trkpt>
      <trkpt lat="45.54677" lon="2.8757">
        <ele>1138.34</ele>
        <time>2011-09-03T08:47:19Z</time>
      </trkpt>
      <trkpt lat="45.54669" lon="2.87641">
        <ele>1144.59</ele>
        <time>2011-09-03T08:47:22Z</time>
      </trkpt>
      <trkpt lat="45.54678" lon="2.87695">
        <ele>1149.39</ele>
        <time>2011-09-03T08:47:24Z</time>
      </trkpt>
      <trkpt lat="45.54686" lon="2.87722">
        <ele>1149.87</ele>
        <time>2011-09-03T08:47:25Z</time>
      </trkpt>
      <trkpt lat="45.54732" lon="2.87824">
        <ele>1155.16</ele>
        <time>2011-09-03T08:47:29Z</time>
      </trkpt>
      <trkpt lat="45.54766" lon="2.87896">
        <ele>1159.97</ele>
        <time>2011-09-03T08:47:32Z</time>
      </trkpt>
      <trkpt lat="45.54789" lon="2.87947">
        <ele>1163.33</ele>
        <time>2011-09-03T08:47:34Z</time>
      </trkpt>
      <trkpt lat="45.5481" lon="2.88004">
        <ele>1169.1</ele>
        <time>2011-09-03T08:47:36Z</time>
      </trkpt>
      <trkpt lat="45.54821" lon="2.88035">
        <ele>1172.47</ele>
        <time>2011-09-03T08:47:37Z</time>
      </trkpt>
      <trkpt lat="45.54832" lon="2.88067">
        <ele>1175.83</ele>
        <time>2011-09-03T08:47:38Z</time>
      </trkpt>
      <trkpt lat="45.54863" lon="2.8816">
        <ele>1180.16</ele>
        <time>2011-09-03T08:47:41Z</time>
      </trkpt>
      <trkpt lat="45.54888" lon="2.88248">
        <ele>1184.48</ele>
        <time>2011-09-03T08:47:44Z</time>
      </trkpt>
      <trkpt lat="45.54896" lon="2.88276">
        <ele>1184.48</ele>
        <time>2011-09-03T08:47:45Z</time>
      </trkpt>
      <trkpt lat="45.54945" lon="2.8837">
        <ele>1188.33</ele>
        <time>2011-09-03T08:47:49Z</time>
      </trkpt>
      <trkpt lat="45.5497" lon="2.88406">
        <ele>1188.81</ele>
        <time>2011-09-03T08:47:51Z</time>
      </trkpt>
      <trkpt lat="45.54993" lon="2.88468">
        <ele>1193.61</ele>
        <time>2011-09-03T08:47:54Z</time>
      </trkpt>
      <trkpt lat="45.54993" lon="2.88514">
        <ele>1197.46</ele>
        <time>2011-09-03T08:47:56Z</time>
      </trkpt>
      <trkpt lat="45.54964" lon="2.88579">
        <ele>1197.94</ele>
        <time>2011-09-03T08:48:00Z</time>
      </trkpt>
      <trkpt lat="45.5495" lon="2.88585">
        <ele>1198.42</ele>
        <time>2011-09-03T08:48:01Z</time>
      </trkpt>
      <trkpt lat="45.54915" lon="2.88591">
        <ele>1200.34</ele>
        <time>2011-09-03T08:48:03Z</time>
      </trkpt>
      <trkpt lat="45.54848" lon="2.88649">
        <ele>1197.46</ele>
        <time>2011-09-03T08:48:07Z</time>
      </trkpt>
      <trkpt lat="45.54812" lon="2.88719">
        <ele>1191.69</ele>
        <time>2011-09-03T08:48:10Z</time>
      </trkpt>
      <trkpt lat="45.54808" lon="2.8881">
        <ele>1185.92</ele>
        <time>2011-09-03T08:48:14Z</time>
      </trkpt>
      <trkpt lat="45.54827" lon="2.89022">
        <ele>1183.52</ele>
        <time>2011-09-03T08:48:21Z</time>
      </trkpt>
      <trkpt lat="45.54805" lon="2.8916">
        <ele>1182.08</ele>
        <time>2011-09-03T08:48:25Z</time>
      </trkpt>
      <trkpt lat="45.54779" lon="2.89252">
        <ele>1175.83</ele>
        <time>2011-09-03T08:48:28Z</time>
      </trkpt>
      <trkpt lat="45.54768" lon="2.89342">
        <ele>1171.5</ele>
        <time>2011-09-03T08:48:31Z</time>
      </trkpt>
      <trkpt lat="45.5474" lon="2.89498">
        <ele>1168.62</ele>
        <time>2011-09-03T08:48:36Z</time>
      </trkpt>
      <trkpt lat="45.54722" lon="2.89555">
        <ele>1166.7</ele>
        <time>2011-09-03T08:48:38Z</time>
      </trkpt>
      <trkpt lat="45.54685" lon="2.89631">
        <ele>1164.77</ele>
        <time>2011-09-03T08:48:41Z</time>
      </trkpt>
      <trkpt lat="45.54662" lon="2.89677">
        <ele>1160.45</ele>
        <time>2011-09-03T08:48:43Z</time>
      </trkpt>
      <trkpt lat="45.54651" lon="2.89701">
        <ele>1159.49</ele>
        <time>2011-09-03T08:48:44Z</time>
      </trkpt>
      <trkpt lat="45.54639" lon="2.89851">
        <ele>1164.29</ele>
        <time>2011-09-03T08:48:49Z</time>
      </trkpt>
      <trkpt lat="45.54657" lon="2.90064">
        <ele>1160.45</ele>
        <time>2011-09-03T08:48:56Z</time>
      </trkpt>
      <trkpt lat="45.54656" lon="2.90109">
        <ele>1158.53</ele>
        <time>2011-09-03T08:48:58Z</time>
      </trkpt>
      <trkpt lat="45.54624" lon="2.90188">
        <ele>1154.2</ele>
        <time>2011-09-03T08:49:03Z</time>
      </trkpt>
      <trkpt lat="45.54598" lon="2.90194">
        <ele>1152.76</ele>
        <time>2011-09-03T08:49:05Z</time>
      </trkpt>
      <trkpt lat="45.54568" lon="2.9019">
        <ele>1154.68</ele>
        <time>2011-09-03T08:49:07Z</time>
      </trkpt>
      <trkpt lat="45.54551" lon="2.90187">
        <ele>1154.68</ele>
        <time>2011-09-03T08:49:08Z</time>
      </trkpt>
      <trkpt lat="45.54425" lon="2.90127">
        <ele>1151.32</ele>
        <time>2011-09-03T08:49:15Z</time>
      </trkpt>
      <trkpt lat="45.54409" lon="2.90121">
        <ele>1149.87</ele>
        <time>2011-09-03T08:49:16Z</time>
      </trkpt>
      <trkpt lat="45.54355" lon="2.90136">
        <ele>1147.47</ele>
        <time>2011-09-03T08:49:20Z</time>
      </trkpt>
      <trkpt lat="45.54347" lon="2.90195">
        <ele>1152.28</ele>
        <time>2011-09-03T08:49:23Z</time>
      </trkpt>
      <trkpt lat="45.54369" lon="2.90302">
        <ele>1158.53</ele>
        <time>2011-09-03T08:49:27Z</time>
      </trkpt>
      <trkpt lat="45.54426" lon="2.90473">
        <ele>1164.29</ele>
        <time>2011-09-03T08:49:33Z</time>
      </trkpt>
      <trkpt lat="45.54449" lon="2.90565">
        <ele>1167.66</ele>
        <time>2011-09-03T08:49:36Z</time>
      </trkpt>
      <trkpt lat="45.54455" lon="2.90596">
        <ele>1167.18</ele>
        <time>2011-09-03T08:49:37Z</time>
      </trkpt>
      <trkpt lat="45.54468" lon="2.90674">
        <ele>1165.26</ele>
        <time>2011-09-03T08:49:40Z</time>
      </trkpt>
      <trkpt lat="45.54465" lon="2.90733">
        <ele>1166.7</ele>
        <time>2011-09-03T08:49:43Z</time>
      </trkpt>
      <trkpt lat="45.54453" lon="2.90771">
        <ele>1167.66</ele>
        <time>2011-09-03T08:49:45Z</time>
      </trkpt>
      <trkpt lat="45.54396" lon="2.90916">
        <ele>1166.22</ele>
        <time>2011-09-03T08:49:52Z</time>
      </trkpt>
      <trkpt lat="45.54359" lon="2.91064">
        <ele>1164.29</ele>
        <time>2011-09-03T08:49:59Z</time>
      </trkpt>
      <trkpt lat="45.54315" lon="2.91197">
        <ele>1167.18</ele>
        <time>2011-09-03T08:50:04Z</time>
      </trkpt>
      <trkpt lat="45.54246" lon="2.91347">
        <ele>1170.06</ele>
        <time>2011-09-03T08:50:10Z</time>
      </trkpt>
      <trkpt lat="45.54122" lon="2.91512">
        <ele>1170.54</ele>
        <time>2011-09-03T08:50:17Z</time>
      </trkpt>
      <trkpt lat="45.54026" lon="2.9161">
        <ele>1167.66</ele>
        <time>2011-09-03T08:50:22Z</time>
      </trkpt>
      <trkpt lat="45.53954" lon="2.91686">
        <ele>1169.1</ele>
        <time>2011-09-03T08:50:26Z</time>
      </trkpt>
      <trkpt lat="45.53844" lon="2.91798">
        <ele>1166.22</ele>
        <time>2011-09-03T08:50:32Z</time>
      </trkpt>
      <trkpt lat="45.53763" lon="2.91845">
        <ele>1160.45</ele>
        <time>2011-09-03T08:50:36Z</time>
      </trkpt>
      <trkpt lat="45.53744" lon="2.91858">
        <ele>1157.56</ele>
        <time>2011-09-03T08:50:37Z</time>
      </trkpt>
      <trkpt lat="45.53688" lon="2.91921">
        <ele>1149.87</ele>
        <time>2011-09-03T08:50:41Z</time>
      </trkpt>
      <trkpt lat="45.53679" lon="2.91968">
        <ele>1148.91</ele>
        <time>2011-09-03T08:50:43Z</time>
      </trkpt>
      <trkpt lat="45.53678" lon="2.91996">
        <ele>1148.43</ele>
        <time>2011-09-03T08:50:44Z</time>
      </trkpt>
      <trkpt lat="45.53677" lon="2.92069">
        <ele>1140.26</ele>
        <time>2011-09-03T08:50:47Z</time>
      </trkpt>
      <trkpt lat="45.53656" lon="2.92128">
        <ele>1133.53</ele>
        <time>2011-09-03T08:50:51Z</time>
      </trkpt>
      <trkpt lat="45.53646" lon="2.92134">
        <ele>1134.01</ele>
        <time>2011-09-03T08:50:52Z</time>
      </trkpt>
      <trkpt lat="45.5361" lon="2.9211">
        <ele>1133.53</ele>
        <time>2011-09-03T08:50:55Z</time>
      </trkpt>
      <trkpt lat="45.53572" lon="2.92023">
        <ele>1129.21</ele>
        <time>2011-09-03T08:50:59Z</time>
      </trkpt>
      <trkpt lat="45.53566" lon="2.91997">
        <ele>1128.24</ele>
        <time>2011-09-03T08:51:00Z</time>
      </trkpt>
      <trkpt lat="45.53546" lon="2.91885">
        <ele>1123.92</ele>
        <time>2011-09-03T08:51:04Z</time>
      </trkpt>
      <trkpt lat="45.53537" lon="2.91833">
        <ele>1120.07</ele>
        <time>2011-09-03T08:51:06Z</time>
      </trkpt>
      <trkpt lat="45.53521" lon="2.91775">
        <ele>1115.27</ele>
        <time>2011-09-03T08:51:09Z</time>
      </trkpt>
      <trkpt lat="45.53501" lon="2.91763">
        <ele>1114.79</ele>
        <time>2011-09-03T08:51:11Z</time>
      </trkpt>
      <trkpt lat="45.53473" lon="2.91799">
        <ele>1116.71</ele>
        <time>2011-09-03T08:51:14Z</time>
      </trkpt>
      <trkpt lat="45.53468" lon="2.91821">
        <ele>1118.63</ele>
        <time>2011-09-03T08:51:15Z</time>
      </trkpt>
      <trkpt lat="45.53462" lon="2.91845">
        <ele>1121.03</ele>
        <time>2011-09-03T08:51:16Z</time>
      </trkpt>
      <trkpt lat="45.53433" lon="2.91963">
        <ele>1124.4</ele>
        <time>2011-09-03T08:51:20Z</time>
      </trkpt>
      <trkpt lat="45.53418" lon="2.92054">
        <ele>1125.84</ele>
        <time>2011-09-03T08:51:23Z</time>
      </trkpt>
      <trkpt lat="45.53412" lon="2.9215">
        <ele>1128.73</ele>
        <time>2011-09-03T08:51:26Z</time>
      </trkpt>
      <trkpt lat="45.53411" lon="2.92215">
        <ele>1131.13</ele>
        <time>2011-09-03T08:51:28Z</time>
      </trkpt>
      <trkpt lat="45.53409" lon="2.92282">
        <ele>1132.57</ele>
        <time>2011-09-03T08:51:30Z</time>
      </trkpt>
      <trkpt lat="45.5341" lon="2.92411">
        <ele>1136.9</ele>
        <time>2011-09-03T08:51:34Z</time>
      </trkpt>
      <trkpt lat="45.53405" lon="2.92497">
        <ele>1136.42</ele>
        <time>2011-09-03T08:51:37Z</time>
      </trkpt>
      <trkpt lat="45.53358" lon="2.92629">
        <ele>1136.42</ele>
        <time>2011-09-03T08:51:43Z</time>
      </trkpt>
      <trkpt lat="45.53346" lon="2.92661">
        <ele>1135.94</ele>
        <time>2011-09-03T08:51:45Z</time>
      </trkpt>
      <trkpt lat="45.53344" lon="2.92745">
        <ele>1133.53</ele>
        <time>2011-09-03T08:51:50Z</time>
      </trkpt>
      <trkpt lat="45.53356" lon="2.9278">
        <ele>1132.57</ele>
        <time>2011-09-03T08:51:52Z</time>
      </trkpt>
      <trkpt lat="45.53362" lon="2.92799">
        <ele>1132.09</ele>
        <time>2011-09-03T08:51:53Z</time>
      </trkpt>
      <trkpt lat="45.53357" lon="2.9291">
        <ele>1130.65</ele>
        <time>2011-09-03T08:51:59Z</time>
      </trkpt>
      <trkpt lat="45.53338" lon="2.92942">
        <ele>1133.53</ele>
        <time>2011-09-03T08:52:01Z</time>
      </trkpt>
      <trkpt lat="45.53296" lon="2.93002">
        <ele>1135.45</ele>
        <time>2011-09-03T08:52:05Z</time>
      </trkpt>
      <trkpt lat="45.53253" lon="2.93039">
        <ele>1139.78</ele>
        <time>2011-09-03T08:52:08Z</time>
      </trkpt>
      <trkpt lat="45.53206" lon="2.9308">
        <ele>1143.14</ele>
        <time>2011-09-03T08:52:11Z</time>
      </trkpt>
      <trkpt lat="45.53193" lon="2.93099">
        <ele>1142.66</ele>
        <time>2011-09-03T08:52:12Z</time>
      </trkpt>
      <trkpt lat="45.53167" lon="2.93138">
        <ele>1142.18</ele>
        <time>2011-09-03T08:52:14Z</time>
      </trkpt>
      <trkpt lat="45.53087" lon="2.93173">
        <ele>1137.86</ele>
        <time>2011-09-03T08:52:19Z</time>
      </trkpt>
      <trkpt lat="45.53051" lon="2.93164">
        <ele>1136.9</ele>
        <time>2011-09-03T08:52:21Z</time>
      </trkpt>
      <trkpt lat="45.52993" lon="2.93107">
        <ele>1134.49</ele>
        <time>2011-09-03T08:52:25Z</time>
      </trkpt>
      <trkpt lat="45.52902" lon="2.93071">
        <ele>1133.53</ele>
        <time>2011-09-03T08:52:30Z</time>
      </trkpt>
      <trkpt lat="45.52841" lon="2.93061">
        <ele>1130.17</ele>
        <time>2011-09-03T08:52:33Z</time>
      </trkpt>
      <trkpt lat="45.52785" lon="2.93047">
        <ele>1125.84</ele>
        <time>2011-09-03T08:52:36Z</time>
      </trkpt>
      <trkpt lat="45.52713" lon="2.9306">
        <ele>1122.48</ele>
        <time>2011-09-03T08:52:40Z</time>
      </trkpt>
      <trkpt lat="45.52643" lon="2.93147">
        <ele>1120.07</ele>
        <time>2011-09-03T08:52:45Z</time>
      </trkpt>
      <trkpt lat="45.52629" lon="2.93203">
        <ele>1118.63</ele>
        <time>2011-09-03T08:52:47Z</time>
      </trkpt>
      <trkpt lat="45.52629" lon="2.93309">
        <ele>1114.31</ele>
        <time>2011-09-03T08:52:51Z</time>
      </trkpt>
      <trkpt lat="45.52624" lon="2.93359">
        <ele>1113.34</ele>
        <time>2011-09-03T08:52:53Z</time>
      </trkpt>
      <trkpt lat="45.52608" lon="2.93409">
        <ele>1112.38</ele>
        <time>2011-09-03T08:52:55Z</time>
      </trkpt>
      <trkpt lat="45.5258" lon="2.93477">
        <ele>1109.02</ele>
        <time>2011-09-03T08:52:58Z</time>
      </trkpt>
      <trkpt lat="45.52556" lon="2.9351">
        <ele>1107.58</ele>
        <time>2011-09-03T08:53:00Z</time>
      </trkpt>
      <trkpt lat="45.52506" lon="2.93528">
        <ele>1106.61</ele>
        <time>2011-09-03T08:53:03Z</time>
      </trkpt>
      <trkpt lat="45.52438" lon="2.9358">
        <ele>1101.81</ele>
        <time>2011-09-03T08:53:08Z</time>
      </trkpt>
      <trkpt lat="45.5242" lon="2.93613">
        <ele>1100.85</ele>
        <time>2011-09-03T08:53:10Z</time>
      </trkpt>
      <trkpt lat="45.52384" lon="2.93618">
        <ele>1098.92</ele>
        <time>2011-09-03T08:53:13Z</time>
      </trkpt>
      <trkpt lat="45.52307" lon="2.93585">
        <ele>1097.96</ele>
        <time>2011-09-03T08:53:18Z</time>
      </trkpt>
      <trkpt lat="45.52277" lon="2.93567">
        <ele>1096.04</ele>
        <time>2011-09-03T08:53:20Z</time>
      </trkpt>
      <trkpt lat="45.52256" lon="2.93533">
        <ele>1094.6</ele>
        <time>2011-09-03T08:53:22Z</time>
      </trkpt>
      <trkpt lat="45.52193" lon="2.93414">
        <ele>1098.44</ele>
        <time>2011-09-03T08:53:28Z</time>
      </trkpt>
      <trkpt lat="45.52135" lon="2.93381">
        <ele>1092.2</ele>
        <time>2011-09-03T08:53:32Z</time>
      </trkpt>
      <trkpt lat="45.52101" lon="2.93411">
        <ele>1088.35</ele>
        <time>2011-09-03T08:53:35Z</time>
      </trkpt>
      <trkpt lat="45.52066" lon="2.93405">
        <ele>1086.91</ele>
        <time>2011-09-03T08:53:39Z</time>
      </trkpt>
      <trkpt lat="45.52031" lon="2.9334">
        <ele>1084.5</ele>
        <time>2011-09-03T08:53:43Z</time>
      </trkpt>
      <trkpt lat="45.52024" lon="2.93321">
        <ele>1084.02</ele>
        <time>2011-09-03T08:53:44Z</time>
      </trkpt>
      <trkpt lat="45.52011" lon="2.9328">
        <ele>1083.06</ele>
        <time>2011-09-03T08:53:46Z</time>
      </trkpt>
      <trkpt lat="45.52006" lon="2.93259">
        <ele>1082.1</ele>
        <time>2011-09-03T08:53:47Z</time>
      </trkpt>
      <trkpt lat="45.51945" lon="2.93195">
        <ele>1079.7</ele>
        <time>2011-09-03T08:53:52Z</time>
      </trkpt>
      <trkpt lat="45.51911" lon="2.93191">
        <ele>1077.78</ele>
        <time>2011-09-03T08:53:54Z</time>
      </trkpt>
      <trkpt lat="45.51855" lon="2.93221">
        <ele>1072.97</ele>
        <time>2011-09-03T08:53:58Z</time>
      </trkpt>
      <trkpt lat="45.51809" lon="2.9321">
        <ele>1069.12</ele>
        <time>2011-09-03T08:54:02Z</time>
      </trkpt>
      <trkpt lat="45.51756" lon="2.93158">
        <ele>1064.32</ele>
        <time>2011-09-03T08:54:06Z</time>
      </trkpt>
      <trkpt lat="45.51744" lon="2.93146">
        <ele>1063.84</ele>
        <time>2011-09-03T08:54:07Z</time>
      </trkpt>
      <trkpt lat="45.51701" lon="2.93156">
        <ele>1058.07</ele>
        <time>2011-09-03T08:54:11Z</time>
      </trkpt>
      <trkpt lat="45.51695" lon="2.93176">
        <ele>1058.55</ele>
        <time>2011-09-03T08:54:12Z</time>
      </trkpt>
      <trkpt lat="45.51674" lon="2.93266">
        <ele>1054.22</ele>
        <time>2011-09-03T08:54:16Z</time>
      </trkpt>
      <trkpt lat="45.51618" lon="2.93311">
        <ele>1049.9</ele>
        <time>2011-09-03T08:54:21Z</time>
      </trkpt>
      <trkpt lat="45.51578" lon="2.93292">
        <ele>1046.05</ele>
        <time>2011-09-03T08:54:24Z</time>
      </trkpt>
      <trkpt lat="45.51569" lon="2.93279">
        <ele>1046.05</ele>
        <time>2011-09-03T08:54:25Z</time>
      </trkpt>
      <trkpt lat="45.51563" lon="2.93262">
        <ele>1045.57</ele>
        <time>2011-09-03T08:54:26Z</time>
      </trkpt>
      <trkpt lat="45.51554" lon="2.93219">
        <ele>1044.13</ele>
        <time>2011-09-03T08:54:28Z</time>
      </trkpt>
      <trkpt lat="45.51549" lon="2.93138">
        <ele>1037.88</ele>
        <time>2011-09-03T08:54:32Z</time>
      </trkpt>
      <trkpt lat="45.51546" lon="2.93092">
        <ele>1035.48</ele>
        <time>2011-09-03T08:54:35Z</time>
      </trkpt>
      <trkpt lat="45.51535" lon="2.93013">
        <ele>1031.63</ele>
        <time>2011-09-03T08:54:40Z</time>
      </trkpt>
      <trkpt lat="45.51526" lon="2.92967">
        <ele>1028.75</ele>
        <time>2011-09-03T08:54:43Z</time>
      </trkpt>
      <trkpt lat="45.51521" lon="2.92944">
        <ele>1026.83</ele>
        <time>2011-09-03T08:54:45Z</time>
      </trkpt>
      <trkpt lat="45.51492" lon="2.929">
        <ele>1022.98</ele>
        <time>2011-09-03T08:54:51Z</time>
      </trkpt>
      <trkpt lat="45.51483" lon="2.92896">
        <ele>1022.98</ele>
        <time>2011-09-03T08:54:52Z</time>
      </trkpt>
      <trkpt lat="45.51467" lon="2.92898">
        <ele>1022.5</ele>
        <time>2011-09-03T08:54:54Z</time>
      </trkpt>
      <trkpt lat="45.51376" lon="2.92884">
        <ele>1023.94</ele>
        <time>2011-09-03T08:55:03Z</time>
      </trkpt>
      <trkpt lat="45.51324" lon="2.92894">
        <ele>1027.31</ele>
        <time>2011-09-03T08:55:07Z</time>
      </trkpt>
      <trkpt lat="45.513" lon="2.92921">
        <ele>1028.27</ele>
        <time>2011-09-03T08:55:09Z</time>
      </trkpt>
      <trkpt lat="45.51277" lon="2.92953">
        <ele>1031.63</ele>
        <time>2011-09-03T08:55:11Z</time>
      </trkpt>
      <trkpt lat="45.51255" lon="2.93031">
        <ele>1034.04</ele>
        <time>2011-09-03T08:55:15Z</time>
      </trkpt>
      <trkpt lat="45.51252" lon="2.93151">
        <ele>1036.92</ele>
        <time>2011-09-03T08:55:22Z</time>
      </trkpt>
      <trkpt lat="45.51247" lon="2.93177">
        <ele>1036.44</ele>
        <time>2011-09-03T08:55:24Z</time>
      </trkpt>
      <trkpt lat="45.51227" lon="2.9322">
        <ele>1037.4</ele>
        <time>2011-09-03T08:55:32Z</time>
      </trkpt>
      <trkpt lat="45.512" lon="2.93215">
        <ele>1041.73</ele>
        <time>2011-09-03T08:55:37Z</time>
      </trkpt>
      <trkpt lat="45.51192" lon="2.93211">
        <ele>1041.73</ele>
        <time>2011-09-03T08:55:38Z</time>
      </trkpt>
      <trkpt lat="45.51176" lon="2.93204">
        <ele>1043.17</ele>
        <time>2011-09-03T08:55:40Z</time>
      </trkpt>
      <trkpt lat="45.51164" lon="2.93199">
        <ele>1043.65</ele>
        <time>2011-09-03T08:55:42Z</time>
      </trkpt>
      <trkpt lat="45.51143" lon="2.93177">
        <ele>1045.09</ele>
        <time>2011-09-03T08:55:47Z</time>
      </trkpt>
      <trkpt lat="45.51123" lon="2.93138">
        <ele>1047.49</ele>
        <time>2011-09-03T08:55:54Z</time>
      </trkpt>
      <trkpt lat="45.51117" lon="2.93127">
        <ele>1048.45</ele>
        <time>2011-09-03T08:55:56Z</time>
      </trkpt>
      <trkpt lat="45.51091" lon="2.93121">
        <ele>1051.34</ele>
        <time>2011-09-03T08:56:01Z</time>
      </trkpt>
      <trkpt lat="45.51074" lon="2.93129">
        <ele>1051.82</ele>
        <time>2011-09-03T08:56:09Z</time>
      </trkpt>
      <trkpt lat="45.51064" lon="2.93127">
        <ele>1051.82</ele>
        <time>2011-09-03T08:56:15Z</time>
      </trkpt>
      <trkpt lat="45.51045" lon="2.93149">
        <ele>1051.82</ele>
        <time>2011-09-03T08:56:20Z</time>
      </trkpt>
      <trkpt lat="45.51024" lon="2.93185">
        <ele>1051.34</ele>
        <time>2011-09-03T08:56:25Z</time>
      </trkpt>
      <trkpt lat="45.50992" lon="2.93266">
        <ele>1048.94</ele>
        <time>2011-09-03T08:56:33Z</time>
      </trkpt>
      <trkpt lat="45.50978" lon="2.93347">
        <ele>1046.05</ele>
        <time>2011-09-03T08:56:39Z</time>
      </trkpt>
      <trkpt lat="45.50971" lon="2.93399">
        <ele>1043.17</ele>
        <time>2011-09-03T08:56:43Z</time>
      </trkpt>
      <trkpt lat="45.50937" lon="2.93469">
        <ele>1041.73</ele>
        <time>2011-09-03T08:56:50Z</time>
      </trkpt>
      <trkpt lat="45.50931" lon="2.93481">
        <ele>1042.69</ele>
        <time>2011-09-03T08:56:51Z</time>
      </trkpt>
      <trkpt lat="45.50903" lon="2.93579">
        <ele>1045.57</ele>
        <time>2011-09-03T08:56:57Z</time>
      </trkpt>
      <trkpt lat="45.50888" lon="2.93646">
        <ele>1049.9</ele>
        <time>2011-09-03T08:57:00Z</time>
      </trkpt>
      <trkpt lat="45.50875" lon="2.93692">
        <ele>1050.86</ele>
        <time>2011-09-03T08:57:02Z</time>
      </trkpt>
      <trkpt lat="45.5085" lon="2.93761">
        <ele>1053.74</ele>
        <time>2011-09-03T08:57:05Z</time>
      </trkpt>
      <trkpt lat="45.50832" lon="2.93808">
        <ele>1055.18</ele>
        <time>2011-09-03T08:57:07Z</time>
      </trkpt>
      <trkpt lat="45.50751" lon="2.93982">
        <ele>1053.26</ele>
        <time>2011-09-03T08:57:16Z</time>
      </trkpt>
      <trkpt lat="45.50742" lon="2.93999">
        <ele>1053.26</ele>
        <time>2011-09-03T08:57:17Z</time>
      </trkpt>
      <trkpt lat="45.50659" lon="2.94074">
        <ele>1054.22</ele>
        <time>2011-09-03T08:57:23Z</time>
      </trkpt>
      <trkpt lat="45.50622" lon="2.94082">
        <ele>1053.26</ele>
        <time>2011-09-03T08:57:25Z</time>
      </trkpt>
      <trkpt lat="45.50572" lon="2.94062">
        <ele>1049.9</ele>
        <time>2011-09-03T08:57:28Z</time>
      </trkpt>
      <trkpt lat="45.50543" lon="2.94034">
        <ele>1049.9</ele>
        <time>2011-09-03T08:57:30Z</time>
      </trkpt>
      <trkpt lat="45.50494" lon="2.94016">
        <ele>1047.49</ele>
        <time>2011-09-03T08:57:33Z</time>
      </trkpt>
      <trkpt lat="45.50437" lon="2.94065">
        <ele>1046.53</ele>
        <time>2011-09-03T08:57:37Z</time>
      </trkpt>
      <trkpt lat="45.50421" lon="2.94146">
        <ele>1049.42</ele>
        <time>2011-09-03T08:57:40Z</time>
      </trkpt>
      <trkpt lat="45.50418" lon="2.9427">
        <ele>1055.67</ele>
        <time>2011-09-03T08:57:44Z</time>
      </trkpt>
      <trkpt lat="45.50418" lon="2.943">
        <ele>1054.22</ele>
        <time>2011-09-03T08:57:45Z</time>
      </trkpt>
      <trkpt lat="45.50409" lon="2.94427">
        <ele>1054.22</ele>
        <time>2011-09-03T08:57:50Z</time>
      </trkpt>
      <trkpt lat="45.50372" lon="2.94478">
        <ele>1054.22</ele>
        <time>2011-09-03T08:57:55Z</time>
      </trkpt>
      <trkpt lat="45.5036" lon="2.94473">
        <ele>1054.7</ele>
        <time>2011-09-03T08:57:56Z</time>
      </trkpt>
      <trkpt lat="45.50289" lon="2.94433">
        <ele>1053.26</ele>
        <time>2011-09-03T08:58:01Z</time>
      </trkpt>
      <trkpt lat="45.50243" lon="2.94409">
        <ele>1052.3</ele>
        <time>2011-09-03T08:58:04Z</time>
      </trkpt>
      <trkpt lat="45.50137" lon="2.94387">
        <ele>1048.94</ele>
        <time>2011-09-03T08:58:10Z</time>
      </trkpt>
      <trkpt lat="45.50085" lon="2.94383">
        <ele>1047.49</ele>
        <time>2011-09-03T08:58:13Z</time>
      </trkpt>
      <trkpt lat="45.50016" lon="2.94367">
        <ele>1044.13</ele>
        <time>2011-09-03T08:58:17Z</time>
      </trkpt>
      <trkpt lat="45.49999" lon="2.94362">
        <ele>1044.13</ele>
        <time>2011-09-03T08:58:18Z</time>
      </trkpt>
      <trkpt lat="45.49948" lon="2.94342">
        <ele>1039.8</ele>
        <time>2011-09-03T08:58:21Z</time>
      </trkpt>
      <trkpt lat="45.49918" lon="2.94327">
        <ele>1038.84</ele>
        <time>2011-09-03T08:58:23Z</time>
      </trkpt>
      <trkpt lat="45.49784" lon="2.94302">
        <ele>1040.76</ele>
        <time>2011-09-03T08:58:30Z</time>
      </trkpt>
      <trkpt lat="45.49555" lon="2.94281">
        <ele>1041.25</ele>
        <time>2011-09-03T08:58:41Z</time>
      </trkpt>
      <trkpt lat="45.49536" lon="2.94276">
        <ele>1041.73</ele>
        <time>2011-09-03T08:58:42Z</time>
      </trkpt>
      <trkpt lat="45.49498" lon="2.94258">
        <ele>1042.69</ele>
        <time>2011-09-03T08:58:44Z</time>
      </trkpt>
      <trkpt lat="45.49379" lon="2.94133">
        <ele>1042.69</ele>
        <time>2011-09-03T08:58:51Z</time>
      </trkpt>
      <trkpt lat="45.49264" lon="2.93923">
        <ele>1042.21</ele>
        <time>2011-09-03T08:59:00Z</time>
      </trkpt>
      <trkpt lat="45.49222" lon="2.93824">
        <ele>1038.84</ele>
        <time>2011-09-03T08:59:04Z</time>
      </trkpt>
      <trkpt lat="45.49214" lon="2.93802">
        <ele>1038.84</ele>
        <time>2011-09-03T08:59:05Z</time>
      </trkpt>
      <trkpt lat="45.49186" lon="2.93743">
        <ele>1040.76</ele>
        <time>2011-09-03T08:59:08Z</time>
      </trkpt>
      <trkpt lat="45.49136" lon="2.93676">
        <ele>1041.25</ele>
        <time>2011-09-03T08:59:12Z</time>
      </trkpt>
      <trkpt lat="45.49084" lon="2.93562">
        <ele>1036.44</ele>
        <time>2011-09-03T08:59:18Z</time>
      </trkpt>
      <trkpt lat="45.49075" lon="2.93558">
        <ele>1037.4</ele>
        <time>2011-09-03T08:59:19Z</time>
      </trkpt>
      <trkpt lat="45.49066" lon="2.93563">
        <ele>1036.92</ele>
        <time>2011-09-03T08:59:20Z</time>
      </trkpt>
      <trkpt lat="45.49035" lon="2.93577">
        <ele>1038.36</ele>
        <time>2011-09-03T08:59:23Z</time>
      </trkpt>
      <trkpt lat="45.4901" lon="2.93567">
        <ele>1042.21</ele>
        <time>2011-09-03T08:59:25Z</time>
      </trkpt>
      <trkpt lat="45.48965" lon="2.93533">
        <ele>1047.49</ele>
        <time>2011-09-03T08:59:28Z</time>
      </trkpt>
      <trkpt lat="45.48908" lon="2.93469">
        <ele>1050.86</ele>
        <time>2011-09-03T08:59:32Z</time>
      </trkpt>
      <trkpt lat="45.48863" lon="2.93418">
        <ele>1054.7</ele>
        <time>2011-09-03T08:59:35Z</time>
      </trkpt>
      <trkpt lat="45.48829" lon="2.93391">
        <ele>1059.51</ele>
        <time>2011-09-03T08:59:37Z</time>
      </trkpt>
      <trkpt lat="45.48811" lon="2.93379">
        <ele>1059.51</ele>
        <time>2011-09-03T08:59:38Z</time>
      </trkpt>
      <trkpt lat="45.48793" lon="2.93368">
        <ele>1060.47</ele>
        <time>2011-09-03T08:59:39Z</time>
      </trkpt>
      <trkpt lat="45.48746" lon="2.93328">
        <ele>1059.99</ele>
        <time>2011-09-03T08:59:42Z</time>
      </trkpt>
      <trkpt lat="45.48698" lon="2.93262">
        <ele>1064.8</ele>
        <time>2011-09-03T08:59:46Z</time>
      </trkpt>
      <trkpt lat="45.48666" lon="2.93205">
        <ele>1069.12</ele>
        <time>2011-09-03T08:59:49Z</time>
      </trkpt>
      <trkpt lat="45.48632" lon="2.93146">
        <ele>1073.93</ele>
        <time>2011-09-03T08:59:52Z</time>
      </trkpt>
      <trkpt lat="45.48583" lon="2.93089">
        <ele>1080.18</ele>
        <time>2011-09-03T08:59:55Z</time>
      </trkpt>
      <trkpt lat="45.48533" lon="2.93031">
        <ele>1084.02</ele>
        <time>2011-09-03T08:59:58Z</time>
      </trkpt>
      <trkpt lat="45.48501" lon="2.92993">
        <ele>1083.06</ele>
        <time>2011-09-03T09:00:00Z</time>
      </trkpt>
      <trkpt lat="45.48449" lon="2.92905">
        <ele>1089.79</ele>
        <time>2011-09-03T09:00:04Z</time>
      </trkpt>
      <trkpt lat="45.48435" lon="2.92882">
        <ele>1092.2</ele>
        <time>2011-09-03T09:00:05Z</time>
      </trkpt>
      <trkpt lat="45.48384" lon="2.92819">
        <ele>1097.96</ele>
        <time>2011-09-03T09:00:08Z</time>
      </trkpt>
      <trkpt lat="45.48335" lon="2.92767">
        <ele>1097.96</ele>
        <time>2011-09-03T09:00:11Z</time>
      </trkpt>
      <trkpt lat="45.48272" lon="2.9273">
        <ele>1099.89</ele>
        <time>2011-09-03T09:00:15Z</time>
      </trkpt>
      <trkpt lat="45.48242" lon="2.92706">
        <ele>1102.77</ele>
        <time>2011-09-03T09:00:17Z</time>
      </trkpt>
      <trkpt lat="45.48212" lon="2.92669">
        <ele>1108.06</ele>
        <time>2011-09-03T09:00:19Z</time>
      </trkpt>
      <trkpt lat="45.48183" lon="2.92629">
        <ele>1112.38</ele>
        <time>2011-09-03T09:00:21Z</time>
      </trkpt>
      <trkpt lat="45.48167" lon="2.92612">
        <ele>1111.9</ele>
        <time>2011-09-03T09:00:22Z</time>
      </trkpt>
      <trkpt lat="45.48111" lon="2.9258">
        <ele>1116.23</ele>
        <time>2011-09-03T09:00:25Z</time>
      </trkpt>
      <trkpt lat="45.48067" lon="2.92564">
        <ele>1119.59</ele>
        <time>2011-09-03T09:00:27Z</time>
      </trkpt>
      <trkpt lat="45.48043" lon="2.92552">
        <ele>1123.44</ele>
        <time>2011-09-03T09:00:28Z</time>
      </trkpt>
      <trkpt lat="45.47993" lon="2.92525">
        <ele>1130.17</ele>
        <time>2011-09-03T09:00:30Z</time>
      </trkpt>
      <trkpt lat="45.47881" lon="2.92463">
        <ele>1131.61</ele>
        <time>2011-09-03T09:00:35Z</time>
      </trkpt>
      <trkpt lat="45.47822" lon="2.92454">
        <ele>1132.57</ele>
        <time>2011-09-03T09:00:38Z</time>
      </trkpt>
      <trkpt lat="45.4777" lon="2.92484">
        <ele>1134.97</ele>
        <time>2011-09-03T09:00:41Z</time>
      </trkpt>
      <trkpt lat="45.47738" lon="2.92522">
        <ele>1138.34</ele>
        <time>2011-09-03T09:00:43Z</time>
      </trkpt>
      <trkpt lat="45.47697" lon="2.9259">
        <ele>1140.26</ele>
        <time>2011-09-03T09:00:46Z</time>
      </trkpt>
      <trkpt lat="45.47635" lon="2.92667">
        <ele>1146.99</ele>
        <time>2011-09-03T09:00:50Z</time>
      </trkpt>
      <trkpt lat="45.47597" lon="2.92688">
        <ele>1147.95</ele>
        <time>2011-09-03T09:00:52Z</time>
      </trkpt>
      <trkpt lat="45.47538" lon="2.92676">
        <ele>1153.24</ele>
        <time>2011-09-03T09:00:55Z</time>
      </trkpt>
      <trkpt lat="45.47496" lon="2.92654">
        <ele>1156.12</ele>
        <time>2011-09-03T09:00:57Z</time>
      </trkpt>
      <trkpt lat="45.47441" lon="2.92602">
        <ele>1160.45</ele>
        <time>2011-09-03T09:01:00Z</time>
      </trkpt>
      <trkpt lat="45.47408" lon="2.92558">
        <ele>1164.77</ele>
        <time>2011-09-03T09:01:02Z</time>
      </trkpt>
      <trkpt lat="45.47374" lon="2.92474">
        <ele>1167.18</ele>
        <time>2011-09-03T09:01:05Z</time>
      </trkpt>
      <trkpt lat="45.47368" lon="2.92441">
        <ele>1168.14</ele>
        <time>2011-09-03T09:01:06Z</time>
      </trkpt>
      <trkpt lat="45.47344" lon="2.92304">
        <ele>1175.83</ele>
        <time>2011-09-03T09:01:10Z</time>
      </trkpt>
      <trkpt lat="45.47324" lon="2.92208">
        <ele>1179.67</ele>
        <time>2011-09-03T09:01:13Z</time>
      </trkpt>
      <trkpt lat="45.47317" lon="2.9218">
        <ele>1179.67</ele>
        <time>2011-09-03T09:01:14Z</time>
      </trkpt>
      <trkpt lat="45.47283" lon="2.9211">
        <ele>1183.04</ele>
        <time>2011-09-03T09:01:17Z</time>
      </trkpt>
      <trkpt lat="45.47252" lon="2.92073">
        <ele>1185.44</ele>
        <time>2011-09-03T09:01:19Z</time>
      </trkpt>
      <trkpt lat="45.47176" lon="2.91985">
        <ele>1183.04</ele>
        <time>2011-09-03T09:01:24Z</time>
      </trkpt>
      <trkpt lat="45.47141" lon="2.91878">
        <ele>1182.08</ele>
        <time>2011-09-03T09:01:29Z</time>
      </trkpt>
      <trkpt lat="45.47102" lon="2.91752">
        <ele>1181.12</ele>
        <time>2011-09-03T09:01:34Z</time>
      </trkpt>
      <trkpt lat="45.47032" lon="2.91695">
        <ele>1182.08</ele>
        <time>2011-09-03T09:01:38Z</time>
      </trkpt>
      <trkpt lat="45.469" lon="2.91657">
        <ele>1178.71</ele>
        <time>2011-09-03T09:01:44Z</time>
      </trkpt>
      <trkpt lat="45.46876" lon="2.91655">
        <ele>1178.71</ele>
        <time>2011-09-03T09:01:45Z</time>
      </trkpt>
      <trkpt lat="45.46783" lon="2.91647">
        <ele>1175.35</ele>
        <time>2011-09-03T09:01:49Z</time>
      </trkpt>
      <trkpt lat="45.46743" lon="2.91645">
        <ele>1171.5</ele>
        <time>2011-09-03T09:01:51Z</time>
      </trkpt>
      <trkpt lat="45.46707" lon="2.91643">
        <ele>1167.66</ele>
        <time>2011-09-03T09:01:53Z</time>
      </trkpt>
      <trkpt lat="45.46691" lon="2.91641">
        <ele>1166.22</ele>
        <time>2011-09-03T09:01:54Z</time>
      </trkpt>
      <trkpt lat="45.46651" lon="2.91612">
        <ele>1163.33</ele>
        <time>2011-09-03T09:01:57Z</time>
      </trkpt>
      <trkpt lat="45.46641" lon="2.91593">
        <ele>1163.33</ele>
        <time>2011-09-03T09:01:58Z</time>
      </trkpt>
      <trkpt lat="45.46612" lon="2.91541">
        <ele>1160.45</ele>
        <time>2011-09-03T09:02:01Z</time>
      </trkpt>
      <trkpt lat="45.4657" lon="2.91531">
        <ele>1157.08</ele>
        <time>2011-09-03T09:02:04Z</time>
      </trkpt>
      <trkpt lat="45.46546" lon="2.91551">
        <ele>1156.12</ele>
        <time>2011-09-03T09:02:06Z</time>
      </trkpt>
      <trkpt lat="45.46537" lon="2.91568">
        <ele>1156.12</ele>
        <time>2011-09-03T09:02:07Z</time>
      </trkpt>
      <trkpt lat="45.46477" lon="2.91629">
        <ele>1149.87</ele>
        <time>2011-09-03T09:02:12Z</time>
      </trkpt>
      <trkpt lat="45.46462" lon="2.91627">
        <ele>1149.39</ele>
        <time>2011-09-03T09:02:13Z</time>
      </trkpt>
      <trkpt lat="45.46404" lon="2.91625">
        <ele>1146.99</ele>
        <time>2011-09-03T09:02:17Z</time>
      </trkpt>
      <trkpt lat="45.46361" lon="2.91664">
        <ele>1146.51</ele>
        <time>2011-09-03T09:02:20Z</time>
      </trkpt>
      <trkpt lat="45.46315" lon="2.91704">
        <ele>1144.11</ele>
        <time>2011-09-03T09:02:23Z</time>
      </trkpt>
      <trkpt lat="45.46269" lon="2.91755">
        <ele>1140.26</ele>
        <time>2011-09-03T09:02:26Z</time>
      </trkpt>
      <trkpt lat="45.46223" lon="2.91778">
        <ele>1135.94</ele>
        <time>2011-09-03T09:02:29Z</time>
      </trkpt>
      <trkpt lat="45.46207" lon="2.91774">
        <ele>1136.42</ele>
        <time>2011-09-03T09:02:30Z</time>
      </trkpt>
      <trkpt lat="45.46145" lon="2.91759">
        <ele>1133.05</ele>
        <time>2011-09-03T09:02:34Z</time>
      </trkpt>
      <trkpt lat="45.46131" lon="2.91767">
        <ele>1133.05</ele>
        <time>2011-09-03T09:02:35Z</time>
      </trkpt>
      <trkpt lat="45.46039" lon="2.91793">
        <ele>1129.21</ele>
        <time>2011-09-03T09:02:41Z</time>
      </trkpt>
      <trkpt lat="45.46004" lon="2.9179">
        <ele>1129.69</ele>
        <time>2011-09-03T09:02:43Z</time>
      </trkpt>
      <trkpt lat="45.45967" lon="2.91797">
        <ele>1126.32</ele>
        <time>2011-09-03T09:02:45Z</time>
      </trkpt>
      <trkpt lat="45.45902" lon="2.91838">
        <ele>1122.48</ele>
        <time>2011-09-03T09:02:49Z</time>
      </trkpt>
      <trkpt lat="45.45874" lon="2.91868">
        <ele>1121.03</ele>
        <time>2011-09-03T09:02:51Z</time>
      </trkpt>
      <trkpt lat="45.4584" lon="2.91889">
        <ele>1119.59</ele>
        <time>2011-09-03T09:02:53Z</time>
      </trkpt>
      <trkpt lat="45.45783" lon="2.91915">
        <ele>1113.82</ele>
        <time>2011-09-03T09:02:56Z</time>
      </trkpt>
      <trkpt lat="45.45721" lon="2.91979">
        <ele>1109.98</ele>
        <time>2011-09-03T09:03:00Z</time>
      </trkpt>
      <trkpt lat="45.4567" lon="2.92068">
        <ele>1105.65</ele>
        <time>2011-09-03T09:03:04Z</time>
      </trkpt>
      <trkpt lat="45.45647" lon="2.92115">
        <ele>1102.77</ele>
        <time>2011-09-03T09:03:06Z</time>
      </trkpt>
      <trkpt lat="45.45611" lon="2.92167">
        <ele>1096.04</ele>
        <time>2011-09-03T09:03:09Z</time>
      </trkpt>
      <trkpt lat="45.45594" lon="2.92201">
        <ele>1092.2</ele>
        <time>2011-09-03T09:03:11Z</time>
      </trkpt>
      <trkpt lat="45.45571" lon="2.9225">
        <ele>1089.31</ele>
        <time>2011-09-03T09:03:14Z</time>
      </trkpt>
      <trkpt lat="45.45563" lon="2.92268">
        <ele>1089.31</ele>
        <time>2011-09-03T09:03:15Z</time>
      </trkpt>
      <trkpt lat="45.45522" lon="2.92365">
        <ele>1084.99</ele>
        <time>2011-09-03T09:03:20Z</time>
      </trkpt>
      <trkpt lat="45.45516" lon="2.92381">
        <ele>1083.06</ele>
        <time>2011-09-03T09:03:21Z</time>
      </trkpt>
      <trkpt lat="45.45463" lon="2.92445">
        <ele>1080.18</ele>
        <time>2011-09-03T09:03:27Z</time>
      </trkpt>
      <trkpt lat="45.45428" lon="2.9246">
        <ele>1076.81</ele>
        <time>2011-09-03T09:03:30Z</time>
      </trkpt>
      <trkpt lat="45.45414" lon="2.92463">
        <ele>1076.81</ele>
        <time>2011-09-03T09:03:31Z</time>
      </trkpt>
      <trkpt lat="45.45369" lon="2.92471">
        <ele>1072.97</ele>
        <time>2011-09-03T09:03:34Z</time>
      </trkpt>
      <trkpt lat="45.45309" lon="2.92429">
        <ele>1068.64</ele>
        <time>2011-09-03T09:03:39Z</time>
      </trkpt>
      <trkpt lat="45.45255" lon="2.92395">
        <ele>1065.76</ele>
        <time>2011-09-03T09:03:43Z</time>
      </trkpt>
      <trkpt lat="45.45194" lon="2.92389">
        <ele>1060.95</ele>
        <time>2011-09-03T09:03:47Z</time>
      </trkpt>
      <trkpt lat="45.4518" lon="2.92381">
        <ele>1059.51</ele>
        <time>2011-09-03T09:03:48Z</time>
      </trkpt>
      <trkpt lat="45.45106" lon="2.92388">
        <ele>1057.11</ele>
        <time>2011-09-03T09:03:55Z</time>
      </trkpt>
      <trkpt lat="45.45015" lon="2.92467">
        <ele>1056.15</ele>
        <time>2011-09-03T09:04:02Z</time>
      </trkpt>
      <trkpt lat="45.4496" lon="2.92498">
        <ele>1050.38</ele>
        <time>2011-09-03T09:04:05Z</time>
      </trkpt>
      <trkpt lat="45.44942" lon="2.92509">
        <ele>1047.49</ele>
        <time>2011-09-03T09:04:06Z</time>
      </trkpt>
      <trkpt lat="45.44878" lon="2.92521">
        <ele>1041.25</ele>
        <time>2011-09-03T09:04:10Z</time>
      </trkpt>
      <trkpt lat="45.44864" lon="2.9252">
        <ele>1041.25</ele>
        <time>2011-09-03T09:04:11Z</time>
      </trkpt>
      <trkpt lat="45.44814" lon="2.92552">
        <ele>1037.88</ele>
        <time>2011-09-03T09:04:15Z</time>
      </trkpt>
      <trkpt lat="45.44805" lon="2.92566">
        <ele>1037.4</ele>
        <time>2011-09-03T09:04:16Z</time>
      </trkpt>
      <trkpt lat="45.44751" lon="2.92607">
        <ele>1034.04</ele>
        <time>2011-09-03T09:04:21Z</time>
      </trkpt>
      <trkpt lat="45.44705" lon="2.9261">
        <ele>1030.67</ele>
        <time>2011-09-03T09:04:25Z</time>
      </trkpt>
      <trkpt lat="45.44669" lon="2.92605">
        <ele>1028.75</ele>
        <time>2011-09-03T09:04:28Z</time>
      </trkpt>
      <trkpt lat="45.44659" lon="2.92593">
        <ele>1028.75</ele>
        <time>2011-09-03T09:04:29Z</time>
      </trkpt>
      <trkpt lat="45.4464" lon="2.92564">
        <ele>1027.31</ele>
        <time>2011-09-03T09:04:31Z</time>
      </trkpt>
      <trkpt lat="45.44584" lon="2.92572">
        <ele>1022.98</ele>
        <time>2011-09-03T09:04:36Z</time>
      </trkpt>
      <trkpt lat="45.4457" lon="2.92653">
        <ele>1019.13</ele>
        <time>2011-09-03T09:04:40Z</time>
      </trkpt>
      <trkpt lat="45.44532" lon="2.92678">
        <ele>1015.77</ele>
        <time>2011-09-03T09:04:44Z</time>
      </trkpt>
      <trkpt lat="45.4452" lon="2.92671">
        <ele>1016.25</ele>
        <time>2011-09-03T09:04:45Z</time>
      </trkpt>
      <trkpt lat="45.44491" lon="2.92662">
        <ele>1015.77</ele>
        <time>2011-09-03T09:04:47Z</time>
      </trkpt>
      <trkpt lat="45.44429" lon="2.92658">
        <ele>1010.96</ele>
        <time>2011-09-03T09:04:51Z</time>
      </trkpt>
      <trkpt lat="45.44415" lon="2.92657">
        <ele>1009.04</ele>
        <time>2011-09-03T09:04:52Z</time>
      </trkpt>
      <trkpt lat="45.44376" lon="2.92625">
        <ele>1005.2</ele>
        <time>2011-09-03T09:04:56Z</time>
      </trkpt>
      <trkpt lat="45.44371" lon="2.92611">
        <ele>1004.72</ele>
        <time>2011-09-03T09:04:57Z</time>
      </trkpt>
      <trkpt lat="45.44363" lon="2.92582">
        <ele>1004.72</ele>
        <time>2011-09-03T09:04:59Z</time>
      </trkpt>
      <trkpt lat="45.44357" lon="2.92551">
        <ele>1002.79</ele>
        <time>2011-09-03T09:05:01Z</time>
      </trkpt>
      <trkpt lat="45.44321" lon="2.92497">
        <ele>998.95</ele>
        <time>2011-09-03T09:05:06Z</time>
      </trkpt>
      <trkpt lat="45.44302" lon="2.92499">
        <ele>996.54</ele>
        <time>2011-09-03T09:05:08Z</time>
      </trkpt>
      <trkpt lat="45.44247" lon="2.92527">
        <ele>993.66</ele>
        <time>2011-09-03T09:05:19Z</time>
      </trkpt>
      <trkpt lat="45.44228" lon="2.92551">
        <ele>994.14</ele>
        <time>2011-09-03T09:05:30Z</time>
      </trkpt>
      <trkpt lat="45.44208" lon="2.92573">
        <ele>995.58</ele>
        <time>2011-09-03T09:05:53Z</time>
      </trkpt>
      <trkpt lat="45.4417" lon="2.92619">
        <ele>996.06</ele>
        <time>2011-09-03T09:05:58Z</time>
      </trkpt>
      <trkpt lat="45.44163" lon="2.92677">
        <ele>994.62</ele>
        <time>2011-09-03T09:06:03Z</time>
      </trkpt>
      <trkpt lat="45.44169" lon="2.9271">
        <ele>993.18</ele>
        <time>2011-09-03T09:06:06Z</time>
      </trkpt>
      <trkpt lat="45.44158" lon="2.92743">
        <ele>991.74</ele>
        <time>2011-09-03T09:06:10Z</time>
      </trkpt>
      <trkpt lat="45.44146" lon="2.92762">
        <ele>990.78</ele>
        <time>2011-09-03T09:06:13Z</time>
      </trkpt>
      <trkpt lat="45.44083" lon="2.92808">
        <ele>989.33</ele>
        <time>2011-09-03T09:06:20Z</time>
      </trkpt>
      <trkpt lat="45.44072" lon="2.92815">
        <ele>989.33</ele>
        <time>2011-09-03T09:06:21Z</time>
      </trkpt>
      <trkpt lat="45.44047" lon="2.92834">
        <ele>985.49</ele>
        <time>2011-09-03T09:06:25Z</time>
      </trkpt>
      <trkpt lat="45.44046" lon="2.92835">
        <ele>985.49</ele>
        <time>2011-09-03T09:06:26Z</time>
      </trkpt>
      <trkpt lat="45.44046" lon="2.92836">
        <ele>985.49</ele>
        <time>2011-09-03T09:06:40Z</time>
      </trkpt>
      <trkpt lat="45.4404" lon="2.92859">
        <ele>986.93</ele>
        <time>2011-09-03T09:06:44Z</time>
      </trkpt>
      <trkpt lat="45.44039" lon="2.92919">
        <ele>989.81</ele>
        <time>2011-09-03T09:06:48Z</time>
      </trkpt>
      <trkpt lat="45.44022" lon="2.93021">
        <ele>995.1</ele>
        <time>2011-09-03T09:06:53Z</time>
      </trkpt>
      <trkpt lat="45.44018" lon="2.93042">
        <ele>995.58</ele>
        <time>2011-09-03T09:06:54Z</time>
      </trkpt>
      <trkpt lat="45.44005" lon="2.93081">
        <ele>997.02</ele>
        <time>2011-09-03T09:06:56Z</time>
      </trkpt>
      <trkpt lat="45.43997" lon="2.93101">
        <ele>998.47</ele>
        <time>2011-09-03T09:06:57Z</time>
      </trkpt>
      <trkpt lat="45.43984" lon="2.93187">
        <ele>1001.83</ele>
        <time>2011-09-03T09:07:01Z</time>
      </trkpt>
      <trkpt lat="45.43983" lon="2.93278">
        <ele>1003.75</ele>
        <time>2011-09-03T09:07:06Z</time>
      </trkpt>
      <trkpt lat="45.43965" lon="2.93314">
        <ele>1004.23</ele>
        <time>2011-09-03T09:07:08Z</time>
      </trkpt>
      <trkpt lat="45.4393" lon="2.93386">
        <ele>1005.2</ele>
        <time>2011-09-03T09:07:12Z</time>
      </trkpt>
      <trkpt lat="45.43877" lon="2.93554">
        <ele>1004.72</ele>
        <time>2011-09-03T09:07:20Z</time>
      </trkpt>
      <trkpt lat="45.43829" lon="2.9362">
        <ele>1007.12</ele>
        <time>2011-09-03T09:07:24Z</time>
      </trkpt>
      <trkpt lat="45.43765" lon="2.93672">
        <ele>1011.93</ele>
        <time>2011-09-03T09:07:28Z</time>
      </trkpt>
      <trkpt lat="45.4373" lon="2.93693">
        <ele>1013.37</ele>
        <time>2011-09-03T09:07:30Z</time>
      </trkpt>
      <trkpt lat="45.43618" lon="2.93728">
        <ele>1017.69</ele>
        <time>2011-09-03T09:07:36Z</time>
      </trkpt>
      <trkpt lat="45.43558" lon="2.93773">
        <ele>1022.5</ele>
        <time>2011-09-03T09:07:40Z</time>
      </trkpt>
      <trkpt lat="45.43531" lon="2.93801">
        <ele>1023.46</ele>
        <time>2011-09-03T09:07:42Z</time>
      </trkpt>
      <trkpt lat="45.43517" lon="2.93813">
        <ele>1024.9</ele>
        <time>2011-09-03T09:07:43Z</time>
      </trkpt>
      <trkpt lat="45.43474" lon="2.93841">
        <ele>1026.34</ele>
        <time>2011-09-03T09:07:46Z</time>
      </trkpt>
      <trkpt lat="45.43436" lon="2.93873">
        <ele>1028.27</ele>
        <time>2011-09-03T09:07:49Z</time>
      </trkpt>
      <trkpt lat="45.43424" lon="2.93937">
        <ele>1029.71</ele>
        <time>2011-09-03T09:07:54Z</time>
      </trkpt>
      <trkpt lat="45.43443" lon="2.93961">
        <ele>1032.59</ele>
        <time>2011-09-03T09:07:56Z</time>
      </trkpt>
      <trkpt lat="45.43455" lon="2.9397">
        <ele>1032.59</ele>
        <time>2011-09-03T09:07:57Z</time>
      </trkpt>
      <trkpt lat="45.43518" lon="2.94029">
        <ele>1035.96</ele>
        <time>2011-09-03T09:08:02Z</time>
      </trkpt>
      <trkpt lat="45.43528" lon="2.94044">
        <ele>1037.4</ele>
        <time>2011-09-03T09:08:03Z</time>
      </trkpt>
      <trkpt lat="45.43551" lon="2.94086">
        <ele>1040.76</ele>
        <time>2011-09-03T09:08:05Z</time>
      </trkpt>
      <trkpt lat="45.43565" lon="2.94131">
        <ele>1042.21</ele>
        <time>2011-09-03T09:08:07Z</time>
      </trkpt>
      <trkpt lat="45.43576" lon="2.94176">
        <ele>1044.13</ele>
        <time>2011-09-03T09:08:09Z</time>
      </trkpt>
      <trkpt lat="45.43579" lon="2.94271">
        <ele>1048.94</ele>
        <time>2011-09-03T09:08:13Z</time>
      </trkpt>
      <trkpt lat="45.43564" lon="2.94344">
        <ele>1052.78</ele>
        <time>2011-09-03T09:08:16Z</time>
      </trkpt>
      <trkpt lat="45.43558" lon="2.94369">
        <ele>1053.74</ele>
        <time>2011-09-03T09:08:17Z</time>
      </trkpt>
      <trkpt lat="45.43532" lon="2.9444">
        <ele>1056.15</ele>
        <time>2011-09-03T09:08:20Z</time>
      </trkpt>
      <trkpt lat="45.43496" lon="2.94503">
        <ele>1058.55</ele>
        <time>2011-09-03T09:08:24Z</time>
      </trkpt>
      <trkpt lat="45.43485" lon="2.94515">
        <ele>1060.47</ele>
        <time>2011-09-03T09:08:25Z</time>
      </trkpt>
      <trkpt lat="45.43474" lon="2.94525">
        <ele>1062.39</ele>
        <time>2011-09-03T09:08:26Z</time>
      </trkpt>
      <trkpt lat="45.43424" lon="2.94546">
        <ele>1065.76</ele>
        <time>2011-09-03T09:08:29Z</time>
      </trkpt>
      <trkpt lat="45.43386" lon="2.94561">
        <ele>1068.64</ele>
        <time>2011-09-03T09:08:31Z</time>
      </trkpt>
      <trkpt lat="45.43349" lon="2.94577">
        <ele>1071.53</ele>
        <time>2011-09-03T09:08:33Z</time>
      </trkpt>
      <trkpt lat="45.4333" lon="2.94584">
        <ele>1071.53</ele>
        <time>2011-09-03T09:08:34Z</time>
      </trkpt>
      <trkpt lat="45.4331" lon="2.94592">
        <ele>1072.49</ele>
        <time>2011-09-03T09:08:35Z</time>
      </trkpt>
      <trkpt lat="45.43274" lon="2.94611">
        <ele>1071.53</ele>
        <time>2011-09-03T09:08:37Z</time>
      </trkpt>
      <trkpt lat="45.43259" lon="2.9462">
        <ele>1071.53</ele>
        <time>2011-09-03T09:08:38Z</time>
      </trkpt>
      <trkpt lat="45.43243" lon="2.94628">
        <ele>1072.49</ele>
        <time>2011-09-03T09:08:39Z</time>
      </trkpt>
      <trkpt lat="45.43226" lon="2.94633">
        <ele>1073.45</ele>
        <time>2011-09-03T09:08:40Z</time>
      </trkpt>
      <trkpt lat="45.43187" lon="2.94629">
        <ele>1073.45</ele>
        <time>2011-09-03T09:08:43Z</time>
      </trkpt>
      <trkpt lat="45.43154" lon="2.94628">
        <ele>1077.29</ele>
        <time>2011-09-03T09:08:46Z</time>
      </trkpt>
      <trkpt lat="45.43144" lon="2.94639">
        <ele>1078.26</ele>
        <time>2011-09-03T09:08:47Z</time>
      </trkpt>
      <trkpt lat="45.43099" lon="2.94696">
        <ele>1083.06</ele>
        <time>2011-09-03T09:08:51Z</time>
      </trkpt>
      <trkpt lat="45.43047" lon="2.94734">
        <ele>1088.83</ele>
        <time>2011-09-03T09:08:55Z</time>
      </trkpt>
      <trkpt lat="45.43015" lon="2.94748">
        <ele>1091.71</ele>
        <time>2011-09-03T09:08:57Z</time>
      </trkpt>
      <trkpt lat="45.42937" lon="2.94778">
        <ele>1096.04</ele>
        <time>2011-09-03T09:09:03Z</time>
      </trkpt>
      <trkpt lat="45.42908" lon="2.94755">
        <ele>1099.4</ele>
        <time>2011-09-03T09:09:05Z</time>
      </trkpt>
      <trkpt lat="45.4288" lon="2.94724">
        <ele>1101.33</ele>
        <time>2011-09-03T09:09:07Z</time>
      </trkpt>
      <trkpt lat="45.4283" lon="2.9471">
        <ele>1102.77</ele>
        <time>2011-09-03T09:09:11Z</time>
      </trkpt>
      <trkpt lat="45.42819" lon="2.94724">
        <ele>1103.25</ele>
        <time>2011-09-03T09:09:12Z</time>
      </trkpt>
      <trkpt lat="45.42789" lon="2.94776">
        <ele>1108.06</ele>
        <time>2011-09-03T09:09:15Z</time>
      </trkpt>
      <trkpt lat="45.4276" lon="2.94829">
        <ele>1110.94</ele>
        <time>2011-09-03T09:09:18Z</time>
      </trkpt>
      <trkpt lat="45.42717" lon="2.94875">
        <ele>1113.82</ele>
        <time>2011-09-03T09:09:22Z</time>
      </trkpt>
      <trkpt lat="45.42666" lon="2.94895">
        <ele>1118.63</ele>
        <time>2011-09-03T09:09:26Z</time>
      </trkpt>
      <trkpt lat="45.42638" lon="2.94902">
        <ele>1122.48</ele>
        <time>2011-09-03T09:09:28Z</time>
      </trkpt>
      <trkpt lat="45.42594" lon="2.94915">
        <ele>1126.8</ele>
        <time>2011-09-03T09:09:31Z</time>
      </trkpt>
      <trkpt lat="45.42565" lon="2.94924">
        <ele>1131.13</ele>
        <time>2011-09-03T09:09:33Z</time>
      </trkpt>
      <trkpt lat="45.42513" lon="2.94932">
        <ele>1135.94</ele>
        <time>2011-09-03T09:09:36Z</time>
      </trkpt>
      <trkpt lat="45.42474" lon="2.94937">
        <ele>1141.22</ele>
        <time>2011-09-03T09:09:38Z</time>
      </trkpt>
      <trkpt lat="45.42396" lon="2.9496">
        <ele>1143.14</ele>
        <time>2011-09-03T09:09:42Z</time>
      </trkpt>
      <trkpt lat="45.42338" lon="2.94974">
        <ele>1143.63</ele>
        <time>2011-09-03T09:09:45Z</time>
      </trkpt>
      <trkpt lat="45.42283" lon="2.94989">
        <ele>1148.91</ele>
        <time>2011-09-03T09:09:48Z</time>
      </trkpt>
      <trkpt lat="45.42244" lon="2.9499">
        <ele>1153.72</ele>
        <time>2011-09-03T09:09:50Z</time>
      </trkpt>
      <trkpt lat="45.42167" lon="2.94994">
        <ele>1156.6</ele>
        <time>2011-09-03T09:09:54Z</time>
      </trkpt>
      <trkpt lat="45.42133" lon="2.94998">
        <ele>1156.12</ele>
        <time>2011-09-03T09:09:56Z</time>
      </trkpt>
      <trkpt lat="45.42103" lon="2.95008">
        <ele>1158.05</ele>
        <time>2011-09-03T09:09:58Z</time>
      </trkpt>
      <trkpt lat="45.42052" lon="2.95003">
        <ele>1163.81</ele>
        <time>2011-09-03T09:10:01Z</time>
      </trkpt>
      <trkpt lat="45.41969" lon="2.95031">
        <ele>1168.62</ele>
        <time>2011-09-03T09:10:06Z</time>
      </trkpt>
      <trkpt lat="45.41957" lon="2.95053">
        <ele>1170.06</ele>
        <time>2011-09-03T09:10:07Z</time>
      </trkpt>
      <trkpt lat="45.41921" lon="2.95127">
        <ele>1174.87</ele>
        <time>2011-09-03T09:10:10Z</time>
      </trkpt>
      <trkpt lat="45.41909" lon="2.95153">
        <ele>1176.31</ele>
        <time>2011-09-03T09:10:11Z</time>
      </trkpt>
      <trkpt lat="45.41889" lon="2.95238">
        <ele>1177.75</ele>
        <time>2011-09-03T09:10:14Z</time>
      </trkpt>
      <trkpt lat="45.41863" lon="2.95327">
        <ele>1185.92</ele>
        <time>2011-09-03T09:10:17Z</time>
      </trkpt>
      <trkpt lat="45.41846" lon="2.95384">
        <ele>1185.44</ele>
        <time>2011-09-03T09:10:19Z</time>
      </trkpt>
      <trkpt lat="45.41784" lon="2.95462">
        <ele>1187.37</ele>
        <time>2011-09-03T09:10:24Z</time>
      </trkpt>
      <trkpt lat="45.41712" lon="2.95491">
        <ele>1194.09</ele>
        <time>2011-09-03T09:10:28Z</time>
      </trkpt>
      <trkpt lat="45.41696" lon="2.95501">
        <ele>1194.58</ele>
        <time>2011-09-03T09:10:29Z</time>
      </trkpt>
      <trkpt lat="45.41651" lon="2.95559">
        <ele>1195.54</ele>
        <time>2011-09-03T09:10:33Z</time>
      </trkpt>
      <trkpt lat="45.41635" lon="2.95599">
        <ele>1196.98</ele>
        <time>2011-09-03T09:10:35Z</time>
      </trkpt>
      <trkpt lat="45.41621" lon="2.9564">
        <ele>1197.94</ele>
        <time>2011-09-03T09:10:37Z</time>
      </trkpt>
      <trkpt lat="45.41613" lon="2.95734">
        <ele>1200.82</ele>
        <time>2011-09-03T09:10:41Z</time>
      </trkpt>
      <trkpt lat="45.41618" lon="2.95781">
        <ele>1202.27</ele>
        <time>2011-09-03T09:10:43Z</time>
      </trkpt>
      <trkpt lat="45.41608" lon="2.95866">
        <ele>1203.23</ele>
        <time>2011-09-03T09:10:47Z</time>
      </trkpt>
      <trkpt lat="45.41599" lon="2.95977">
        <ele>1207.55</ele>
        <time>2011-09-03T09:10:52Z</time>
      </trkpt>
      <trkpt lat="45.41621" lon="2.96051">
        <ele>1210.92</ele>
        <time>2011-09-03T09:10:55Z</time>
      </trkpt>
      <trkpt lat="45.41634" lon="2.96096">
        <ele>1208.51</ele>
        <time>2011-09-03T09:10:57Z</time>
      </trkpt>
      <trkpt lat="45.41636" lon="2.962">
        <ele>1207.55</ele>
        <time>2011-09-03T09:11:02Z</time>
      </trkpt>
      <trkpt lat="45.41617" lon="2.96303">
        <ele>1207.07</ele>
        <time>2011-09-03T09:11:07Z</time>
      </trkpt>
      <trkpt lat="45.41586" lon="2.96355">
        <ele>1205.15</ele>
        <time>2011-09-03T09:11:11Z</time>
      </trkpt>
      <trkpt lat="45.41575" lon="2.96356">
        <ele>1205.15</ele>
        <time>2011-09-03T09:11:12Z</time>
      </trkpt>
      <trkpt lat="45.4145" lon="2.96423">
        <ele>1209.48</ele>
        <time>2011-09-03T09:11:21Z</time>
      </trkpt>
      <trkpt lat="45.41338" lon="2.96493">
        <ele>1209</ele>
        <time>2011-09-03T09:11:29Z</time>
      </trkpt>
      <trkpt lat="45.41278" lon="2.96499">
        <ele>1210.44</ele>
        <time>2011-09-03T09:11:33Z</time>
      </trkpt>
      <trkpt lat="45.41153" lon="2.96476">
        <ele>1205.15</ele>
        <time>2011-09-03T09:11:40Z</time>
      </trkpt>
      <trkpt lat="45.41099" lon="2.96456">
        <ele>1201.3</ele>
        <time>2011-09-03T09:11:43Z</time>
      </trkpt>
      <trkpt lat="45.41083" lon="2.96448">
        <ele>1200.82</ele>
        <time>2011-09-03T09:11:44Z</time>
      </trkpt>
      <trkpt lat="45.4104" lon="2.96411">
        <ele>1196.98</ele>
        <time>2011-09-03T09:11:47Z</time>
      </trkpt>
      <trkpt lat="45.40951" lon="2.96313">
        <ele>1192.65</ele>
        <time>2011-09-03T09:11:53Z</time>
      </trkpt>
      <trkpt lat="45.40934" lon="2.96299">
        <ele>1191.69</ele>
        <time>2011-09-03T09:11:54Z</time>
      </trkpt>
      <trkpt lat="45.40897" lon="2.96278">
        <ele>1191.21</ele>
        <time>2011-09-03T09:11:56Z</time>
      </trkpt>
      <trkpt lat="45.40846" lon="2.96241">
        <ele>1184.96</ele>
        <time>2011-09-03T09:11:59Z</time>
      </trkpt>
      <trkpt lat="45.40756" lon="2.96238">
        <ele>1182.56</ele>
        <time>2011-09-03T09:12:04Z</time>
      </trkpt>
      <trkpt lat="45.40726" lon="2.96278">
        <ele>1180.64</ele>
        <time>2011-09-03T09:12:06Z</time>
      </trkpt>
      <trkpt lat="45.40702" lon="2.96329">
        <ele>1177.27</ele>
        <time>2011-09-03T09:12:08Z</time>
      </trkpt>
      <trkpt lat="45.40695" lon="2.96356">
        <ele>1177.27</ele>
        <time>2011-09-03T09:12:09Z</time>
      </trkpt>
      <trkpt lat="45.40671" lon="2.96444">
        <ele>1175.83</ele>
        <time>2011-09-03T09:12:13Z</time>
      </trkpt>
      <trkpt lat="45.40664" lon="2.96472">
        <ele>1175.35</ele>
        <time>2011-09-03T09:12:15Z</time>
      </trkpt>
      <trkpt lat="45.40666" lon="2.96502">
        <ele>1176.31</ele>
        <time>2011-09-03T09:12:17Z</time>
      </trkpt>
      <trkpt lat="45.4067" lon="2.96519">
        <ele>1177.75</ele>
        <time>2011-09-03T09:12:18Z</time>
      </trkpt>
      <trkpt lat="45.40692" lon="2.96584">
        <ele>1183.52</ele>
        <time>2011-09-03T09:12:21Z</time>
      </trkpt>
      <trkpt lat="45.4071" lon="2.96628">
        <ele>1185.44</ele>
        <time>2011-09-03T09:12:23Z</time>
      </trkpt>
      <trkpt lat="45.40723" lon="2.96744">
        <ele>1188.81</ele>
        <time>2011-09-03T09:12:28Z</time>
      </trkpt>
      <trkpt lat="45.4069" lon="2.96807">
        <ele>1191.21</ele>
        <time>2011-09-03T09:12:33Z</time>
      </trkpt>
      <trkpt lat="45.40658" lon="2.96813">
        <ele>1195.54</ele>
        <time>2011-09-03T09:12:35Z</time>
      </trkpt>
      <trkpt lat="45.40621" lon="2.96812">
        <ele>1196.5</ele>
        <time>2011-09-03T09:12:37Z</time>
      </trkpt>
      <trkpt lat="45.40582" lon="2.96803">
        <ele>1198.42</ele>
        <time>2011-09-03T09:12:39Z</time>
      </trkpt>
      <trkpt lat="45.40521" lon="2.96774">
        <ele>1199.86</ele>
        <time>2011-09-03T09:12:42Z</time>
      </trkpt>
      <trkpt lat="45.4042" lon="2.96707">
        <ele>1201.79</ele>
        <time>2011-09-03T09:12:47Z</time>
      </trkpt>
      <trkpt lat="45.40359" lon="2.96669">
        <ele>1199.86</ele>
        <time>2011-09-03T09:12:50Z</time>
      </trkpt>
      <trkpt lat="45.40279" lon="2.96658">
        <ele>1197.94</ele>
        <time>2011-09-03T09:12:54Z</time>
      </trkpt>
      <trkpt lat="45.40245" lon="2.96664">
        <ele>1196.5</ele>
        <time>2011-09-03T09:12:56Z</time>
      </trkpt>
      <trkpt lat="45.40205" lon="2.96692">
        <ele>1193.61</ele>
        <time>2011-09-03T09:12:59Z</time>
      </trkpt>
      <trkpt lat="45.40195" lon="2.96721">
        <ele>1191.69</ele>
        <time>2011-09-03T09:13:01Z</time>
      </trkpt>
      <trkpt lat="45.4019" lon="2.96743">
        <ele>1191.21</ele>
        <time>2011-09-03T09:13:07Z</time>
      </trkpt>
      <trkpt lat="45.4019" lon="2.96744">
        <ele>1191.69</ele>
        <time>2011-09-03T09:13:30Z</time>
      </trkpt>
      <trkpt lat="45.40152" lon="2.96717">
        <ele>1195.06</ele>
        <time>2011-09-03T09:13:36Z</time>
      </trkpt>
      <trkpt lat="45.40119" lon="2.96658">
        <ele>1200.34</ele>
        <time>2011-09-03T09:13:40Z</time>
      </trkpt>
      <trkpt lat="45.40095" lon="2.96592">
        <ele>1201.79</ele>
        <time>2011-09-03T09:13:43Z</time>
      </trkpt>
      <trkpt lat="45.40069" lon="2.9655">
        <ele>1205.63</ele>
        <time>2011-09-03T09:13:45Z</time>
      </trkpt>
      <trkpt lat="45.40025" lon="2.96484">
        <ele>1209.48</ele>
        <time>2011-09-03T09:13:48Z</time>
      </trkpt>
      <trkpt lat="45.40009" lon="2.96463">
        <ele>1210.44</ele>
        <time>2011-09-03T09:13:49Z</time>
      </trkpt>
      <trkpt lat="45.39969" lon="2.9639">
        <ele>1212.36</ele>
        <time>2011-09-03T09:13:52Z</time>
      </trkpt>
      <trkpt lat="45.39926" lon="2.96332">
        <ele>1212.36</ele>
        <time>2011-09-03T09:13:55Z</time>
      </trkpt>
      <trkpt lat="45.3989" lon="2.96273">
        <ele>1214.76</ele>
        <time>2011-09-03T09:13:58Z</time>
      </trkpt>
      <trkpt lat="45.39872" lon="2.96221">
        <ele>1218.61</ele>
        <time>2011-09-03T09:14:00Z</time>
      </trkpt>
      <trkpt lat="45.39853" lon="2.96165">
        <ele>1222.45</ele>
        <time>2011-09-03T09:14:02Z</time>
      </trkpt>
      <trkpt lat="45.39843" lon="2.96137">
        <ele>1222.45</ele>
        <time>2011-09-03T09:14:03Z</time>
      </trkpt>
      <trkpt lat="45.39803" lon="2.96062">
        <ele>1225.34</ele>
        <time>2011-09-03T09:14:06Z</time>
      </trkpt>
      <trkpt lat="45.39771" lon="2.96014">
        <ele>1228.22</ele>
        <time>2011-09-03T09:14:08Z</time>
      </trkpt>
      <trkpt lat="45.39742" lon="2.95972">
        <ele>1226.78</ele>
        <time>2011-09-03T09:14:10Z</time>
      </trkpt>
      <trkpt lat="45.39722" lon="2.95928">
        <ele>1223.42</ele>
        <time>2011-09-03T09:14:12Z</time>
      </trkpt>
      <trkpt lat="45.39716" lon="2.95875">
        <ele>1221.49</ele>
        <time>2011-09-03T09:14:14Z</time>
      </trkpt>
      <trkpt lat="45.39715" lon="2.95787">
        <ele>1220.53</ele>
        <time>2011-09-03T09:14:17Z</time>
      </trkpt>
      <trkpt lat="45.39688" lon="2.95682">
        <ele>1217.65</ele>
        <time>2011-09-03T09:14:21Z</time>
      </trkpt>
      <trkpt lat="45.39671" lon="2.9559">
        <ele>1212.36</ele>
        <time>2011-09-03T09:14:25Z</time>
      </trkpt>
      <trkpt lat="45.39677" lon="2.95525">
        <ele>1210.92</ele>
        <time>2011-09-03T09:14:28Z</time>
      </trkpt>
      <trkpt lat="45.39654" lon="2.95465">
        <ele>1214.28</ele>
        <time>2011-09-03T09:14:31Z</time>
      </trkpt>
      <trkpt lat="45.39627" lon="2.9539">
        <ele>1218.13</ele>
        <time>2011-09-03T09:14:34Z</time>
      </trkpt>
      <trkpt lat="45.39612" lon="2.9533">
        <ele>1221.01</ele>
        <time>2011-09-03T09:14:36Z</time>
      </trkpt>
      <trkpt lat="45.39597" lon="2.95265">
        <ele>1224.38</ele>
        <time>2011-09-03T09:14:38Z</time>
      </trkpt>
      <trkpt lat="45.39569" lon="2.9511">
        <ele>1222.93</ele>
        <time>2011-09-03T09:14:43Z</time>
      </trkpt>
      <trkpt lat="45.39577" lon="2.94983">
        <ele>1220.53</ele>
        <time>2011-09-03T09:14:48Z</time>
      </trkpt>
      <trkpt lat="45.3958" lon="2.94962">
        <ele>1219.57</ele>
        <time>2011-09-03T09:14:49Z</time>
      </trkpt>
      <trkpt lat="45.39591" lon="2.94929">
        <ele>1217.17</ele>
        <time>2011-09-03T09:14:51Z</time>
      </trkpt>
      <trkpt lat="45.39639" lon="2.94911">
        <ele>1213.32</ele>
        <time>2011-09-03T09:14:55Z</time>
      </trkpt>
      <trkpt lat="45.39656" lon="2.94881">
        <ele>1216.69</ele>
        <time>2011-09-03T09:14:57Z</time>
      </trkpt>
      <trkpt lat="45.39712" lon="2.94793">
        <ele>1218.13</ele>
        <time>2011-09-03T09:15:02Z</time>
      </trkpt>
      <trkpt lat="45.39747" lon="2.94708">
        <ele>1221.01</ele>
        <time>2011-09-03T09:15:06Z</time>
      </trkpt>
      <trkpt lat="45.39749" lon="2.94684">
        <ele>1220.05</ele>
        <time>2011-09-03T09:15:07Z</time>
      </trkpt>
      <trkpt lat="45.39733" lon="2.94615">
        <ele>1222.45</ele>
        <time>2011-09-03T09:15:10Z</time>
      </trkpt>
      <trkpt lat="45.39692" lon="2.94526">
        <ele>1220.53</ele>
        <time>2011-09-03T09:15:14Z</time>
      </trkpt>
      <trkpt lat="45.39684" lon="2.94469">
        <ele>1218.61</ele>
        <time>2011-09-03T09:15:17Z</time>
      </trkpt>
      <trkpt lat="45.39702" lon="2.94436">
        <ele>1218.61</ele>
        <time>2011-09-03T09:15:19Z</time>
      </trkpt>
      <trkpt lat="45.39739" lon="2.94388">
        <ele>1219.09</ele>
        <time>2011-09-03T09:15:22Z</time>
      </trkpt>
      <trkpt lat="45.39749" lon="2.94314">
        <ele>1220.53</ele>
        <time>2011-09-03T09:15:26Z</time>
      </trkpt>
      <trkpt lat="45.39744" lon="2.94292">
        <ele>1220.05</ele>
        <time>2011-09-03T09:15:27Z</time>
      </trkpt>
      <trkpt lat="45.39754" lon="2.94199">
        <ele>1220.53</ele>
        <time>2011-09-03T09:15:31Z</time>
      </trkpt>
      <trkpt lat="45.39737" lon="2.94122">
        <ele>1223.42</ele>
        <time>2011-09-03T09:15:34Z</time>
      </trkpt>
      <trkpt lat="45.39701" lon="2.94037">
        <ele>1225.82</ele>
        <time>2011-09-03T09:15:37Z</time>
      </trkpt>
      <trkpt lat="45.39643" lon="2.93886">
        <ele>1225.34</ele>
        <time>2011-09-03T09:15:42Z</time>
      </trkpt>
      <trkpt lat="45.39608" lon="2.93804">
        <ele>1225.82</ele>
        <time>2011-09-03T09:15:45Z</time>
      </trkpt>
      <trkpt lat="45.39573" lon="2.93729">
        <ele>1220.05</ele>
        <time>2011-09-03T09:15:48Z</time>
      </trkpt>
      <trkpt lat="45.39556" lon="2.93626">
        <ele>1218.61</ele>
        <time>2011-09-03T09:15:52Z</time>
      </trkpt>
      <trkpt lat="45.39548" lon="2.93483">
        <ele>1219.09</ele>
        <time>2011-09-03T09:15:57Z</time>
      </trkpt>
      <trkpt lat="45.3954" lon="2.93348">
        <ele>1219.57</ele>
        <time>2011-09-03T09:16:02Z</time>
      </trkpt>
      <trkpt lat="45.39523" lon="2.93248">
        <ele>1221.97</ele>
        <time>2011-09-03T09:16:06Z</time>
      </trkpt>
      <trkpt lat="45.39491" lon="2.93151">
        <ele>1223.42</ele>
        <time>2011-09-03T09:16:10Z</time>
      </trkpt>
      <trkpt lat="45.39405" lon="2.92984">
        <ele>1220.53</ele>
        <time>2011-09-03T09:16:18Z</time>
      </trkpt>
      <trkpt lat="45.39303" lon="2.92845">
        <ele>1217.17</ele>
        <time>2011-09-03T09:16:25Z</time>
      </trkpt>
      <trkpt lat="45.39229" lon="2.92749">
        <ele>1217.17</ele>
        <time>2011-09-03T09:16:30Z</time>
      </trkpt>
      <trkpt lat="45.39202" lon="2.92708">
        <ele>1215.24</ele>
        <time>2011-09-03T09:16:32Z</time>
      </trkpt>
      <trkpt lat="45.39056" lon="2.92533">
        <ele>1216.21</ele>
        <time>2011-09-03T09:16:42Z</time>
      </trkpt>
      <trkpt lat="45.39014" lon="2.92479">
        <ele>1212.84</ele>
        <time>2011-09-03T09:16:45Z</time>
      </trkpt>
      <trkpt lat="45.38973" lon="2.92442">
        <ele>1209.48</ele>
        <time>2011-09-03T09:16:48Z</time>
      </trkpt>
      <trkpt lat="45.38947" lon="2.92424">
        <ele>1206.11</ele>
        <time>2011-09-03T09:16:50Z</time>
      </trkpt>
      <trkpt lat="45.38937" lon="2.92416">
        <ele>1203.23</ele>
        <time>2011-09-03T09:16:51Z</time>
      </trkpt>
      <trkpt lat="45.389" lon="2.92413">
        <ele>1199.86</ele>
        <time>2011-09-03T09:16:55Z</time>
      </trkpt>
      <trkpt lat="45.38883" lon="2.92423">
        <ele>1198.9</ele>
        <time>2011-09-03T09:16:57Z</time>
      </trkpt>
      <trkpt lat="45.3886" lon="2.92417">
        <ele>1195.06</ele>
        <time>2011-09-03T09:17:00Z</time>
      </trkpt>
      <trkpt lat="45.38856" lon="2.92411">
        <ele>1195.06</ele>
        <time>2011-09-03T09:17:01Z</time>
      </trkpt>
      <trkpt lat="45.38845" lon="2.92375">
        <ele>1194.09</ele>
        <time>2011-09-03T09:17:09Z</time>
      </trkpt>
      <trkpt lat="45.38847" lon="2.92371">
        <ele>1195.06</ele>
        <time>2011-09-03T09:17:23Z</time>
      </trkpt>
      <trkpt lat="45.38867" lon="2.92318">
        <ele>1197.94</ele>
        <time>2011-09-03T09:17:28Z</time>
      </trkpt>
      <trkpt lat="45.38873" lon="2.92287">
        <ele>1202.75</ele>
        <time>2011-09-03T09:17:30Z</time>
      </trkpt>
      <trkpt lat="45.38873" lon="2.92273">
        <ele>1202.75</ele>
        <time>2011-09-03T09:17:31Z</time>
      </trkpt>
      <trkpt lat="45.3886" lon="2.92247">
        <ele>1204.67</ele>
        <time>2011-09-03T09:17:34Z</time>
      </trkpt>
      <trkpt lat="45.38854" lon="2.92195">
        <ele>1210.44</ele>
        <time>2011-09-03T09:17:41Z</time>
      </trkpt>
      <trkpt lat="45.38847" lon="2.92176">
        <ele>1212.36</ele>
        <time>2011-09-03T09:17:43Z</time>
      </trkpt>
      <trkpt lat="45.38825" lon="2.92163">
        <ele>1214.28</ele>
        <time>2011-09-03T09:17:46Z</time>
      </trkpt>
      <trkpt lat="45.38812" lon="2.92132">
        <ele>1216.69</ele>
        <time>2011-09-03T09:17:52Z</time>
      </trkpt>
      <trkpt lat="45.3885" lon="2.92107">
        <ele>1219.09</ele>
        <time>2011-09-03T09:17:57Z</time>
      </trkpt>
      <trkpt lat="45.38875" lon="2.92062">
        <ele>1221.49</ele>
        <time>2011-09-03T09:18:01Z</time>
      </trkpt>
      <trkpt lat="45.38893" lon="2.92">
        <ele>1225.82</ele>
        <time>2011-09-03T09:18:05Z</time>
      </trkpt>
      <trkpt lat="45.38901" lon="2.91966">
        <ele>1229.18</ele>
        <time>2011-09-03T09:18:07Z</time>
      </trkpt>
      <trkpt lat="45.38905" lon="2.91949">
        <ele>1230.62</ele>
        <time>2011-09-03T09:18:08Z</time>
      </trkpt>
      <trkpt lat="45.38909" lon="2.91898">
        <ele>1230.62</ele>
        <time>2011-09-03T09:18:14Z</time>
      </trkpt>
      <trkpt lat="45.38914" lon="2.91887">
        <ele>1230.14</ele>
        <time>2011-09-03T09:18:16Z</time>
      </trkpt>
      <trkpt lat="45.38934" lon="2.91864">
        <ele>1230.62</ele>
        <time>2011-09-03T09:18:21Z</time>
      </trkpt>
      <trkpt lat="45.38944" lon="2.91847">
        <ele>1229.18</ele>
        <time>2011-09-03T09:18:26Z</time>
      </trkpt>
      <trkpt lat="45.38945" lon="2.91844">
        <ele>1229.66</ele>
        <time>2011-09-03T09:18:45Z</time>
      </trkpt>
      <trkpt lat="45.38945" lon="2.91844">
        <ele>1229.18</ele>
        <time>2011-09-03T09:19:29Z</time>
      </trkpt>
      <trkpt lat="45.38944" lon="2.9184">
        <ele>1231.11</ele>
        <time>2011-09-03T09:24:49Z</time>
      </trkpt>
      <trkpt lat="45.38935" lon="2.91843">
        <ele>1233.03</ele>
        <time>2011-09-03T09:24:54Z</time>
      </trkpt>
      <trkpt lat="45.3891" lon="2.91889">
        <ele>1233.51</ele>
        <time>2011-09-03T09:25:02Z</time>
      </trkpt>
      <trkpt lat="45.38906" lon="2.91917">
        <ele>1232.55</ele>
        <time>2011-09-03T09:25:05Z</time>
      </trkpt>
      <trkpt lat="45.38893" lon="2.91992">
        <ele>1229.18</ele>
        <time>2011-09-03T09:25:13Z</time>
      </trkpt>
      <trkpt lat="45.38878" lon="2.92043">
        <ele>1226.78</ele>
        <time>2011-09-03T09:25:18Z</time>
      </trkpt>
      <trkpt lat="45.38872" lon="2.92063">
        <ele>1223.42</ele>
        <time>2011-09-03T09:25:20Z</time>
      </trkpt>
      <trkpt lat="45.38869" lon="2.92072">
        <ele>1223.42</ele>
        <time>2011-09-03T09:25:21Z</time>
      </trkpt>
      <trkpt lat="45.38865" lon="2.92081">
        <ele>1223.42</ele>
        <time>2011-09-03T09:25:22Z</time>
      </trkpt>
      <trkpt lat="45.38839" lon="2.92117">
        <ele>1220.05</ele>
        <time>2011-09-03T09:25:28Z</time>
      </trkpt>
      <trkpt lat="45.38802" lon="2.92146">
        <ele>1217.65</ele>
        <time>2011-09-03T09:25:34Z</time>
      </trkpt>
      <trkpt lat="45.38801" lon="2.92154">
        <ele>1217.17</ele>
        <time>2011-09-03T09:25:35Z</time>
      </trkpt>
      <trkpt lat="45.38805" lon="2.92164">
        <ele>1216.21</ele>
        <time>2011-09-03T09:25:37Z</time>
      </trkpt>
      <trkpt lat="45.38815" lon="2.92167">
        <ele>1214.76</ele>
        <time>2011-09-03T09:25:39Z</time>
      </trkpt>
      <trkpt lat="45.38847" lon="2.92219">
        <ele>1211.4</ele>
        <time>2011-09-03T09:25:47Z</time>
      </trkpt>
      <trkpt lat="45.38829" lon="2.92236">
        <ele>1209.48</ele>
        <time>2011-09-03T09:25:52Z</time>
      </trkpt>
      <trkpt lat="45.38828" lon="2.92256">
        <ele>1208.51</ele>
        <time>2011-09-03T09:25:57Z</time>
      </trkpt>
      <trkpt lat="45.38846" lon="2.92249">
        <ele>1207.55</ele>
        <time>2011-09-03T09:26:02Z</time>
      </trkpt>
      <trkpt lat="45.38863" lon="2.92255">
        <ele>1206.11</ele>
        <time>2011-09-03T09:26:05Z</time>
      </trkpt>
      <trkpt lat="45.38873" lon="2.92289">
        <ele>1203.23</ele>
        <time>2011-09-03T09:26:09Z</time>
      </trkpt>
      <trkpt lat="45.38869" lon="2.9231">
        <ele>1201.3</ele>
        <time>2011-09-03T09:26:11Z</time>
      </trkpt>
      <trkpt lat="45.38862" lon="2.9234">
        <ele>1198.9</ele>
        <time>2011-09-03T09:26:14Z</time>
      </trkpt>
      <trkpt lat="45.38831" lon="2.92358">
        <ele>1198.9</ele>
        <time>2011-09-03T09:26:19Z</time>
      </trkpt>
      <trkpt lat="45.38823" lon="2.92354">
        <ele>1199.86</ele>
        <time>2011-09-03T09:26:20Z</time>
      </trkpt>
      <trkpt lat="45.38799" lon="2.92337">
        <ele>1201.79</ele>
        <time>2011-09-03T09:26:23Z</time>
      </trkpt>
      <trkpt lat="45.38775" lon="2.92309">
        <ele>1203.71</ele>
        <time>2011-09-03T09:26:26Z</time>
      </trkpt>
      <trkpt lat="45.38749" lon="2.92268">
        <ele>1207.07</ele>
        <time>2011-09-03T09:26:30Z</time>
      </trkpt>
      <trkpt lat="45.38714" lon="2.92223">
        <ele>1208.51</ele>
        <time>2011-09-03T09:26:34Z</time>
      </trkpt>
      <trkpt lat="45.38691" lon="2.92204">
        <ele>1214.28</ele>
        <time>2011-09-03T09:26:36Z</time>
      </trkpt>
      <trkpt lat="45.38678" lon="2.92198">
        <ele>1213.8</ele>
        <time>2011-09-03T09:26:37Z</time>
      </trkpt>
      <trkpt lat="45.38525" lon="2.9214">
        <ele>1217.65</ele>
        <time>2011-09-03T09:26:48Z</time>
      </trkpt>
      <trkpt lat="45.38497" lon="2.92123">
        <ele>1218.61</ele>
        <time>2011-09-03T09:26:50Z</time>
      </trkpt>
      <trkpt lat="45.3844" lon="2.92081">
        <ele>1220.05</ele>
        <time>2011-09-03T09:26:54Z</time>
      </trkpt>
      <trkpt lat="45.38404" lon="2.92034">
        <ele>1222.93</ele>
        <time>2011-09-03T09:26:57Z</time>
      </trkpt>
      <trkpt lat="45.38325" lon="2.91843">
        <ele>1222.93</ele>
        <time>2011-09-03T09:27:07Z</time>
      </trkpt>
      <trkpt lat="45.38314" lon="2.91813">
        <ele>1221.97</ele>
        <time>2011-09-03T09:27:09Z</time>
      </trkpt>
      <trkpt lat="45.38298" lon="2.91763">
        <ele>1218.61</ele>
        <time>2011-09-03T09:27:14Z</time>
      </trkpt>
      <trkpt lat="45.38296" lon="2.91753">
        <ele>1217.65</ele>
        <time>2011-09-03T09:27:16Z</time>
      </trkpt>
      <trkpt lat="45.38289" lon="2.91708">
        <ele>1219.57</ele>
        <time>2011-09-03T09:27:23Z</time>
      </trkpt>
      <trkpt lat="45.38275" lon="2.9159">
        <ele>1221.97</ele>
        <time>2011-09-03T09:27:30Z</time>
      </trkpt>
      <trkpt lat="45.38273" lon="2.91374">
        <ele>1223.42</ele>
        <time>2011-09-03T09:27:39Z</time>
      </trkpt>
      <trkpt lat="45.38262" lon="2.91284">
        <ele>1220.05</ele>
        <time>2011-09-03T09:27:43Z</time>
      </trkpt>
      <trkpt lat="45.38267" lon="2.91208">
        <ele>1216.21</ele>
        <time>2011-09-03T09:27:47Z</time>
      </trkpt>
      <trkpt lat="45.3827" lon="2.91191">
        <ele>1216.21</ele>
        <time>2011-09-03T09:27:48Z</time>
      </trkpt>
      <trkpt lat="45.38258" lon="2.91119">
        <ele>1215.72</ele>
        <time>2011-09-03T09:27:53Z</time>
      </trkpt>
      <trkpt lat="45.38246" lon="2.911">
        <ele>1214.28</ele>
        <time>2011-09-03T09:27:55Z</time>
      </trkpt>
      <trkpt lat="45.38237" lon="2.91081">
        <ele>1212.36</ele>
        <time>2011-09-03T09:27:57Z</time>
      </trkpt>
      <trkpt lat="45.38228" lon="2.9107">
        <ele>1211.88</ele>
        <time>2011-09-03T09:27:59Z</time>
      </trkpt>
      <trkpt lat="45.38216" lon="2.91071">
        <ele>1211.4</ele>
        <time>2011-09-03T09:28:01Z</time>
      </trkpt>
      <trkpt lat="45.38177" lon="2.91089">
        <ele>1214.76</ele>
        <time>2011-09-03T09:28:05Z</time>
      </trkpt>
      <trkpt lat="45.38166" lon="2.91095">
        <ele>1214.76</ele>
        <time>2011-09-03T09:28:06Z</time>
      </trkpt>
      <trkpt lat="45.38131" lon="2.91126">
        <ele>1217.65</ele>
        <time>2011-09-03T09:28:09Z</time>
      </trkpt>
      <trkpt lat="45.38119" lon="2.91138">
        <ele>1218.13</ele>
        <time>2011-09-03T09:28:10Z</time>
      </trkpt>
      <trkpt lat="45.38067" lon="2.91164">
        <ele>1221.49</ele>
        <time>2011-09-03T09:28:14Z</time>
      </trkpt>
      <trkpt lat="45.37979" lon="2.9119">
        <ele>1221.01</ele>
        <time>2011-09-03T09:28:21Z</time>
      </trkpt>
      <trkpt lat="45.37936" lon="2.91199">
        <ele>1219.09</ele>
        <time>2011-09-03T09:28:25Z</time>
      </trkpt>
      <trkpt lat="45.37876" lon="2.91233">
        <ele>1221.49</ele>
        <time>2011-09-03T09:28:33Z</time>
      </trkpt>
      <trkpt lat="45.37817" lon="2.91266">
        <ele>1221.97</ele>
        <time>2011-09-03T09:28:40Z</time>
      </trkpt>
      <trkpt lat="45.3779" lon="2.91275">
        <ele>1224.38</ele>
        <time>2011-09-03T09:28:43Z</time>
      </trkpt>
      <trkpt lat="45.37776" lon="2.91272">
        <ele>1224.86</ele>
        <time>2011-09-03T09:28:45Z</time>
      </trkpt>
      <trkpt lat="45.37723" lon="2.91248">
        <ele>1225.34</ele>
        <time>2011-09-03T09:28:57Z</time>
      </trkpt>
      <trkpt lat="45.37706" lon="2.91238">
        <ele>1228.22</ele>
        <time>2011-09-03T09:29:01Z</time>
      </trkpt>
      <trkpt lat="45.37701" lon="2.91235">
        <ele>1228.7</ele>
        <time>2011-09-03T09:29:02Z</time>
      </trkpt>
      <trkpt lat="45.37686" lon="2.91221">
        <ele>1230.14</ele>
        <time>2011-09-03T09:29:07Z</time>
      </trkpt>
      <trkpt lat="45.37681" lon="2.91209">
        <ele>1231.11</ele>
        <time>2011-09-03T09:29:09Z</time>
      </trkpt>
      <trkpt lat="45.37667" lon="2.91159">
        <ele>1231.11</ele>
        <time>2011-09-03T09:29:17Z</time>
      </trkpt>
      <trkpt lat="45.37664" lon="2.91165">
        <ele>1230.14</ele>
        <time>2011-09-03T09:29:24Z</time>
      </trkpt>
      <trkpt lat="45.37664" lon="2.91165">
        <ele>1230.62</ele>
        <time>2011-09-03T09:29:25Z</time>
      </trkpt>
      <trkpt lat="45.37673" lon="2.91184">
        <ele>1230.62</ele>
        <time>2011-09-03T09:29:45Z</time>
      </trkpt>
      <trkpt lat="45.37685" lon="2.91223">
        <ele>1229.18</ele>
        <time>2011-09-03T09:29:53Z</time>
      </trkpt>
      <trkpt lat="45.37706" lon="2.91241">
        <ele>1227.26</ele>
        <time>2011-09-03T09:29:58Z</time>
      </trkpt>
      <trkpt lat="45.37746" lon="2.91262">
        <ele>1223.42</ele>
        <time>2011-09-03T09:30:06Z</time>
      </trkpt>
      <trkpt lat="45.37783" lon="2.91275">
        <ele>1223.42</ele>
        <time>2011-09-03T09:30:12Z</time>
      </trkpt>
      <trkpt lat="45.37818" lon="2.91267">
        <ele>1221.49</ele>
        <time>2011-09-03T09:30:16Z</time>
      </trkpt>
      <trkpt lat="45.37843" lon="2.91252">
        <ele>1220.05</ele>
        <time>2011-09-03T09:30:19Z</time>
      </trkpt>
      <trkpt lat="45.37921" lon="2.91207">
        <ele>1219.57</ele>
        <time>2011-09-03T09:30:27Z</time>
      </trkpt>
      <trkpt lat="45.38034" lon="2.91178">
        <ele>1220.05</ele>
        <time>2011-09-03T09:30:35Z</time>
      </trkpt>
      <trkpt lat="45.38086" lon="2.91159">
        <ele>1218.61</ele>
        <time>2011-09-03T09:30:39Z</time>
      </trkpt>
      <trkpt lat="45.381" lon="2.91154">
        <ele>1217.17</ele>
        <time>2011-09-03T09:30:40Z</time>
      </trkpt>
      <trkpt lat="45.38155" lon="2.91105">
        <ele>1213.8</ele>
        <time>2011-09-03T09:30:45Z</time>
      </trkpt>
      <trkpt lat="45.38185" lon="2.91087">
        <ele>1211.88</ele>
        <time>2011-09-03T09:30:48Z</time>
      </trkpt>
      <trkpt lat="45.38223" lon="2.91071">
        <ele>1211.88</ele>
        <time>2011-09-03T09:30:55Z</time>
      </trkpt>
      <trkpt lat="45.38224" lon="2.9107">
        <ele>1210.44</ele>
        <time>2011-09-03T09:30:57Z</time>
      </trkpt>
      <trkpt lat="45.38224" lon="2.9107">
        <ele>1205.15</ele>
        <time>2011-09-03T09:31:41Z</time>
      </trkpt>
      <trkpt lat="45.38224" lon="2.9107">
        <ele>1210.92</ele>
        <time>2011-09-03T09:31:42Z</time>
      </trkpt>
      <trkpt lat="45.38226" lon="2.9107">
        <ele>1210.92</ele>
        <time>2011-09-03T09:33:19Z</time>
      </trkpt>
      <trkpt lat="45.38254" lon="2.91113">
        <ele>1213.32</ele>
        <time>2011-09-03T09:33:25Z</time>
      </trkpt>
      <trkpt lat="45.38274" lon="2.91176">
        <ele>1215.24</ele>
        <time>2011-09-03T09:33:30Z</time>
      </trkpt>
      <trkpt lat="45.38272" lon="2.91192">
        <ele>1217.17</ele>
        <time>2011-09-03T09:33:31Z</time>
      </trkpt>
      <trkpt lat="45.38266" lon="2.91226">
        <ele>1216.69</ele>
        <time>2011-09-03T09:33:33Z</time>
      </trkpt>
      <trkpt lat="45.38265" lon="2.91302">
        <ele>1219.09</ele>
        <time>2011-09-03T09:33:37Z</time>
      </trkpt>
      <trkpt lat="45.38271" lon="2.91354">
        <ele>1219.09</ele>
        <time>2011-09-03T09:33:40Z</time>
      </trkpt>
      <trkpt lat="45.38273" lon="2.91393">
        <ele>1216.21</ele>
        <time>2011-09-03T09:33:45Z</time>
      </trkpt>
      <trkpt lat="45.38278" lon="2.91416">
        <ele>1216.21</ele>
        <time>2011-09-03T09:33:55Z</time>
      </trkpt>
      <trkpt lat="45.38278" lon="2.91419">
        <ele>1216.69</ele>
        <time>2011-09-03T09:33:56Z</time>
      </trkpt>
      <trkpt lat="45.38277" lon="2.91433">
        <ele>1216.69</ele>
        <time>2011-09-03T09:33:58Z</time>
      </trkpt>
      <trkpt lat="45.38279" lon="2.91472">
        <ele>1218.13</ele>
        <time>2011-09-03T09:34:02Z</time>
      </trkpt>
      <trkpt lat="45.38276" lon="2.91559">
        <ele>1221.49</ele>
        <time>2011-09-03T09:34:07Z</time>
      </trkpt>
      <trkpt lat="45.38276" lon="2.91601">
        <ele>1221.49</ele>
        <time>2011-09-03T09:34:09Z</time>
      </trkpt>
      <trkpt lat="45.38304" lon="2.91785">
        <ele>1221.49</ele>
        <time>2011-09-03T09:34:18Z</time>
      </trkpt>
      <trkpt lat="45.38382" lon="2.91986">
        <ele>1219.57</ele>
        <time>2011-09-03T09:34:28Z</time>
      </trkpt>
      <trkpt lat="45.38407" lon="2.92042">
        <ele>1218.61</ele>
        <time>2011-09-03T09:34:31Z</time>
      </trkpt>
      <trkpt lat="45.38477" lon="2.92114">
        <ele>1213.32</ele>
        <time>2011-09-03T09:34:37Z</time>
      </trkpt>
      <trkpt lat="45.38503" lon="2.9213">
        <ele>1212.36</ele>
        <time>2011-09-03T09:34:39Z</time>
      </trkpt>
      <trkpt lat="45.3861" lon="2.9218">
        <ele>1214.76</ele>
        <time>2011-09-03T09:34:46Z</time>
      </trkpt>
      <trkpt lat="45.38682" lon="2.92202">
        <ele>1211.88</ele>
        <time>2011-09-03T09:34:51Z</time>
      </trkpt>
      <trkpt lat="45.38714" lon="2.92201">
        <ele>1211.4</ele>
        <time>2011-09-03T09:34:54Z</time>
      </trkpt>
      <trkpt lat="45.38764" lon="2.92216">
        <ele>1209.48</ele>
        <time>2011-09-03T09:35:00Z</time>
      </trkpt>
      <trkpt lat="45.38782" lon="2.92221">
        <ele>1209.48</ele>
        <time>2011-09-03T09:35:03Z</time>
      </trkpt>
      <trkpt lat="45.3882" lon="2.92236">
        <ele>1211.88</ele>
        <time>2011-09-03T09:35:08Z</time>
      </trkpt>
      <trkpt lat="45.38853" lon="2.92204">
        <ele>1212.84</ele>
        <time>2011-09-03T09:35:15Z</time>
      </trkpt>
      <trkpt lat="45.38848" lon="2.92184">
        <ele>1216.21</ele>
        <time>2011-09-03T09:35:17Z</time>
      </trkpt>
      <trkpt lat="45.38843" lon="2.92177">
        <ele>1216.21</ele>
        <time>2011-09-03T09:35:18Z</time>
      </trkpt>
      <trkpt lat="45.38829" lon="2.92166">
        <ele>1218.13</ele>
        <time>2011-09-03T09:35:20Z</time>
      </trkpt>
      <trkpt lat="45.38816" lon="2.92161">
        <ele>1217.17</ele>
        <time>2011-09-03T09:35:22Z</time>
      </trkpt>
      <trkpt lat="45.38819" lon="2.92128">
        <ele>1221.49</ele>
        <time>2011-09-03T09:35:28Z</time>
      </trkpt>
      <trkpt lat="45.38877" lon="2.92055">
        <ele>1226.3</ele>
        <time>2011-09-03T09:35:35Z</time>
      </trkpt>
      <trkpt lat="45.38888" lon="2.92018">
        <ele>1229.18</ele>
        <time>2011-09-03T09:35:37Z</time>
      </trkpt>
      <trkpt lat="45.38901" lon="2.91968">
        <ele>1233.99</ele>
        <time>2011-09-03T09:35:40Z</time>
      </trkpt>
      <trkpt lat="45.38904" lon="2.91951">
        <ele>1233.99</ele>
        <time>2011-09-03T09:35:41Z</time>
      </trkpt>
      <trkpt lat="45.3891" lon="2.919">
        <ele>1233.99</ele>
        <time>2011-09-03T09:35:46Z</time>
      </trkpt>
      <trkpt lat="45.38918" lon="2.9188">
        <ele>1235.43</ele>
        <time>2011-09-03T09:35:49Z</time>
      </trkpt>
      <trkpt lat="45.38938" lon="2.9184">
        <ele>1235.91</ele>
        <time>2011-09-03T09:35:54Z</time>
      </trkpt>
      <trkpt lat="45.38943" lon="2.91829">
        <ele>1236.39</ele>
        <time>2011-09-03T09:35:55Z</time>
      </trkpt>
      <trkpt lat="45.38969" lon="2.91793">
        <ele>1237.83</ele>
        <time>2011-09-03T09:35:59Z</time>
      </trkpt>
      <trkpt lat="45.38992" lon="2.91773">
        <ele>1239.28</ele>
        <time>2011-09-03T09:36:02Z</time>
      </trkpt>
      <trkpt lat="45.39018" lon="2.91752">
        <ele>1240.72</ele>
        <time>2011-09-03T09:36:05Z</time>
      </trkpt>
      <trkpt lat="45.3908" lon="2.91699">
        <ele>1243.6</ele>
        <time>2011-09-03T09:36:13Z</time>
      </trkpt>
      <trkpt lat="45.39131" lon="2.91648">
        <ele>1246.01</ele>
        <time>2011-09-03T09:36:20Z</time>
      </trkpt>
      <trkpt lat="45.39146" lon="2.91634">
        <ele>1246.97</ele>
        <time>2011-09-03T09:36:22Z</time>
      </trkpt>
      <trkpt lat="45.39204" lon="2.91576">
        <ele>1247.93</ele>
        <time>2011-09-03T09:36:30Z</time>
      </trkpt>
      <trkpt lat="45.3922" lon="2.91535">
        <ele>1247.93</ele>
        <time>2011-09-03T09:36:34Z</time>
      </trkpt>
      <trkpt lat="45.39223" lon="2.91509">
        <ele>1248.89</ele>
        <time>2011-09-03T09:36:36Z</time>
      </trkpt>
      <trkpt lat="45.39224" lon="2.91488">
        <ele>1249.37</ele>
        <time>2011-09-03T09:36:38Z</time>
      </trkpt>
      <trkpt lat="45.39234" lon="2.91433">
        <ele>1251.77</ele>
        <time>2011-09-03T09:36:43Z</time>
      </trkpt>
      <trkpt lat="45.39248" lon="2.91394">
        <ele>1254.18</ele>
        <time>2011-09-03T09:36:47Z</time>
      </trkpt>
      <trkpt lat="45.39279" lon="2.91272">
        <ele>1254.66</ele>
        <time>2011-09-03T09:36:56Z</time>
      </trkpt>
      <trkpt lat="45.39292" lon="2.91222">
        <ele>1255.62</ele>
        <time>2011-09-03T09:37:00Z</time>
      </trkpt>
      <trkpt lat="45.39295" lon="2.91159">
        <ele>1255.62</ele>
        <time>2011-09-03T09:37:06Z</time>
      </trkpt>
      <trkpt lat="45.39291" lon="2.9112">
        <ele>1254.18</ele>
        <time>2011-09-03T09:37:09Z</time>
      </trkpt>
      <trkpt lat="45.39279" lon="2.91007">
        <ele>1253.7</ele>
        <time>2011-09-03T09:37:18Z</time>
      </trkpt>
      <trkpt lat="45.39274" lon="2.90961">
        <ele>1251.29</ele>
        <time>2011-09-03T09:37:22Z</time>
      </trkpt>
      <trkpt lat="45.3927" lon="2.90927">
        <ele>1253.22</ele>
        <time>2011-09-03T09:37:25Z</time>
      </trkpt>
      <trkpt lat="45.39269" lon="2.90881">
        <ele>1251.29</ele>
        <time>2011-09-03T09:37:29Z</time>
      </trkpt>
      <trkpt lat="45.39264" lon="2.90842">
        <ele>1248.89</ele>
        <time>2011-09-03T09:37:34Z</time>
      </trkpt>
      <trkpt lat="45.39255" lon="2.90775">
        <ele>1245.04</ele>
        <time>2011-09-03T09:37:42Z</time>
      </trkpt>
      <trkpt lat="45.39253" lon="2.90757">
        <ele>1244.56</ele>
        <time>2011-09-03T09:37:44Z</time>
      </trkpt>
      <trkpt lat="45.39252" lon="2.90726">
        <ele>1244.08</ele>
        <time>2011-09-03T09:37:47Z</time>
      </trkpt>
      <trkpt lat="45.3926" lon="2.90672">
        <ele>1242.64</ele>
        <time>2011-09-03T09:37:52Z</time>
      </trkpt>
      <trkpt lat="45.39266" lon="2.9059">
        <ele>1238.8</ele>
        <time>2011-09-03T09:38:00Z</time>
      </trkpt>
      <trkpt lat="45.39267" lon="2.90579">
        <ele>1238.8</ele>
        <time>2011-09-03T09:38:01Z</time>
      </trkpt>
      <trkpt lat="45.39279" lon="2.90532">
        <ele>1236.87</ele>
        <time>2011-09-03T09:38:06Z</time>
      </trkpt>
      <trkpt lat="45.39285" lon="2.90506">
        <ele>1233.51</ele>
        <time>2011-09-03T09:38:09Z</time>
      </trkpt>
      <trkpt lat="45.39287" lon="2.90498">
        <ele>1233.99</ele>
        <time>2011-09-03T09:38:10Z</time>
      </trkpt>
      <trkpt lat="45.39297" lon="2.90458">
        <ele>1231.11</ele>
        <time>2011-09-03T09:38:15Z</time>
      </trkpt>
      <trkpt lat="45.39307" lon="2.9043">
        <ele>1228.7</ele>
        <time>2011-09-03T09:38:20Z</time>
      </trkpt>
      <trkpt lat="45.39319" lon="2.90408">
        <ele>1226.78</ele>
        <time>2011-09-03T09:38:25Z</time>
      </trkpt>
      <trkpt lat="45.39321" lon="2.90404">
        <ele>1226.3</ele>
        <time>2011-09-03T09:38:26Z</time>
      </trkpt>
      <trkpt lat="45.39341" lon="2.90365">
        <ele>1226.78</ele>
        <time>2011-09-03T09:38:34Z</time>
      </trkpt>
      <trkpt lat="45.3935" lon="2.90351">
        <ele>1223.42</ele>
        <time>2011-09-03T09:38:37Z</time>
      </trkpt>
      <trkpt lat="45.39353" lon="2.90346">
        <ele>1223.42</ele>
        <time>2011-09-03T09:38:38Z</time>
      </trkpt>
      <trkpt lat="45.39374" lon="2.90325">
        <ele>1221.97</ele>
        <time>2011-09-03T09:38:43Z</time>
      </trkpt>
      <trkpt lat="45.39387" lon="2.90316">
        <ele>1220.05</ele>
        <time>2011-09-03T09:38:46Z</time>
      </trkpt>
      <trkpt lat="45.39408" lon="2.903">
        <ele>1217.65</ele>
        <time>2011-09-03T09:38:52Z</time>
      </trkpt>
      <trkpt lat="45.39424" lon="2.90289">
        <ele>1216.21</ele>
        <time>2011-09-03T09:38:58Z</time>
      </trkpt>
      <trkpt lat="45.39482" lon="2.90228">
        <ele>1214.28</ele>
        <time>2011-09-03T09:39:11Z</time>
      </trkpt>
      <trkpt lat="45.39497" lon="2.90205">
        <ele>1212.84</ele>
        <time>2011-09-03T09:39:15Z</time>
      </trkpt>
      <trkpt lat="45.39508" lon="2.9019">
        <ele>1210.44</ele>
        <time>2011-09-03T09:39:18Z</time>
      </trkpt>
      <trkpt lat="45.39515" lon="2.90143">
        <ele>1208.03</ele>
        <time>2011-09-03T09:39:25Z</time>
      </trkpt>
      <trkpt lat="45.39511" lon="2.90117">
        <ele>1205.63</ele>
        <time>2011-09-03T09:39:29Z</time>
      </trkpt>
      <trkpt lat="45.39524" lon="2.90078">
        <ele>1202.27</ele>
        <time>2011-09-03T09:39:35Z</time>
      </trkpt>
      <trkpt lat="45.39528" lon="2.90075">
        <ele>1201.3</ele>
        <time>2011-09-03T09:39:36Z</time>
      </trkpt>
      <trkpt lat="45.39551" lon="2.90052">
        <ele>1198.9</ele>
        <time>2011-09-03T09:39:42Z</time>
      </trkpt>
      <trkpt lat="45.39575" lon="2.9002">
        <ele>1196.5</ele>
        <time>2011-09-03T09:39:48Z</time>
      </trkpt>
      <trkpt lat="45.39584" lon="2.90002">
        <ele>1195.06</ele>
        <time>2011-09-03T09:39:51Z</time>
      </trkpt>
      <trkpt lat="45.39591" lon="2.89976">
        <ele>1193.13</ele>
        <time>2011-09-03T09:39:55Z</time>
      </trkpt>
      <trkpt lat="45.39591" lon="2.89958">
        <ele>1191.21</ele>
        <time>2011-09-03T09:40:04Z</time>
      </trkpt>
      <trkpt lat="45.39592" lon="2.8992">
        <ele>1191.21</ele>
        <time>2011-09-03T09:40:58Z</time>
      </trkpt>
      <trkpt lat="45.39592" lon="2.89898">
        <ele>1191.21</ele>
        <time>2011-09-03T09:41:00Z</time>
      </trkpt>
      <trkpt lat="45.39594" lon="2.89874">
        <ele>1190.25</ele>
        <time>2011-09-03T09:41:02Z</time>
      </trkpt>
      <trkpt lat="45.39596" lon="2.89838">
        <ele>1188.33</ele>
        <time>2011-09-03T09:41:05Z</time>
      </trkpt>
      <trkpt lat="45.39595" lon="2.8979">
        <ele>1186.88</ele>
        <time>2011-09-03T09:41:09Z</time>
      </trkpt>
      <trkpt lat="45.39589" lon="2.89758">
        <ele>1185.44</ele>
        <time>2011-09-03T09:41:13Z</time>
      </trkpt>
      <trkpt lat="45.39585" lon="2.89748">
        <ele>1183.52</ele>
        <time>2011-09-03T09:41:23Z</time>
      </trkpt>
      <trkpt lat="45.39583" lon="2.89746">
        <ele>1184.48</ele>
        <time>2011-09-03T09:42:48Z</time>
      </trkpt>
      <trkpt lat="45.3957" lon="2.89728">
        <ele>1183.52</ele>
        <time>2011-09-03T09:42:52Z</time>
      </trkpt>
      <trkpt lat="45.39539" lon="2.89672">
        <ele>1182.08</ele>
        <time>2011-09-03T09:43:02Z</time>
      </trkpt>
      <trkpt lat="45.39527" lon="2.89652">
        <ele>1180.16</ele>
        <time>2011-09-03T09:43:05Z</time>
      </trkpt>
      <trkpt lat="45.39503" lon="2.89584">
        <ele>1181.6</ele>
        <time>2011-09-03T09:43:12Z</time>
      </trkpt>
      <trkpt lat="45.39485" lon="2.89527">
        <ele>1178.23</ele>
        <time>2011-09-03T09:43:16Z</time>
      </trkpt>
      <trkpt lat="45.39474" lon="2.89494">
        <ele>1177.27</ele>
        <time>2011-09-03T09:43:18Z</time>
      </trkpt>
      <trkpt lat="45.39444" lon="2.89403">
        <ele>1172.95</ele>
        <time>2011-09-03T09:43:23Z</time>
      </trkpt>
      <trkpt lat="45.39439" lon="2.89386">
        <ele>1172.95</ele>
        <time>2011-09-03T09:43:24Z</time>
      </trkpt>
      <trkpt lat="45.3941" lon="2.89298">
        <ele>1170.06</ele>
        <time>2011-09-03T09:43:29Z</time>
      </trkpt>
      <trkpt lat="45.39395" lon="2.89248">
        <ele>1165.26</ele>
        <time>2011-09-03T09:43:32Z</time>
      </trkpt>
      <trkpt lat="45.39369" lon="2.89171">
        <ele>1160.45</ele>
        <time>2011-09-03T09:43:37Z</time>
      </trkpt>
      <trkpt lat="45.39349" lon="2.89122">
        <ele>1157.56</ele>
        <time>2011-09-03T09:43:40Z</time>
      </trkpt>
      <trkpt lat="45.39332" lon="2.8909">
        <ele>1152.76</ele>
        <time>2011-09-03T09:43:42Z</time>
      </trkpt>
      <trkpt lat="45.39323" lon="2.89076">
        <ele>1149.87</ele>
        <time>2011-09-03T09:43:43Z</time>
      </trkpt>
      <trkpt lat="45.39314" lon="2.89063">
        <ele>1149.39</ele>
        <time>2011-09-03T09:43:44Z</time>
      </trkpt>
      <trkpt lat="45.39298" lon="2.89041">
        <ele>1144.59</ele>
        <time>2011-09-03T09:43:46Z</time>
      </trkpt>
      <trkpt lat="45.39291" lon="2.89032">
        <ele>1142.66</ele>
        <time>2011-09-03T09:43:47Z</time>
      </trkpt>
      <trkpt lat="45.39269" lon="2.89014">
        <ele>1139.78</ele>
        <time>2011-09-03T09:43:50Z</time>
      </trkpt>
      <trkpt lat="45.39256" lon="2.89008">
        <ele>1135.45</ele>
        <time>2011-09-03T09:43:52Z</time>
      </trkpt>
      <trkpt lat="45.39244" lon="2.88984">
        <ele>1129.21</ele>
        <time>2011-09-03T09:44:00Z</time>
      </trkpt>
      <trkpt lat="45.39249" lon="2.88949">
        <ele>1127.76</ele>
        <time>2011-09-03T09:44:04Z</time>
      </trkpt>
      <trkpt lat="45.39253" lon="2.88938">
        <ele>1126.8</ele>
        <time>2011-09-03T09:44:05Z</time>
      </trkpt>
      <trkpt lat="45.39266" lon="2.88904">
        <ele>1124.88</ele>
        <time>2011-09-03T09:44:08Z</time>
      </trkpt>
      <trkpt lat="45.3927" lon="2.88893">
        <ele>1124.88</ele>
        <time>2011-09-03T09:44:09Z</time>
      </trkpt>
      <trkpt lat="45.39278" lon="2.88859">
        <ele>1122.48</ele>
        <time>2011-09-03T09:44:12Z</time>
      </trkpt>
      <trkpt lat="45.39266" lon="2.88808">
        <ele>1119.59</ele>
        <time>2011-09-03T09:44:17Z</time>
      </trkpt>
      <trkpt lat="45.39262" lon="2.88765">
        <ele>1115.27</ele>
        <time>2011-09-03T09:44:21Z</time>
      </trkpt>
      <trkpt lat="45.39259" lon="2.88723">
        <ele>1111.42</ele>
        <time>2011-09-03T09:44:25Z</time>
      </trkpt>
      <trkpt lat="45.39256" lon="2.88703">
        <ele>1109.98</ele>
        <time>2011-09-03T09:44:27Z</time>
      </trkpt>
      <trkpt lat="45.39239" lon="2.88663">
        <ele>1107.58</ele>
        <time>2011-09-03T09:44:32Z</time>
      </trkpt>
      <trkpt lat="45.39222" lon="2.88642">
        <ele>1105.65</ele>
        <time>2011-09-03T09:44:35Z</time>
      </trkpt>
      <trkpt lat="45.39202" lon="2.88623">
        <ele>1101.33</ele>
        <time>2011-09-03T09:44:38Z</time>
      </trkpt>
      <trkpt lat="45.39185" lon="2.88613">
        <ele>1100.37</ele>
        <time>2011-09-03T09:44:40Z</time>
      </trkpt>
      <trkpt lat="45.3915" lon="2.88567">
        <ele>1093.16</ele>
        <time>2011-09-03T09:44:46Z</time>
      </trkpt>
      <trkpt lat="45.39146" lon="2.88539">
        <ele>1091.23</ele>
        <time>2011-09-03T09:44:48Z</time>
      </trkpt>
      <trkpt lat="45.39148" lon="2.8851">
        <ele>1087.87</ele>
        <time>2011-09-03T09:44:50Z</time>
      </trkpt>
      <trkpt lat="45.39151" lon="2.88494">
        <ele>1086.91</ele>
        <time>2011-09-03T09:44:51Z</time>
      </trkpt>
      <trkpt lat="45.39158" lon="2.88461">
        <ele>1085.47</ele>
        <time>2011-09-03T09:44:53Z</time>
      </trkpt>
      <trkpt lat="45.3917" lon="2.88408">
        <ele>1081.62</ele>
        <time>2011-09-03T09:44:56Z</time>
      </trkpt>
      <trkpt lat="45.39174" lon="2.8839">
        <ele>1081.14</ele>
        <time>2011-09-03T09:44:57Z</time>
      </trkpt>
      <trkpt lat="45.39196" lon="2.88346">
        <ele>1077.29</ele>
        <time>2011-09-03T09:45:00Z</time>
      </trkpt>
      <trkpt lat="45.39223" lon="2.88309">
        <ele>1073.93</ele>
        <time>2011-09-03T09:45:03Z</time>
      </trkpt>
      <trkpt lat="45.39231" lon="2.88296">
        <ele>1071.53</ele>
        <time>2011-09-03T09:45:04Z</time>
      </trkpt>
      <trkpt lat="45.39256" lon="2.88209">
        <ele>1069.12</ele>
        <time>2011-09-03T09:45:10Z</time>
      </trkpt>
      <trkpt lat="45.39248" lon="2.88127">
        <ele>1067.68</ele>
        <time>2011-09-03T09:45:15Z</time>
      </trkpt>
      <trkpt lat="45.39248" lon="2.88075">
        <ele>1062.87</ele>
        <time>2011-09-03T09:45:18Z</time>
      </trkpt>
      <trkpt lat="45.39251" lon="2.88059">
        <ele>1061.91</ele>
        <time>2011-09-03T09:45:19Z</time>
      </trkpt>
      <trkpt lat="45.39259" lon="2.88013">
        <ele>1059.03</ele>
        <time>2011-09-03T09:45:22Z</time>
      </trkpt>
      <trkpt lat="45.39258" lon="2.8798">
        <ele>1054.7</ele>
        <time>2011-09-03T09:45:25Z</time>
      </trkpt>
      <trkpt lat="45.39256" lon="2.87968">
        <ele>1050.86</ele>
        <time>2011-09-03T09:45:27Z</time>
      </trkpt>
      <trkpt lat="45.39257" lon="2.87955">
        <ele>1048.94</ele>
        <time>2011-09-03T09:45:31Z</time>
      </trkpt>
      <trkpt lat="45.39243" lon="2.87937">
        <ele>1049.9</ele>
        <time>2011-09-03T09:45:35Z</time>
      </trkpt>
      <trkpt lat="45.39191" lon="2.87868">
        <ele>1048.94</ele>
        <time>2011-09-03T09:45:42Z</time>
      </trkpt>
      <trkpt lat="45.39157" lon="2.87689">
        <ele>1050.38</ele>
        <time>2011-09-03T09:45:51Z</time>
      </trkpt>
      <trkpt lat="45.39153" lon="2.87671">
        <ele>1050.86</ele>
        <time>2011-09-03T09:45:52Z</time>
      </trkpt>
      <trkpt lat="45.39107" lon="2.87626">
        <ele>1052.78</ele>
        <time>2011-09-03T09:45:57Z</time>
      </trkpt>
      <trkpt lat="45.39082" lon="2.87632">
        <ele>1057.11</ele>
        <time>2011-09-03T09:45:59Z</time>
      </trkpt>
      <trkpt lat="45.39056" lon="2.87629">
        <ele>1058.07</ele>
        <time>2011-09-03T09:46:01Z</time>
      </trkpt>
      <trkpt lat="45.39003" lon="2.87609">
        <ele>1060.47</ele>
        <time>2011-09-03T09:46:05Z</time>
      </trkpt>
      <trkpt lat="45.38957" lon="2.87568">
        <ele>1065.28</ele>
        <time>2011-09-03T09:46:09Z</time>
      </trkpt>
      <trkpt lat="45.3894" lon="2.87543">
        <ele>1065.76</ele>
        <time>2011-09-03T09:46:11Z</time>
      </trkpt>
      <trkpt lat="45.38921" lon="2.87528">
        <ele>1066.72</ele>
        <time>2011-09-03T09:46:13Z</time>
      </trkpt>
      <trkpt lat="45.38893" lon="2.87544">
        <ele>1070.08</ele>
        <time>2011-09-03T09:46:16Z</time>
      </trkpt>
      <trkpt lat="45.38885" lon="2.87556">
        <ele>1071.53</ele>
        <time>2011-09-03T09:46:17Z</time>
      </trkpt>
      <trkpt lat="45.38856" lon="2.87604">
        <ele>1073.45</ele>
        <time>2011-09-03T09:46:21Z</time>
      </trkpt>
      <trkpt lat="45.38829" lon="2.87633">
        <ele>1075.85</ele>
        <time>2011-09-03T09:46:24Z</time>
      </trkpt>
      <trkpt lat="45.38806" lon="2.87637">
        <ele>1079.22</ele>
        <time>2011-09-03T09:46:26Z</time>
      </trkpt>
      <trkpt lat="45.38779" lon="2.87626">
        <ele>1082.1</ele>
        <time>2011-09-03T09:46:28Z</time>
      </trkpt>
      <trkpt lat="45.38752" lon="2.87599">
        <ele>1087.39</ele>
        <time>2011-09-03T09:46:30Z</time>
      </trkpt>
      <trkpt lat="45.38743" lon="2.87581">
        <ele>1086.91</ele>
        <time>2011-09-03T09:46:31Z</time>
      </trkpt>
      <trkpt lat="45.38732" lon="2.87536">
        <ele>1091.23</ele>
        <time>2011-09-03T09:46:33Z</time>
      </trkpt>
      <trkpt lat="45.38729" lon="2.87512">
        <ele>1092.2</ele>
        <time>2011-09-03T09:46:34Z</time>
      </trkpt>
      <trkpt lat="45.38711" lon="2.87415">
        <ele>1097.96</ele>
        <time>2011-09-03T09:46:38Z</time>
      </trkpt>
      <trkpt lat="45.38668" lon="2.87344">
        <ele>1101.33</ele>
        <time>2011-09-03T09:46:42Z</time>
      </trkpt>
      <trkpt lat="45.38656" lon="2.87326">
        <ele>1102.77</ele>
        <time>2011-09-03T09:46:43Z</time>
      </trkpt>
      <trkpt lat="45.38623" lon="2.87279">
        <ele>1106.61</ele>
        <time>2011-09-03T09:46:46Z</time>
      </trkpt>
      <trkpt lat="45.38585" lon="2.87288">
        <ele>1109.98</ele>
        <time>2011-09-03T09:46:49Z</time>
      </trkpt>
      <trkpt lat="45.38573" lon="2.87344">
        <ele>1111.9</ele>
        <time>2011-09-03T09:46:52Z</time>
      </trkpt>
      <trkpt lat="45.38549" lon="2.87395">
        <ele>1115.75</ele>
        <time>2011-09-03T09:46:55Z</time>
      </trkpt>
      <trkpt lat="45.38535" lon="2.87407">
        <ele>1118.63</ele>
        <time>2011-09-03T09:46:56Z</time>
      </trkpt>
      <trkpt lat="45.38505" lon="2.87432">
        <ele>1120.55</ele>
        <time>2011-09-03T09:46:58Z</time>
      </trkpt>
      <trkpt lat="45.38461" lon="2.87473">
        <ele>1123.44</ele>
        <time>2011-09-03T09:47:01Z</time>
      </trkpt>
      <trkpt lat="45.38435" lon="2.87502">
        <ele>1129.21</ele>
        <time>2011-09-03T09:47:03Z</time>
      </trkpt>
      <trkpt lat="45.38379" lon="2.87506">
        <ele>1131.61</ele>
        <time>2011-09-03T09:47:07Z</time>
      </trkpt>
      <trkpt lat="45.38339" lon="2.87538">
        <ele>1133.05</ele>
        <time>2011-09-03T09:47:11Z</time>
      </trkpt>
      <trkpt lat="45.38334" lon="2.87579">
        <ele>1136.42</ele>
        <time>2011-09-03T09:47:13Z</time>
      </trkpt>
      <trkpt lat="45.38309" lon="2.87628">
        <ele>1142.18</ele>
        <time>2011-09-03T09:47:16Z</time>
      </trkpt>
      <trkpt lat="45.38298" lon="2.87691">
        <ele>1146.51</ele>
        <time>2011-09-03T09:47:19Z</time>
      </trkpt>
      <trkpt lat="45.38295" lon="2.87711">
        <ele>1146.51</ele>
        <time>2011-09-03T09:47:20Z</time>
      </trkpt>
      <trkpt lat="45.38266" lon="2.87744">
        <ele>1150.35</ele>
        <time>2011-09-03T09:47:23Z</time>
      </trkpt>
      <trkpt lat="45.38251" lon="2.87746">
        <ele>1150.84</ele>
        <time>2011-09-03T09:47:24Z</time>
      </trkpt>
      <trkpt lat="45.38219" lon="2.87744">
        <ele>1154.2</ele>
        <time>2011-09-03T09:47:26Z</time>
      </trkpt>
      <trkpt lat="45.38155" lon="2.87782">
        <ele>1155.64</ele>
        <time>2011-09-03T09:47:31Z</time>
      </trkpt>
      <trkpt lat="45.38133" lon="2.87779">
        <ele>1157.08</ele>
        <time>2011-09-03T09:47:33Z</time>
      </trkpt>
      <trkpt lat="45.38094" lon="2.87809">
        <ele>1161.41</ele>
        <time>2011-09-03T09:47:39Z</time>
      </trkpt>
      <trkpt lat="45.3808" lon="2.87853">
        <ele>1161.89</ele>
        <time>2011-09-03T09:47:42Z</time>
      </trkpt>
      <trkpt lat="45.3804" lon="2.87883">
        <ele>1164.77</ele>
        <time>2011-09-03T09:47:46Z</time>
      </trkpt>
      <trkpt lat="45.38007" lon="2.87869">
        <ele>1169.1</ele>
        <time>2011-09-03T09:47:49Z</time>
      </trkpt>
      <trkpt lat="45.37984" lon="2.87872">
        <ele>1170.06</ele>
        <time>2011-09-03T09:47:51Z</time>
      </trkpt>
      <trkpt lat="45.37943" lon="2.87887">
        <ele>1171.02</ele>
        <time>2011-09-03T09:47:55Z</time>
      </trkpt>
      <trkpt lat="45.37899" lon="2.87866">
        <ele>1174.87</ele>
        <time>2011-09-03T09:47:59Z</time>
      </trkpt>
      <trkpt lat="45.37862" lon="2.87851">
        <ele>1178.71</ele>
        <time>2011-09-03T09:48:02Z</time>
      </trkpt>
      <trkpt lat="45.37783" lon="2.87825">
        <ele>1182.56</ele>
        <time>2011-09-03T09:48:08Z</time>
      </trkpt>
      <trkpt lat="45.37758" lon="2.87807">
        <ele>1184.48</ele>
        <time>2011-09-03T09:48:10Z</time>
      </trkpt>
      <trkpt lat="45.37722" lon="2.8777">
        <ele>1184.48</ele>
        <time>2011-09-03T09:48:13Z</time>
      </trkpt>
      <trkpt lat="45.37673" lon="2.87771">
        <ele>1185.44</ele>
        <time>2011-09-03T09:48:18Z</time>
      </trkpt>
      <trkpt lat="45.3764" lon="2.87743">
        <ele>1188.33</ele>
        <time>2011-09-03T09:48:22Z</time>
      </trkpt>
      <trkpt lat="45.37633" lon="2.87728">
        <ele>1189.77</ele>
        <time>2011-09-03T09:48:23Z</time>
      </trkpt>
      <trkpt lat="45.37594" lon="2.87701">
        <ele>1192.65</ele>
        <time>2011-09-03T09:48:28Z</time>
      </trkpt>
      <trkpt lat="45.37584" lon="2.87726">
        <ele>1193.61</ele>
        <time>2011-09-03T09:48:30Z</time>
      </trkpt>
      <trkpt lat="45.37576" lon="2.87755">
        <ele>1195.06</ele>
        <time>2011-09-03T09:48:32Z</time>
      </trkpt>
      <trkpt lat="45.37537" lon="2.87783">
        <ele>1196.98</ele>
        <time>2011-09-03T09:48:37Z</time>
      </trkpt>
      <trkpt lat="45.37507" lon="2.87783">
        <ele>1199.38</ele>
        <time>2011-09-03T09:48:40Z</time>
      </trkpt>
      <trkpt lat="45.37492" lon="2.87804">
        <ele>1201.79</ele>
        <time>2011-09-03T09:48:42Z</time>
      </trkpt>
      <trkpt lat="45.37473" lon="2.8785">
        <ele>1204.19</ele>
        <time>2011-09-03T09:48:46Z</time>
      </trkpt>
      <trkpt lat="45.37453" lon="2.87854">
        <ele>1206.11</ele>
        <time>2011-09-03T09:48:48Z</time>
      </trkpt>
      <trkpt lat="45.37442" lon="2.87852">
        <ele>1207.55</ele>
        <time>2011-09-03T09:48:49Z</time>
      </trkpt>
      <trkpt lat="45.37399" lon="2.87842">
        <ele>1206.59</ele>
        <time>2011-09-03T09:48:56Z</time>
      </trkpt>
      <trkpt lat="45.37386" lon="2.87842">
        <ele>1207.07</ele>
        <time>2011-09-03T09:48:58Z</time>
      </trkpt>
      <trkpt lat="45.37331" lon="2.87847">
        <ele>1206.11</ele>
        <time>2011-09-03T09:49:05Z</time>
      </trkpt>
      <trkpt lat="45.37308" lon="2.87804">
        <ele>1204.67</ele>
        <time>2011-09-03T09:49:11Z</time>
      </trkpt>
      <trkpt lat="45.37317" lon="2.87784">
        <ele>1204.67</ele>
        <time>2011-09-03T09:49:13Z</time>
      </trkpt>
      <trkpt lat="45.37337" lon="2.87748">
        <ele>1206.11</ele>
        <time>2011-09-03T09:49:16Z</time>
      </trkpt>
      <trkpt lat="45.37354" lon="2.87719">
        <ele>1206.59</ele>
        <time>2011-09-03T09:49:18Z</time>
      </trkpt>
      <trkpt lat="45.37354" lon="2.87671">
        <ele>1207.07</ele>
        <time>2011-09-03T09:49:23Z</time>
      </trkpt>
      <trkpt lat="45.37333" lon="2.87668">
        <ele>1209.96</ele>
        <time>2011-09-03T09:49:25Z</time>
      </trkpt>
      <trkpt lat="45.37286" lon="2.87658">
        <ele>1207.07</ele>
        <time>2011-09-03T09:49:29Z</time>
      </trkpt>
      <trkpt lat="45.37276" lon="2.87652">
        <ele>1207.55</ele>
        <time>2011-09-03T09:49:30Z</time>
      </trkpt>
      <trkpt lat="45.37266" lon="2.87645">
        <ele>1207.07</ele>
        <time>2011-09-03T09:49:31Z</time>
      </trkpt>
      <trkpt lat="45.37249" lon="2.87599">
        <ele>1204.19</ele>
        <time>2011-09-03T09:49:36Z</time>
      </trkpt>
      <trkpt lat="45.37249" lon="2.87537">
        <ele>1204.19</ele>
        <time>2011-09-03T09:49:43Z</time>
      </trkpt>
      <trkpt lat="45.37223" lon="2.87481">
        <ele>1205.63</ele>
        <time>2011-09-03T09:49:49Z</time>
      </trkpt>
      <trkpt lat="45.37209" lon="2.87464">
        <ele>1202.75</ele>
        <time>2011-09-03T09:49:53Z</time>
      </trkpt>
      <trkpt lat="45.37202" lon="2.87466">
        <ele>1202.27</ele>
        <time>2011-09-03T09:50:07Z</time>
      </trkpt>
      <trkpt lat="45.37187" lon="2.87479">
        <ele>1203.23</ele>
        <time>2011-09-03T09:51:30Z</time>
      </trkpt>
      <trkpt lat="45.37141" lon="2.87471">
        <ele>1201.79</ele>
        <time>2011-09-03T09:51:35Z</time>
      </trkpt>
      <trkpt lat="45.37125" lon="2.87486">
        <ele>1201.3</ele>
        <time>2011-09-03T09:51:37Z</time>
      </trkpt>
      <trkpt lat="45.3708" lon="2.87525">
        <ele>1197.46</ele>
        <time>2011-09-03T09:51:43Z</time>
      </trkpt>
      <trkpt lat="45.37039" lon="2.87504">
        <ele>1196.98</ele>
        <time>2011-09-03T09:51:49Z</time>
      </trkpt>
      <trkpt lat="45.37029" lon="2.87482">
        <ele>1198.9</ele>
        <time>2011-09-03T09:51:51Z</time>
      </trkpt>
      <trkpt lat="45.37001" lon="2.87446">
        <ele>1199.86</ele>
        <time>2011-09-03T09:51:55Z</time>
      </trkpt>
      <trkpt lat="45.36976" lon="2.87424">
        <ele>1201.3</ele>
        <time>2011-09-03T09:51:58Z</time>
      </trkpt>
      <trkpt lat="45.36952" lon="2.87398">
        <ele>1204.19</ele>
        <time>2011-09-03T09:52:01Z</time>
      </trkpt>
      <trkpt lat="45.36908" lon="2.87363">
        <ele>1207.55</ele>
        <time>2011-09-03T09:52:06Z</time>
      </trkpt>
      <trkpt lat="45.36874" lon="2.87344">
        <ele>1208.03</ele>
        <time>2011-09-03T09:52:10Z</time>
      </trkpt>
      <trkpt lat="45.36811" lon="2.87355">
        <ele>1209</ele>
        <time>2011-09-03T09:52:17Z</time>
      </trkpt>
      <trkpt lat="45.36704" lon="2.87424">
        <ele>1210.92</ele>
        <time>2011-09-03T09:52:26Z</time>
      </trkpt>
      <trkpt lat="45.36662" lon="2.87433">
        <ele>1209.48</ele>
        <time>2011-09-03T09:52:29Z</time>
      </trkpt>
      <trkpt lat="45.36649" lon="2.87432">
        <ele>1208.03</ele>
        <time>2011-09-03T09:52:30Z</time>
      </trkpt>
      <trkpt lat="45.36618" lon="2.87427">
        <ele>1204.67</ele>
        <time>2011-09-03T09:52:33Z</time>
      </trkpt>
      <trkpt lat="45.36549" lon="2.87416">
        <ele>1203.71</ele>
        <time>2011-09-03T09:52:43Z</time>
      </trkpt>
      <trkpt lat="45.36464" lon="2.87404">
        <ele>1203.71</ele>
        <time>2011-09-03T09:52:54Z</time>
      </trkpt>
      <trkpt lat="45.36369" lon="2.87416">
        <ele>1208.51</ele>
        <time>2011-09-03T09:53:03Z</time>
      </trkpt>
      <trkpt lat="45.36353" lon="2.87419">
        <ele>1207.55</ele>
        <time>2011-09-03T09:53:04Z</time>
      </trkpt>
      <trkpt lat="45.36243" lon="2.87418">
        <ele>1205.15</ele>
        <time>2011-09-03T09:53:11Z</time>
      </trkpt>
      <trkpt lat="45.36184" lon="2.87459">
        <ele>1205.63</ele>
        <time>2011-09-03T09:53:16Z</time>
      </trkpt>
      <trkpt lat="45.36179" lon="2.87479">
        <ele>1205.15</ele>
        <time>2011-09-03T09:53:17Z</time>
      </trkpt>
      <trkpt lat="45.36171" lon="2.87523">
        <ele>1202.27</ele>
        <time>2011-09-03T09:53:19Z</time>
      </trkpt>
      <trkpt lat="45.36126" lon="2.87593">
        <ele>1197.94</ele>
        <time>2011-09-03T09:53:24Z</time>
      </trkpt>
      <trkpt lat="45.35969" lon="2.87657">
        <ele>1193.61</ele>
        <time>2011-09-03T09:53:35Z</time>
      </trkpt>
      <trkpt lat="45.35918" lon="2.87675">
        <ele>1193.13</ele>
        <time>2011-09-03T09:53:39Z</time>
      </trkpt>
      <trkpt lat="45.35892" lon="2.87694">
        <ele>1190.25</ele>
        <time>2011-09-03T09:53:42Z</time>
      </trkpt>
      <trkpt lat="45.35854" lon="2.87716">
        <ele>1189.77</ele>
        <time>2011-09-03T09:53:47Z</time>
      </trkpt>
      <trkpt lat="45.35808" lon="2.87698">
        <ele>1186.88</ele>
        <time>2011-09-03T09:53:53Z</time>
      </trkpt>
      <trkpt lat="45.35766" lon="2.87651">
        <ele>1186.4</ele>
        <time>2011-09-03T09:53:58Z</time>
      </trkpt>
      <trkpt lat="45.35742" lon="2.87631">
        <ele>1181.6</ele>
        <time>2011-09-03T09:54:00Z</time>
      </trkpt>
      <trkpt lat="45.3571" lon="2.87581">
        <ele>1179.19</ele>
        <time>2011-09-03T09:54:03Z</time>
      </trkpt>
      <trkpt lat="45.35691" lon="2.8755">
        <ele>1175.83</ele>
        <time>2011-09-03T09:54:05Z</time>
      </trkpt>
      <trkpt lat="45.35674" lon="2.87531">
        <ele>1172.95</ele>
        <time>2011-09-03T09:54:07Z</time>
      </trkpt>
      <trkpt lat="45.35645" lon="2.87522">
        <ele>1171.98</ele>
        <time>2011-09-03T09:54:10Z</time>
      </trkpt>
      <trkpt lat="45.35566" lon="2.87515">
        <ele>1170.54</ele>
        <time>2011-09-03T09:54:16Z</time>
      </trkpt>
      <trkpt lat="45.35512" lon="2.87528">
        <ele>1169.58</ele>
        <time>2011-09-03T09:54:20Z</time>
      </trkpt>
      <trkpt lat="45.35486" lon="2.87544">
        <ele>1169.1</ele>
        <time>2011-09-03T09:54:22Z</time>
      </trkpt>
      <trkpt lat="45.35413" lon="2.87572">
        <ele>1167.18</ele>
        <time>2011-09-03T09:54:27Z</time>
      </trkpt>
      <trkpt lat="45.35386" lon="2.87584">
        <ele>1165.74</ele>
        <time>2011-09-03T09:54:29Z</time>
      </trkpt>
      <trkpt lat="45.35345" lon="2.87604">
        <ele>1163.81</ele>
        <time>2011-09-03T09:54:32Z</time>
      </trkpt>
      <trkpt lat="45.35315" lon="2.87618">
        <ele>1163.33</ele>
        <time>2011-09-03T09:54:34Z</time>
      </trkpt>
      <trkpt lat="45.35285" lon="2.87642">
        <ele>1165.26</ele>
        <time>2011-09-03T09:54:36Z</time>
      </trkpt>
      <trkpt lat="45.35241" lon="2.87699">
        <ele>1169.58</ele>
        <time>2011-09-03T09:54:39Z</time>
      </trkpt>
      <trkpt lat="45.35214" lon="2.87735">
        <ele>1167.18</ele>
        <time>2011-09-03T09:54:41Z</time>
      </trkpt>
      <trkpt lat="45.35156" lon="2.87771">
        <ele>1167.18</ele>
        <time>2011-09-03T09:54:45Z</time>
      </trkpt>
      <trkpt lat="45.35081" lon="2.87756">
        <ele>1172.47</ele>
        <time>2011-09-03T09:54:49Z</time>
      </trkpt>
      <trkpt lat="45.35042" lon="2.87747">
        <ele>1176.79</ele>
        <time>2011-09-03T09:54:51Z</time>
      </trkpt>
      <trkpt lat="45.35005" lon="2.87739">
        <ele>1177.75</ele>
        <time>2011-09-03T09:54:53Z</time>
      </trkpt>
      <trkpt lat="45.34972" lon="2.87732">
        <ele>1181.12</ele>
        <time>2011-09-03T09:54:55Z</time>
      </trkpt>
      <trkpt lat="45.34956" lon="2.87728">
        <ele>1182.56</ele>
        <time>2011-09-03T09:54:56Z</time>
      </trkpt>
      <trkpt lat="45.34911" lon="2.87676">
        <ele>1185.44</ele>
        <time>2011-09-03T09:55:00Z</time>
      </trkpt>
      <trkpt lat="45.34884" lon="2.87613">
        <ele>1190.73</ele>
        <time>2011-09-03T09:55:03Z</time>
      </trkpt>
      <trkpt lat="45.34851" lon="2.87541">
        <ele>1195.54</ele>
        <time>2011-09-03T09:55:06Z</time>
      </trkpt>
      <trkpt lat="45.34828" lon="2.87487">
        <ele>1201.79</ele>
        <time>2011-09-03T09:55:08Z</time>
      </trkpt>
      <trkpt lat="45.34816" lon="2.87459">
        <ele>1201.79</ele>
        <time>2011-09-03T09:55:09Z</time>
      </trkpt>
      <trkpt lat="45.34777" lon="2.87383">
        <ele>1205.63</ele>
        <time>2011-09-03T09:55:12Z</time>
      </trkpt>
      <trkpt lat="45.34744" lon="2.8734">
        <ele>1212.36</ele>
        <time>2011-09-03T09:55:14Z</time>
      </trkpt>
      <trkpt lat="45.34726" lon="2.87319">
        <ele>1215.24</ele>
        <time>2011-09-03T09:55:15Z</time>
      </trkpt>
      <trkpt lat="45.34673" lon="2.87266">
        <ele>1219.09</ele>
        <time>2011-09-03T09:55:18Z</time>
      </trkpt>
      <trkpt lat="45.34604" lon="2.87248">
        <ele>1221.97</ele>
        <time>2011-09-03T09:55:22Z</time>
      </trkpt>
      <trkpt lat="45.34516" lon="2.87213">
        <ele>1221.49</ele>
        <time>2011-09-03T09:55:30Z</time>
      </trkpt>
      <trkpt lat="45.34495" lon="2.87198">
        <ele>1219.57</ele>
        <time>2011-09-03T09:55:32Z</time>
      </trkpt>
      <trkpt lat="45.34409" lon="2.87127">
        <ele>1221.49</ele>
        <time>2011-09-03T09:55:41Z</time>
      </trkpt>
      <trkpt lat="45.34395" lon="2.87114">
        <ele>1221.01</ele>
        <time>2011-09-03T09:55:43Z</time>
      </trkpt>
      <trkpt lat="45.34365" lon="2.87105">
        <ele>1220.05</ele>
        <time>2011-09-03T09:55:47Z</time>
      </trkpt>
      <trkpt lat="45.34328" lon="2.8711">
        <ele>1222.45</ele>
        <time>2011-09-03T09:55:50Z</time>
      </trkpt>
      <trkpt lat="45.34202" lon="2.87117">
        <ele>1218.61</ele>
        <time>2011-09-03T09:55:58Z</time>
      </trkpt>
      <trkpt lat="45.34143" lon="2.87137">
        <ele>1214.28</ele>
        <time>2011-09-03T09:56:02Z</time>
      </trkpt>
      <trkpt lat="45.3413" lon="2.87148">
        <ele>1213.32</ele>
        <time>2011-09-03T09:56:03Z</time>
      </trkpt>
      <trkpt lat="45.34088" lon="2.87196">
        <ele>1208.03</ele>
        <time>2011-09-03T09:56:07Z</time>
      </trkpt>
      <trkpt lat="45.3403" lon="2.87269">
        <ele>1203.71</ele>
        <time>2011-09-03T09:56:13Z</time>
      </trkpt>
      <trkpt lat="45.33998" lon="2.87307">
        <ele>1200.34</ele>
        <time>2011-09-03T09:56:16Z</time>
      </trkpt>
      <trkpt lat="45.33959" lon="2.87335">
        <ele>1198.9</ele>
        <time>2011-09-03T09:56:19Z</time>
      </trkpt>
      <trkpt lat="45.33931" lon="2.87346">
        <ele>1195.54</ele>
        <time>2011-09-03T09:56:21Z</time>
      </trkpt>
      <trkpt lat="45.33902" lon="2.87355">
        <ele>1192.17</ele>
        <time>2011-09-03T09:56:23Z</time>
      </trkpt>
      <trkpt lat="45.33874" lon="2.87363">
        <ele>1188.81</ele>
        <time>2011-09-03T09:56:25Z</time>
      </trkpt>
      <trkpt lat="45.33846" lon="2.87367">
        <ele>1186.4</ele>
        <time>2011-09-03T09:56:27Z</time>
      </trkpt>
      <trkpt lat="45.33791" lon="2.87353">
        <ele>1182.08</ele>
        <time>2011-09-03T09:56:31Z</time>
      </trkpt>
      <trkpt lat="45.33735" lon="2.87359">
        <ele>1178.71</ele>
        <time>2011-09-03T09:56:35Z</time>
      </trkpt>
      <trkpt lat="45.33697" lon="2.8739">
        <ele>1174.87</ele>
        <time>2011-09-03T09:56:38Z</time>
      </trkpt>
      <trkpt lat="45.33682" lon="2.87424">
        <ele>1173.43</ele>
        <time>2011-09-03T09:56:40Z</time>
      </trkpt>
      <trkpt lat="45.33677" lon="2.87466">
        <ele>1170.54</ele>
        <time>2011-09-03T09:56:42Z</time>
      </trkpt>
      <trkpt lat="45.33677" lon="2.87534">
        <ele>1168.14</ele>
        <time>2011-09-03T09:56:45Z</time>
      </trkpt>
      <trkpt lat="45.33678" lon="2.87556">
        <ele>1164.29</ele>
        <time>2011-09-03T09:56:46Z</time>
      </trkpt>
      <trkpt lat="45.33681" lon="2.87597">
        <ele>1160.93</ele>
        <time>2011-09-03T09:56:48Z</time>
      </trkpt>
      <trkpt lat="45.33686" lon="2.87634">
        <ele>1158.05</ele>
        <time>2011-09-03T09:56:50Z</time>
      </trkpt>
      <trkpt lat="45.33696" lon="2.87684">
        <ele>1154.68</ele>
        <time>2011-09-03T09:56:53Z</time>
      </trkpt>
      <trkpt lat="45.33695" lon="2.87735">
        <ele>1150.84</ele>
        <time>2011-09-03T09:56:56Z</time>
      </trkpt>
      <trkpt lat="45.33692" lon="2.87751">
        <ele>1148.91</ele>
        <time>2011-09-03T09:56:57Z</time>
      </trkpt>
      <trkpt lat="45.33674" lon="2.87815">
        <ele>1146.51</ele>
        <time>2011-09-03T09:57:01Z</time>
      </trkpt>
      <trkpt lat="45.33659" lon="2.87862">
        <ele>1142.18</ele>
        <time>2011-09-03T09:57:04Z</time>
      </trkpt>
      <trkpt lat="45.33655" lon="2.87877">
        <ele>1141.22</ele>
        <time>2011-09-03T09:57:05Z</time>
      </trkpt>
      <trkpt lat="45.33634" lon="2.87917">
        <ele>1139.78</ele>
        <time>2011-09-03T09:57:08Z</time>
      </trkpt>
      <trkpt lat="45.33596" lon="2.87939">
        <ele>1136.42</ele>
        <time>2011-09-03T09:57:11Z</time>
      </trkpt>
      <trkpt lat="45.3358" lon="2.8794">
        <ele>1136.42</ele>
        <time>2011-09-03T09:57:12Z</time>
      </trkpt>
      <trkpt lat="45.33498" lon="2.87961">
        <ele>1130.65</ele>
        <time>2011-09-03T09:57:17Z</time>
      </trkpt>
      <trkpt lat="45.33442" lon="2.87938">
        <ele>1122</ele>
        <time>2011-09-03T09:57:21Z</time>
      </trkpt>
      <trkpt lat="45.33382" lon="2.87894">
        <ele>1115.27</ele>
        <time>2011-09-03T09:57:26Z</time>
      </trkpt>
      <trkpt lat="45.33344" lon="2.87889">
        <ele>1112.38</ele>
        <time>2011-09-03T09:57:29Z</time>
      </trkpt>
      <trkpt lat="45.3333" lon="2.87881">
        <ele>1112.38</ele>
        <time>2011-09-03T09:57:30Z</time>
      </trkpt>
      <trkpt lat="45.33273" lon="2.87881">
        <ele>1106.13</ele>
        <time>2011-09-03T09:57:34Z</time>
      </trkpt>
      <trkpt lat="45.33247" lon="2.87896">
        <ele>1103.73</ele>
        <time>2011-09-03T09:57:36Z</time>
      </trkpt>
      <trkpt lat="45.33203" lon="2.87906">
        <ele>1102.29</ele>
        <time>2011-09-03T09:57:39Z</time>
      </trkpt>
      <trkpt lat="45.33185" lon="2.87905">
        <ele>1100.85</ele>
        <time>2011-09-03T09:57:40Z</time>
      </trkpt>
      <trkpt lat="45.33132" lon="2.87896">
        <ele>1095.08</ele>
        <time>2011-09-03T09:57:43Z</time>
      </trkpt>
      <trkpt lat="45.33116" lon="2.87892">
        <ele>1093.16</ele>
        <time>2011-09-03T09:57:44Z</time>
      </trkpt>
      <trkpt lat="45.33057" lon="2.87847">
        <ele>1088.35</ele>
        <time>2011-09-03T09:57:48Z</time>
      </trkpt>
      <trkpt lat="45.33044" lon="2.87831">
        <ele>1086.91</ele>
        <time>2011-09-03T09:57:49Z</time>
      </trkpt>
      <trkpt lat="45.33011" lon="2.87775">
        <ele>1081.14</ele>
        <time>2011-09-03T09:57:52Z</time>
      </trkpt>
      <trkpt lat="45.33003" lon="2.87753">
        <ele>1081.14</ele>
        <time>2011-09-03T09:57:53Z</time>
      </trkpt>
      <trkpt lat="45.32977" lon="2.8768">
        <ele>1077.78</ele>
        <time>2011-09-03T09:57:56Z</time>
      </trkpt>
      <trkpt lat="45.32938" lon="2.87585">
        <ele>1072.49</ele>
        <time>2011-09-03T09:58:00Z</time>
      </trkpt>
      <trkpt lat="45.32928" lon="2.87562">
        <ele>1068.64</ele>
        <time>2011-09-03T09:58:01Z</time>
      </trkpt>
      <trkpt lat="45.3291" lon="2.87516">
        <ele>1063.36</ele>
        <time>2011-09-03T09:58:03Z</time>
      </trkpt>
      <trkpt lat="45.32881" lon="2.8745">
        <ele>1060.47</ele>
        <time>2011-09-03T09:58:06Z</time>
      </trkpt>
      <trkpt lat="45.32862" lon="2.87408">
        <ele>1055.18</ele>
        <time>2011-09-03T09:58:08Z</time>
      </trkpt>
      <trkpt lat="45.32833" lon="2.87351">
        <ele>1051.34</ele>
        <time>2011-09-03T09:58:11Z</time>
      </trkpt>
      <trkpt lat="45.32813" lon="2.87318">
        <ele>1045.57</ele>
        <time>2011-09-03T09:58:13Z</time>
      </trkpt>
      <trkpt lat="45.32803" lon="2.87302">
        <ele>1045.57</ele>
        <time>2011-09-03T09:58:14Z</time>
      </trkpt>
      <trkpt lat="45.32765" lon="2.87238">
        <ele>1040.28</ele>
        <time>2011-09-03T09:58:18Z</time>
      </trkpt>
      <trkpt lat="45.32745" lon="2.87206">
        <ele>1035.96</ele>
        <time>2011-09-03T09:58:20Z</time>
      </trkpt>
      <trkpt lat="45.32721" lon="2.87147">
        <ele>1031.63</ele>
        <time>2011-09-03T09:58:23Z</time>
      </trkpt>
      <trkpt lat="45.3271" lon="2.87118">
        <ele>1026.34</ele>
        <time>2011-09-03T09:58:25Z</time>
      </trkpt>
      <trkpt lat="45.32706" lon="2.87111">
        <ele>1025.86</ele>
        <time>2011-09-03T09:58:26Z</time>
      </trkpt>
      <trkpt lat="45.32702" lon="2.87102">
        <ele>1024.42</ele>
        <time>2011-09-03T09:58:28Z</time>
      </trkpt>
      <trkpt lat="45.32699" lon="2.87098">
        <ele>1023.94</ele>
        <time>2011-09-03T09:58:40Z</time>
      </trkpt>
      <trkpt lat="45.32698" lon="2.87098">
        <ele>1023.94</ele>
        <time>2011-09-03T09:59:48Z</time>
      </trkpt>
      <trkpt lat="45.32697" lon="2.87098">
        <ele>1022.5</ele>
        <time>2011-09-03T10:02:25Z</time>
      </trkpt>
      <trkpt lat="45.32695" lon="2.87098">
        <ele>1023.46</ele>
        <time>2011-09-03T10:03:18Z</time>
      </trkpt>
      <trkpt lat="45.32701" lon="2.87122">
        <ele>1024.9</ele>
        <time>2011-09-03T10:03:25Z</time>
      </trkpt>
      <trkpt lat="45.3272" lon="2.87189">
        <ele>1026.83</ele>
        <time>2011-09-03T10:03:31Z</time>
      </trkpt>
      <trkpt lat="45.32746" lon="2.87239">
        <ele>1030.67</ele>
        <time>2011-09-03T10:03:35Z</time>
      </trkpt>
      <trkpt lat="45.32753" lon="2.87253">
        <ele>1030.67</ele>
        <time>2011-09-03T10:03:36Z</time>
      </trkpt>
      <trkpt lat="45.32777" lon="2.873">
        <ele>1035.48</ele>
        <time>2011-09-03T10:03:39Z</time>
      </trkpt>
      <trkpt lat="45.32796" lon="2.87337">
        <ele>1036.92</ele>
        <time>2011-09-03T10:03:41Z</time>
      </trkpt>
      <trkpt lat="45.32817" lon="2.87377">
        <ele>1040.28</ele>
        <time>2011-09-03T10:03:43Z</time>
      </trkpt>
      <trkpt lat="45.32828" lon="2.87398">
        <ele>1040.76</ele>
        <time>2011-09-03T10:03:44Z</time>
      </trkpt>
      <trkpt lat="45.3285" lon="2.87439">
        <ele>1042.69</ele>
        <time>2011-09-03T10:03:46Z</time>
      </trkpt>
      <trkpt lat="45.32879" lon="2.87507">
        <ele>1044.13</ele>
        <time>2011-09-03T10:03:49Z</time>
      </trkpt>
      <trkpt lat="45.3291" lon="2.87603">
        <ele>1046.53</ele>
        <time>2011-09-03T10:03:53Z</time>
      </trkpt>
      <trkpt lat="45.32924" lon="2.87651">
        <ele>1049.9</ele>
        <time>2011-09-03T10:03:55Z</time>
      </trkpt>
      <trkpt lat="45.32931" lon="2.87677">
        <ele>1049.42</ele>
        <time>2011-09-03T10:03:56Z</time>
      </trkpt>
      <trkpt lat="45.32946" lon="2.87729">
        <ele>1052.3</ele>
        <time>2011-09-03T10:03:58Z</time>
      </trkpt>
      <trkpt lat="45.32987" lon="2.87882">
        <ele>1056.15</ele>
        <time>2011-09-03T10:04:04Z</time>
      </trkpt>
      <trkpt lat="45.33017" lon="2.87938">
        <ele>1054.22</ele>
        <time>2011-09-03T10:04:07Z</time>
      </trkpt>
      <trkpt lat="45.33047" lon="2.87961">
        <ele>1055.67</ele>
        <time>2011-09-03T10:04:09Z</time>
      </trkpt>
      <trkpt lat="45.33118" lon="2.87988">
        <ele>1060.47</ele>
        <time>2011-09-03T10:04:13Z</time>
      </trkpt>
      <trkpt lat="45.33192" lon="2.87999">
        <ele>1062.39</ele>
        <time>2011-09-03T10:04:17Z</time>
      </trkpt>
      <trkpt lat="45.33228" lon="2.88047">
        <ele>1061.91</ele>
        <time>2011-09-03T10:04:22Z</time>
      </trkpt>
      <trkpt lat="45.33197" lon="2.88073">
        <ele>1065.28</ele>
        <time>2011-09-03T10:04:26Z</time>
      </trkpt>
      <trkpt lat="45.33137" lon="2.88089">
        <ele>1072.97</ele>
        <time>2011-09-03T10:04:30Z</time>
      </trkpt>
      <trkpt lat="45.33106" lon="2.88106">
        <ele>1073.93</ele>
        <time>2011-09-03T10:04:32Z</time>
      </trkpt>
      <trkpt lat="45.33059" lon="2.88167">
        <ele>1076.81</ele>
        <time>2011-09-03T10:04:36Z</time>
      </trkpt>
      <trkpt lat="45.33039" lon="2.88211">
        <ele>1081.14</ele>
        <time>2011-09-03T10:04:38Z</time>
      </trkpt>
      <trkpt lat="45.33031" lon="2.88233">
        <ele>1080.18</ele>
        <time>2011-09-03T10:04:39Z</time>
      </trkpt>
      <trkpt lat="45.33024" lon="2.88254">
        <ele>1080.18</ele>
        <time>2011-09-03T10:04:40Z</time>
      </trkpt>
      <trkpt lat="45.33022" lon="2.88301">
        <ele>1077.29</ele>
        <time>2011-09-03T10:04:43Z</time>
      </trkpt>
      <trkpt lat="45.3304" lon="2.88354">
        <ele>1077.78</ele>
        <time>2011-09-03T10:04:47Z</time>
      </trkpt>
      <trkpt lat="45.33" lon="2.8838">
        <ele>1080.66</ele>
        <time>2011-09-03T10:04:51Z</time>
      </trkpt>
      <trkpt lat="45.32978" lon="2.88379">
        <ele>1080.66</ele>
        <time>2011-09-03T10:04:53Z</time>
      </trkpt>
      <trkpt lat="45.32939" lon="2.88397">
        <ele>1084.5</ele>
        <time>2011-09-03T10:04:57Z</time>
      </trkpt>
      <trkpt lat="45.32917" lon="2.88416">
        <ele>1085.95</ele>
        <time>2011-09-03T10:04:59Z</time>
      </trkpt>
      <trkpt lat="45.32894" lon="2.88443">
        <ele>1090.27</ele>
        <time>2011-09-03T10:05:01Z</time>
      </trkpt>
      <trkpt lat="45.32867" lon="2.88491">
        <ele>1091.23</ele>
        <time>2011-09-03T10:05:04Z</time>
      </trkpt>
      <trkpt lat="45.32855" lon="2.88574">
        <ele>1094.6</ele>
        <time>2011-09-03T10:05:10Z</time>
      </trkpt>
      <trkpt lat="45.32856" lon="2.88608">
        <ele>1096.04</ele>
        <time>2011-09-03T10:05:12Z</time>
      </trkpt>
      <trkpt lat="45.32875" lon="2.88681">
        <ele>1097.96</ele>
        <time>2011-09-03T10:05:17Z</time>
      </trkpt>
      <trkpt lat="45.32887" lon="2.88711">
        <ele>1099.4</ele>
        <time>2011-09-03T10:05:19Z</time>
      </trkpt>
      <trkpt lat="45.32893" lon="2.88726">
        <ele>1100.37</ele>
        <time>2011-09-03T10:05:20Z</time>
      </trkpt>
      <trkpt lat="45.32904" lon="2.88763">
        <ele>1102.77</ele>
        <time>2011-09-03T10:05:23Z</time>
      </trkpt>
      <trkpt lat="45.32911" lon="2.88834">
        <ele>1103.73</ele>
        <time>2011-09-03T10:05:28Z</time>
      </trkpt>
      <trkpt lat="45.32901" lon="2.88876">
        <ele>1105.65</ele>
        <time>2011-09-03T10:05:31Z</time>
      </trkpt>
      <trkpt lat="45.32892" lon="2.88899">
        <ele>1107.1</ele>
        <time>2011-09-03T10:05:33Z</time>
      </trkpt>
      <trkpt lat="45.32896" lon="2.88944">
        <ele>1110.94</ele>
        <time>2011-09-03T10:05:37Z</time>
      </trkpt>
      <trkpt lat="45.32902" lon="2.88955">
        <ele>1112.38</ele>
        <time>2011-09-03T10:05:38Z</time>
      </trkpt>
      <trkpt lat="45.32935" lon="2.89">
        <ele>1114.31</ele>
        <time>2011-09-03T10:05:42Z</time>
      </trkpt>
      <trkpt lat="45.32966" lon="2.89046">
        <ele>1114.31</ele>
        <time>2011-09-03T10:05:46Z</time>
      </trkpt>
      <trkpt lat="45.32988" lon="2.89118">
        <ele>1113.34</ele>
        <time>2011-09-03T10:05:51Z</time>
      </trkpt>
      <trkpt lat="45.33018" lon="2.89173">
        <ele>1115.27</ele>
        <time>2011-09-03T10:05:55Z</time>
      </trkpt>
      <trkpt lat="45.33066" lon="2.89263">
        <ele>1118.63</ele>
        <time>2011-09-03T10:06:01Z</time>
      </trkpt>
      <trkpt lat="45.33118" lon="2.89374">
        <ele>1123.44</ele>
        <time>2011-09-03T10:06:07Z</time>
      </trkpt>
      <trkpt lat="45.33127" lon="2.89393">
        <ele>1123.44</ele>
        <time>2011-09-03T10:06:08Z</time>
      </trkpt>
      <trkpt lat="45.33153" lon="2.89449">
        <ele>1127.28</ele>
        <time>2011-09-03T10:06:11Z</time>
      </trkpt>
      <trkpt lat="45.33176" lon="2.89505">
        <ele>1130.17</ele>
        <time>2011-09-03T10:06:14Z</time>
      </trkpt>
      <trkpt lat="45.33195" lon="2.89562">
        <ele>1135.45</ele>
        <time>2011-09-03T10:06:17Z</time>
      </trkpt>
      <trkpt lat="45.33205" lon="2.896">
        <ele>1136.42</ele>
        <time>2011-09-03T10:06:19Z</time>
      </trkpt>
      <trkpt lat="45.33211" lon="2.89657">
        <ele>1137.38</ele>
        <time>2011-09-03T10:06:22Z</time>
      </trkpt>
      <trkpt lat="45.33211" lon="2.89749">
        <ele>1139.3</ele>
        <time>2011-09-03T10:06:27Z</time>
      </trkpt>
      <trkpt lat="45.33223" lon="2.89789">
        <ele>1140.74</ele>
        <time>2011-09-03T10:06:29Z</time>
      </trkpt>
      <trkpt lat="45.33242" lon="2.89848">
        <ele>1141.7</ele>
        <time>2011-09-03T10:06:32Z</time>
      </trkpt>
      <trkpt lat="45.33244" lon="2.89948">
        <ele>1144.11</ele>
        <time>2011-09-03T10:06:37Z</time>
      </trkpt>
      <trkpt lat="45.33206" lon="2.90021">
        <ele>1146.03</ele>
        <time>2011-09-03T10:06:42Z</time>
      </trkpt>
      <trkpt lat="45.33204" lon="2.90037">
        <ele>1146.99</ele>
        <time>2011-09-03T10:06:43Z</time>
      </trkpt>
      <trkpt lat="45.33203" lon="2.90089">
        <ele>1151.32</ele>
        <time>2011-09-03T10:06:46Z</time>
      </trkpt>
      <trkpt lat="45.33224" lon="2.90166">
        <ele>1153.24</ele>
        <time>2011-09-03T10:06:51Z</time>
      </trkpt>
      <trkpt lat="45.33249" lon="2.90204">
        <ele>1155.16</ele>
        <time>2011-09-03T10:06:54Z</time>
      </trkpt>
      <trkpt lat="45.3326" lon="2.90252">
        <ele>1158.53</ele>
        <time>2011-09-03T10:06:57Z</time>
      </trkpt>
      <trkpt lat="45.33257" lon="2.90271">
        <ele>1158.05</ele>
        <time>2011-09-03T10:06:58Z</time>
      </trkpt>
      <trkpt lat="45.33242" lon="2.90343">
        <ele>1160.45</ele>
        <time>2011-09-03T10:07:02Z</time>
      </trkpt>
      <trkpt lat="45.33242" lon="2.90453">
        <ele>1159.97</ele>
        <time>2011-09-03T10:07:08Z</time>
      </trkpt>
      <trkpt lat="45.33256" lon="2.90532">
        <ele>1162.85</ele>
        <time>2011-09-03T10:07:13Z</time>
      </trkpt>
      <trkpt lat="45.3328" lon="2.90583">
        <ele>1164.77</ele>
        <time>2011-09-03T10:07:16Z</time>
      </trkpt>
      <trkpt lat="45.33355" lon="2.90737">
        <ele>1165.74</ele>
        <time>2011-09-03T10:07:25Z</time>
      </trkpt>
      <trkpt lat="45.3337" lon="2.90799">
        <ele>1165.74</ele>
        <time>2011-09-03T10:07:29Z</time>
      </trkpt>
      <trkpt lat="45.334" lon="2.90907">
        <ele>1168.14</ele>
        <time>2011-09-03T10:07:36Z</time>
      </trkpt>
      <trkpt lat="45.33451" lon="2.90959">
        <ele>1171.02</ele>
        <time>2011-09-03T10:07:41Z</time>
      </trkpt>
      <trkpt lat="45.33487" lon="2.91013">
        <ele>1174.87</ele>
        <time>2011-09-03T10:07:45Z</time>
      </trkpt>
      <trkpt lat="45.33502" lon="2.91048">
        <ele>1179.19</ele>
        <time>2011-09-03T10:07:47Z</time>
      </trkpt>
      <trkpt lat="45.33518" lon="2.91132">
        <ele>1184</ele>
        <time>2011-09-03T10:07:51Z</time>
      </trkpt>
      <trkpt lat="45.33522" lon="2.91218">
        <ele>1187.37</ele>
        <time>2011-09-03T10:07:55Z</time>
      </trkpt>
      <trkpt lat="45.33523" lon="2.91262">
        <ele>1188.81</ele>
        <time>2011-09-03T10:07:57Z</time>
      </trkpt>
      <trkpt lat="45.33534" lon="2.91349">
        <ele>1193.13</ele>
        <time>2011-09-03T10:08:01Z</time>
      </trkpt>
      <trkpt lat="45.33543" lon="2.91395">
        <ele>1196.98</ele>
        <time>2011-09-03T10:08:03Z</time>
      </trkpt>
      <trkpt lat="45.33562" lon="2.91489">
        <ele>1200.82</ele>
        <time>2011-09-03T10:08:07Z</time>
      </trkpt>
      <trkpt lat="45.33567" lon="2.9151">
        <ele>1202.27</ele>
        <time>2011-09-03T10:08:08Z</time>
      </trkpt>
      <trkpt lat="45.33597" lon="2.91609">
        <ele>1205.15</ele>
        <time>2011-09-03T10:08:13Z</time>
      </trkpt>
      <trkpt lat="45.33576" lon="2.91692">
        <ele>1208.03</ele>
        <time>2011-09-03T10:08:18Z</time>
      </trkpt>
      <trkpt lat="45.33533" lon="2.91716">
        <ele>1212.84</ele>
        <time>2011-09-03T10:08:22Z</time>
      </trkpt>
      <trkpt lat="45.33514" lon="2.91742">
        <ele>1214.76</ele>
        <time>2011-09-03T10:08:24Z</time>
      </trkpt>
      <trkpt lat="45.33487" lon="2.91786">
        <ele>1217.65</ele>
        <time>2011-09-03T10:08:27Z</time>
      </trkpt>
      <trkpt lat="45.33473" lon="2.91842">
        <ele>1219.57</ele>
        <time>2011-09-03T10:08:31Z</time>
      </trkpt>
      <trkpt lat="45.33482" lon="2.91924">
        <ele>1221.97</ele>
        <time>2011-09-03T10:08:36Z</time>
      </trkpt>
      <trkpt lat="45.33522" lon="2.91989">
        <ele>1226.3</ele>
        <time>2011-09-03T10:08:41Z</time>
      </trkpt>
      <trkpt lat="45.33576" lon="2.92066">
        <ele>1231.11</ele>
        <time>2011-09-03T10:08:47Z</time>
      </trkpt>
      <trkpt lat="45.33592" lon="2.92166">
        <ele>1233.03</ele>
        <time>2011-09-03T10:08:53Z</time>
      </trkpt>
      <trkpt lat="45.33596" lon="2.92203">
        <ele>1234.95</ele>
        <time>2011-09-03T10:08:55Z</time>
      </trkpt>
      <trkpt lat="45.33603" lon="2.92235">
        <ele>1236.39</ele>
        <time>2011-09-03T10:08:57Z</time>
      </trkpt>
      <trkpt lat="45.33627" lon="2.92311">
        <ele>1242.16</ele>
        <time>2011-09-03T10:09:01Z</time>
      </trkpt>
      <trkpt lat="45.33637" lon="2.92382">
        <ele>1245.53</ele>
        <time>2011-09-03T10:09:04Z</time>
      </trkpt>
      <trkpt lat="45.33639" lon="2.92505">
        <ele>1249.85</ele>
        <time>2011-09-03T10:09:10Z</time>
      </trkpt>
      <trkpt lat="45.33638" lon="2.92525">
        <ele>1249.85</ele>
        <time>2011-09-03T10:09:11Z</time>
      </trkpt>
      <trkpt lat="45.33644" lon="2.9258">
        <ele>1248.89</ele>
        <time>2011-09-03T10:09:14Z</time>
      </trkpt>
      <trkpt lat="45.33649" lon="2.92646">
        <ele>1252.25</ele>
        <time>2011-09-03T10:09:18Z</time>
      </trkpt>
      <trkpt lat="45.3364" lon="2.9268">
        <ele>1255.14</ele>
        <time>2011-09-03T10:09:20Z</time>
      </trkpt>
      <trkpt lat="45.33616" lon="2.92731">
        <ele>1258.98</ele>
        <time>2011-09-03T10:09:23Z</time>
      </trkpt>
      <trkpt lat="45.33604" lon="2.92745">
        <ele>1259.46</ele>
        <time>2011-09-03T10:09:24Z</time>
      </trkpt>
      <trkpt lat="45.33568" lon="2.92834">
        <ele>1261.87</ele>
        <time>2011-09-03T10:09:29Z</time>
      </trkpt>
      <trkpt lat="45.33531" lon="2.92889">
        <ele>1263.31</ele>
        <time>2011-09-03T10:09:33Z</time>
      </trkpt>
      <trkpt lat="45.33524" lon="2.92903">
        <ele>1263.31</ele>
        <time>2011-09-03T10:09:34Z</time>
      </trkpt>
      <trkpt lat="45.3348" lon="2.92976">
        <ele>1266.19</ele>
        <time>2011-09-03T10:09:39Z</time>
      </trkpt>
      <trkpt lat="45.3347" lon="2.92989">
        <ele>1266.67</ele>
        <time>2011-09-03T10:09:40Z</time>
      </trkpt>
      <trkpt lat="45.33428" lon="2.93074">
        <ele>1270.04</ele>
        <time>2011-09-03T10:09:46Z</time>
      </trkpt>
      <trkpt lat="45.33426" lon="2.93091">
        <ele>1270.04</ele>
        <time>2011-09-03T10:09:47Z</time>
      </trkpt>
      <trkpt lat="45.33433" lon="2.93128">
        <ele>1270.52</ele>
        <time>2011-09-03T10:09:49Z</time>
      </trkpt>
      <trkpt lat="45.33453" lon="2.93189">
        <ele>1273.4</ele>
        <time>2011-09-03T10:09:52Z</time>
      </trkpt>
      <trkpt lat="45.33493" lon="2.93267">
        <ele>1277.25</ele>
        <time>2011-09-03T10:09:56Z</time>
      </trkpt>
      <trkpt lat="45.33518" lon="2.93328">
        <ele>1279.17</ele>
        <time>2011-09-03T10:09:59Z</time>
      </trkpt>
      <trkpt lat="45.33576" lon="2.93425">
        <ele>1281.57</ele>
        <time>2011-09-03T10:10:05Z</time>
      </trkpt>
      <trkpt lat="45.33589" lon="2.93464">
        <ele>1282.54</ele>
        <time>2011-09-03T10:10:07Z</time>
      </trkpt>
      <trkpt lat="45.33622" lon="2.93506">
        <ele>1284.94</ele>
        <time>2011-09-03T10:10:10Z</time>
      </trkpt>
      <trkpt lat="45.33679" lon="2.93538">
        <ele>1284.94</ele>
        <time>2011-09-03T10:10:15Z</time>
      </trkpt>
      <trkpt lat="45.33705" lon="2.93554">
        <ele>1286.38</ele>
        <time>2011-09-03T10:10:17Z</time>
      </trkpt>
      <trkpt lat="45.33742" lon="2.93597">
        <ele>1288.3</ele>
        <time>2011-09-03T10:10:20Z</time>
      </trkpt>
      <trkpt lat="45.33763" lon="2.93632">
        <ele>1289.27</ele>
        <time>2011-09-03T10:10:22Z</time>
      </trkpt>
      <trkpt lat="45.33801" lon="2.93748">
        <ele>1287.34</ele>
        <time>2011-09-03T10:10:28Z</time>
      </trkpt>
      <trkpt lat="45.33812" lon="2.93765">
        <ele>1287.34</ele>
        <time>2011-09-03T10:10:29Z</time>
      </trkpt>
      <trkpt lat="45.33861" lon="2.93865">
        <ele>1289.27</ele>
        <time>2011-09-03T10:10:34Z</time>
      </trkpt>
      <trkpt lat="45.33933" lon="2.93956">
        <ele>1286.86</ele>
        <time>2011-09-03T10:10:40Z</time>
      </trkpt>
      <trkpt lat="45.33959" lon="2.94003">
        <ele>1285.42</ele>
        <time>2011-09-03T10:10:43Z</time>
      </trkpt>
      <trkpt lat="45.33976" lon="2.94093">
        <ele>1284.94</ele>
        <time>2011-09-03T10:10:48Z</time>
      </trkpt>
      <trkpt lat="45.33986" lon="2.94174">
        <ele>1283.5</ele>
        <time>2011-09-03T10:10:55Z</time>
      </trkpt>
      <trkpt lat="45.33984" lon="2.9418">
        <ele>1283.5</ele>
        <time>2011-09-03T10:10:56Z</time>
      </trkpt>
      <trkpt lat="45.33969" lon="2.94211">
        <ele>1283.02</ele>
        <time>2011-09-03T10:11:05Z</time>
      </trkpt>
      <trkpt lat="45.33964" lon="2.94212">
        <ele>1283.02</ele>
        <time>2011-09-03T10:11:14Z</time>
      </trkpt>
      <trkpt lat="45.33964" lon="2.94213">
        <ele>1283.02</ele>
        <time>2011-09-03T10:11:43Z</time>
      </trkpt>
      <trkpt lat="45.33953" lon="2.94211">
        <ele>1284.46</ele>
        <time>2011-09-03T10:13:28Z</time>
      </trkpt>
      <trkpt lat="45.33951" lon="2.94211">
        <ele>1283.5</ele>
        <time>2011-09-03T10:13:44Z</time>
      </trkpt>
      <trkpt lat="45.33922" lon="2.94202">
        <ele>1285.42</ele>
        <time>2011-09-03T10:14:03Z</time>
      </trkpt>
      <trkpt lat="45.3386" lon="2.94177">
        <ele>1287.82</ele>
        <time>2011-09-03T10:14:10Z</time>
      </trkpt>
      <trkpt lat="45.33843" lon="2.94196">
        <ele>1289.75</ele>
        <time>2011-09-03T10:14:17Z</time>
      </trkpt>
      <trkpt lat="45.33846" lon="2.94202">
        <ele>1290.23</ele>
        <time>2011-09-03T10:14:18Z</time>
      </trkpt>
      <trkpt lat="45.33859" lon="2.94241">
        <ele>1293.59</ele>
        <time>2011-09-03T10:14:23Z</time>
      </trkpt>
      <trkpt lat="45.33862" lon="2.94258">
        <ele>1295.51</ele>
        <time>2011-09-03T10:14:25Z</time>
      </trkpt>
      <trkpt lat="45.33855" lon="2.94305">
        <ele>1298.4</ele>
        <time>2011-09-03T10:14:30Z</time>
      </trkpt>
      <trkpt lat="45.33848" lon="2.94363">
        <ele>1303.2</ele>
        <time>2011-09-03T10:14:36Z</time>
      </trkpt>
      <trkpt lat="45.33822" lon="2.94399">
        <ele>1308.01</ele>
        <time>2011-09-03T10:14:42Z</time>
      </trkpt>
      <trkpt lat="45.33794" lon="2.94407">
        <ele>1310.9</ele>
        <time>2011-09-03T10:14:46Z</time>
      </trkpt>
      <trkpt lat="45.33787" lon="2.94406">
        <ele>1312.82</ele>
        <time>2011-09-03T10:14:47Z</time>
      </trkpt>
      <trkpt lat="45.33765" lon="2.94402">
        <ele>1314.26</ele>
        <time>2011-09-03T10:14:50Z</time>
      </trkpt>
      <trkpt lat="45.33724" lon="2.94394">
        <ele>1318.1</ele>
        <time>2011-09-03T10:14:55Z</time>
      </trkpt>
      <trkpt lat="45.33716" lon="2.94393">
        <ele>1318.1</ele>
        <time>2011-09-03T10:14:56Z</time>
      </trkpt>
      <trkpt lat="45.33685" lon="2.94387">
        <ele>1320.51</ele>
        <time>2011-09-03T10:15:00Z</time>
      </trkpt>
      <trkpt lat="45.33662" lon="2.9438">
        <ele>1321.95</ele>
        <time>2011-09-03T10:15:03Z</time>
      </trkpt>
      <trkpt lat="45.33631" lon="2.9437">
        <ele>1325.31</ele>
        <time>2011-09-03T10:15:07Z</time>
      </trkpt>
      <trkpt lat="45.33614" lon="2.94365">
        <ele>1327.72</ele>
        <time>2011-09-03T10:15:09Z</time>
      </trkpt>
      <trkpt lat="45.33593" lon="2.94366">
        <ele>1329.16</ele>
        <time>2011-09-03T10:15:12Z</time>
      </trkpt>
      <trkpt lat="45.33557" lon="2.94361">
        <ele>1332.04</ele>
        <time>2011-09-03T10:15:17Z</time>
      </trkpt>
      <trkpt lat="45.33534" lon="2.94357">
        <ele>1334.45</ele>
        <time>2011-09-03T10:15:20Z</time>
      </trkpt>
      <trkpt lat="45.33501" lon="2.94321">
        <ele>1339.25</ele>
        <time>2011-09-03T10:15:26Z</time>
      </trkpt>
      <trkpt lat="45.33498" lon="2.94311">
        <ele>1338.29</ele>
        <time>2011-09-03T10:15:27Z</time>
      </trkpt>
      <trkpt lat="45.33492" lon="2.94292">
        <ele>1339.73</ele>
        <time>2011-09-03T10:15:29Z</time>
      </trkpt>
      <trkpt lat="45.33463" lon="2.9427">
        <ele>1343.58</ele>
        <time>2011-09-03T10:15:34Z</time>
      </trkpt>
      <trkpt lat="45.33441" lon="2.9427">
        <ele>1345.5</ele>
        <time>2011-09-03T10:15:37Z</time>
      </trkpt>
      <trkpt lat="45.33391" lon="2.94269">
        <ele>1348.87</ele>
        <time>2011-09-03T10:15:44Z</time>
      </trkpt>
      <trkpt lat="45.33347" lon="2.94281">
        <ele>1352.23</ele>
        <time>2011-09-03T10:15:50Z</time>
      </trkpt>
      <trkpt lat="45.33339" lon="2.94285">
        <ele>1351.75</ele>
        <time>2011-09-03T10:15:51Z</time>
      </trkpt>
      <trkpt lat="45.3333" lon="2.9429">
        <ele>1353.67</ele>
        <time>2011-09-03T10:15:52Z</time>
      </trkpt>
      <trkpt lat="45.33302" lon="2.94315">
        <ele>1357.04</ele>
        <time>2011-09-03T10:15:56Z</time>
      </trkpt>
      <trkpt lat="45.33296" lon="2.94321">
        <ele>1357.52</ele>
        <time>2011-09-03T10:15:57Z</time>
      </trkpt>
      <trkpt lat="45.33272" lon="2.9434">
        <ele>1358.48</ele>
        <time>2011-09-03T10:16:01Z</time>
      </trkpt>
      <trkpt lat="45.33246" lon="2.94365">
        <ele>1360.4</ele>
        <time>2011-09-03T10:16:05Z</time>
      </trkpt>
      <trkpt lat="45.33222" lon="2.94425">
        <ele>1366.17</ele>
        <time>2011-09-03T10:16:11Z</time>
      </trkpt>
      <trkpt lat="45.33213" lon="2.94442">
        <ele>1366.65</ele>
        <time>2011-09-03T10:16:13Z</time>
      </trkpt>
      <trkpt lat="45.33201" lon="2.94456">
        <ele>1368.09</ele>
        <time>2011-09-03T10:16:15Z</time>
      </trkpt>
      <trkpt lat="45.33182" lon="2.94473">
        <ele>1370.5</ele>
        <time>2011-09-03T10:16:18Z</time>
      </trkpt>
      <trkpt lat="45.33155" lon="2.94493">
        <ele>1373.86</ele>
        <time>2011-09-03T10:16:22Z</time>
      </trkpt>
      <trkpt lat="45.33129" lon="2.94511">
        <ele>1377.23</ele>
        <time>2011-09-03T10:16:26Z</time>
      </trkpt>
      <trkpt lat="45.33122" lon="2.94515">
        <ele>1377.71</ele>
        <time>2011-09-03T10:16:27Z</time>
      </trkpt>
      <trkpt lat="45.33103" lon="2.94529">
        <ele>1380.59</ele>
        <time>2011-09-03T10:16:30Z</time>
      </trkpt>
      <trkpt lat="45.33075" lon="2.94554">
        <ele>1385.4</ele>
        <time>2011-09-03T10:16:34Z</time>
      </trkpt>
      <trkpt lat="45.33068" lon="2.9456">
        <ele>1385.4</ele>
        <time>2011-09-03T10:16:35Z</time>
      </trkpt>
      <trkpt lat="45.3304" lon="2.94581">
        <ele>1388.76</ele>
        <time>2011-09-03T10:16:40Z</time>
      </trkpt>
      <trkpt lat="45.33035" lon="2.94585">
        <ele>1388.76</ele>
        <time>2011-09-03T10:16:41Z</time>
      </trkpt>
      <trkpt lat="45.33024" lon="2.94595">
        <ele>1389.72</ele>
        <time>2011-09-03T10:16:43Z</time>
      </trkpt>
      <trkpt lat="45.33008" lon="2.94617">
        <ele>1391.17</ele>
        <time>2011-09-03T10:16:46Z</time>
      </trkpt>
      <trkpt lat="45.32997" lon="2.94632">
        <ele>1392.61</ele>
        <time>2011-09-03T10:16:48Z</time>
      </trkpt>
      <trkpt lat="45.32985" lon="2.94647">
        <ele>1394.05</ele>
        <time>2011-09-03T10:16:50Z</time>
      </trkpt>
      <trkpt lat="45.32968" lon="2.94671">
        <ele>1397.41</ele>
        <time>2011-09-03T10:16:53Z</time>
      </trkpt>
      <trkpt lat="45.32962" lon="2.94679">
        <ele>1397.41</ele>
        <time>2011-09-03T10:16:54Z</time>
      </trkpt>
      <trkpt lat="45.32941" lon="2.94718">
        <ele>1399.82</ele>
        <time>2011-09-03T10:16:58Z</time>
      </trkpt>
      <trkpt lat="45.32924" lon="2.94757">
        <ele>1403.18</ele>
        <time>2011-09-03T10:17:02Z</time>
      </trkpt>
      <trkpt lat="45.32903" lon="2.9479">
        <ele>1406.07</ele>
        <time>2011-09-03T10:17:06Z</time>
      </trkpt>
      <trkpt lat="45.32892" lon="2.94805">
        <ele>1407.51</ele>
        <time>2011-09-03T10:17:08Z</time>
      </trkpt>
      <trkpt lat="45.32882" lon="2.94818">
        <ele>1408.47</ele>
        <time>2011-09-03T10:17:10Z</time>
      </trkpt>
      <trkpt lat="45.32872" lon="2.94833">
        <ele>1409.43</ele>
        <time>2011-09-03T10:17:12Z</time>
      </trkpt>
      <trkpt lat="45.32863" lon="2.94854">
        <ele>1412.31</ele>
        <time>2011-09-03T10:17:14Z</time>
      </trkpt>
      <trkpt lat="45.32852" lon="2.94885">
        <ele>1413.76</ele>
        <time>2011-09-03T10:17:17Z</time>
      </trkpt>
      <trkpt lat="45.32837" lon="2.94914">
        <ele>1415.68</ele>
        <time>2011-09-03T10:17:20Z</time>
      </trkpt>
      <trkpt lat="45.32806" lon="2.94922">
        <ele>1419.04</ele>
        <time>2011-09-03T10:17:24Z</time>
      </trkpt>
      <trkpt lat="45.32788" lon="2.94925">
        <ele>1420</ele>
        <time>2011-09-03T10:17:26Z</time>
      </trkpt>
      <trkpt lat="45.32754" lon="2.94933">
        <ele>1421.93</ele>
        <time>2011-09-03T10:17:30Z</time>
      </trkpt>
      <trkpt lat="45.32699" lon="2.94919">
        <ele>1424.81</ele>
        <time>2011-09-03T10:17:36Z</time>
      </trkpt>
      <trkpt lat="45.32682" lon="2.9491">
        <ele>1426.25</ele>
        <time>2011-09-03T10:17:38Z</time>
      </trkpt>
      <trkpt lat="45.32656" lon="2.94897">
        <ele>1427.7</ele>
        <time>2011-09-03T10:17:41Z</time>
      </trkpt>
      <trkpt lat="45.32597" lon="2.94895">
        <ele>1432.5</ele>
        <time>2011-09-03T10:17:47Z</time>
      </trkpt>
      <trkpt lat="45.32575" lon="2.94896">
        <ele>1434.42</ele>
        <time>2011-09-03T10:17:50Z</time>
      </trkpt>
      <trkpt lat="45.32548" lon="2.94899">
        <ele>1436.83</ele>
        <time>2011-09-03T10:17:58Z</time>
      </trkpt>
      <trkpt lat="45.32541" lon="2.94898">
        <ele>1438.27</ele>
        <time>2011-09-03T10:18:26Z</time>
      </trkpt>
      <trkpt lat="45.32533" lon="2.949">
        <ele>1439.23</ele>
        <time>2011-09-03T10:18:38Z</time>
      </trkpt>
      <trkpt lat="45.32531" lon="2.949">
        <ele>1440.19</ele>
        <time>2011-09-03T10:19:32Z</time>
      </trkpt>
      <trkpt lat="45.32508" lon="2.94902">
        <ele>1442.11</ele>
        <time>2011-09-03T10:19:37Z</time>
      </trkpt>
      <trkpt lat="45.32434" lon="2.9491">
        <ele>1446.92</ele>
        <time>2011-09-03T10:19:48Z</time>
      </trkpt>
      <trkpt lat="45.32371" lon="2.94917">
        <ele>1448.84</ele>
        <time>2011-09-03T10:19:56Z</time>
      </trkpt>
      <trkpt lat="45.3225" lon="2.94931">
        <ele>1447.88</ele>
        <time>2011-09-03T10:20:09Z</time>
      </trkpt>
      <trkpt lat="45.32231" lon="2.94933">
        <ele>1450.29</ele>
        <time>2011-09-03T10:20:11Z</time>
      </trkpt>
      <trkpt lat="45.32182" lon="2.94936">
        <ele>1451.73</ele>
        <time>2011-09-03T10:20:16Z</time>
      </trkpt>
      <trkpt lat="45.32138" lon="2.9494">
        <ele>1451.73</ele>
        <time>2011-09-03T10:20:21Z</time>
      </trkpt>
      <trkpt lat="45.32089" lon="2.94922">
        <ele>1448.84</ele>
        <time>2011-09-03T10:20:28Z</time>
      </trkpt>
      <trkpt lat="45.32083" lon="2.94919">
        <ele>1449.81</ele>
        <time>2011-09-03T10:20:29Z</time>
      </trkpt>
      <trkpt lat="45.32073" lon="2.94914">
        <ele>1447.4</ele>
        <time>2011-09-03T10:20:31Z</time>
      </trkpt>
      <trkpt lat="45.32044" lon="2.94912">
        <ele>1446.44</ele>
        <time>2011-09-03T10:20:36Z</time>
      </trkpt>
      <trkpt lat="45.31999" lon="2.94929">
        <ele>1442.11</ele>
        <time>2011-09-03T10:20:44Z</time>
      </trkpt>
      <trkpt lat="45.31988" lon="2.94934">
        <ele>1441.15</ele>
        <time>2011-09-03T10:20:46Z</time>
      </trkpt>
      <trkpt lat="45.31976" lon="2.94941">
        <ele>1441.63</ele>
        <time>2011-09-03T10:20:48Z</time>
      </trkpt>
      <trkpt lat="45.31951" lon="2.94976">
        <ele>1437.31</ele>
        <time>2011-09-03T10:20:54Z</time>
      </trkpt>
      <trkpt lat="45.3195" lon="2.94984">
        <ele>1437.31</ele>
        <time>2011-09-03T10:20:55Z</time>
      </trkpt>
      <trkpt lat="45.31947" lon="2.95016">
        <ele>1438.75</ele>
        <time>2011-09-03T10:20:58Z</time>
      </trkpt>
      <trkpt lat="45.31952" lon="2.95061">
        <ele>1435.39</ele>
        <time>2011-09-03T10:21:02Z</time>
      </trkpt>
      <trkpt lat="45.31964" lon="2.95105">
        <ele>1432.98</ele>
        <time>2011-09-03T10:21:06Z</time>
      </trkpt>
      <trkpt lat="45.3197" lon="2.95181">
        <ele>1432.5</ele>
        <time>2011-09-03T10:21:13Z</time>
      </trkpt>
      <trkpt lat="45.31959" lon="2.9522">
        <ele>1429.62</ele>
        <time>2011-09-03T10:21:17Z</time>
      </trkpt>
      <trkpt lat="45.31935" lon="2.9523">
        <ele>1428.66</ele>
        <time>2011-09-03T10:21:20Z</time>
      </trkpt>
      <trkpt lat="45.3192" lon="2.95231">
        <ele>1426.25</ele>
        <time>2011-09-03T10:21:22Z</time>
      </trkpt>
      <trkpt lat="45.31898" lon="2.95238">
        <ele>1425.77</ele>
        <time>2011-09-03T10:21:25Z</time>
      </trkpt>
      <trkpt lat="45.31878" lon="2.95253">
        <ele>1423.85</ele>
        <time>2011-09-03T10:21:28Z</time>
      </trkpt>
      <trkpt lat="45.31857" lon="2.95293">
        <ele>1421.93</ele>
        <time>2011-09-03T10:21:32Z</time>
      </trkpt>
      <trkpt lat="45.31853" lon="2.95319">
        <ele>1420.49</ele>
        <time>2011-09-03T10:21:34Z</time>
      </trkpt>
      <trkpt lat="45.31852" lon="2.95343">
        <ele>1419.52</ele>
        <time>2011-09-03T10:21:36Z</time>
      </trkpt>
      <trkpt lat="45.31831" lon="2.9541">
        <ele>1416.64</ele>
        <time>2011-09-03T10:21:42Z</time>
      </trkpt>
      <trkpt lat="45.31782" lon="2.95422">
        <ele>1415.2</ele>
        <time>2011-09-03T10:21:48Z</time>
      </trkpt>
      <trkpt lat="45.31744" lon="2.95413">
        <ele>1412.79</ele>
        <time>2011-09-03T10:21:52Z</time>
      </trkpt>
      <trkpt lat="45.31699" lon="2.95402">
        <ele>1409.91</ele>
        <time>2011-09-03T10:21:57Z</time>
      </trkpt>
      <trkpt lat="45.31654" lon="2.95391">
        <ele>1407.99</ele>
        <time>2011-09-03T10:22:03Z</time>
      </trkpt>
      <trkpt lat="45.31644" lon="2.95385">
        <ele>1407.03</ele>
        <time>2011-09-03T10:22:05Z</time>
      </trkpt>
      <trkpt lat="45.31592" lon="2.95338">
        <ele>1403.18</ele>
        <time>2011-09-03T10:22:13Z</time>
      </trkpt>
      <trkpt lat="45.31586" lon="2.95332">
        <ele>1403.66</ele>
        <time>2011-09-03T10:22:14Z</time>
      </trkpt>
      <trkpt lat="45.31554" lon="2.95301">
        <ele>1399.82</ele>
        <time>2011-09-03T10:22:19Z</time>
      </trkpt>
      <trkpt lat="45.31547" lon="2.95294">
        <ele>1398.86</ele>
        <time>2011-09-03T10:22:20Z</time>
      </trkpt>
      <trkpt lat="45.31507" lon="2.95279">
        <ele>1396.45</ele>
        <time>2011-09-03T10:22:25Z</time>
      </trkpt>
      <trkpt lat="45.31463" lon="2.95277">
        <ele>1392.61</ele>
        <time>2011-09-03T10:22:31Z</time>
      </trkpt>
      <trkpt lat="45.31449" lon="2.95277">
        <ele>1391.65</ele>
        <time>2011-09-03T10:22:33Z</time>
      </trkpt>
      <trkpt lat="45.31436" lon="2.95274">
        <ele>1390.68</ele>
        <time>2011-09-03T10:22:35Z</time>
      </trkpt>
      <trkpt lat="45.31403" lon="2.95258">
        <ele>1387.32</ele>
        <time>2011-09-03T10:22:40Z</time>
      </trkpt>
      <trkpt lat="45.31387" lon="2.95251">
        <ele>1384.92</ele>
        <time>2011-09-03T10:22:42Z</time>
      </trkpt>
      <trkpt lat="45.31352" lon="2.9523">
        <ele>1380.59</ele>
        <time>2011-09-03T10:22:46Z</time>
      </trkpt>
      <trkpt lat="45.31345" lon="2.95225">
        <ele>1380.59</ele>
        <time>2011-09-03T10:22:47Z</time>
      </trkpt>
      <trkpt lat="45.31333" lon="2.95217">
        <ele>1379.15</ele>
        <time>2011-09-03T10:22:49Z</time>
      </trkpt>
      <trkpt lat="45.31301" lon="2.95187">
        <ele>1376.75</ele>
        <time>2011-09-03T10:22:57Z</time>
      </trkpt>
      <trkpt lat="45.31279" lon="2.95176">
        <ele>1378.19</ele>
        <time>2011-09-03T10:23:01Z</time>
      </trkpt>
      <trkpt lat="45.31196" lon="2.95163">
        <ele>1375.3</ele>
        <time>2011-09-03T10:23:10Z</time>
      </trkpt>
      <trkpt lat="45.31179" lon="2.95163">
        <ele>1374.34</ele>
        <time>2011-09-03T10:23:12Z</time>
      </trkpt>
      <trkpt lat="45.31156" lon="2.95168">
        <ele>1372.42</ele>
        <time>2011-09-03T10:23:15Z</time>
      </trkpt>
      <trkpt lat="45.31148" lon="2.95172">
        <ele>1372.42</ele>
        <time>2011-09-03T10:23:16Z</time>
      </trkpt>
      <trkpt lat="45.31113" lon="2.95178">
        <ele>1368.57</ele>
        <time>2011-09-03T10:23:21Z</time>
      </trkpt>
      <trkpt lat="45.31102" lon="2.95133">
        <ele>1366.17</ele>
        <time>2011-09-03T10:23:25Z</time>
      </trkpt>
      <trkpt lat="45.31077" lon="2.95068">
        <ele>1366.65</ele>
        <time>2011-09-03T10:23:32Z</time>
      </trkpt>
      <trkpt lat="45.30999" lon="2.94995">
        <ele>1365.21</ele>
        <time>2011-09-03T10:23:40Z</time>
      </trkpt>
      <trkpt lat="45.30917" lon="2.94934">
        <ele>1364.73</ele>
        <time>2011-09-03T10:23:48Z</time>
      </trkpt>
      <trkpt lat="45.30897" lon="2.94918">
        <ele>1362.81</ele>
        <time>2011-09-03T10:23:52Z</time>
      </trkpt>
      <trkpt lat="45.30878" lon="2.94903">
        <ele>1362.33</ele>
        <time>2011-09-03T10:23:57Z</time>
      </trkpt>
      <trkpt lat="45.30871" lon="2.94894">
        <ele>1361.36</ele>
        <time>2011-09-03T10:23:59Z</time>
      </trkpt>
      <trkpt lat="45.30862" lon="2.94877">
        <ele>1362.81</ele>
        <time>2011-09-03T10:24:01Z</time>
      </trkpt>
      <trkpt lat="45.30839" lon="2.9483">
        <ele>1366.65</ele>
        <time>2011-09-03T10:24:05Z</time>
      </trkpt>
      <trkpt lat="45.30833" lon="2.94819">
        <ele>1366.65</ele>
        <time>2011-09-03T10:24:06Z</time>
      </trkpt>
      <trkpt lat="45.30814" lon="2.94784">
        <ele>1368.57</ele>
        <time>2011-09-03T10:24:09Z</time>
      </trkpt>
      <trkpt lat="45.30775" lon="2.94709">
        <ele>1372.42</ele>
        <time>2011-09-03T10:24:15Z</time>
      </trkpt>
      <trkpt lat="45.30769" lon="2.94696">
        <ele>1372.9</ele>
        <time>2011-09-03T10:24:16Z</time>
      </trkpt>
      <trkpt lat="45.30753" lon="2.94655">
        <ele>1375.3</ele>
        <time>2011-09-03T10:24:19Z</time>
      </trkpt>
      <trkpt lat="45.30722" lon="2.94587">
        <ele>1377.23</ele>
        <time>2011-09-03T10:24:24Z</time>
      </trkpt>
      <trkpt lat="45.30701" lon="2.94551">
        <ele>1377.23</ele>
        <time>2011-09-03T10:24:27Z</time>
      </trkpt>
      <trkpt lat="45.30643" lon="2.94471">
        <ele>1384.44</ele>
        <time>2011-09-03T10:24:37Z</time>
      </trkpt>
      <trkpt lat="45.30639" lon="2.94461">
        <ele>1383.96</ele>
        <time>2011-09-03T10:24:38Z</time>
      </trkpt>
      <trkpt lat="45.30617" lon="2.94406">
        <ele>1387.32</ele>
        <time>2011-09-03T10:24:43Z</time>
      </trkpt>
      <trkpt lat="45.30613" lon="2.94395">
        <ele>1387.32</ele>
        <time>2011-09-03T10:24:44Z</time>
      </trkpt>
      <trkpt lat="45.30565" lon="2.94307">
        <ele>1386.36</ele>
        <time>2011-09-03T10:24:54Z</time>
      </trkpt>
      <trkpt lat="45.30515" lon="2.94224">
        <ele>1389.24</ele>
        <time>2011-09-03T10:25:03Z</time>
      </trkpt>
      <trkpt lat="45.30495" lon="2.94194">
        <ele>1392.61</ele>
        <time>2011-09-03T10:25:06Z</time>
      </trkpt>
      <trkpt lat="45.30488" lon="2.94183">
        <ele>1392.13</ele>
        <time>2011-09-03T10:25:07Z</time>
      </trkpt>
      <trkpt lat="45.30441" lon="2.94108">
        <ele>1395.49</ele>
        <time>2011-09-03T10:25:14Z</time>
      </trkpt>
      <trkpt lat="45.30432" lon="2.94094">
        <ele>1392.13</ele>
        <time>2011-09-03T10:25:16Z</time>
      </trkpt>
      <trkpt lat="45.30429" lon="2.94088">
        <ele>1393.09</ele>
        <time>2011-09-03T10:25:17Z</time>
      </trkpt>
      <trkpt lat="45.30386" lon="2.94021">
        <ele>1389.24</ele>
        <time>2011-09-03T10:25:26Z</time>
      </trkpt>
      <trkpt lat="45.30351" lon="2.93963">
        <ele>1386.84</ele>
        <time>2011-09-03T10:25:31Z</time>
      </trkpt>
      <trkpt lat="45.30331" lon="2.93931">
        <ele>1383.47</ele>
        <time>2011-09-03T10:25:34Z</time>
      </trkpt>
      <trkpt lat="45.30294" lon="2.93864">
        <ele>1380.59</ele>
        <time>2011-09-03T10:25:41Z</time>
      </trkpt>
      <trkpt lat="45.30264" lon="2.9382">
        <ele>1377.71</ele>
        <time>2011-09-03T10:25:46Z</time>
      </trkpt>
      <trkpt lat="45.30242" lon="2.93794">
        <ele>1373.86</ele>
        <time>2011-09-03T10:25:49Z</time>
      </trkpt>
      <trkpt lat="45.30218" lon="2.93768">
        <ele>1369.54</ele>
        <time>2011-09-03T10:25:52Z</time>
      </trkpt>
      <trkpt lat="45.30209" lon="2.9376">
        <ele>1369.54</ele>
        <time>2011-09-03T10:25:53Z</time>
      </trkpt>
      <trkpt lat="45.30164" lon="2.93709">
        <ele>1365.21</ele>
        <time>2011-09-03T10:25:58Z</time>
      </trkpt>
      <trkpt lat="45.30148" lon="2.9369">
        <ele>1362.33</ele>
        <time>2011-09-03T10:26:00Z</time>
      </trkpt>
      <trkpt lat="45.30133" lon="2.93676">
        <ele>1357.52</ele>
        <time>2011-09-03T10:26:02Z</time>
      </trkpt>
      <trkpt lat="45.30127" lon="2.9367">
        <ele>1357.04</ele>
        <time>2011-09-03T10:26:03Z</time>
      </trkpt>
      <trkpt lat="45.30116" lon="2.93656">
        <ele>1355.6</ele>
        <time>2011-09-03T10:26:06Z</time>
      </trkpt>
      <trkpt lat="45.30114" lon="2.93652">
        <ele>1354.15</ele>
        <time>2011-09-03T10:26:07Z</time>
      </trkpt>
      <trkpt lat="45.30102" lon="2.93645">
        <ele>1352.23</ele>
        <time>2011-09-03T10:26:10Z</time>
      </trkpt>
      <trkpt lat="45.30075" lon="2.93641">
        <ele>1351.75</ele>
        <time>2011-09-03T10:26:14Z</time>
      </trkpt>
      <trkpt lat="45.30045" lon="2.93632">
        <ele>1351.75</ele>
        <time>2011-09-03T10:26:17Z</time>
      </trkpt>
      <trkpt lat="45.29966" lon="2.93631">
        <ele>1353.67</ele>
        <time>2011-09-03T10:26:24Z</time>
      </trkpt>
      <trkpt lat="45.2992" lon="2.93624">
        <ele>1354.63</ele>
        <time>2011-09-03T10:26:28Z</time>
      </trkpt>
      <trkpt lat="45.2989" lon="2.9363">
        <ele>1351.75</ele>
        <time>2011-09-03T10:26:31Z</time>
      </trkpt>
      <trkpt lat="45.29808" lon="2.93668">
        <ele>1351.27</ele>
        <time>2011-09-03T10:26:37Z</time>
      </trkpt>
      <trkpt lat="45.29758" lon="2.93691">
        <ele>1346.46</ele>
        <time>2011-09-03T10:26:40Z</time>
      </trkpt>
      <trkpt lat="45.29727" lon="2.93704">
        <ele>1343.58</ele>
        <time>2011-09-03T10:26:42Z</time>
      </trkpt>
      <trkpt lat="45.29711" lon="2.93711">
        <ele>1343.58</ele>
        <time>2011-09-03T10:26:43Z</time>
      </trkpt>
      <trkpt lat="45.2965" lon="2.93737">
        <ele>1341.66</ele>
        <time>2011-09-03T10:26:47Z</time>
      </trkpt>
      <trkpt lat="45.29604" lon="2.93758">
        <ele>1337.81</ele>
        <time>2011-09-03T10:26:50Z</time>
      </trkpt>
      <trkpt lat="45.29575" lon="2.9377">
        <ele>1333.97</ele>
        <time>2011-09-03T10:26:52Z</time>
      </trkpt>
      <trkpt lat="45.29564" lon="2.93776">
        <ele>1330.6</ele>
        <time>2011-09-03T10:26:53Z</time>
      </trkpt>
      <trkpt lat="45.2955" lon="2.93782">
        <ele>1326.76</ele>
        <time>2011-09-03T10:26:55Z</time>
      </trkpt>
      <trkpt lat="45.29545" lon="2.93784">
        <ele>1326.28</ele>
        <time>2011-09-03T10:26:56Z</time>
      </trkpt>
      <trkpt lat="45.29541" lon="2.93784">
        <ele>1323.39</ele>
        <time>2011-09-03T10:27:02Z</time>
      </trkpt>
      <trkpt lat="45.29542" lon="2.93784">
        <ele>1322.91</ele>
        <time>2011-09-03T10:27:42Z</time>
      </trkpt>
      <trkpt lat="45.29543" lon="2.93784">
        <ele>1324.35</ele>
        <time>2011-09-03T10:29:22Z</time>
      </trkpt>
      <trkpt lat="45.29533" lon="2.93789">
        <ele>1322.91</ele>
        <time>2011-09-03T10:29:31Z</time>
      </trkpt>
      <trkpt lat="45.29505" lon="2.93802">
        <ele>1322.91</ele>
        <time>2011-09-03T10:29:37Z</time>
      </trkpt>
      <trkpt lat="45.29483" lon="2.93812">
        <ele>1319.55</ele>
        <time>2011-09-03T10:29:40Z</time>
      </trkpt>
      <trkpt lat="45.29476" lon="2.93814">
        <ele>1316.66</ele>
        <time>2011-09-03T10:29:43Z</time>
      </trkpt>
      <trkpt lat="45.29476" lon="2.93814">
        <ele>1316.18</ele>
        <time>2011-09-03T10:29:44Z</time>
      </trkpt>
      <trkpt lat="45.29457" lon="2.93822">
        <ele>1316.66</ele>
        <time>2011-09-03T10:30:03Z</time>
      </trkpt>
      <trkpt lat="45.29387" lon="2.93854">
        <ele>1315.22</ele>
        <time>2011-09-03T10:30:09Z</time>
      </trkpt>
      <trkpt lat="45.29356" lon="2.93868">
        <ele>1311.38</ele>
        <time>2011-09-03T10:30:11Z</time>
      </trkpt>
      <trkpt lat="45.29327" lon="2.93881">
        <ele>1307.53</ele>
        <time>2011-09-03T10:30:13Z</time>
      </trkpt>
      <trkpt lat="45.29288" lon="2.93898">
        <ele>1303.2</ele>
        <time>2011-09-03T10:30:16Z</time>
      </trkpt>
      <trkpt lat="45.29263" lon="2.93907">
        <ele>1299.84</ele>
        <time>2011-09-03T10:30:18Z</time>
      </trkpt>
      <trkpt lat="45.29237" lon="2.93917">
        <ele>1297.92</ele>
        <time>2011-09-03T10:30:20Z</time>
      </trkpt>
      <trkpt lat="45.29196" lon="2.93928">
        <ele>1296.48</ele>
        <time>2011-09-03T10:30:23Z</time>
      </trkpt>
      <trkpt lat="45.29139" lon="2.93936">
        <ele>1294.07</ele>
        <time>2011-09-03T10:30:27Z</time>
      </trkpt>
      <trkpt lat="45.28987" lon="2.93945">
        <ele>1295.51</ele>
        <time>2011-09-03T10:30:38Z</time>
      </trkpt>
      <trkpt lat="45.28837" lon="2.93956">
        <ele>1293.59</ele>
        <time>2011-09-03T10:30:50Z</time>
      </trkpt>
      <trkpt lat="45.28782" lon="2.93968">
        <ele>1292.63</ele>
        <time>2011-09-03T10:30:54Z</time>
      </trkpt>
      <trkpt lat="45.28742" lon="2.93979">
        <ele>1289.75</ele>
        <time>2011-09-03T10:30:57Z</time>
      </trkpt>
      <trkpt lat="45.28714" lon="2.93984">
        <ele>1287.82</ele>
        <time>2011-09-03T10:30:59Z</time>
      </trkpt>
      <trkpt lat="45.28674" lon="2.93991">
        <ele>1286.86</ele>
        <time>2011-09-03T10:31:02Z</time>
      </trkpt>
      <trkpt lat="45.2856" lon="2.94015">
        <ele>1289.75</ele>
        <time>2011-09-03T10:31:11Z</time>
      </trkpt>
      <trkpt lat="45.28549" lon="2.94017">
        <ele>1290.23</ele>
        <time>2011-09-03T10:31:12Z</time>
      </trkpt>
      <trkpt lat="45.28529" lon="2.94021">
        <ele>1291.19</ele>
        <time>2011-09-03T10:31:14Z</time>
      </trkpt>
      <trkpt lat="45.28514" lon="2.94026">
        <ele>1289.27</ele>
        <time>2011-09-03T10:31:16Z</time>
      </trkpt>
      <trkpt lat="45.2849" lon="2.94035">
        <ele>1286.38</ele>
        <time>2011-09-03T10:31:21Z</time>
      </trkpt>
      <trkpt lat="45.28421" lon="2.94061">
        <ele>1285.42</ele>
        <time>2011-09-03T10:31:32Z</time>
      </trkpt>
      <trkpt lat="45.28398" lon="2.94072">
        <ele>1283.98</ele>
        <time>2011-09-03T10:31:35Z</time>
      </trkpt>
      <trkpt lat="45.28346" lon="2.94092">
        <ele>1282.06</ele>
        <time>2011-09-03T10:31:40Z</time>
      </trkpt>
      <trkpt lat="45.28261" lon="2.94127">
        <ele>1279.17</ele>
        <time>2011-09-03T10:31:46Z</time>
      </trkpt>
      <trkpt lat="45.28168" lon="2.94163">
        <ele>1276.77</ele>
        <time>2011-09-03T10:31:52Z</time>
      </trkpt>
      <trkpt lat="45.28079" lon="2.942">
        <ele>1278.21</ele>
        <time>2011-09-03T10:31:58Z</time>
      </trkpt>
      <trkpt lat="45.27973" lon="2.94239">
        <ele>1279.17</ele>
        <time>2011-09-03T10:32:06Z</time>
      </trkpt>
      <trkpt lat="45.27943" lon="2.9425">
        <ele>1279.17</ele>
        <time>2011-09-03T10:32:10Z</time>
      </trkpt>
      <trkpt lat="45.27922" lon="2.94241">
        <ele>1281.09</ele>
        <time>2011-09-03T10:32:16Z</time>
      </trkpt>
      <trkpt lat="45.27892" lon="2.94197">
        <ele>1281.09</ele>
        <time>2011-09-03T10:32:21Z</time>
      </trkpt>
      <trkpt lat="45.27836" lon="2.94129">
        <ele>1283.02</ele>
        <time>2011-09-03T10:32:26Z</time>
      </trkpt>
      <trkpt lat="45.278" lon="2.94085">
        <ele>1281.09</ele>
        <time>2011-09-03T10:32:29Z</time>
      </trkpt>
      <trkpt lat="45.27787" lon="2.9407">
        <ele>1280.13</ele>
        <time>2011-09-03T10:32:30Z</time>
      </trkpt>
      <trkpt lat="45.27727" lon="2.94029">
        <ele>1278.21</ele>
        <time>2011-09-03T10:32:34Z</time>
      </trkpt>
      <trkpt lat="45.2771" lon="2.94023">
        <ele>1276.77</ele>
        <time>2011-09-03T10:32:35Z</time>
      </trkpt>
      <trkpt lat="45.2765" lon="2.93967">
        <ele>1275.81</ele>
        <time>2011-09-03T10:32:39Z</time>
      </trkpt>
      <trkpt lat="45.2759" lon="2.93866">
        <ele>1269.56</ele>
        <time>2011-09-03T10:32:44Z</time>
      </trkpt>
      <trkpt lat="45.27555" lon="2.93811">
        <ele>1264.75</ele>
        <time>2011-09-03T10:32:47Z</time>
      </trkpt>
      <trkpt lat="45.27516" lon="2.9376">
        <ele>1263.31</ele>
        <time>2011-09-03T10:32:50Z</time>
      </trkpt>
      <trkpt lat="45.27484" lon="2.93692">
        <ele>1259.46</ele>
        <time>2011-09-03T10:32:53Z</time>
      </trkpt>
      <trkpt lat="45.27478" lon="2.93668">
        <ele>1259.46</ele>
        <time>2011-09-03T10:32:54Z</time>
      </trkpt>
      <trkpt lat="45.27464" lon="2.93622">
        <ele>1256.58</ele>
        <time>2011-09-03T10:32:56Z</time>
      </trkpt>
      <trkpt lat="45.27428" lon="2.93552">
        <ele>1250.81</ele>
        <time>2011-09-03T10:33:00Z</time>
      </trkpt>
      <trkpt lat="45.27397" lon="2.93519">
        <ele>1248.41</ele>
        <time>2011-09-03T10:33:03Z</time>
      </trkpt>
      <trkpt lat="45.27379" lon="2.93498">
        <ele>1246.49</ele>
        <time>2011-09-03T10:33:05Z</time>
      </trkpt>
      <trkpt lat="45.27355" lon="2.93431">
        <ele>1245.53</ele>
        <time>2011-09-03T10:33:09Z</time>
      </trkpt>
      <trkpt lat="45.27335" lon="2.93375">
        <ele>1243.6</ele>
        <time>2011-09-03T10:33:12Z</time>
      </trkpt>
      <trkpt lat="45.27315" lon="2.93338">
        <ele>1242.16</ele>
        <time>2011-09-03T10:33:14Z</time>
      </trkpt>
      <trkpt lat="45.27276" lon="2.9323">
        <ele>1238.32</ele>
        <time>2011-09-03T10:33:19Z</time>
      </trkpt>
      <trkpt lat="45.2727" lon="2.93208">
        <ele>1236.87</ele>
        <time>2011-09-03T10:33:20Z</time>
      </trkpt>
      <trkpt lat="45.27261" lon="2.93119">
        <ele>1231.59</ele>
        <time>2011-09-03T10:33:24Z</time>
      </trkpt>
      <trkpt lat="45.27261" lon="2.93096">
        <ele>1230.62</ele>
        <time>2011-09-03T10:33:25Z</time>
      </trkpt>
      <trkpt lat="45.27252" lon="2.93031">
        <ele>1228.7</ele>
        <time>2011-09-03T10:33:28Z</time>
      </trkpt>
      <trkpt lat="45.27243" lon="2.92993">
        <ele>1224.86</ele>
        <time>2011-09-03T10:33:30Z</time>
      </trkpt>
      <trkpt lat="45.27239" lon="2.92974">
        <ele>1223.42</ele>
        <time>2011-09-03T10:33:31Z</time>
      </trkpt>
      <trkpt lat="45.27236" lon="2.9291">
        <ele>1220.53</ele>
        <time>2011-09-03T10:33:34Z</time>
      </trkpt>
      <trkpt lat="45.2724" lon="2.92866">
        <ele>1216.21</ele>
        <time>2011-09-03T10:33:36Z</time>
      </trkpt>
      <trkpt lat="45.27245" lon="2.92824">
        <ele>1213.8</ele>
        <time>2011-09-03T10:33:38Z</time>
      </trkpt>
      <trkpt lat="45.27235" lon="2.92739">
        <ele>1208.03</ele>
        <time>2011-09-03T10:33:42Z</time>
      </trkpt>
      <trkpt lat="45.27211" lon="2.92687">
        <ele>1204.19</ele>
        <time>2011-09-03T10:33:45Z</time>
      </trkpt>
      <trkpt lat="45.272" lon="2.92673">
        <ele>1203.23</ele>
        <time>2011-09-03T10:33:46Z</time>
      </trkpt>
      <trkpt lat="45.27157" lon="2.92624">
        <ele>1196.98</ele>
        <time>2011-09-03T10:33:50Z</time>
      </trkpt>
      <trkpt lat="45.27126" lon="2.9259">
        <ele>1193.61</ele>
        <time>2011-09-03T10:33:53Z</time>
      </trkpt>
      <trkpt lat="45.27085" lon="2.92544">
        <ele>1187.85</ele>
        <time>2011-09-03T10:33:57Z</time>
      </trkpt>
      <trkpt lat="45.27045" lon="2.925">
        <ele>1183.04</ele>
        <time>2011-09-03T10:34:01Z</time>
      </trkpt>
      <trkpt lat="45.27035" lon="2.9249">
        <ele>1183.52</ele>
        <time>2011-09-03T10:34:02Z</time>
      </trkpt>
      <trkpt lat="45.27006" lon="2.92468">
        <ele>1178.71</ele>
        <time>2011-09-03T10:34:05Z</time>
      </trkpt>
      <trkpt lat="45.26975" lon="2.92455">
        <ele>1178.71</ele>
        <time>2011-09-03T10:34:09Z</time>
      </trkpt>
      <trkpt lat="45.26917" lon="2.92443">
        <ele>1177.75</ele>
        <time>2011-09-03T10:34:19Z</time>
      </trkpt>
      <trkpt lat="45.269" lon="2.92444">
        <ele>1177.27</ele>
        <time>2011-09-03T10:34:27Z</time>
      </trkpt>
      <trkpt lat="45.26899" lon="2.92444">
        <ele>1176.79</ele>
        <time>2011-09-03T10:35:03Z</time>
      </trkpt>
      <trkpt lat="45.26894" lon="2.92448">
        <ele>1176.31</ele>
        <time>2011-09-03T10:36:34Z</time>
      </trkpt>
      <trkpt lat="45.26866" lon="2.92462">
        <ele>1180.16</ele>
        <time>2011-09-03T10:36:38Z</time>
      </trkpt>
      <trkpt lat="45.26856" lon="2.92465">
        <ele>1180.64</ele>
        <time>2011-09-03T10:36:39Z</time>
      </trkpt>
      <trkpt lat="45.26758" lon="2.92458">
        <ele>1181.12</ele>
        <time>2011-09-03T10:36:48Z</time>
      </trkpt>
      <trkpt lat="45.26734" lon="2.92455">
        <ele>1180.16</ele>
        <time>2011-09-03T10:36:50Z</time>
      </trkpt>
      <trkpt lat="45.2671" lon="2.92457">
        <ele>1181.12</ele>
        <time>2011-09-03T10:36:52Z</time>
      </trkpt>
      <trkpt lat="45.26686" lon="2.92463">
        <ele>1180.16</ele>
        <time>2011-09-03T10:36:54Z</time>
      </trkpt>
      <trkpt lat="45.26633" lon="2.92458">
        <ele>1181.12</ele>
        <time>2011-09-03T10:36:58Z</time>
      </trkpt>
      <trkpt lat="45.26589" lon="2.92447">
        <ele>1184.48</ele>
        <time>2011-09-03T10:37:01Z</time>
      </trkpt>
      <trkpt lat="45.26524" lon="2.92433">
        <ele>1187.85</ele>
        <time>2011-09-03T10:37:05Z</time>
      </trkpt>
      <trkpt lat="45.26506" lon="2.9243">
        <ele>1187.85</ele>
        <time>2011-09-03T10:37:06Z</time>
      </trkpt>
      <trkpt lat="45.26432" lon="2.92416">
        <ele>1186.88</ele>
        <time>2011-09-03T10:37:10Z</time>
      </trkpt>
      <trkpt lat="45.26368" lon="2.92438">
        <ele>1185.92</ele>
        <time>2011-09-03T10:37:14Z</time>
      </trkpt>
      <trkpt lat="45.26339" lon="2.92469">
        <ele>1184.96</ele>
        <time>2011-09-03T10:37:16Z</time>
      </trkpt>
      <trkpt lat="45.26281" lon="2.92602">
        <ele>1183.52</ele>
        <time>2011-09-03T10:37:22Z</time>
      </trkpt>
      <trkpt lat="45.26272" lon="2.92657">
        <ele>1181.12</ele>
        <time>2011-09-03T10:37:24Z</time>
      </trkpt>
      <trkpt lat="45.26264" lon="2.9271">
        <ele>1179.19</ele>
        <time>2011-09-03T10:37:26Z</time>
      </trkpt>
      <trkpt lat="45.26251" lon="2.92757">
        <ele>1178.23</ele>
        <time>2011-09-03T10:37:28Z</time>
      </trkpt>
      <trkpt lat="45.26212" lon="2.92802">
        <ele>1176.31</ele>
        <time>2011-09-03T10:37:31Z</time>
      </trkpt>
      <trkpt lat="45.26182" lon="2.9281">
        <ele>1173.91</ele>
        <time>2011-09-03T10:37:33Z</time>
      </trkpt>
      <trkpt lat="45.26147" lon="2.92816">
        <ele>1176.31</ele>
        <time>2011-09-03T10:37:35Z</time>
      </trkpt>
      <trkpt lat="45.26037" lon="2.92885">
        <ele>1172.95</ele>
        <time>2011-09-03T10:37:41Z</time>
      </trkpt>
      <trkpt lat="45.26004" lon="2.92922">
        <ele>1170.06</ele>
        <time>2011-09-03T10:37:43Z</time>
      </trkpt>
      <trkpt lat="45.2599" lon="2.92942">
        <ele>1168.62</ele>
        <time>2011-09-03T10:37:44Z</time>
      </trkpt>
      <trkpt lat="45.25963" lon="2.92975">
        <ele>1162.37</ele>
        <time>2011-09-03T10:37:46Z</time>
      </trkpt>
      <trkpt lat="45.25917" lon="2.92982">
        <ele>1160.45</ele>
        <time>2011-09-03T10:37:49Z</time>
      </trkpt>
      <trkpt lat="45.25827" lon="2.92974">
        <ele>1159.49</ele>
        <time>2011-09-03T10:37:54Z</time>
      </trkpt>
      <trkpt lat="45.25754" lon="2.92957">
        <ele>1155.16</ele>
        <time>2011-09-03T10:37:58Z</time>
      </trkpt>
      <trkpt lat="45.25737" lon="2.92951">
        <ele>1153.24</ele>
        <time>2011-09-03T10:37:59Z</time>
      </trkpt>
      <trkpt lat="45.25674" lon="2.92965">
        <ele>1151.32</ele>
        <time>2011-09-03T10:38:03Z</time>
      </trkpt>
      <trkpt lat="45.25619" lon="2.93023">
        <ele>1146.99</ele>
        <time>2011-09-03T10:38:07Z</time>
      </trkpt>
      <trkpt lat="45.25499" lon="2.93102">
        <ele>1145.55</ele>
        <time>2011-09-03T10:38:14Z</time>
      </trkpt>
      <trkpt lat="45.25445" lon="2.93142">
        <ele>1140.74</ele>
        <time>2011-09-03T10:38:17Z</time>
      </trkpt>
      <trkpt lat="45.25428" lon="2.93155">
        <ele>1140.26</ele>
        <time>2011-09-03T10:38:18Z</time>
      </trkpt>
      <trkpt lat="45.25379" lon="2.93202">
        <ele>1135.94</ele>
        <time>2011-09-03T10:38:21Z</time>
      </trkpt>
      <trkpt lat="45.2535" lon="2.9324">
        <ele>1133.05</ele>
        <time>2011-09-03T10:38:23Z</time>
      </trkpt>
      <trkpt lat="45.25259" lon="2.933">
        <ele>1128.24</ele>
        <time>2011-09-03T10:38:28Z</time>
      </trkpt>
      <trkpt lat="45.25178" lon="2.93325">
        <ele>1123.92</ele>
        <time>2011-09-03T10:38:32Z</time>
      </trkpt>
      <trkpt lat="45.25158" lon="2.93332">
        <ele>1120.55</ele>
        <time>2011-09-03T10:38:33Z</time>
      </trkpt>
      <trkpt lat="45.25118" lon="2.93344">
        <ele>1117.19</ele>
        <time>2011-09-03T10:38:35Z</time>
      </trkpt>
      <trkpt lat="45.25061" lon="2.93363">
        <ele>1112.86</ele>
        <time>2011-09-03T10:38:38Z</time>
      </trkpt>
      <trkpt lat="45.2499" lon="2.9341">
        <ele>1107.1</ele>
        <time>2011-09-03T10:38:42Z</time>
      </trkpt>
      <trkpt lat="45.24972" lon="2.9342">
        <ele>1107.1</ele>
        <time>2011-09-03T10:38:43Z</time>
      </trkpt>
      <trkpt lat="45.24936" lon="2.93438">
        <ele>1102.29</ele>
        <time>2011-09-03T10:38:45Z</time>
      </trkpt>
      <trkpt lat="45.24881" lon="2.93462">
        <ele>1098.44</ele>
        <time>2011-09-03T10:38:48Z</time>
      </trkpt>
      <trkpt lat="45.24845" lon="2.93479">
        <ele>1094.12</ele>
        <time>2011-09-03T10:38:50Z</time>
      </trkpt>
      <trkpt lat="45.24788" lon="2.93506">
        <ele>1090.75</ele>
        <time>2011-09-03T10:38:53Z</time>
      </trkpt>
      <trkpt lat="45.24769" lon="2.93513">
        <ele>1090.27</ele>
        <time>2011-09-03T10:38:54Z</time>
      </trkpt>
      <trkpt lat="45.2471" lon="2.93512">
        <ele>1083.06</ele>
        <time>2011-09-03T10:38:57Z</time>
      </trkpt>
      <trkpt lat="45.24693" lon="2.9351">
        <ele>1079.7</ele>
        <time>2011-09-03T10:38:58Z</time>
      </trkpt>
      <trkpt lat="45.24644" lon="2.93503">
        <ele>1075.85</ele>
        <time>2011-09-03T10:39:01Z</time>
      </trkpt>
      <trkpt lat="45.24613" lon="2.93498">
        <ele>1072.01</ele>
        <time>2011-09-03T10:39:03Z</time>
      </trkpt>
      <trkpt lat="45.24551" lon="2.93488">
        <ele>1068.64</ele>
        <time>2011-09-03T10:39:07Z</time>
      </trkpt>
      <trkpt lat="45.24496" lon="2.93484">
        <ele>1066.24</ele>
        <time>2011-09-03T10:39:10Z</time>
      </trkpt>
      <trkpt lat="45.2442" lon="2.93509">
        <ele>1062.87</ele>
        <time>2011-09-03T10:39:14Z</time>
      </trkpt>
      <trkpt lat="45.24366" lon="2.9354">
        <ele>1057.11</ele>
        <time>2011-09-03T10:39:17Z</time>
      </trkpt>
      <trkpt lat="45.24332" lon="2.93553">
        <ele>1054.22</ele>
        <time>2011-09-03T10:39:19Z</time>
      </trkpt>
      <trkpt lat="45.24296" lon="2.93549">
        <ele>1053.26</ele>
        <time>2011-09-03T10:39:21Z</time>
      </trkpt>
      <trkpt lat="45.24259" lon="2.93534">
        <ele>1049.42</ele>
        <time>2011-09-03T10:39:23Z</time>
      </trkpt>
      <trkpt lat="45.24203" lon="2.93525">
        <ele>1045.09</ele>
        <time>2011-09-03T10:39:26Z</time>
      </trkpt>
      <trkpt lat="45.24184" lon="2.9353">
        <ele>1043.65</ele>
        <time>2011-09-03T10:39:27Z</time>
      </trkpt>
      <trkpt lat="45.24125" lon="2.93551">
        <ele>1039.8</ele>
        <time>2011-09-03T10:39:30Z</time>
      </trkpt>
      <trkpt lat="45.24087" lon="2.93565">
        <ele>1035.48</ele>
        <time>2011-09-03T10:39:32Z</time>
      </trkpt>
      <trkpt lat="45.2405" lon="2.93579">
        <ele>1031.15</ele>
        <time>2011-09-03T10:39:34Z</time>
      </trkpt>
      <trkpt lat="45.24015" lon="2.93591">
        <ele>1029.23</ele>
        <time>2011-09-03T10:39:36Z</time>
      </trkpt>
      <trkpt lat="45.23943" lon="2.93588">
        <ele>1022.98</ele>
        <time>2011-09-03T10:39:40Z</time>
      </trkpt>
      <trkpt lat="45.23925" lon="2.9358">
        <ele>1022.5</ele>
        <time>2011-09-03T10:39:41Z</time>
      </trkpt>
      <trkpt lat="45.2389" lon="2.93562">
        <ele>1017.69</ele>
        <time>2011-09-03T10:39:43Z</time>
      </trkpt>
      <trkpt lat="45.23856" lon="2.93544">
        <ele>1013.85</ele>
        <time>2011-09-03T10:39:45Z</time>
      </trkpt>
      <trkpt lat="45.23785" lon="2.93542">
        <ele>1010.48</ele>
        <time>2011-09-03T10:39:49Z</time>
      </trkpt>
      <trkpt lat="45.23733" lon="2.9356">
        <ele>1006.16</ele>
        <time>2011-09-03T10:39:52Z</time>
      </trkpt>
      <trkpt lat="45.23663" lon="2.93559">
        <ele>1001.35</ele>
        <time>2011-09-03T10:39:56Z</time>
      </trkpt>
      <trkpt lat="45.2362" lon="2.93545">
        <ele>997.51</ele>
        <time>2011-09-03T10:39:59Z</time>
      </trkpt>
      <trkpt lat="45.23602" lon="2.93538">
        <ele>994.14</ele>
        <time>2011-09-03T10:40:01Z</time>
      </trkpt>
      <trkpt lat="45.23592" lon="2.93532">
        <ele>991.74</ele>
        <time>2011-09-03T10:40:07Z</time>
      </trkpt>
      <trkpt lat="45.23592" lon="2.93532">
        <ele>991.74</ele>
        <time>2011-09-03T10:40:09Z</time>
      </trkpt>
      <trkpt lat="45.23577" lon="2.93537">
        <ele>994.14</ele>
        <time>2011-09-03T10:40:12Z</time>
      </trkpt>
      <trkpt lat="45.23558" lon="2.9355">
        <ele>996.06</ele>
        <time>2011-09-03T10:40:14Z</time>
      </trkpt>
      <trkpt lat="45.23533" lon="2.93563">
        <ele>997.99</ele>
        <time>2011-09-03T10:40:16Z</time>
      </trkpt>
      <trkpt lat="45.23486" lon="2.93564">
        <ele>999.91</ele>
        <time>2011-09-03T10:40:19Z</time>
      </trkpt>
      <trkpt lat="45.23438" lon="2.93538">
        <ele>997.99</ele>
        <time>2011-09-03T10:40:22Z</time>
      </trkpt>
      <trkpt lat="45.23398" lon="2.93507">
        <ele>998.47</ele>
        <time>2011-09-03T10:40:25Z</time>
      </trkpt>
      <trkpt lat="45.23271" lon="2.93469">
        <ele>997.02</ele>
        <time>2011-09-03T10:40:35Z</time>
      </trkpt>
      <trkpt lat="45.23202" lon="2.93455">
        <ele>996.54</ele>
        <time>2011-09-03T10:40:42Z</time>
      </trkpt>
      <trkpt lat="45.23175" lon="2.93438">
        <ele>994.14</ele>
        <time>2011-09-03T10:40:46Z</time>
      </trkpt>
      <trkpt lat="45.23162" lon="2.93427">
        <ele>991.74</ele>
        <time>2011-09-03T10:40:56Z</time>
      </trkpt>
      <trkpt lat="45.23162" lon="2.93427">
        <ele>991.26</ele>
        <time>2011-09-03T10:41:17Z</time>
      </trkpt>
      <trkpt lat="45.23133" lon="2.93426">
        <ele>990.78</ele>
        <time>2011-09-03T10:41:25Z</time>
      </trkpt>
      <trkpt lat="45.23077" lon="2.93428">
        <ele>990.3</ele>
        <time>2011-09-03T10:41:34Z</time>
      </trkpt>
      <trkpt lat="45.23022" lon="2.93434">
        <ele>987.41</ele>
        <time>2011-09-03T10:41:43Z</time>
      </trkpt>
      <trkpt lat="45.23018" lon="2.93434">
        <ele>987.41</ele>
        <time>2011-09-03T10:41:44Z</time>
      </trkpt>
      <trkpt lat="45.23012" lon="2.93435">
        <ele>987.41</ele>
        <time>2011-09-03T10:41:46Z</time>
      </trkpt>
      <trkpt lat="45.23008" lon="2.93436">
        <ele>987.41</ele>
        <time>2011-09-03T10:41:54Z</time>
      </trkpt>
      <trkpt lat="45.23016" lon="2.93465">
        <ele>986.45</ele>
        <time>2011-09-03T10:42:03Z</time>
      </trkpt>
      <trkpt lat="45.2302" lon="2.93469">
        <ele>986.93</ele>
        <time>2011-09-03T10:42:13Z</time>
      </trkpt>
      <trkpt lat="45.23065" lon="2.93461">
        <ele>991.26</ele>
        <time>2011-09-03T10:42:19Z</time>
      </trkpt>
      <trkpt lat="45.23165" lon="2.93451">
        <ele>991.74</ele>
        <time>2011-09-03T10:42:29Z</time>
      </trkpt>
      <trkpt lat="45.23174" lon="2.93433">
        <ele>992.22</ele>
        <time>2011-09-03T10:42:34Z</time>
      </trkpt>
      <trkpt lat="45.23164" lon="2.93427">
        <ele>985.49</ele>
        <time>2011-09-03T10:42:46Z</time>
      </trkpt>
      <trkpt lat="45.23164" lon="2.93427">
        <ele>990.3</ele>
        <time>2011-09-03T10:42:47Z</time>
      </trkpt>
      <trkpt lat="45.23164" lon="2.93427">
        <ele>989.81</ele>
        <time>2011-09-03T10:43:41Z</time>
      </trkpt>
      <trkpt lat="45.23161" lon="2.93426">
        <ele>990.78</ele>
        <time>2011-09-03T10:44:01Z</time>
      </trkpt>
      <trkpt lat="45.23147" lon="2.93426">
        <ele>991.74</ele>
        <time>2011-09-03T10:44:24Z</time>
      </trkpt>
      <trkpt lat="45.23109" lon="2.93426">
        <ele>989.81</ele>
        <time>2011-09-03T10:44:30Z</time>
      </trkpt>
      <trkpt lat="45.23031" lon="2.93433">
        <ele>988.37</ele>
        <time>2011-09-03T10:44:40Z</time>
      </trkpt>
      <trkpt lat="45.23019" lon="2.93433">
        <ele>987.41</ele>
        <time>2011-09-03T10:44:42Z</time>
      </trkpt>
      <trkpt lat="45.2301" lon="2.93428">
        <ele>986.93</ele>
        <time>2011-09-03T10:44:44Z</time>
      </trkpt>
      <trkpt lat="45.23" lon="2.9342">
        <ele>985.97</ele>
        <time>2011-09-03T10:44:48Z</time>
      </trkpt>
      <trkpt lat="45.22997" lon="2.93421">
        <ele>985.49</ele>
        <time>2011-09-03T10:45:11Z</time>
      </trkpt>
      <trkpt lat="45.22999" lon="2.93421">
        <ele>985.01</ele>
        <time>2011-09-03T10:45:59Z</time>
      </trkpt>
      <trkpt lat="45.22999" lon="2.93421">
        <ele>984.53</ele>
        <time>2011-09-03T10:46:12Z</time>
      </trkpt>
      <trkpt lat="45.22999" lon="2.93421">
        <ele>986.45</ele>
        <time>2011-09-03T10:46:54Z</time>
      </trkpt>
      <trkpt lat="45.22998" lon="2.93422">
        <ele>984.05</ele>
        <time>2011-09-03T10:49:01Z</time>
      </trkpt>
      <trkpt lat="45.22998" lon="2.93422">
        <ele>984.53</ele>
        <time>2011-09-03T10:50:00Z</time>
      </trkpt>
      <trkpt lat="45.22998" lon="2.93422">
        <ele>984.05</ele>
        <time>2011-09-03T10:50:15Z</time>
      </trkpt>
      <trkpt lat="45.22998" lon="2.93422">
        <ele>985.49</ele>
        <time>2011-09-03T10:50:17Z</time>
      </trkpt>
      <trkpt lat="45.22997" lon="2.93422">
        <ele>985.49</ele>
        <time>2011-09-03T10:50:49Z</time>
      </trkpt>
      <trkpt lat="45.22997" lon="2.93421">
        <ele>985.01</ele>
        <time>2011-09-03T10:53:47Z</time>
      </trkpt>
      <trkpt lat="45.22997" lon="2.9342">
        <ele>984.05</ele>
        <time>2011-09-03T10:54:37Z</time>
      </trkpt>
      <trkpt lat="45.22997" lon="2.9342">
        <ele>985.97</ele>
        <time>2011-09-03T10:55:05Z</time>
      </trkpt>
      <trkpt lat="45.22998" lon="2.9342">
        <ele>984.05</ele>
        <time>2011-09-03T10:56:30Z</time>
      </trkpt>
      <trkpt lat="45.22998" lon="2.9342">
        <ele>985.01</ele>
        <time>2011-09-03T10:56:35Z</time>
      </trkpt>
      <trkpt lat="45.22999" lon="2.9342">
        <ele>983.09</ele>
        <time>2011-09-03T10:58:17Z</time>
      </trkpt>
      <trkpt lat="45.22999" lon="2.9342">
        <ele>982.6</ele>
        <time>2011-09-03T10:59:12Z</time>
      </trkpt>
      <trkpt lat="45.22999" lon="2.93421">
        <ele>984.05</ele>
        <time>2011-09-03T10:59:47Z</time>
      </trkpt>
      <trkpt lat="45.22999" lon="2.93421">
        <ele>984.53</ele>
        <time>2011-09-03T11:00:01Z</time>
      </trkpt>
      <trkpt lat="45.22999" lon="2.9342">
        <ele>983.57</ele>
        <time>2011-09-03T11:00:22Z</time>
      </trkpt>
      <trkpt lat="45.22999" lon="2.93421">
        <ele>983.57</ele>
        <time>2011-09-03T11:01:14Z</time>
      </trkpt>
      <trkpt lat="45.22999" lon="2.93421">
        <ele>982.6</ele>
        <time>2011-09-03T11:01:30Z</time>
      </trkpt>
      <trkpt lat="45.22999" lon="2.93421">
        <ele>983.09</ele>
        <time>2011-09-03T11:01:32Z</time>
      </trkpt>
      <trkpt lat="45.22999" lon="2.93421">
        <ele>982.12</ele>
        <time>2011-09-03T11:01:55Z</time>
      </trkpt>
      <trkpt lat="45.22999" lon="2.93421">
        <ele>981.16</ele>
        <time>2011-09-03T11:02:49Z</time>
      </trkpt>
      <trkpt lat="45.22999" lon="2.93421">
        <ele>982.6</ele>
        <time>2011-09-03T11:02:56Z</time>
      </trkpt>
      <trkpt lat="45.22999" lon="2.93421">
        <ele>982.12</ele>
        <time>2011-09-03T11:02:58Z</time>
      </trkpt>
      <trkpt lat="45.22999" lon="2.93421">
        <ele>981.16</ele>
        <time>2011-09-03T11:03:07Z</time>
      </trkpt>
      <trkpt lat="45.22999" lon="2.93421">
        <ele>982.6</ele>
        <time>2011-09-03T11:04:32Z</time>
      </trkpt>
      <trkpt lat="45.22999" lon="2.93421">
        <ele>981.64</ele>
        <time>2011-09-03T11:05:29Z</time>
      </trkpt>
      <trkpt lat="45.22999" lon="2.93421">
        <ele>983.09</ele>
        <time>2011-09-03T11:06:41Z</time>
      </trkpt>
      <trkpt lat="45.22999" lon="2.93421">
        <ele>983.09</ele>
        <time>2011-09-03T11:06:58Z</time>
      </trkpt>
      <trkpt lat="45.22999" lon="2.93421">
        <ele>981.64</ele>
        <time>2011-09-03T11:07:07Z</time>
      </trkpt>
      <trkpt lat="45.23" lon="2.93421">
        <ele>981.16</ele>
        <time>2011-09-03T11:09:09Z</time>
      </trkpt>
      <trkpt lat="45.23" lon="2.93421">
        <ele>981.64</ele>
        <time>2011-09-03T11:09:13Z</time>
      </trkpt>
      <trkpt lat="45.23" lon="2.9342">
        <ele>980.68</ele>
        <time>2011-09-03T11:09:29Z</time>
      </trkpt>
      <trkpt lat="45.23" lon="2.9342">
        <ele>980.68</ele>
        <time>2011-09-03T11:10:50Z</time>
      </trkpt>
      <trkpt lat="45.22999" lon="2.93422">
        <ele>982.12</ele>
        <time>2011-09-03T11:12:07Z</time>
      </trkpt>
      <trkpt lat="45.22999" lon="2.93422">
        <ele>981.16</ele>
        <time>2011-09-03T11:12:24Z</time>
      </trkpt>
      <trkpt lat="45.22998" lon="2.93423">
        <ele>981.64</ele>
        <time>2011-09-03T11:12:48Z</time>
      </trkpt>
      <trkpt lat="45.22997" lon="2.93425">
        <ele>981.16</ele>
        <time>2011-09-03T11:14:09Z</time>
      </trkpt>
      <trkpt lat="45.22997" lon="2.93425">
        <ele>981.16</ele>
        <time>2011-09-03T11:14:20Z</time>
      </trkpt>
      <trkpt lat="45.22997" lon="2.93424">
        <ele>981.64</ele>
        <time>2011-09-03T11:16:02Z</time>
      </trkpt>
      <trkpt lat="45.22997" lon="2.93424">
        <ele>980.2</ele>
        <time>2011-09-03T11:16:18Z</time>
      </trkpt>
      <trkpt lat="45.22997" lon="2.93424">
        <ele>981.16</ele>
        <time>2011-09-03T11:16:45Z</time>
      </trkpt>
      <trkpt lat="45.22998" lon="2.93424">
        <ele>979.24</ele>
        <time>2011-09-03T11:17:51Z</time>
      </trkpt>
      <trkpt lat="45.22998" lon="2.93424">
        <ele>980.68</ele>
        <time>2011-09-03T11:17:54Z</time>
      </trkpt>
      <trkpt lat="45.22997" lon="2.93426">
        <ele>980.2</ele>
        <time>2011-09-03T11:18:21Z</time>
      </trkpt>
      <trkpt lat="45.22997" lon="2.93426">
        <ele>981.64</ele>
        <time>2011-09-03T11:18:24Z</time>
      </trkpt>
      <trkpt lat="45.22997" lon="2.93426">
        <ele>980.2</ele>
        <time>2011-09-03T11:18:39Z</time>
      </trkpt>
      <trkpt lat="45.22997" lon="2.93426">
        <ele>980.68</ele>
        <time>2011-09-03T11:19:15Z</time>
      </trkpt>
      <trkpt lat="45.22997" lon="2.93426">
        <ele>981.16</ele>
        <time>2011-09-03T11:20:05Z</time>
      </trkpt>
      <trkpt lat="45.22997" lon="2.93426">
        <ele>983.09</ele>
        <time>2011-09-03T11:20:15Z</time>
      </trkpt>
      <trkpt lat="45.22997" lon="2.93426">
        <ele>979.72</ele>
        <time>2011-09-03T11:20:18Z</time>
      </trkpt>
      <trkpt lat="45.22997" lon="2.93426">
        <ele>980.2</ele>
        <time>2011-09-03T11:20:19Z</time>
      </trkpt>
      <trkpt lat="45.22997" lon="2.93426">
        <ele>980.68</ele>
        <time>2011-09-03T11:20:34Z</time>
      </trkpt>
      <trkpt lat="45.22998" lon="2.93426">
        <ele>981.64</ele>
        <time>2011-09-03T11:20:55Z</time>
      </trkpt>
      <trkpt lat="45.22998" lon="2.93426">
        <ele>981.64</ele>
        <time>2011-09-03T11:21:08Z</time>
      </trkpt>
      <trkpt lat="45.22998" lon="2.93426">
        <ele>981.16</ele>
        <time>2011-09-03T11:21:16Z</time>
      </trkpt>
      <trkpt lat="45.22998" lon="2.93425">
        <ele>981.16</ele>
        <time>2011-09-03T11:21:52Z</time>
      </trkpt>
      <trkpt lat="45.22996" lon="2.93424">
        <ele>981.16</ele>
        <time>2011-09-03T11:21:58Z</time>
      </trkpt>
      <trkpt lat="45.22999" lon="2.93425">
        <ele>981.64</ele>
        <time>2011-09-03T11:22:32Z</time>
      </trkpt>
      <trkpt lat="45.22999" lon="2.93425">
        <ele>980.68</ele>
        <time>2011-09-03T11:22:34Z</time>
      </trkpt>
      <trkpt lat="45.22999" lon="2.93425">
        <ele>980.2</ele>
        <time>2011-09-03T11:23:07Z</time>
      </trkpt>
      <trkpt lat="45.22999" lon="2.93425">
        <ele>982.6</ele>
        <time>2011-09-03T11:23:20Z</time>
      </trkpt>
      <trkpt lat="45.22999" lon="2.93425">
        <ele>981.16</ele>
        <time>2011-09-03T11:23:22Z</time>
      </trkpt>
      <trkpt lat="45.22999" lon="2.93425">
        <ele>979.72</ele>
        <time>2011-09-03T11:24:06Z</time>
      </trkpt>
      <trkpt lat="45.22999" lon="2.93426">
        <ele>981.16</ele>
        <time>2011-09-03T11:24:43Z</time>
      </trkpt>
      <trkpt lat="45.23" lon="2.93425">
        <ele>979.72</ele>
        <time>2011-09-03T11:24:53Z</time>
      </trkpt>
      <trkpt lat="45.23" lon="2.93425">
        <ele>979.72</ele>
        <time>2011-09-03T11:25:00Z</time>
      </trkpt>
      <trkpt lat="45.23" lon="2.93425">
        <ele>981.64</ele>
        <time>2011-09-03T11:25:03Z</time>
      </trkpt>
      <trkpt lat="45.23" lon="2.93425">
        <ele>980.68</ele>
        <time>2011-09-03T11:25:11Z</time>
      </trkpt>
      <trkpt lat="45.23001" lon="2.93425">
        <ele>979.72</ele>
        <time>2011-09-03T11:26:33Z</time>
      </trkpt>
      <trkpt lat="45.23001" lon="2.93425">
        <ele>979.24</ele>
        <time>2011-09-03T11:26:56Z</time>
      </trkpt>
      <trkpt lat="45.23001" lon="2.93425">
        <ele>978.76</ele>
        <time>2011-09-03T11:27:03Z</time>
      </trkpt>
      <trkpt lat="45.23001" lon="2.93425">
        <ele>981.64</ele>
        <time>2011-09-03T11:27:06Z</time>
      </trkpt>
      <trkpt lat="45.23001" lon="2.93425">
        <ele>980.68</ele>
        <time>2011-09-03T11:27:08Z</time>
      </trkpt>
      <trkpt lat="45.23001" lon="2.93425">
        <ele>979.72</ele>
        <time>2011-09-03T11:27:20Z</time>
      </trkpt>
      <trkpt lat="45.23001" lon="2.93424">
        <ele>982.12</ele>
        <time>2011-09-03T11:27:52Z</time>
      </trkpt>
      <trkpt lat="45.23001" lon="2.93424">
        <ele>980.68</ele>
        <time>2011-09-03T11:28:30Z</time>
      </trkpt>
      <trkpt lat="45.23001" lon="2.93424">
        <ele>981.64</ele>
        <time>2011-09-03T11:28:38Z</time>
      </trkpt>
      <trkpt lat="45.23001" lon="2.93424">
        <ele>982.12</ele>
        <time>2011-09-03T11:28:45Z</time>
      </trkpt>
      <trkpt lat="45.23001" lon="2.93424">
        <ele>980.68</ele>
        <time>2011-09-03T11:28:47Z</time>
      </trkpt>
      <trkpt lat="45.23003" lon="2.93424">
        <ele>981.16</ele>
        <time>2011-09-03T11:29:42Z</time>
      </trkpt>
      <trkpt lat="45.23003" lon="2.93424">
        <ele>982.12</ele>
        <time>2011-09-03T11:30:25Z</time>
      </trkpt>
      <trkpt lat="45.23003" lon="2.93424">
        <ele>982.12</ele>
        <time>2011-09-03T11:30:33Z</time>
      </trkpt>
      <trkpt lat="45.23003" lon="2.93423">
        <ele>982.6</ele>
        <time>2011-09-03T11:31:16Z</time>
      </trkpt>
      <trkpt lat="45.23003" lon="2.93423">
        <ele>978.76</ele>
        <time>2011-09-03T11:31:17Z</time>
      </trkpt>
      <trkpt lat="45.23003" lon="2.93423">
        <ele>978.76</ele>
        <time>2011-09-03T11:31:18Z</time>
      </trkpt>
      <trkpt lat="45.23003" lon="2.93423">
        <ele>981.64</ele>
        <time>2011-09-03T11:31:37Z</time>
      </trkpt>
      <trkpt lat="45.23003" lon="2.93423">
        <ele>980.2</ele>
        <time>2011-09-03T11:32:00Z</time>
      </trkpt>
      <trkpt lat="45.23003" lon="2.93423">
        <ele>982.12</ele>
        <time>2011-09-03T11:32:13Z</time>
      </trkpt>
      <trkpt lat="45.23003" lon="2.93423">
        <ele>980.68</ele>
        <time>2011-09-03T11:32:34Z</time>
      </trkpt>
      <trkpt lat="45.23021" lon="2.93424">
        <ele>980.2</ele>
        <time>2011-09-03T11:33:53Z</time>
      </trkpt>
      <trkpt lat="45.23021" lon="2.93424">
        <ele>981.64</ele>
        <time>2011-09-03T11:34:25Z</time>
      </trkpt>
      <trkpt lat="45.23021" lon="2.93424">
        <ele>980.68</ele>
        <time>2011-09-03T11:34:27Z</time>
      </trkpt>
      <trkpt lat="45.23021" lon="2.93423">
        <ele>984.05</ele>
        <time>2011-09-03T11:36:08Z</time>
      </trkpt>
      <trkpt lat="45.23021" lon="2.93423">
        <ele>981.64</ele>
        <time>2011-09-03T11:36:11Z</time>
      </trkpt>
      <trkpt lat="45.23021" lon="2.93423">
        <ele>982.6</ele>
        <time>2011-09-03T11:36:16Z</time>
      </trkpt>
      <trkpt lat="45.23013" lon="2.93418">
        <ele>982.6</ele>
        <time>2011-09-03T11:37:00Z</time>
      </trkpt>
      <trkpt lat="45.2301" lon="2.93418">
        <ele>982.6</ele>
        <time>2011-09-03T11:37:10Z</time>
      </trkpt>
      <trkpt lat="45.2301" lon="2.93418">
        <ele>982.6</ele>
        <time>2011-09-03T11:37:15Z</time>
      </trkpt>
      <trkpt lat="45.2301" lon="2.93418">
        <ele>981.16</ele>
        <time>2011-09-03T11:37:16Z</time>
      </trkpt>
      <trkpt lat="45.2301" lon="2.93418">
        <ele>982.6</ele>
        <time>2011-09-03T11:37:17Z</time>
      </trkpt>
      <trkpt lat="45.2301" lon="2.93418">
        <ele>981.16</ele>
        <time>2011-09-03T11:37:22Z</time>
      </trkpt>
      <trkpt lat="45.2301" lon="2.93418">
        <ele>983.09</ele>
        <time>2011-09-03T11:37:24Z</time>
      </trkpt>
      <trkpt lat="45.2301" lon="2.93418">
        <ele>979.72</ele>
        <time>2011-09-03T11:38:54Z</time>
      </trkpt>
      <trkpt lat="45.2301" lon="2.93418">
        <ele>983.09</ele>
        <time>2011-09-03T11:39:01Z</time>
      </trkpt>
      <trkpt lat="45.23009" lon="2.93419">
        <ele>981.16</ele>
        <time>2011-09-03T11:39:40Z</time>
      </trkpt>
      <trkpt lat="45.23009" lon="2.93419">
        <ele>984.05</ele>
        <time>2011-09-03T11:39:45Z</time>
      </trkpt>
      <trkpt lat="45.23009" lon="2.93419">
        <ele>983.09</ele>
        <time>2011-09-03T11:39:46Z</time>
      </trkpt>
      <trkpt lat="45.23008" lon="2.93419">
        <ele>981.64</ele>
        <time>2011-09-03T11:39:48Z</time>
      </trkpt>
      <trkpt lat="45.23007" lon="2.93419">
        <ele>981.16</ele>
        <time>2011-09-03T11:40:18Z</time>
      </trkpt>
      <trkpt lat="45.23007" lon="2.93419">
        <ele>982.6</ele>
        <time>2011-09-03T11:40:25Z</time>
      </trkpt>
      <trkpt lat="45.23005" lon="2.93408">
        <ele>981.16</ele>
        <time>2011-09-03T11:40:45Z</time>
      </trkpt>
      <trkpt lat="45.23002" lon="2.93406">
        <ele>983.09</ele>
        <time>2011-09-03T11:40:59Z</time>
      </trkpt>
      <trkpt lat="45.23002" lon="2.93412">
        <ele>982.6</ele>
        <time>2011-09-03T11:41:15Z</time>
      </trkpt>
      <trkpt lat="45.23002" lon="2.93412">
        <ele>981.16</ele>
        <time>2011-09-03T11:41:40Z</time>
      </trkpt>
      <trkpt lat="45.23002" lon="2.93412">
        <ele>983.09</ele>
        <time>2011-09-03T11:42:06Z</time>
      </trkpt>
      <trkpt lat="45.23002" lon="2.93412">
        <ele>982.12</ele>
        <time>2011-09-03T11:42:16Z</time>
      </trkpt>
      <trkpt lat="45.23002" lon="2.93412">
        <ele>983.09</ele>
        <time>2011-09-03T11:43:18Z</time>
      </trkpt>
      <trkpt lat="45.23002" lon="2.93411">
        <ele>980.68</ele>
        <time>2011-09-03T11:44:01Z</time>
      </trkpt>
      <trkpt lat="45.23003" lon="2.93411">
        <ele>981.64</ele>
        <time>2011-09-03T11:44:39Z</time>
      </trkpt>
      <trkpt lat="45.23002" lon="2.93411">
        <ele>981.16</ele>
        <time>2011-09-03T11:45:28Z</time>
      </trkpt>
      <trkpt lat="45.23002" lon="2.93411">
        <ele>983.09</ele>
        <time>2011-09-03T11:45:34Z</time>
      </trkpt>
      <trkpt lat="45.23002" lon="2.93411">
        <ele>982.12</ele>
        <time>2011-09-03T11:45:48Z</time>
      </trkpt>
      <trkpt lat="45.23006" lon="2.93413">
        <ele>980.68</ele>
        <time>2011-09-03T11:47:42Z</time>
      </trkpt>
      <trkpt lat="45.23006" lon="2.93413">
        <ele>982.12</ele>
        <time>2011-09-03T11:48:10Z</time>
      </trkpt>
      <trkpt lat="45.23006" lon="2.93414">
        <ele>981.16</ele>
        <time>2011-09-03T11:49:12Z</time>
      </trkpt>
      <trkpt lat="45.23006" lon="2.93414">
        <ele>982.6</ele>
        <time>2011-09-03T11:49:45Z</time>
      </trkpt>
      <trkpt lat="45.23006" lon="2.93414">
        <ele>981.64</ele>
        <time>2011-09-03T11:50:06Z</time>
      </trkpt>
      <trkpt lat="45.23006" lon="2.93414">
        <ele>983.09</ele>
        <time>2011-09-03T11:50:16Z</time>
      </trkpt>
      <trkpt lat="45.23006" lon="2.93414">
        <ele>981.16</ele>
        <time>2011-09-03T11:50:21Z</time>
      </trkpt>
      <trkpt lat="45.23006" lon="2.93414">
        <ele>983.09</ele>
        <time>2011-09-03T11:50:29Z</time>
      </trkpt>
      <trkpt lat="45.23006" lon="2.93414">
        <ele>982.6</ele>
        <time>2011-09-03T11:50:47Z</time>
      </trkpt>
      <trkpt lat="45.23006" lon="2.93414">
        <ele>980.68</ele>
        <time>2011-09-03T11:50:58Z</time>
      </trkpt>
      <trkpt lat="45.23006" lon="2.93414">
        <ele>983.57</ele>
        <time>2011-09-03T11:51:33Z</time>
      </trkpt>
      <trkpt lat="45.23007" lon="2.93414">
        <ele>980.68</ele>
        <time>2011-09-03T11:51:57Z</time>
      </trkpt>
      <trkpt lat="45.23007" lon="2.93414">
        <ele>983.57</ele>
        <time>2011-09-03T11:52:04Z</time>
      </trkpt>
      <trkpt lat="45.23007" lon="2.93414">
        <ele>983.57</ele>
        <time>2011-09-03T11:52:05Z</time>
      </trkpt>
      <trkpt lat="45.23007" lon="2.93414">
        <ele>982.12</ele>
        <time>2011-09-03T11:52:14Z</time>
      </trkpt>
      <trkpt lat="45.23006" lon="2.93414">
        <ele>983.57</ele>
        <time>2011-09-03T11:54:26Z</time>
      </trkpt>
      <trkpt lat="45.23006" lon="2.93414">
        <ele>983.09</ele>
        <time>2011-09-03T11:55:19Z</time>
      </trkpt>
      <trkpt lat="45.23006" lon="2.93414">
        <ele>982.6</ele>
        <time>2011-09-03T11:55:47Z</time>
      </trkpt>
      <trkpt lat="45.23006" lon="2.93414">
        <ele>982.12</ele>
        <time>2011-09-03T11:55:53Z</time>
      </trkpt>
      <trkpt lat="45.23006" lon="2.93414">
        <ele>984.53</ele>
        <time>2011-09-03T11:56:34Z</time>
      </trkpt>
      <trkpt lat="45.23006" lon="2.93414">
        <ele>983.09</ele>
        <time>2011-09-03T11:56:44Z</time>
      </trkpt>
      <trkpt lat="45.23006" lon="2.93414">
        <ele>984.05</ele>
        <time>2011-09-03T11:56:50Z</time>
      </trkpt>
      <trkpt lat="45.23006" lon="2.93414">
        <ele>983.09</ele>
        <time>2011-09-03T11:56:52Z</time>
      </trkpt>
      <trkpt lat="45.23006" lon="2.93414">
        <ele>982.6</ele>
        <time>2011-09-03T11:57:01Z</time>
      </trkpt>
      <trkpt lat="45.23006" lon="2.93414">
        <ele>983.57</ele>
        <time>2011-09-03T11:58:07Z</time>
      </trkpt>
      <trkpt lat="45.23006" lon="2.93414">
        <ele>986.93</ele>
        <time>2011-09-03T12:00:05Z</time>
      </trkpt>
      <trkpt lat="45.23006" lon="2.93414">
        <ele>985.01</ele>
        <time>2011-09-03T12:00:08Z</time>
      </trkpt>
      <trkpt lat="45.23006" lon="2.93414">
        <ele>984.05</ele>
        <time>2011-09-03T12:02:10Z</time>
      </trkpt>
      <trkpt lat="45.23006" lon="2.93414">
        <ele>986.45</ele>
        <time>2011-09-03T12:02:15Z</time>
      </trkpt>
      <trkpt lat="45.23006" lon="2.93414">
        <ele>986.45</ele>
        <time>2011-09-03T12:02:23Z</time>
      </trkpt>
      <trkpt lat="45.23006" lon="2.93413">
        <ele>984.05</ele>
        <time>2011-09-03T12:05:23Z</time>
      </trkpt>
      <trkpt lat="45.23006" lon="2.93413">
        <ele>987.41</ele>
        <time>2011-09-03T12:07:01Z</time>
      </trkpt>
      <trkpt lat="45.23006" lon="2.93414">
        <ele>987.41</ele>
        <time>2011-09-03T12:08:30Z</time>
      </trkpt>
      <trkpt lat="45.23005" lon="2.93413">
        <ele>985.01</ele>
        <time>2011-09-03T12:08:58Z</time>
      </trkpt>
      <trkpt lat="45.23005" lon="2.93413">
        <ele>986.45</ele>
        <time>2011-09-03T12:09:00Z</time>
      </trkpt>
      <trkpt lat="45.23005" lon="2.93413">
        <ele>986.45</ele>
        <time>2011-09-03T12:09:21Z</time>
      </trkpt>
      <trkpt lat="45.23006" lon="2.93413">
        <ele>986.45</ele>
        <time>2011-09-03T12:10:37Z</time>
      </trkpt>
      <trkpt lat="45.23006" lon="2.93413">
        <ele>988.85</ele>
        <time>2011-09-03T12:12:32Z</time>
      </trkpt>
      <trkpt lat="45.23006" lon="2.93413">
        <ele>986.93</ele>
        <time>2011-09-03T12:13:00Z</time>
      </trkpt>
      <trkpt lat="45.23006" lon="2.93413">
        <ele>988.37</ele>
        <time>2011-09-03T12:13:49Z</time>
      </trkpt>
      <trkpt lat="45.23006" lon="2.93413">
        <ele>986.93</ele>
        <time>2011-09-03T12:14:03Z</time>
      </trkpt>
      <trkpt lat="45.23006" lon="2.93413">
        <ele>987.89</ele>
        <time>2011-09-03T12:14:05Z</time>
      </trkpt>
      <trkpt lat="45.23006" lon="2.93413">
        <ele>988.37</ele>
        <time>2011-09-03T12:14:26Z</time>
      </trkpt>
      <trkpt lat="45.23006" lon="2.93413">
        <ele>987.41</ele>
        <time>2011-09-03T12:14:28Z</time>
      </trkpt>
      <trkpt lat="45.23006" lon="2.93413">
        <ele>986.45</ele>
        <time>2011-09-03T12:14:35Z</time>
      </trkpt>
      <trkpt lat="45.23006" lon="2.93412">
        <ele>987.89</ele>
        <time>2011-09-03T12:16:01Z</time>
      </trkpt>
      <trkpt lat="45.23005" lon="2.93412">
        <ele>988.85</ele>
        <time>2011-09-03T12:16:08Z</time>
      </trkpt>
      <trkpt lat="45.23006" lon="2.93412">
        <ele>985.49</ele>
        <time>2011-09-03T12:17:15Z</time>
      </trkpt>
      <trkpt lat="45.23006" lon="2.93412">
        <ele>987.89</ele>
        <time>2011-09-03T12:17:19Z</time>
      </trkpt>
      <trkpt lat="45.23006" lon="2.93412">
        <ele>986.93</ele>
        <time>2011-09-03T12:18:02Z</time>
      </trkpt>
      <trkpt lat="45.23006" lon="2.93412">
        <ele>986.45</ele>
        <time>2011-09-03T12:18:07Z</time>
      </trkpt>
      <trkpt lat="45.23006" lon="2.93412">
        <ele>986.93</ele>
        <time>2011-09-03T12:18:36Z</time>
      </trkpt>
      <trkpt lat="45.23006" lon="2.93413">
        <ele>987.89</ele>
        <time>2011-09-03T12:19:36Z</time>
      </trkpt>
      <trkpt lat="45.23006" lon="2.93412">
        <ele>987.41</ele>
        <time>2011-09-03T12:20:18Z</time>
      </trkpt>
      <trkpt lat="45.23006" lon="2.93412">
        <ele>985.97</ele>
        <time>2011-09-03T12:21:09Z</time>
      </trkpt>
      <trkpt lat="45.23006" lon="2.93412">
        <ele>986.93</ele>
        <time>2011-09-03T12:21:29Z</time>
      </trkpt>
      <trkpt lat="45.23014" lon="2.93433">
        <ele>986.93</ele>
        <time>2011-09-03T12:21:37Z</time>
      </trkpt>
      <trkpt lat="45.23019" lon="2.93453">
        <ele>988.37</ele>
        <time>2011-09-03T12:21:40Z</time>
      </trkpt>
      <trkpt lat="45.23023" lon="2.93467">
        <ele>988.37</ele>
        <time>2011-09-03T12:21:47Z</time>
      </trkpt>
      <trkpt lat="45.23024" lon="2.93468">
        <ele>987.89</ele>
        <time>2011-09-03T12:21:52Z</time>
      </trkpt>
      <trkpt lat="45.2308" lon="2.93462">
        <ele>990.3</ele>
        <time>2011-09-03T12:22:00Z</time>
      </trkpt>
      <trkpt lat="45.231" lon="2.93459">
        <ele>991.26</ele>
        <time>2011-09-03T12:22:02Z</time>
      </trkpt>
      <trkpt lat="45.23164" lon="2.93455">
        <ele>993.66</ele>
        <time>2011-09-03T12:22:09Z</time>
      </trkpt>
      <trkpt lat="45.23272" lon="2.93474">
        <ele>997.02</ele>
        <time>2011-09-03T12:22:18Z</time>
      </trkpt>
      <trkpt lat="45.23345" lon="2.93492">
        <ele>993.66</ele>
        <time>2011-09-03T12:22:24Z</time>
      </trkpt>
      <trkpt lat="45.23397" lon="2.9351">
        <ele>995.1</ele>
        <time>2011-09-03T12:22:28Z</time>
      </trkpt>
      <trkpt lat="45.23462" lon="2.93558">
        <ele>993.66</ele>
        <time>2011-09-03T12:22:33Z</time>
      </trkpt>
      <trkpt lat="45.23507" lon="2.93572">
        <ele>996.06</ele>
        <time>2011-09-03T12:22:36Z</time>
      </trkpt>
      <trkpt lat="45.2356" lon="2.93559">
        <ele>993.66</ele>
        <time>2011-09-03T12:22:40Z</time>
      </trkpt>
      <trkpt lat="45.23615" lon="2.93543">
        <ele>994.14</ele>
        <time>2011-09-03T12:22:45Z</time>
      </trkpt>
      <trkpt lat="45.23683" lon="2.93564">
        <ele>995.58</ele>
        <time>2011-09-03T12:22:50Z</time>
      </trkpt>
      <trkpt lat="45.23729" lon="2.93563">
        <ele>998.95</ele>
        <time>2011-09-03T12:22:53Z</time>
      </trkpt>
      <trkpt lat="45.23746" lon="2.93558">
        <ele>997.51</ele>
        <time>2011-09-03T12:22:54Z</time>
      </trkpt>
      <trkpt lat="45.23796" lon="2.93542">
        <ele>1003.75</ele>
        <time>2011-09-03T12:22:57Z</time>
      </trkpt>
      <trkpt lat="45.23812" lon="2.93537">
        <ele>1004.23</ele>
        <time>2011-09-03T12:22:58Z</time>
      </trkpt>
      <trkpt lat="45.23859" lon="2.93542">
        <ele>1006.16</ele>
        <time>2011-09-03T12:23:01Z</time>
      </trkpt>
      <trkpt lat="45.23902" lon="2.93564">
        <ele>1010</ele>
        <time>2011-09-03T12:23:04Z</time>
      </trkpt>
      <trkpt lat="45.23947" lon="2.93587">
        <ele>1013.37</ele>
        <time>2011-09-03T12:23:07Z</time>
      </trkpt>
      <trkpt lat="45.23998" lon="2.93594">
        <ele>1020.1</ele>
        <time>2011-09-03T12:23:10Z</time>
      </trkpt>
      <trkpt lat="45.24035" lon="2.93586">
        <ele>1022.5</ele>
        <time>2011-09-03T12:23:12Z</time>
      </trkpt>
      <trkpt lat="45.24093" lon="2.93564">
        <ele>1028.27</ele>
        <time>2011-09-03T12:23:15Z</time>
      </trkpt>
      <trkpt lat="45.2415" lon="2.93542">
        <ele>1032.11</ele>
        <time>2011-09-03T12:23:18Z</time>
      </trkpt>
      <trkpt lat="45.24188" lon="2.93528">
        <ele>1036.44</ele>
        <time>2011-09-03T12:23:20Z</time>
      </trkpt>
      <trkpt lat="45.2426" lon="2.93531">
        <ele>1038.84</ele>
        <time>2011-09-03T12:23:24Z</time>
      </trkpt>
      <trkpt lat="45.24292" lon="2.93545">
        <ele>1041.25</ele>
        <time>2011-09-03T12:23:26Z</time>
      </trkpt>
      <trkpt lat="45.24357" lon="2.93548">
        <ele>1048.94</ele>
        <time>2011-09-03T12:23:30Z</time>
      </trkpt>
      <trkpt lat="45.24373" lon="2.93539">
        <ele>1049.9</ele>
        <time>2011-09-03T12:23:31Z</time>
      </trkpt>
      <trkpt lat="45.24459" lon="2.93493">
        <ele>1056.15</ele>
        <time>2011-09-03T12:23:36Z</time>
      </trkpt>
      <trkpt lat="45.24537" lon="2.93486">
        <ele>1060.95</ele>
        <time>2011-09-03T12:23:40Z</time>
      </trkpt>
      <trkpt lat="45.24578" lon="2.93491">
        <ele>1065.76</ele>
        <time>2011-09-03T12:23:42Z</time>
      </trkpt>
      <trkpt lat="45.24622" lon="2.93497">
        <ele>1070.08</ele>
        <time>2011-09-03T12:23:44Z</time>
      </trkpt>
      <trkpt lat="45.24687" lon="2.93507">
        <ele>1075.37</ele>
        <time>2011-09-03T12:23:47Z</time>
      </trkpt>
      <trkpt lat="45.2473" lon="2.93512">
        <ele>1080.66</ele>
        <time>2011-09-03T12:23:49Z</time>
      </trkpt>
      <trkpt lat="45.24751" lon="2.93513">
        <ele>1080.66</ele>
        <time>2011-09-03T12:23:50Z</time>
      </trkpt>
      <trkpt lat="45.24815" lon="2.93495">
        <ele>1085.95</ele>
        <time>2011-09-03T12:23:53Z</time>
      </trkpt>
      <trkpt lat="45.24857" lon="2.93476">
        <ele>1088.35</ele>
        <time>2011-09-03T12:23:55Z</time>
      </trkpt>
      <trkpt lat="45.2492" lon="2.93446">
        <ele>1092.68</ele>
        <time>2011-09-03T12:23:58Z</time>
      </trkpt>
      <trkpt lat="45.24962" lon="2.93427">
        <ele>1096.52</ele>
        <time>2011-09-03T12:24:00Z</time>
      </trkpt>
      <trkpt lat="45.25003" lon="2.93406">
        <ele>1100.85</ele>
        <time>2011-09-03T12:24:02Z</time>
      </trkpt>
      <trkpt lat="45.25037" lon="2.93381">
        <ele>1102.77</ele>
        <time>2011-09-03T12:24:04Z</time>
      </trkpt>
      <trkpt lat="45.25089" lon="2.93354">
        <ele>1106.61</ele>
        <time>2011-09-03T12:24:07Z</time>
      </trkpt>
      <trkpt lat="45.25109" lon="2.93348">
        <ele>1106.61</ele>
        <time>2011-09-03T12:24:08Z</time>
      </trkpt>
      <trkpt lat="45.25129" lon="2.93341">
        <ele>1110.94</ele>
        <time>2011-09-03T12:24:09Z</time>
      </trkpt>
      <trkpt lat="45.25172" lon="2.93327">
        <ele>1114.79</ele>
        <time>2011-09-03T12:24:11Z</time>
      </trkpt>
      <trkpt lat="45.25216" lon="2.93313">
        <ele>1117.67</ele>
        <time>2011-09-03T12:24:13Z</time>
      </trkpt>
      <trkpt lat="45.25261" lon="2.933">
        <ele>1122</ele>
        <time>2011-09-03T12:24:15Z</time>
      </trkpt>
      <trkpt lat="45.25281" lon="2.93293">
        <ele>1122.48</ele>
        <time>2011-09-03T12:24:16Z</time>
      </trkpt>
      <trkpt lat="45.25301" lon="2.93286">
        <ele>1123.44</ele>
        <time>2011-09-03T12:24:17Z</time>
      </trkpt>
      <trkpt lat="45.25367" lon="2.93222">
        <ele>1129.21</ele>
        <time>2011-09-03T12:24:21Z</time>
      </trkpt>
      <trkpt lat="45.25383" lon="2.93202">
        <ele>1129.21</ele>
        <time>2011-09-03T12:24:22Z</time>
      </trkpt>
      <trkpt lat="45.25469" lon="2.93126">
        <ele>1132.57</ele>
        <time>2011-09-03T12:24:27Z</time>
      </trkpt>
      <trkpt lat="45.25529" lon="2.93083">
        <ele>1135.94</ele>
        <time>2011-09-03T12:24:30Z</time>
      </trkpt>
      <trkpt lat="45.25572" lon="2.93059">
        <ele>1139.3</ele>
        <time>2011-09-03T12:24:32Z</time>
      </trkpt>
      <trkpt lat="45.25593" lon="2.93047">
        <ele>1139.3</ele>
        <time>2011-09-03T12:24:33Z</time>
      </trkpt>
      <trkpt lat="45.25677" lon="2.92965">
        <ele>1140.74</ele>
        <time>2011-09-03T12:24:38Z</time>
      </trkpt>
      <trkpt lat="45.25737" lon="2.9295">
        <ele>1144.11</ele>
        <time>2011-09-03T12:24:42Z</time>
      </trkpt>
      <trkpt lat="45.258" lon="2.92972">
        <ele>1145.55</ele>
        <time>2011-09-03T12:24:47Z</time>
      </trkpt>
      <trkpt lat="45.25842" lon="2.92973">
        <ele>1148.91</ele>
        <time>2011-09-03T12:24:50Z</time>
      </trkpt>
      <trkpt lat="45.25925" lon="2.92984">
        <ele>1152.28</ele>
        <time>2011-09-03T12:24:56Z</time>
      </trkpt>
      <trkpt lat="45.2599" lon="2.92944">
        <ele>1159.49</ele>
        <time>2011-09-03T12:25:01Z</time>
      </trkpt>
      <trkpt lat="45.26017" lon="2.92907">
        <ele>1159.49</ele>
        <time>2011-09-03T12:25:03Z</time>
      </trkpt>
      <trkpt lat="45.26068" lon="2.92862">
        <ele>1165.26</ele>
        <time>2011-09-03T12:25:06Z</time>
      </trkpt>
      <trkpt lat="45.26103" lon="2.92835">
        <ele>1165.74</ele>
        <time>2011-09-03T12:25:08Z</time>
      </trkpt>
      <trkpt lat="45.26178" lon="2.92812">
        <ele>1169.1</ele>
        <time>2011-09-03T12:25:12Z</time>
      </trkpt>
      <trkpt lat="45.26258" lon="2.92752">
        <ele>1171.02</ele>
        <time>2011-09-03T12:25:17Z</time>
      </trkpt>
      <trkpt lat="45.26271" lon="2.927">
        <ele>1173.43</ele>
        <time>2011-09-03T12:25:19Z</time>
      </trkpt>
      <trkpt lat="45.26279" lon="2.92644">
        <ele>1174.39</ele>
        <time>2011-09-03T12:25:21Z</time>
      </trkpt>
      <trkpt lat="45.26283" lon="2.92615">
        <ele>1175.83</ele>
        <time>2011-09-03T12:25:22Z</time>
      </trkpt>
      <trkpt lat="45.26298" lon="2.9256">
        <ele>1176.31</ele>
        <time>2011-09-03T12:25:24Z</time>
      </trkpt>
      <trkpt lat="45.26342" lon="2.92473">
        <ele>1176.31</ele>
        <time>2011-09-03T12:25:28Z</time>
      </trkpt>
      <trkpt lat="45.2637" lon="2.92442">
        <ele>1177.27</ele>
        <time>2011-09-03T12:25:30Z</time>
      </trkpt>
      <trkpt lat="45.26428" lon="2.92417">
        <ele>1175.83</ele>
        <time>2011-09-03T12:25:34Z</time>
      </trkpt>
      <trkpt lat="45.26586" lon="2.92449">
        <ele>1180.64</ele>
        <time>2011-09-03T12:25:43Z</time>
      </trkpt>
      <trkpt lat="45.2665" lon="2.92465">
        <ele>1176.79</ele>
        <time>2011-09-03T12:25:47Z</time>
      </trkpt>
      <trkpt lat="45.26663" lon="2.92468">
        <ele>1176.31</ele>
        <time>2011-09-03T12:25:48Z</time>
      </trkpt>
      <trkpt lat="45.26722" lon="2.92459">
        <ele>1174.87</ele>
        <time>2011-09-03T12:25:54Z</time>
      </trkpt>
      <trkpt lat="45.26765" lon="2.92463">
        <ele>1176.31</ele>
        <time>2011-09-03T12:25:58Z</time>
      </trkpt>
      <trkpt lat="45.2683" lon="2.92471">
        <ele>1175.83</ele>
        <time>2011-09-03T12:26:04Z</time>
      </trkpt>
      <trkpt lat="45.26894" lon="2.92454">
        <ele>1174.39</ele>
        <time>2011-09-03T12:26:12Z</time>
      </trkpt>
      <trkpt lat="45.26924" lon="2.92449">
        <ele>1171.98</ele>
        <time>2011-09-03T12:26:16Z</time>
      </trkpt>
      <trkpt lat="45.27" lon="2.92468">
        <ele>1171.98</ele>
        <time>2011-09-03T12:26:25Z</time>
      </trkpt>
      <trkpt lat="45.27013" lon="2.92476">
        <ele>1171.98</ele>
        <time>2011-09-03T12:26:27Z</time>
      </trkpt>
      <trkpt lat="45.27033" lon="2.92485">
        <ele>1173.91</ele>
        <time>2011-09-03T12:26:31Z</time>
      </trkpt>
      <trkpt lat="45.27041" lon="2.92491">
        <ele>1173.43</ele>
        <time>2011-09-03T12:26:33Z</time>
      </trkpt>
      <trkpt lat="45.27057" lon="2.92502">
        <ele>1175.83</ele>
        <time>2011-09-03T12:26:37Z</time>
      </trkpt>
      <trkpt lat="45.27076" lon="2.92526">
        <ele>1175.35</ele>
        <time>2011-09-03T12:26:47Z</time>
      </trkpt>
      <trkpt lat="45.2709" lon="2.92543">
        <ele>1179.19</ele>
        <time>2011-09-03T12:26:50Z</time>
      </trkpt>
      <trkpt lat="45.27113" lon="2.9257">
        <ele>1182.56</ele>
        <time>2011-09-03T12:26:54Z</time>
      </trkpt>
      <trkpt lat="45.27119" lon="2.92577">
        <ele>1181.6</ele>
        <time>2011-09-03T12:26:55Z</time>
      </trkpt>
      <trkpt lat="45.27147" lon="2.92609">
        <ele>1186.88</ele>
        <time>2011-09-03T12:26:59Z</time>
      </trkpt>
      <trkpt lat="45.27165" lon="2.92629">
        <ele>1190.25</ele>
        <time>2011-09-03T12:27:01Z</time>
      </trkpt>
      <trkpt lat="45.27201" lon="2.92669">
        <ele>1195.06</ele>
        <time>2011-09-03T12:27:04Z</time>
      </trkpt>
      <trkpt lat="45.27213" lon="2.92684">
        <ele>1196.02</ele>
        <time>2011-09-03T12:27:05Z</time>
      </trkpt>
      <trkpt lat="45.27231" lon="2.92715">
        <ele>1198.42</ele>
        <time>2011-09-03T12:27:07Z</time>
      </trkpt>
      <trkpt lat="45.27242" lon="2.92745">
        <ele>1198.9</ele>
        <time>2011-09-03T12:27:09Z</time>
      </trkpt>
      <trkpt lat="45.2725" lon="2.92785">
        <ele>1201.3</ele>
        <time>2011-09-03T12:27:12Z</time>
      </trkpt>
      <trkpt lat="45.27248" lon="2.92843">
        <ele>1205.63</ele>
        <time>2011-09-03T12:27:16Z</time>
      </trkpt>
      <trkpt lat="45.27244" lon="2.92879">
        <ele>1208.51</ele>
        <time>2011-09-03T12:27:18Z</time>
      </trkpt>
      <trkpt lat="45.27241" lon="2.9292">
        <ele>1211.88</ele>
        <time>2011-09-03T12:27:20Z</time>
      </trkpt>
      <trkpt lat="45.27241" lon="2.92942">
        <ele>1214.76</ele>
        <time>2011-09-03T12:27:21Z</time>
      </trkpt>
      <trkpt lat="45.27257" lon="2.93033">
        <ele>1220.05</ele>
        <time>2011-09-03T12:27:25Z</time>
      </trkpt>
      <trkpt lat="45.27261" lon="2.93056">
        <ele>1223.9</ele>
        <time>2011-09-03T12:27:26Z</time>
      </trkpt>
      <trkpt lat="45.27266" lon="2.93128">
        <ele>1227.26</ele>
        <time>2011-09-03T12:27:29Z</time>
      </trkpt>
      <trkpt lat="45.27272" lon="2.93203">
        <ele>1230.14</ele>
        <time>2011-09-03T12:27:32Z</time>
      </trkpt>
      <trkpt lat="45.27278" lon="2.93227">
        <ele>1229.66</ele>
        <time>2011-09-03T12:27:33Z</time>
      </trkpt>
      <trkpt lat="45.27322" lon="2.93346">
        <ele>1235.43</ele>
        <time>2011-09-03T12:27:38Z</time>
      </trkpt>
      <trkpt lat="45.27334" lon="2.93369">
        <ele>1236.87</ele>
        <time>2011-09-03T12:27:39Z</time>
      </trkpt>
      <trkpt lat="45.27361" lon="2.93442">
        <ele>1240.72</ele>
        <time>2011-09-03T12:27:42Z</time>
      </trkpt>
      <trkpt lat="45.27367" lon="2.93467">
        <ele>1241.2</ele>
        <time>2011-09-03T12:27:43Z</time>
      </trkpt>
      <trkpt lat="45.27401" lon="2.93524">
        <ele>1242.16</ele>
        <time>2011-09-03T12:27:46Z</time>
      </trkpt>
      <trkpt lat="45.2743" lon="2.93555">
        <ele>1246.49</ele>
        <time>2011-09-03T12:27:48Z</time>
      </trkpt>
      <trkpt lat="45.2747" lon="2.93629">
        <ele>1246.97</ele>
        <time>2011-09-03T12:27:52Z</time>
      </trkpt>
      <trkpt lat="45.27496" lon="2.93719">
        <ele>1252.74</ele>
        <time>2011-09-03T12:27:56Z</time>
      </trkpt>
      <trkpt lat="45.27518" lon="2.93762">
        <ele>1254.18</ele>
        <time>2011-09-03T12:27:58Z</time>
      </trkpt>
      <trkpt lat="45.27547" lon="2.93801">
        <ele>1257.54</ele>
        <time>2011-09-03T12:28:00Z</time>
      </trkpt>
      <trkpt lat="45.27603" lon="2.93889">
        <ele>1260.91</ele>
        <time>2011-09-03T12:28:04Z</time>
      </trkpt>
      <trkpt lat="45.27644" lon="2.93957">
        <ele>1264.75</ele>
        <time>2011-09-03T12:28:07Z</time>
      </trkpt>
      <trkpt lat="45.27657" lon="2.9398">
        <ele>1265.71</ele>
        <time>2011-09-03T12:28:08Z</time>
      </trkpt>
      <trkpt lat="45.27745" lon="2.94041">
        <ele>1268.12</ele>
        <time>2011-09-03T12:28:13Z</time>
      </trkpt>
      <trkpt lat="45.27794" lon="2.9408">
        <ele>1273.4</ele>
        <time>2011-09-03T12:28:16Z</time>
      </trkpt>
      <trkpt lat="45.27853" lon="2.94153">
        <ele>1275.81</ele>
        <time>2011-09-03T12:28:20Z</time>
      </trkpt>
      <trkpt lat="45.27916" lon="2.94234">
        <ele>1274.85</ele>
        <time>2011-09-03T12:28:25Z</time>
      </trkpt>
      <trkpt lat="45.27956" lon="2.94317">
        <ele>1275.81</ele>
        <time>2011-09-03T12:28:30Z</time>
      </trkpt>
      <trkpt lat="45.27981" lon="2.94474">
        <ele>1275.33</ele>
        <time>2011-09-03T12:28:37Z</time>
      </trkpt>
      <trkpt lat="45.28" lon="2.9454">
        <ele>1273.4</ele>
        <time>2011-09-03T12:28:40Z</time>
      </trkpt>
      <trkpt lat="45.2801" lon="2.9456">
        <ele>1271.48</ele>
        <time>2011-09-03T12:28:41Z</time>
      </trkpt>
      <trkpt lat="45.2804" lon="2.94615">
        <ele>1269.08</ele>
        <time>2011-09-03T12:28:44Z</time>
      </trkpt>
      <trkpt lat="45.28091" lon="2.94671">
        <ele>1266.67</ele>
        <time>2011-09-03T12:28:48Z</time>
      </trkpt>
      <trkpt lat="45.28203" lon="2.94736">
        <ele>1264.75</ele>
        <time>2011-09-03T12:28:55Z</time>
      </trkpt>
      <trkpt lat="45.28292" lon="2.9482">
        <ele>1261.39</ele>
        <time>2011-09-03T12:29:01Z</time>
      </trkpt>
      <trkpt lat="45.28307" lon="2.94834">
        <ele>1260.43</ele>
        <time>2011-09-03T12:29:02Z</time>
      </trkpt>
      <trkpt lat="45.28388" lon="2.94865">
        <ele>1254.66</ele>
        <time>2011-09-03T12:29:07Z</time>
      </trkpt>
      <trkpt lat="45.28416" lon="2.94893">
        <ele>1254.66</ele>
        <time>2011-09-03T12:29:09Z</time>
      </trkpt>
      <trkpt lat="45.28449" lon="2.94945">
        <ele>1253.22</ele>
        <time>2011-09-03T12:29:12Z</time>
      </trkpt>
      <trkpt lat="45.28489" lon="2.94981">
        <ele>1248.41</ele>
        <time>2011-09-03T12:29:15Z</time>
      </trkpt>
      <trkpt lat="45.28506" lon="2.94986">
        <ele>1248.41</ele>
        <time>2011-09-03T12:29:16Z</time>
      </trkpt>
      <trkpt lat="45.28564" lon="2.94997">
        <ele>1246.49</ele>
        <time>2011-09-03T12:29:19Z</time>
      </trkpt>
      <trkpt lat="45.28623" lon="2.95014">
        <ele>1243.12</ele>
        <time>2011-09-03T12:29:22Z</time>
      </trkpt>
      <trkpt lat="45.28679" lon="2.95047">
        <ele>1240.72</ele>
        <time>2011-09-03T12:29:25Z</time>
      </trkpt>
      <trkpt lat="45.28711" lon="2.95069">
        <ele>1237.35</ele>
        <time>2011-09-03T12:29:27Z</time>
      </trkpt>
      <trkpt lat="45.28736" lon="2.95086">
        <ele>1234.95</ele>
        <time>2011-09-03T12:29:29Z</time>
      </trkpt>
      <trkpt lat="45.28764" lon="2.95157">
        <ele>1232.07</ele>
        <time>2011-09-03T12:29:34Z</time>
      </trkpt>
      <trkpt lat="45.28741" lon="2.95201">
        <ele>1233.51</ele>
        <time>2011-09-03T12:29:38Z</time>
      </trkpt>
      <trkpt lat="45.28715" lon="2.9522">
        <ele>1237.83</ele>
        <time>2011-09-03T12:29:40Z</time>
      </trkpt>
      <trkpt lat="45.28684" lon="2.95249">
        <ele>1242.64</ele>
        <time>2011-09-03T12:29:42Z</time>
      </trkpt>
      <trkpt lat="45.28601" lon="2.95318">
        <ele>1246.97</ele>
        <time>2011-09-03T12:29:47Z</time>
      </trkpt>
      <trkpt lat="45.28575" lon="2.9534">
        <ele>1245.04</ele>
        <time>2011-09-03T12:29:49Z</time>
      </trkpt>
      <trkpt lat="45.28555" lon="2.95378">
        <ele>1241.68</ele>
        <time>2011-09-03T12:29:52Z</time>
      </trkpt>
      <trkpt lat="45.28555" lon="2.95412">
        <ele>1243.6</ele>
        <time>2011-09-03T12:29:54Z</time>
      </trkpt>
      <trkpt lat="45.2859" lon="2.95559">
        <ele>1244.56</ele>
        <time>2011-09-03T12:30:03Z</time>
      </trkpt>
      <trkpt lat="45.28609" lon="2.95659">
        <ele>1244.56</ele>
        <time>2011-09-03T12:30:08Z</time>
      </trkpt>
      <trkpt lat="45.28605" lon="2.95739">
        <ele>1244.56</ele>
        <time>2011-09-03T12:30:13Z</time>
      </trkpt>
      <trkpt lat="45.28598" lon="2.9577">
        <ele>1245.53</ele>
        <time>2011-09-03T12:30:15Z</time>
      </trkpt>
      <trkpt lat="45.28578" lon="2.95867">
        <ele>1246.49</ele>
        <time>2011-09-03T12:30:21Z</time>
      </trkpt>
      <trkpt lat="45.28557" lon="2.9603">
        <ele>1245.53</ele>
        <time>2011-09-03T12:30:31Z</time>
      </trkpt>
      <trkpt lat="45.28557" lon="2.96063">
        <ele>1243.6</ele>
        <time>2011-09-03T12:30:33Z</time>
      </trkpt>
      <trkpt lat="45.28561" lon="2.96184">
        <ele>1246.97</ele>
        <time>2011-09-03T12:30:40Z</time>
      </trkpt>
      <trkpt lat="45.28564" lon="2.96236">
        <ele>1245.53</ele>
        <time>2011-09-03T12:30:43Z</time>
      </trkpt>
      <trkpt lat="45.28577" lon="2.96298">
        <ele>1241.68</ele>
        <time>2011-09-03T12:30:47Z</time>
      </trkpt>
      <trkpt lat="45.28576" lon="2.96346">
        <ele>1244.56</ele>
        <time>2011-09-03T12:30:50Z</time>
      </trkpt>
      <trkpt lat="45.28564" lon="2.96376">
        <ele>1243.12</ele>
        <time>2011-09-03T12:30:52Z</time>
      </trkpt>
      <trkpt lat="45.28542" lon="2.96433">
        <ele>1245.04</ele>
        <time>2011-09-03T12:30:56Z</time>
      </trkpt>
      <trkpt lat="45.28538" lon="2.96449">
        <ele>1244.08</ele>
        <time>2011-09-03T12:30:57Z</time>
      </trkpt>
      <trkpt lat="45.28542" lon="2.96525">
        <ele>1242.64</ele>
        <time>2011-09-03T12:31:02Z</time>
      </trkpt>
      <trkpt lat="45.28562" lon="2.96568">
        <ele>1243.6</ele>
        <time>2011-09-03T12:31:05Z</time>
      </trkpt>
      <trkpt lat="45.2859" lon="2.96601">
        <ele>1242.16</ele>
        <time>2011-09-03T12:31:08Z</time>
      </trkpt>
      <trkpt lat="45.28613" lon="2.96614">
        <ele>1242.64</ele>
        <time>2011-09-03T12:31:10Z</time>
      </trkpt>
      <trkpt lat="45.28677" lon="2.96689">
        <ele>1245.04</ele>
        <time>2011-09-03T12:31:17Z</time>
      </trkpt>
      <trkpt lat="45.28676" lon="2.96775">
        <ele>1248.41</ele>
        <time>2011-09-03T12:31:23Z</time>
      </trkpt>
      <trkpt lat="45.28661" lon="2.96797">
        <ele>1250.81</ele>
        <time>2011-09-03T12:31:25Z</time>
      </trkpt>
      <trkpt lat="45.28618" lon="2.96858">
        <ele>1252.74</ele>
        <time>2011-09-03T12:31:30Z</time>
      </trkpt>
      <trkpt lat="45.2858" lon="2.96985">
        <ele>1255.62</ele>
        <time>2011-09-03T12:31:38Z</time>
      </trkpt>
      <trkpt lat="45.28572" lon="2.97025">
        <ele>1257.54</ele>
        <time>2011-09-03T12:31:41Z</time>
      </trkpt>
      <trkpt lat="45.28566" lon="2.97052">
        <ele>1259.94</ele>
        <time>2011-09-03T12:31:43Z</time>
      </trkpt>
      <trkpt lat="45.28562" lon="2.97077">
        <ele>1259.46</ele>
        <time>2011-09-03T12:31:45Z</time>
      </trkpt>
      <trkpt lat="45.2856" lon="2.97117">
        <ele>1258.02</ele>
        <time>2011-09-03T12:31:53Z</time>
      </trkpt>
      <trkpt lat="45.2856" lon="2.97117">
        <ele>1258.98</ele>
        <time>2011-09-03T12:32:28Z</time>
      </trkpt>
      <trkpt lat="45.28553" lon="2.97128">
        <ele>1260.91</ele>
        <time>2011-09-03T12:32:31Z</time>
      </trkpt>
      <trkpt lat="45.28548" lon="2.97133">
        <ele>1260.91</ele>
        <time>2011-09-03T12:32:32Z</time>
      </trkpt>
      <trkpt lat="45.28473" lon="2.97187">
        <ele>1258.02</ele>
        <time>2011-09-03T12:32:42Z</time>
      </trkpt>
      <trkpt lat="45.28431" lon="2.97216">
        <ele>1255.14</ele>
        <time>2011-09-03T12:32:47Z</time>
      </trkpt>
      <trkpt lat="45.28424" lon="2.97221">
        <ele>1255.14</ele>
        <time>2011-09-03T12:32:48Z</time>
      </trkpt>
      <trkpt lat="45.28396" lon="2.97239">
        <ele>1252.74</ele>
        <time>2011-09-03T12:32:52Z</time>
      </trkpt>
      <trkpt lat="45.28377" lon="2.97257">
        <ele>1249.85</ele>
        <time>2011-09-03T12:32:55Z</time>
      </trkpt>
      <trkpt lat="45.28374" lon="2.97293">
        <ele>1250.33</ele>
        <time>2011-09-03T12:32:58Z</time>
      </trkpt>
      <trkpt lat="45.28381" lon="2.97342">
        <ele>1248.89</ele>
        <time>2011-09-03T12:33:02Z</time>
      </trkpt>
      <trkpt lat="45.28375" lon="2.974">
        <ele>1248.41</ele>
        <time>2011-09-03T12:33:07Z</time>
      </trkpt>
      <trkpt lat="45.28367" lon="2.97422">
        <ele>1246.97</ele>
        <time>2011-09-03T12:33:09Z</time>
      </trkpt>
      <trkpt lat="45.28359" lon="2.97458">
        <ele>1243.12</ele>
        <time>2011-09-03T12:33:12Z</time>
      </trkpt>
      <trkpt lat="45.28361" lon="2.97473">
        <ele>1242.16</ele>
        <time>2011-09-03T12:33:13Z</time>
      </trkpt>
      <trkpt lat="45.28374" lon="2.97539">
        <ele>1238.32</ele>
        <time>2011-09-03T12:33:17Z</time>
      </trkpt>
      <trkpt lat="45.28383" lon="2.97618">
        <ele>1234.47</ele>
        <time>2011-09-03T12:33:21Z</time>
      </trkpt>
      <trkpt lat="45.28386" lon="2.97638">
        <ele>1233.03</ele>
        <time>2011-09-03T12:33:22Z</time>
      </trkpt>
      <trkpt lat="45.28395" lon="2.97677">
        <ele>1232.07</ele>
        <time>2011-09-03T12:33:24Z</time>
      </trkpt>
      <trkpt lat="45.28405" lon="2.97729">
        <ele>1227.74</ele>
        <time>2011-09-03T12:33:27Z</time>
      </trkpt>
      <trkpt lat="45.28409" lon="2.97764">
        <ele>1224.38</ele>
        <time>2011-09-03T12:33:29Z</time>
      </trkpt>
      <trkpt lat="45.28416" lon="2.97861">
        <ele>1220.53</ele>
        <time>2011-09-03T12:33:35Z</time>
      </trkpt>
      <trkpt lat="45.28404" lon="2.97919">
        <ele>1215.72</ele>
        <time>2011-09-03T12:33:38Z</time>
      </trkpt>
      <trkpt lat="45.28402" lon="2.97939">
        <ele>1214.76</ele>
        <time>2011-09-03T12:33:39Z</time>
      </trkpt>
      <trkpt lat="45.28403" lon="2.97978">
        <ele>1213.32</ele>
        <time>2011-09-03T12:33:41Z</time>
      </trkpt>
      <trkpt lat="45.28408" lon="2.97996">
        <ele>1209.96</ele>
        <time>2011-09-03T12:33:42Z</time>
      </trkpt>
      <trkpt lat="45.28414" lon="2.98012">
        <ele>1210.92</ele>
        <time>2011-09-03T12:33:43Z</time>
      </trkpt>
      <trkpt lat="45.28447" lon="2.98071">
        <ele>1207.07</ele>
        <time>2011-09-03T12:33:47Z</time>
      </trkpt>
      <trkpt lat="45.28454" lon="2.98085">
        <ele>1207.07</ele>
        <time>2011-09-03T12:33:48Z</time>
      </trkpt>
      <trkpt lat="45.28466" lon="2.98147">
        <ele>1203.71</ele>
        <time>2011-09-03T12:33:52Z</time>
      </trkpt>
      <trkpt lat="45.28464" lon="2.98162">
        <ele>1204.19</ele>
        <time>2011-09-03T12:33:53Z</time>
      </trkpt>
      <trkpt lat="45.28456" lon="2.98205">
        <ele>1201.3</ele>
        <time>2011-09-03T12:33:56Z</time>
      </trkpt>
      <trkpt lat="45.28447" lon="2.98237">
        <ele>1199.38</ele>
        <time>2011-09-03T12:33:59Z</time>
      </trkpt>
      <trkpt lat="45.2844" lon="2.98255">
        <ele>1197.46</ele>
        <time>2011-09-03T12:34:01Z</time>
      </trkpt>
      <trkpt lat="45.28416" lon="2.98307">
        <ele>1195.54</ele>
        <time>2011-09-03T12:34:06Z</time>
      </trkpt>
      <trkpt lat="45.28407" lon="2.98338">
        <ele>1190.73</ele>
        <time>2011-09-03T12:34:09Z</time>
      </trkpt>
      <trkpt lat="45.28407" lon="2.98345">
        <ele>1188.81</ele>
        <time>2011-09-03T12:34:10Z</time>
      </trkpt>
      <trkpt lat="45.28389" lon="2.98374">
        <ele>1187.37</ele>
        <time>2011-09-03T12:34:17Z</time>
      </trkpt>
      <trkpt lat="45.28377" lon="2.98362">
        <ele>1186.88</ele>
        <time>2011-09-03T12:34:19Z</time>
      </trkpt>
      <trkpt lat="45.28353" lon="2.98324">
        <ele>1183.52</ele>
        <time>2011-09-03T12:34:23Z</time>
      </trkpt>
      <trkpt lat="45.28332" lon="2.98288">
        <ele>1179.67</ele>
        <time>2011-09-03T12:34:26Z</time>
      </trkpt>
      <trkpt lat="45.28325" lon="2.98275">
        <ele>1180.16</ele>
        <time>2011-09-03T12:34:27Z</time>
      </trkpt>
      <trkpt lat="45.28308" lon="2.9825">
        <ele>1175.35</ele>
        <time>2011-09-03T12:34:29Z</time>
      </trkpt>
      <trkpt lat="45.28277" lon="2.98195">
        <ele>1171.02</ele>
        <time>2011-09-03T12:34:33Z</time>
      </trkpt>
      <trkpt lat="45.28264" lon="2.98167">
        <ele>1167.66</ele>
        <time>2011-09-03T12:34:35Z</time>
      </trkpt>
      <trkpt lat="45.2825" lon="2.98126">
        <ele>1165.26</ele>
        <time>2011-09-03T12:34:38Z</time>
      </trkpt>
      <trkpt lat="45.28244" lon="2.9808">
        <ele>1159.97</ele>
        <time>2011-09-03T12:34:41Z</time>
      </trkpt>
      <trkpt lat="45.28257" lon="2.98034">
        <ele>1157.08</ele>
        <time>2011-09-03T12:34:44Z</time>
      </trkpt>
      <trkpt lat="45.28271" lon="2.98004">
        <ele>1150.84</ele>
        <time>2011-09-03T12:34:46Z</time>
      </trkpt>
      <trkpt lat="45.28283" lon="2.97958">
        <ele>1148.91</ele>
        <time>2011-09-03T12:34:49Z</time>
      </trkpt>
      <trkpt lat="45.28283" lon="2.97929">
        <ele>1145.55</ele>
        <time>2011-09-03T12:34:51Z</time>
      </trkpt>
      <trkpt lat="45.28279" lon="2.97916">
        <ele>1146.03</ele>
        <time>2011-09-03T12:34:52Z</time>
      </trkpt>
      <trkpt lat="45.28273" lon="2.97903">
        <ele>1145.07</ele>
        <time>2011-09-03T12:34:53Z</time>
      </trkpt>
      <trkpt lat="45.28258" lon="2.97878">
        <ele>1142.66</ele>
        <time>2011-09-03T12:34:55Z</time>
      </trkpt>
      <trkpt lat="45.2822" lon="2.97838">
        <ele>1137.38</ele>
        <time>2011-09-03T12:34:59Z</time>
      </trkpt>
      <trkpt lat="45.28187" lon="2.97811">
        <ele>1132.09</ele>
        <time>2011-09-03T12:35:02Z</time>
      </trkpt>
      <trkpt lat="45.28176" lon="2.97801">
        <ele>1130.65</ele>
        <time>2011-09-03T12:35:03Z</time>
      </trkpt>
      <trkpt lat="45.2814" lon="2.97781">
        <ele>1128.24</ele>
        <time>2011-09-03T12:35:06Z</time>
      </trkpt>
      <trkpt lat="45.28113" lon="2.97778">
        <ele>1122.96</ele>
        <time>2011-09-03T12:35:08Z</time>
      </trkpt>
      <trkpt lat="45.28086" lon="2.97791">
        <ele>1119.59</ele>
        <time>2011-09-03T12:35:10Z</time>
      </trkpt>
      <trkpt lat="45.28074" lon="2.97802">
        <ele>1119.11</ele>
        <time>2011-09-03T12:35:11Z</time>
      </trkpt>
      <trkpt lat="45.2803" lon="2.97833">
        <ele>1115.27</ele>
        <time>2011-09-03T12:35:15Z</time>
      </trkpt>
      <trkpt lat="45.2802" lon="2.97832">
        <ele>1113.82</ele>
        <time>2011-09-03T12:35:16Z</time>
      </trkpt>
      <trkpt lat="45.2796" lon="2.97826">
        <ele>1106.61</ele>
        <time>2011-09-03T12:35:21Z</time>
      </trkpt>
      <trkpt lat="45.27947" lon="2.97825">
        <ele>1107.1</ele>
        <time>2011-09-03T12:35:22Z</time>
      </trkpt>
      <trkpt lat="45.27906" lon="2.97815">
        <ele>1102.29</ele>
        <time>2011-09-03T12:35:25Z</time>
      </trkpt>
      <trkpt lat="45.27879" lon="2.97808">
        <ele>1098.44</ele>
        <time>2011-09-03T12:35:27Z</time>
      </trkpt>
      <trkpt lat="45.27865" lon="2.97806">
        <ele>1097</ele>
        <time>2011-09-03T12:35:28Z</time>
      </trkpt>
      <trkpt lat="45.27822" lon="2.97814">
        <ele>1092.2</ele>
        <time>2011-09-03T12:35:31Z</time>
      </trkpt>
      <trkpt lat="45.27777" lon="2.97827">
        <ele>1087.39</ele>
        <time>2011-09-03T12:35:34Z</time>
      </trkpt>
      <trkpt lat="45.27763" lon="2.97829">
        <ele>1085.95</ele>
        <time>2011-09-03T12:35:35Z</time>
      </trkpt>
      <trkpt lat="45.27739" lon="2.97825">
        <ele>1081.14</ele>
        <time>2011-09-03T12:35:37Z</time>
      </trkpt>
      <trkpt lat="45.27722" lon="2.97796">
        <ele>1077.29</ele>
        <time>2011-09-03T12:35:39Z</time>
      </trkpt>
      <trkpt lat="45.27703" lon="2.97749">
        <ele>1072.97</ele>
        <time>2011-09-03T12:35:42Z</time>
      </trkpt>
      <trkpt lat="45.27692" lon="2.9772">
        <ele>1069.6</ele>
        <time>2011-09-03T12:35:44Z</time>
      </trkpt>
      <trkpt lat="45.27687" lon="2.97706">
        <ele>1068.16</ele>
        <time>2011-09-03T12:35:45Z</time>
      </trkpt>
      <trkpt lat="45.27675" lon="2.97661">
        <ele>1063.84</ele>
        <time>2011-09-03T12:35:48Z</time>
      </trkpt>
      <trkpt lat="45.27675" lon="2.97634">
        <ele>1060.47</ele>
        <time>2011-09-03T12:35:50Z</time>
      </trkpt>
      <trkpt lat="45.27658" lon="2.97639">
        <ele>1058.07</ele>
        <time>2011-09-03T12:35:54Z</time>
      </trkpt>
      <trkpt lat="45.27654" lon="2.97682">
        <ele>1055.18</ele>
        <time>2011-09-03T12:35:57Z</time>
      </trkpt>
      <trkpt lat="45.27659" lon="2.97715">
        <ele>1052.3</ele>
        <time>2011-09-03T12:35:59Z</time>
      </trkpt>
      <trkpt lat="45.27673" lon="2.97787">
        <ele>1046.05</ele>
        <time>2011-09-03T12:36:03Z</time>
      </trkpt>
      <trkpt lat="45.27677" lon="2.97847">
        <ele>1042.21</ele>
        <time>2011-09-03T12:36:06Z</time>
      </trkpt>
      <trkpt lat="45.27678" lon="2.97866">
        <ele>1038.84</ele>
        <time>2011-09-03T12:36:07Z</time>
      </trkpt>
      <trkpt lat="45.2769" lon="2.97908">
        <ele>1033.55</ele>
        <time>2011-09-03T12:36:10Z</time>
      </trkpt>
      <trkpt lat="45.27702" lon="2.97921">
        <ele>1030.67</ele>
        <time>2011-09-03T12:36:12Z</time>
      </trkpt>
      <trkpt lat="45.27715" lon="2.97934">
        <ele>1028.27</ele>
        <time>2011-09-03T12:36:16Z</time>
      </trkpt>
      <trkpt lat="45.27714" lon="2.97938">
        <ele>1025.86</ele>
        <time>2011-09-03T12:36:18Z</time>
      </trkpt>
      <trkpt lat="45.27698" lon="2.97954">
        <ele>1024.9</ele>
        <time>2011-09-03T12:36:28Z</time>
      </trkpt>
      <trkpt lat="45.27708" lon="2.97954">
        <ele>1025.86</ele>
        <time>2011-09-03T12:36:35Z</time>
      </trkpt>
      <trkpt lat="45.2771" lon="2.97951">
        <ele>1025.38</ele>
        <time>2011-09-03T12:36:46Z</time>
      </trkpt>
      <trkpt lat="45.2771" lon="2.97951">
        <ele>1024.9</ele>
        <time>2011-09-03T12:37:57Z</time>
      </trkpt>
      <trkpt lat="45.2771" lon="2.97951">
        <ele>1025.38</ele>
        <time>2011-09-03T12:38:09Z</time>
      </trkpt>
      <trkpt lat="45.2771" lon="2.9795">
        <ele>1025.38</ele>
        <time>2011-09-03T12:38:48Z</time>
      </trkpt>
      <trkpt lat="45.2771" lon="2.9795">
        <ele>1023.94</ele>
        <time>2011-09-03T12:39:56Z</time>
      </trkpt>
      <trkpt lat="45.2771" lon="2.97949">
        <ele>1024.9</ele>
        <time>2011-09-03T12:40:16Z</time>
      </trkpt>
      <trkpt lat="45.2771" lon="2.97949">
        <ele>1023.46</ele>
        <time>2011-09-03T12:40:19Z</time>
      </trkpt>
      <trkpt lat="45.2771" lon="2.97949">
        <ele>1022.5</ele>
        <time>2011-09-03T12:40:27Z</time>
      </trkpt>
      <trkpt lat="45.2771" lon="2.97949">
        <ele>1023.94</ele>
        <time>2011-09-03T12:41:25Z</time>
      </trkpt>
      <trkpt lat="45.2771" lon="2.97949">
        <ele>1023.94</ele>
        <time>2011-09-03T12:41:33Z</time>
      </trkpt>
      <trkpt lat="45.2771" lon="2.97949">
        <ele>1022.98</ele>
        <time>2011-09-03T12:41:35Z</time>
      </trkpt>
      <trkpt lat="45.2771" lon="2.97949">
        <ele>1023.94</ele>
        <time>2011-09-03T12:41:53Z</time>
      </trkpt>
      <trkpt lat="45.27717" lon="2.97943">
        <ele>1023.94</ele>
        <time>2011-09-03T12:43:46Z</time>
      </trkpt>
      <trkpt lat="45.27733" lon="2.97959">
        <ele>1025.86</ele>
        <time>2011-09-03T12:43:52Z</time>
      </trkpt>
      <trkpt lat="45.27735" lon="2.97964">
        <ele>1026.83</ele>
        <time>2011-09-03T12:44:06Z</time>
      </trkpt>
      <trkpt lat="45.2774" lon="2.97974">
        <ele>1028.27</ele>
        <time>2011-09-03T12:44:11Z</time>
      </trkpt>
      <trkpt lat="45.27736" lon="2.98006">
        <ele>1031.15</ele>
        <time>2011-09-03T12:44:16Z</time>
      </trkpt>
      <trkpt lat="45.27733" lon="2.98012">
        <ele>1031.63</ele>
        <time>2011-09-03T12:44:17Z</time>
      </trkpt>
      <trkpt lat="45.27721" lon="2.98028">
        <ele>1034.52</ele>
        <time>2011-09-03T12:44:20Z</time>
      </trkpt>
      <trkpt lat="45.27702" lon="2.98046">
        <ele>1036.44</ele>
        <time>2011-09-03T12:44:23Z</time>
      </trkpt>
      <trkpt lat="45.27688" lon="2.98057">
        <ele>1037.88</ele>
        <time>2011-09-03T12:44:25Z</time>
      </trkpt>
      <trkpt lat="45.27665" lon="2.98075">
        <ele>1041.73</ele>
        <time>2011-09-03T12:44:28Z</time>
      </trkpt>
      <trkpt lat="45.27657" lon="2.9808">
        <ele>1041.25</ele>
        <time>2011-09-03T12:44:29Z</time>
      </trkpt>
      <trkpt lat="45.2765" lon="2.98086">
        <ele>1041.73</ele>
        <time>2011-09-03T12:44:30Z</time>
      </trkpt>
      <trkpt lat="45.27633" lon="2.98135">
        <ele>1046.53</ele>
        <time>2011-09-03T12:44:35Z</time>
      </trkpt>
      <trkpt lat="45.27632" lon="2.98166">
        <ele>1047.49</ele>
        <time>2011-09-03T12:44:37Z</time>
      </trkpt>
      <trkpt lat="45.27629" lon="2.98231">
        <ele>1051.34</ele>
        <time>2011-09-03T12:44:41Z</time>
      </trkpt>
      <trkpt lat="45.27628" lon="2.98264">
        <ele>1052.3</ele>
        <time>2011-09-03T12:44:43Z</time>
      </trkpt>
      <trkpt lat="45.2763" lon="2.98312">
        <ele>1056.15</ele>
        <time>2011-09-03T12:44:46Z</time>
      </trkpt>
      <trkpt lat="45.27633" lon="2.98344">
        <ele>1057.59</ele>
        <time>2011-09-03T12:44:48Z</time>
      </trkpt>
      <trkpt lat="45.27628" lon="2.98396">
        <ele>1061.43</ele>
        <time>2011-09-03T12:44:52Z</time>
      </trkpt>
      <trkpt lat="45.27623" lon="2.98409">
        <ele>1061.91</ele>
        <time>2011-09-03T12:44:53Z</time>
      </trkpt>
      <trkpt lat="45.27599" lon="2.98461">
        <ele>1067.2</ele>
        <time>2011-09-03T12:44:57Z</time>
      </trkpt>
      <trkpt lat="45.27587" lon="2.98491">
        <ele>1069.6</ele>
        <time>2011-09-03T12:44:59Z</time>
      </trkpt>
      <trkpt lat="45.27573" lon="2.98552">
        <ele>1074.41</ele>
        <time>2011-09-03T12:45:03Z</time>
      </trkpt>
      <trkpt lat="45.27571" lon="2.98583">
        <ele>1076.33</ele>
        <time>2011-09-03T12:45:05Z</time>
      </trkpt>
      <trkpt lat="45.27572" lon="2.98613">
        <ele>1077.29</ele>
        <time>2011-09-03T12:45:07Z</time>
      </trkpt>
      <trkpt lat="45.27588" lon="2.9869">
        <ele>1082.58</ele>
        <time>2011-09-03T12:45:12Z</time>
      </trkpt>
      <trkpt lat="45.27597" lon="2.98737">
        <ele>1084.02</ele>
        <time>2011-09-03T12:45:15Z</time>
      </trkpt>
      <trkpt lat="45.2761" lon="2.98775">
        <ele>1087.87</ele>
        <time>2011-09-03T12:45:18Z</time>
      </trkpt>
      <trkpt lat="45.27617" lon="2.98787">
        <ele>1088.35</ele>
        <time>2011-09-03T12:45:19Z</time>
      </trkpt>
      <trkpt lat="45.27653" lon="2.98833">
        <ele>1093.64</ele>
        <time>2011-09-03T12:45:23Z</time>
      </trkpt>
      <trkpt lat="45.2767" lon="2.98852">
        <ele>1095.08</ele>
        <time>2011-09-03T12:45:25Z</time>
      </trkpt>
      <trkpt lat="45.27688" lon="2.98868">
        <ele>1097.48</ele>
        <time>2011-09-03T12:45:27Z</time>
      </trkpt>
      <trkpt lat="45.27728" lon="2.98925">
        <ele>1101.33</ele>
        <time>2011-09-03T12:45:32Z</time>
      </trkpt>
      <trkpt lat="45.27743" lon="2.98951">
        <ele>1102.29</ele>
        <time>2011-09-03T12:45:34Z</time>
      </trkpt>
      <trkpt lat="45.27775" lon="2.99014">
        <ele>1106.61</ele>
        <time>2011-09-03T12:45:39Z</time>
      </trkpt>
      <trkpt lat="45.27821" lon="2.99035">
        <ele>1110.46</ele>
        <time>2011-09-03T12:45:45Z</time>
      </trkpt>
      <trkpt lat="45.2785" lon="2.9903">
        <ele>1112.86</ele>
        <time>2011-09-03T12:45:48Z</time>
      </trkpt>
      <trkpt lat="45.27864" lon="2.99032">
        <ele>1113.34</ele>
        <time>2011-09-03T12:45:50Z</time>
      </trkpt>
      <trkpt lat="45.27878" lon="2.99053">
        <ele>1116.71</ele>
        <time>2011-09-03T12:45:54Z</time>
      </trkpt>
      <trkpt lat="45.27874" lon="2.991">
        <ele>1121.03</ele>
        <time>2011-09-03T12:45:58Z</time>
      </trkpt>
      <trkpt lat="45.27874" lon="2.99114">
        <ele>1122</ele>
        <time>2011-09-03T12:45:59Z</time>
      </trkpt>
      <trkpt lat="45.27879" lon="2.99185">
        <ele>1126.8</ele>
        <time>2011-09-03T12:46:04Z</time>
      </trkpt>
      <trkpt lat="45.27879" lon="2.99198">
        <ele>1126.8</ele>
        <time>2011-09-03T12:46:05Z</time>
      </trkpt>
      <trkpt lat="45.27887" lon="2.99248">
        <ele>1131.13</ele>
        <time>2011-09-03T12:46:09Z</time>
      </trkpt>
      <trkpt lat="45.2789" lon="2.99259">
        <ele>1131.13</ele>
        <time>2011-09-03T12:46:10Z</time>
      </trkpt>
      <trkpt lat="45.27893" lon="2.99271">
        <ele>1133.53</ele>
        <time>2011-09-03T12:46:11Z</time>
      </trkpt>
      <trkpt lat="45.27897" lon="2.99312">
        <ele>1136.9</ele>
        <time>2011-09-03T12:46:14Z</time>
      </trkpt>
      <trkpt lat="45.27899" lon="2.99326">
        <ele>1138.82</ele>
        <time>2011-09-03T12:46:15Z</time>
      </trkpt>
      <trkpt lat="45.27893" lon="2.99389">
        <ele>1139.78</ele>
        <time>2011-09-03T12:46:19Z</time>
      </trkpt>
      <trkpt lat="45.27888" lon="2.99435">
        <ele>1141.22</ele>
        <time>2011-09-03T12:46:22Z</time>
      </trkpt>
      <trkpt lat="45.27889" lon="2.99492">
        <ele>1146.51</ele>
        <time>2011-09-03T12:46:26Z</time>
      </trkpt>
      <trkpt lat="45.27886" lon="2.99539">
        <ele>1151.32</ele>
        <time>2011-09-03T12:46:29Z</time>
      </trkpt>
      <trkpt lat="45.27877" lon="2.99597">
        <ele>1154.2</ele>
        <time>2011-09-03T12:46:33Z</time>
      </trkpt>
      <trkpt lat="45.27877" lon="2.99629">
        <ele>1155.16</ele>
        <time>2011-09-03T12:46:35Z</time>
      </trkpt>
      <trkpt lat="45.27879" lon="2.99645">
        <ele>1157.08</ele>
        <time>2011-09-03T12:46:36Z</time>
      </trkpt>
      <trkpt lat="45.27888" lon="2.99739">
        <ele>1161.41</ele>
        <time>2011-09-03T12:46:42Z</time>
      </trkpt>
      <trkpt lat="45.27889" lon="2.99751">
        <ele>1159.97</ele>
        <time>2011-09-03T12:46:43Z</time>
      </trkpt>
      <trkpt lat="45.27918" lon="2.99804">
        <ele>1160.93</ele>
        <time>2011-09-03T12:46:50Z</time>
      </trkpt>
      <trkpt lat="45.27956" lon="2.99821">
        <ele>1162.85</ele>
        <time>2011-09-03T12:46:54Z</time>
      </trkpt>
      <trkpt lat="45.27988" lon="2.99838">
        <ele>1165.74</ele>
        <time>2011-09-03T12:46:57Z</time>
      </trkpt>
      <trkpt lat="45.28033" lon="2.9987">
        <ele>1169.58</ele>
        <time>2011-09-03T12:47:01Z</time>
      </trkpt>
      <trkpt lat="45.28083" lon="2.99899">
        <ele>1174.39</ele>
        <time>2011-09-03T12:47:05Z</time>
      </trkpt>
      <trkpt lat="45.28097" lon="2.99904">
        <ele>1174.39</ele>
        <time>2011-09-03T12:47:06Z</time>
      </trkpt>
      <trkpt lat="45.28131" lon="2.99917">
        <ele>1177.27</ele>
        <time>2011-09-03T12:47:09Z</time>
      </trkpt>
      <trkpt lat="45.2817" lon="2.99909">
        <ele>1181.12</ele>
        <time>2011-09-03T12:47:13Z</time>
      </trkpt>
      <trkpt lat="45.2819" lon="2.99898">
        <ele>1182.08</ele>
        <time>2011-09-03T12:47:15Z</time>
      </trkpt>
      <trkpt lat="45.28222" lon="2.99888">
        <ele>1183.04</ele>
        <time>2011-09-03T12:47:18Z</time>
      </trkpt>
      <trkpt lat="45.28257" lon="2.99893">
        <ele>1184.96</ele>
        <time>2011-09-03T12:47:21Z</time>
      </trkpt>
      <trkpt lat="45.28281" lon="2.99908">
        <ele>1186.88</ele>
        <time>2011-09-03T12:47:23Z</time>
      </trkpt>
      <trkpt lat="45.28314" lon="2.99942">
        <ele>1193.61</ele>
        <time>2011-09-03T12:47:26Z</time>
      </trkpt>
      <trkpt lat="45.28347" lon="2.99977">
        <ele>1197.46</ele>
        <time>2011-09-03T12:47:29Z</time>
      </trkpt>
      <trkpt lat="45.28358" lon="2.99988">
        <ele>1197.94</ele>
        <time>2011-09-03T12:47:30Z</time>
      </trkpt>
      <trkpt lat="45.28367" lon="2.99998">
        <ele>1197.46</ele>
        <time>2011-09-03T12:47:31Z</time>
      </trkpt>
      <trkpt lat="45.28389" lon="3.0005">
        <ele>1200.82</ele>
        <time>2011-09-03T12:47:35Z</time>
      </trkpt>
      <trkpt lat="45.28391" lon="3.00084">
        <ele>1203.23</ele>
        <time>2011-09-03T12:47:37Z</time>
      </trkpt>
      <trkpt lat="45.28378" lon="3.00213">
        <ele>1206.59</ele>
        <time>2011-09-03T12:47:44Z</time>
      </trkpt>
      <trkpt lat="45.28371" lon="3.0027">
        <ele>1209.96</ele>
        <time>2011-09-03T12:47:47Z</time>
      </trkpt>
      <trkpt lat="45.28368" lon="3.00289">
        <ele>1210.92</ele>
        <time>2011-09-03T12:47:48Z</time>
      </trkpt>
      <trkpt lat="45.28352" lon="3.00344">
        <ele>1214.28</ele>
        <time>2011-09-03T12:47:51Z</time>
      </trkpt>
      <trkpt lat="45.28338" lon="3.00381">
        <ele>1217.65</ele>
        <time>2011-09-03T12:47:53Z</time>
      </trkpt>
      <trkpt lat="45.28323" lon="3.00418">
        <ele>1221.01</ele>
        <time>2011-09-03T12:47:55Z</time>
      </trkpt>
      <trkpt lat="45.2831" lon="3.00453">
        <ele>1223.42</ele>
        <time>2011-09-03T12:47:57Z</time>
      </trkpt>
      <trkpt lat="45.28293" lon="3.0051">
        <ele>1226.78</ele>
        <time>2011-09-03T12:48:00Z</time>
      </trkpt>
      <trkpt lat="45.28285" lon="3.0055">
        <ele>1228.22</ele>
        <time>2011-09-03T12:48:02Z</time>
      </trkpt>
      <trkpt lat="45.28277" lon="3.00612">
        <ele>1231.59</ele>
        <time>2011-09-03T12:48:05Z</time>
      </trkpt>
      <trkpt lat="45.28276" lon="3.00634">
        <ele>1231.59</ele>
        <time>2011-09-03T12:48:06Z</time>
      </trkpt>
      <trkpt lat="45.2827" lon="3.00788">
        <ele>1233.99</ele>
        <time>2011-09-03T12:48:14Z</time>
      </trkpt>
      <trkpt lat="45.28282" lon="3.00881">
        <ele>1237.35</ele>
        <time>2011-09-03T12:48:19Z</time>
      </trkpt>
      <trkpt lat="45.28288" lon="3.00914">
        <ele>1236.39</ele>
        <time>2011-09-03T12:48:21Z</time>
      </trkpt>
      <trkpt lat="45.28311" lon="3.00972">
        <ele>1239.76</ele>
        <time>2011-09-03T12:48:25Z</time>
      </trkpt>
      <trkpt lat="45.28329" lon="3.00998">
        <ele>1240.72</ele>
        <time>2011-09-03T12:48:27Z</time>
      </trkpt>
      <trkpt lat="45.28357" lon="3.01032">
        <ele>1244.56</ele>
        <time>2011-09-03T12:48:30Z</time>
      </trkpt>
      <trkpt lat="45.28384" lon="3.01061">
        <ele>1247.93</ele>
        <time>2011-09-03T12:48:33Z</time>
      </trkpt>
      <trkpt lat="45.28393" lon="3.01072">
        <ele>1249.85</ele>
        <time>2011-09-03T12:48:34Z</time>
      </trkpt>
      <trkpt lat="45.2842" lon="3.01113">
        <ele>1255.14</ele>
        <time>2011-09-03T12:48:37Z</time>
      </trkpt>
      <trkpt lat="45.28448" lon="3.01168">
        <ele>1259.46</ele>
        <time>2011-09-03T12:48:41Z</time>
      </trkpt>
      <trkpt lat="45.28476" lon="3.01223">
        <ele>1263.31</ele>
        <time>2011-09-03T12:48:45Z</time>
      </trkpt>
      <trkpt lat="45.2849" lon="3.01251">
        <ele>1266.19</ele>
        <time>2011-09-03T12:48:47Z</time>
      </trkpt>
      <trkpt lat="45.2853" lon="3.01322">
        <ele>1268.6</ele>
        <time>2011-09-03T12:48:54Z</time>
      </trkpt>
      <trkpt lat="45.28541" lon="3.01371">
        <ele>1270.52</ele>
        <time>2011-09-03T12:48:59Z</time>
      </trkpt>
      <trkpt lat="45.28533" lon="3.01457">
        <ele>1274.85</ele>
        <time>2011-09-03T12:49:04Z</time>
      </trkpt>
      <trkpt lat="45.28512" lon="3.01726">
        <ele>1275.81</ele>
        <time>2011-09-03T12:49:16Z</time>
      </trkpt>
      <trkpt lat="45.28504" lon="3.01812">
        <ele>1276.29</ele>
        <time>2011-09-03T12:49:19Z</time>
      </trkpt>
      <trkpt lat="45.28463" lon="3.01961">
        <ele>1274.36</ele>
        <time>2011-09-03T12:49:25Z</time>
      </trkpt>
      <trkpt lat="45.28458" lon="3.0198">
        <ele>1271.96</ele>
        <time>2011-09-03T12:49:26Z</time>
      </trkpt>
      <trkpt lat="45.28448" lon="3.02156">
        <ele>1272.92</ele>
        <time>2011-09-03T12:49:35Z</time>
      </trkpt>
      <trkpt lat="45.28449" lon="3.02196">
        <ele>1273.88</ele>
        <time>2011-09-03T12:49:37Z</time>
      </trkpt>
      <trkpt lat="45.28454" lon="3.02282">
        <ele>1269.56</ele>
        <time>2011-09-03T12:49:41Z</time>
      </trkpt>
      <trkpt lat="45.28456" lon="3.02324">
        <ele>1266.19</ele>
        <time>2011-09-03T12:49:43Z</time>
      </trkpt>
      <trkpt lat="45.28457" lon="3.02344">
        <ele>1266.19</ele>
        <time>2011-09-03T12:49:44Z</time>
      </trkpt>
      <trkpt lat="45.28458" lon="3.02402">
        <ele>1261.87</ele>
        <time>2011-09-03T12:49:47Z</time>
      </trkpt>
      <trkpt lat="45.28459" lon="3.0242">
        <ele>1257.06</ele>
        <time>2011-09-03T12:49:48Z</time>
      </trkpt>
      <trkpt lat="45.28466" lon="3.02477">
        <ele>1253.22</ele>
        <time>2011-09-03T12:49:51Z</time>
      </trkpt>
      <trkpt lat="45.28472" lon="3.02517">
        <ele>1249.37</ele>
        <time>2011-09-03T12:49:53Z</time>
      </trkpt>
      <trkpt lat="45.28478" lon="3.02558">
        <ele>1246.01</ele>
        <time>2011-09-03T12:49:55Z</time>
      </trkpt>
      <trkpt lat="45.28484" lon="3.02601">
        <ele>1241.2</ele>
        <time>2011-09-03T12:49:57Z</time>
      </trkpt>
      <trkpt lat="45.28492" lon="3.02645">
        <ele>1236.87</ele>
        <time>2011-09-03T12:49:59Z</time>
      </trkpt>
      <trkpt lat="45.28499" lon="3.02689">
        <ele>1233.51</ele>
        <time>2011-09-03T12:50:01Z</time>
      </trkpt>
      <trkpt lat="45.28507" lon="3.02732">
        <ele>1229.66</ele>
        <time>2011-09-03T12:50:03Z</time>
      </trkpt>
      <trkpt lat="45.2851" lon="3.02754">
        <ele>1226.3</ele>
        <time>2011-09-03T12:50:04Z</time>
      </trkpt>
      <trkpt lat="45.28518" lon="3.02797">
        <ele>1222.93</ele>
        <time>2011-09-03T12:50:06Z</time>
      </trkpt>
      <trkpt lat="45.28526" lon="3.02842">
        <ele>1219.09</ele>
        <time>2011-09-03T12:50:08Z</time>
      </trkpt>
      <trkpt lat="45.28535" lon="3.02885">
        <ele>1214.76</ele>
        <time>2011-09-03T12:50:10Z</time>
      </trkpt>
      <trkpt lat="45.28542" lon="3.02928">
        <ele>1210.92</ele>
        <time>2011-09-03T12:50:12Z</time>
      </trkpt>
      <trkpt lat="45.28546" lon="3.02949">
        <ele>1210.92</ele>
        <time>2011-09-03T12:50:13Z</time>
      </trkpt>
      <trkpt lat="45.28556" lon="3.03013">
        <ele>1209</ele>
        <time>2011-09-03T12:50:16Z</time>
      </trkpt>
      <trkpt lat="45.28559" lon="3.03055">
        <ele>1207.07</ele>
        <time>2011-09-03T12:50:18Z</time>
      </trkpt>
      <trkpt lat="45.28567" lon="3.03184">
        <ele>1203.23</ele>
        <time>2011-09-03T12:50:25Z</time>
      </trkpt>
      <trkpt lat="45.28577" lon="3.03351">
        <ele>1200.34</ele>
        <time>2011-09-03T12:50:35Z</time>
      </trkpt>
      <trkpt lat="45.28581" lon="3.03433">
        <ele>1196.98</ele>
        <time>2011-09-03T12:50:40Z</time>
      </trkpt>
      <trkpt lat="45.28589" lon="3.03636">
        <ele>1195.06</ele>
        <time>2011-09-03T12:50:52Z</time>
      </trkpt>
      <trkpt lat="45.28589" lon="3.0369">
        <ele>1193.61</ele>
        <time>2011-09-03T12:50:55Z</time>
      </trkpt>
      <trkpt lat="45.28586" lon="3.03776">
        <ele>1190.25</ele>
        <time>2011-09-03T12:51:00Z</time>
      </trkpt>
      <trkpt lat="45.28585" lon="3.0381">
        <ele>1189.29</ele>
        <time>2011-09-03T12:51:02Z</time>
      </trkpt>
      <trkpt lat="45.28581" lon="3.03919">
        <ele>1186.4</ele>
        <time>2011-09-03T12:51:08Z</time>
      </trkpt>
      <trkpt lat="45.28573" lon="3.04078">
        <ele>1187.37</ele>
        <time>2011-09-03T12:51:17Z</time>
      </trkpt>
      <trkpt lat="45.28565" lon="3.04253">
        <ele>1186.88</ele>
        <time>2011-09-03T12:51:27Z</time>
      </trkpt>
      <trkpt lat="45.28561" lon="3.04329">
        <ele>1184.48</ele>
        <time>2011-09-03T12:51:31Z</time>
      </trkpt>
      <trkpt lat="45.28546" lon="3.04537">
        <ele>1181.6</ele>
        <time>2011-09-03T12:51:40Z</time>
      </trkpt>
      <trkpt lat="45.28496" lon="3.04834">
        <ele>1180.64</ele>
        <time>2011-09-03T12:51:53Z</time>
      </trkpt>
      <trkpt lat="45.28489" lon="3.04875">
        <ele>1175.83</ele>
        <time>2011-09-03T12:51:56Z</time>
      </trkpt>
      <trkpt lat="45.28485" lon="3.04884">
        <ele>1174.39</ele>
        <time>2011-09-03T12:51:59Z</time>
      </trkpt>
      <trkpt lat="45.28484" lon="3.04888">
        <ele>1175.35</ele>
        <time>2011-09-03T12:52:19Z</time>
      </trkpt>
      <trkpt lat="45.28484" lon="3.04888">
        <ele>1173.43</ele>
        <time>2011-09-03T12:53:32Z</time>
      </trkpt>
      <trkpt lat="45.28484" lon="3.04896">
        <ele>1174.87</ele>
        <time>2011-09-03T12:54:24Z</time>
      </trkpt>
      <trkpt lat="45.285" lon="3.04929">
        <ele>1174.87</ele>
        <time>2011-09-03T12:54:31Z</time>
      </trkpt>
      <trkpt lat="45.28543" lon="3.04963">
        <ele>1174.39</ele>
        <time>2011-09-03T12:54:38Z</time>
      </trkpt>
      <trkpt lat="45.2857" lon="3.05002">
        <ele>1174.87</ele>
        <time>2011-09-03T12:54:42Z</time>
      </trkpt>
      <trkpt lat="45.28591" lon="3.05066">
        <ele>1173.43</ele>
        <time>2011-09-03T12:54:49Z</time>
      </trkpt>
      <trkpt lat="45.28607" lon="3.05098">
        <ele>1174.39</ele>
        <time>2011-09-03T12:54:53Z</time>
      </trkpt>
      <trkpt lat="45.2864" lon="3.05125">
        <ele>1172.47</ele>
        <time>2011-09-03T12:54:58Z</time>
      </trkpt>
      <trkpt lat="45.28649" lon="3.05131">
        <ele>1170.54</ele>
        <time>2011-09-03T12:55:03Z</time>
      </trkpt>
      <trkpt lat="45.28651" lon="3.05133">
        <ele>1171.02</ele>
        <time>2011-09-03T12:55:10Z</time>
      </trkpt>
      <trkpt lat="45.28691" lon="3.05191">
        <ele>1174.87</ele>
        <time>2011-09-03T12:55:18Z</time>
      </trkpt>
      <trkpt lat="45.28704" lon="3.05248">
        <ele>1177.27</ele>
        <time>2011-09-03T12:55:24Z</time>
      </trkpt>
      <trkpt lat="45.28702" lon="3.05256">
        <ele>1176.79</ele>
        <time>2011-09-03T12:55:25Z</time>
      </trkpt>
      <trkpt lat="45.28697" lon="3.05274">
        <ele>1178.71</ele>
        <time>2011-09-03T12:55:27Z</time>
      </trkpt>
      <trkpt lat="45.28696" lon="3.05314">
        <ele>1178.23</ele>
        <time>2011-09-03T12:55:31Z</time>
      </trkpt>
      <trkpt lat="45.28701" lon="3.05345">
        <ele>1176.79</ele>
        <time>2011-09-03T12:55:34Z</time>
      </trkpt>
      <trkpt lat="45.28694" lon="3.05381">
        <ele>1178.23</ele>
        <time>2011-09-03T12:55:38Z</time>
      </trkpt>
      <trkpt lat="45.28657" lon="3.05464">
        <ele>1177.75</ele>
        <time>2011-09-03T12:55:48Z</time>
      </trkpt>
      <trkpt lat="45.28653" lon="3.05474">
        <ele>1176.31</ele>
        <time>2011-09-03T12:55:49Z</time>
      </trkpt>
      <trkpt lat="45.28649" lon="3.05515">
        <ele>1175.83</ele>
        <time>2011-09-03T12:55:53Z</time>
      </trkpt>
      <trkpt lat="45.28651" lon="3.05525">
        <ele>1174.87</ele>
        <time>2011-09-03T12:55:54Z</time>
      </trkpt>
      <trkpt lat="45.28669" lon="3.05587">
        <ele>1170.06</ele>
        <time>2011-09-03T12:55:59Z</time>
      </trkpt>
      <trkpt lat="45.28677" lon="3.0561">
        <ele>1166.22</ele>
        <time>2011-09-03T12:56:01Z</time>
      </trkpt>
      <trkpt lat="45.28681" lon="3.05621">
        <ele>1165.26</ele>
        <time>2011-09-03T12:56:02Z</time>
      </trkpt>
      <trkpt lat="45.28679" lon="3.05651">
        <ele>1163.81</ele>
        <time>2011-09-03T12:56:05Z</time>
      </trkpt>
      <trkpt lat="45.28673" lon="3.05657">
        <ele>1162.85</ele>
        <time>2011-09-03T12:56:06Z</time>
      </trkpt>
      <trkpt lat="45.28655" lon="3.05683">
        <ele>1160.45</ele>
        <time>2011-09-03T12:56:12Z</time>
      </trkpt>
      <trkpt lat="45.28655" lon="3.05687">
        <ele>1160.93</ele>
        <time>2011-09-03T12:56:31Z</time>
      </trkpt>
      <trkpt lat="45.28655" lon="3.05687">
        <ele>1159.49</ele>
        <time>2011-09-03T12:56:34Z</time>
      </trkpt>
      <trkpt lat="45.28655" lon="3.05687">
        <ele>1160.45</ele>
        <time>2011-09-03T12:56:45Z</time>
      </trkpt>
      <trkpt lat="45.28655" lon="3.05687">
        <ele>1159.01</ele>
        <time>2011-09-03T12:56:48Z</time>
      </trkpt>
      <trkpt lat="45.28653" lon="3.0569">
        <ele>1159.97</ele>
        <time>2011-09-03T12:57:59Z</time>
      </trkpt>
      <trkpt lat="45.28653" lon="3.0569">
        <ele>1159.49</ele>
        <time>2011-09-03T12:58:51Z</time>
      </trkpt>
      <trkpt lat="45.28652" lon="3.0569">
        <ele>1159.49</ele>
        <time>2011-09-03T12:58:59Z</time>
      </trkpt>
      <trkpt lat="45.28658" lon="3.05697">
        <ele>1160.45</ele>
        <time>2011-09-03T12:59:06Z</time>
      </trkpt>
      <trkpt lat="45.28698" lon="3.05649">
        <ele>1159.49</ele>
        <time>2011-09-03T12:59:14Z</time>
      </trkpt>
      <trkpt lat="45.28729" lon="3.05622">
        <ele>1157.56</ele>
        <time>2011-09-03T12:59:18Z</time>
      </trkpt>
      <trkpt lat="45.28751" lon="3.05581">
        <ele>1152.76</ele>
        <time>2011-09-03T12:59:22Z</time>
      </trkpt>
      <trkpt lat="45.28757" lon="3.05556">
        <ele>1151.32</ele>
        <time>2011-09-03T12:59:24Z</time>
      </trkpt>
      <trkpt lat="45.2876" lon="3.0553">
        <ele>1149.39</ele>
        <time>2011-09-03T12:59:26Z</time>
      </trkpt>
      <trkpt lat="45.2877" lon="3.05495">
        <ele>1146.51</ele>
        <time>2011-09-03T12:59:29Z</time>
      </trkpt>
      <trkpt lat="45.28778" lon="3.05478">
        <ele>1145.07</ele>
        <time>2011-09-03T12:59:31Z</time>
      </trkpt>
      <trkpt lat="45.28791" lon="3.05461">
        <ele>1141.7</ele>
        <time>2011-09-03T12:59:34Z</time>
      </trkpt>
      <trkpt lat="45.28793" lon="3.05459">
        <ele>1141.22</ele>
        <time>2011-09-03T12:59:35Z</time>
      </trkpt>
      <trkpt lat="45.28795" lon="3.05454">
        <ele>1140.26</ele>
        <time>2011-09-03T12:59:45Z</time>
      </trkpt>
      <trkpt lat="45.28795" lon="3.05454">
        <ele>1140.26</ele>
        <time>2011-09-03T12:59:52Z</time>
      </trkpt>
      <trkpt lat="45.28795" lon="3.05454">
        <ele>1140.26</ele>
        <time>2011-09-03T12:59:58Z</time>
      </trkpt>
      <trkpt lat="45.28795" lon="3.05434">
        <ele>1140.26</ele>
        <time>2011-09-03T13:00:03Z</time>
      </trkpt>
      <trkpt lat="45.28796" lon="3.05412">
        <ele>1141.22</ele>
        <time>2011-09-03T13:00:07Z</time>
      </trkpt>
      <trkpt lat="45.28829" lon="3.05331">
        <ele>1139.3</ele>
        <time>2011-09-03T13:00:16Z</time>
      </trkpt>
      <trkpt lat="45.28853" lon="3.05232">
        <ele>1134.49</ele>
        <time>2011-09-03T13:00:25Z</time>
      </trkpt>
      <trkpt lat="45.2886" lon="3.05201">
        <ele>1132.57</ele>
        <time>2011-09-03T13:00:28Z</time>
      </trkpt>
      <trkpt lat="45.28879" lon="3.05185">
        <ele>1129.69</ele>
        <time>2011-09-03T13:00:32Z</time>
      </trkpt>
      <trkpt lat="45.289" lon="3.05206">
        <ele>1126.8</ele>
        <time>2011-09-03T13:00:35Z</time>
      </trkpt>
      <trkpt lat="45.28927" lon="3.05249">
        <ele>1122.96</ele>
        <time>2011-09-03T13:00:39Z</time>
      </trkpt>
      <trkpt lat="45.28943" lon="3.05264">
        <ele>1121.03</ele>
        <time>2011-09-03T13:00:42Z</time>
      </trkpt>
      <trkpt lat="45.28963" lon="3.05248">
        <ele>1119.11</ele>
        <time>2011-09-03T13:00:46Z</time>
      </trkpt>
      <trkpt lat="45.28994" lon="3.05198">
        <ele>1116.71</ele>
        <time>2011-09-03T13:00:51Z</time>
      </trkpt>
      <trkpt lat="45.29013" lon="3.0518">
        <ele>1115.75</ele>
        <time>2011-09-03T13:00:53Z</time>
      </trkpt>
      <trkpt lat="45.29055" lon="3.05143">
        <ele>1111.42</ele>
        <time>2011-09-03T13:00:57Z</time>
      </trkpt>
      <trkpt lat="45.29075" lon="3.05127">
        <ele>1109.5</ele>
        <time>2011-09-03T13:00:59Z</time>
      </trkpt>
      <trkpt lat="45.29094" lon="3.05113">
        <ele>1107.1</ele>
        <time>2011-09-03T13:01:01Z</time>
      </trkpt>
      <trkpt lat="45.29163" lon="3.05001">
        <ele>1106.61</ele>
        <time>2011-09-03T13:01:10Z</time>
      </trkpt>
      <trkpt lat="45.29217" lon="3.04879">
        <ele>1104.69</ele>
        <time>2011-09-03T13:01:18Z</time>
      </trkpt>
      <trkpt lat="45.29241" lon="3.04862">
        <ele>1102.29</ele>
        <time>2011-09-03T13:01:22Z</time>
      </trkpt>
      <trkpt lat="45.29254" lon="3.04875">
        <ele>1104.69</ele>
        <time>2011-09-03T13:01:24Z</time>
      </trkpt>
      <trkpt lat="45.29279" lon="3.04905">
        <ele>1109.5</ele>
        <time>2011-09-03T13:01:27Z</time>
      </trkpt>
      <trkpt lat="45.29288" lon="3.04917">
        <ele>1108.54</ele>
        <time>2011-09-03T13:01:28Z</time>
      </trkpt>
      <trkpt lat="45.29305" lon="3.0494">
        <ele>1111.42</ele>
        <time>2011-09-03T13:01:30Z</time>
      </trkpt>
      <trkpt lat="45.29325" lon="3.04983">
        <ele>1114.31</ele>
        <time>2011-09-03T13:01:33Z</time>
      </trkpt>
      <trkpt lat="45.2933" lon="3.04999">
        <ele>1116.23</ele>
        <time>2011-09-03T13:01:34Z</time>
      </trkpt>
      <trkpt lat="45.29339" lon="3.05034">
        <ele>1118.63</ele>
        <time>2011-09-03T13:01:36Z</time>
      </trkpt>
      <trkpt lat="45.29345" lon="3.05084">
        <ele>1122.48</ele>
        <time>2011-09-03T13:01:39Z</time>
      </trkpt>
      <trkpt lat="45.29369" lon="3.05146">
        <ele>1125.84</ele>
        <time>2011-09-03T13:01:44Z</time>
      </trkpt>
      <trkpt lat="45.29385" lon="3.05172">
        <ele>1126.8</ele>
        <time>2011-09-03T13:01:46Z</time>
      </trkpt>
      <trkpt lat="45.29406" lon="3.05213">
        <ele>1129.69</ele>
        <time>2011-09-03T13:01:49Z</time>
      </trkpt>
      <trkpt lat="45.29433" lon="3.05275">
        <ele>1129.21</ele>
        <time>2011-09-03T13:01:53Z</time>
      </trkpt>
      <trkpt lat="45.29527" lon="3.05393">
        <ele>1128.24</ele>
        <time>2011-09-03T13:02:02Z</time>
      </trkpt>
      <trkpt lat="45.29604" lon="3.05509">
        <ele>1123.44</ele>
        <time>2011-09-03T13:02:10Z</time>
      </trkpt>
      <trkpt lat="45.29612" lon="3.05525">
        <ele>1124.4</ele>
        <time>2011-09-03T13:02:11Z</time>
      </trkpt>
      <trkpt lat="45.29654" lon="3.0562">
        <ele>1120.55</ele>
        <time>2011-09-03T13:02:16Z</time>
      </trkpt>
      <trkpt lat="45.29662" lon="3.0564">
        <ele>1121.03</ele>
        <time>2011-09-03T13:02:17Z</time>
      </trkpt>
      <trkpt lat="45.29686" lon="3.05693">
        <ele>1117.19</ele>
        <time>2011-09-03T13:02:20Z</time>
      </trkpt>
      <trkpt lat="45.29702" lon="3.05728">
        <ele>1116.23</ele>
        <time>2011-09-03T13:02:22Z</time>
      </trkpt>
      <trkpt lat="45.29744" lon="3.05828">
        <ele>1111.9</ele>
        <time>2011-09-03T13:02:27Z</time>
      </trkpt>
      <trkpt lat="45.29759" lon="3.05867">
        <ele>1106.61</ele>
        <time>2011-09-03T13:02:29Z</time>
      </trkpt>
      <trkpt lat="45.29766" lon="3.05886">
        <ele>1107.1</ele>
        <time>2011-09-03T13:02:30Z</time>
      </trkpt>
      <trkpt lat="45.29784" lon="3.05966">
        <ele>1101.81</ele>
        <time>2011-09-03T13:02:34Z</time>
      </trkpt>
      <trkpt lat="45.29791" lon="3.06052">
        <ele>1099.4</ele>
        <time>2011-09-03T13:02:38Z</time>
      </trkpt>
      <trkpt lat="45.29797" lon="3.06118">
        <ele>1096.04</ele>
        <time>2011-09-03T13:02:41Z</time>
      </trkpt>
      <trkpt lat="45.29801" lon="3.06164">
        <ele>1091.71</ele>
        <time>2011-09-03T13:02:43Z</time>
      </trkpt>
      <trkpt lat="45.29805" lon="3.06236">
        <ele>1088.35</ele>
        <time>2011-09-03T13:02:46Z</time>
      </trkpt>
      <trkpt lat="45.29806" lon="3.06259">
        <ele>1088.35</ele>
        <time>2011-09-03T13:02:47Z</time>
      </trkpt>
      <trkpt lat="45.29808" lon="3.06281">
        <ele>1086.43</ele>
        <time>2011-09-03T13:02:48Z</time>
      </trkpt>
      <trkpt lat="45.29841" lon="3.06432">
        <ele>1080.66</ele>
        <time>2011-09-03T13:02:55Z</time>
      </trkpt>
      <trkpt lat="45.2985" lon="3.06513">
        <ele>1076.81</ele>
        <time>2011-09-03T13:02:59Z</time>
      </trkpt>
      <trkpt lat="45.29852" lon="3.06545">
        <ele>1074.89</ele>
        <time>2011-09-03T13:03:01Z</time>
      </trkpt>
      <trkpt lat="45.29854" lon="3.06559">
        <ele>1073.93</ele>
        <time>2011-09-03T13:03:02Z</time>
      </trkpt>
      <trkpt lat="45.29877" lon="3.06622">
        <ele>1070.57</ele>
        <time>2011-09-03T13:03:07Z</time>
      </trkpt>
      <trkpt lat="45.29883" lon="3.06634">
        <ele>1069.6</ele>
        <time>2011-09-03T13:03:08Z</time>
      </trkpt>
      <trkpt lat="45.29909" lon="3.06673">
        <ele>1067.2</ele>
        <time>2011-09-03T13:03:12Z</time>
      </trkpt>
      <trkpt lat="45.29914" lon="3.06699">
        <ele>1066.72</ele>
        <time>2011-09-03T13:03:14Z</time>
      </trkpt>
      <trkpt lat="45.29921" lon="3.06787">
        <ele>1064.8</ele>
        <time>2011-09-03T13:03:19Z</time>
      </trkpt>
      <trkpt lat="45.29937" lon="3.06882">
        <ele>1061.43</ele>
        <time>2011-09-03T13:03:24Z</time>
      </trkpt>
      <trkpt lat="45.29944" lon="3.06918">
        <ele>1059.99</ele>
        <time>2011-09-03T13:03:26Z</time>
      </trkpt>
      <trkpt lat="45.2997" lon="3.07052">
        <ele>1055.67</ele>
        <time>2011-09-03T13:03:33Z</time>
      </trkpt>
      <trkpt lat="45.29974" lon="3.07072">
        <ele>1055.67</ele>
        <time>2011-09-03T13:03:34Z</time>
      </trkpt>
      <trkpt lat="45.29996" lon="3.07215">
        <ele>1052.78</ele>
        <time>2011-09-03T13:03:41Z</time>
      </trkpt>
      <trkpt lat="45.29998" lon="3.07235">
        <ele>1049.9</ele>
        <time>2011-09-03T13:03:42Z</time>
      </trkpt>
      <trkpt lat="45.29989" lon="3.07379">
        <ele>1047.97</ele>
        <time>2011-09-03T13:03:49Z</time>
      </trkpt>
      <trkpt lat="45.29982" lon="3.07424">
        <ele>1044.13</ele>
        <time>2011-09-03T13:03:52Z</time>
      </trkpt>
      <trkpt lat="45.29978" lon="3.07442">
        <ele>1041.25</ele>
        <time>2011-09-03T13:03:55Z</time>
      </trkpt>
      <trkpt lat="45.29976" lon="3.07444">
        <ele>1040.76</ele>
        <time>2011-09-03T13:03:56Z</time>
      </trkpt>
      <trkpt lat="45.29948" lon="3.07447">
        <ele>1042.21</ele>
        <time>2011-09-03T13:04:01Z</time>
      </trkpt>
      <trkpt lat="45.29862" lon="3.07425">
        <ele>1039.32</ele>
        <time>2011-09-03T13:04:10Z</time>
      </trkpt>
      <trkpt lat="45.29827" lon="3.07415">
        <ele>1035.96</ele>
        <time>2011-09-03T13:04:14Z</time>
      </trkpt>
      <trkpt lat="45.29818" lon="3.07413">
        <ele>1036.44</ele>
        <time>2011-09-03T13:04:15Z</time>
      </trkpt>
      <trkpt lat="45.29793" lon="3.07421">
        <ele>1033.07</ele>
        <time>2011-09-03T13:04:19Z</time>
      </trkpt>
      <trkpt lat="45.29787" lon="3.07437">
        <ele>1034.04</ele>
        <time>2011-09-03T13:04:21Z</time>
      </trkpt>
      <trkpt lat="45.29775" lon="3.07485">
        <ele>1035.96</ele>
        <time>2011-09-03T13:04:25Z</time>
      </trkpt>
      <trkpt lat="45.2976" lon="3.07574">
        <ele>1035</ele>
        <time>2011-09-03T13:04:32Z</time>
      </trkpt>
      <trkpt lat="45.29759" lon="3.0758">
        <ele>1034.52</ele>
        <time>2011-09-03T13:04:34Z</time>
      </trkpt>
      <trkpt lat="45.29757" lon="3.07585">
        <ele>1033.55</ele>
        <time>2011-09-03T13:04:38Z</time>
      </trkpt>
      <trkpt lat="45.29764" lon="3.07607">
        <ele>1034.04</ele>
        <time>2011-09-03T13:04:42Z</time>
      </trkpt>
      <trkpt lat="45.2978" lon="3.0765">
        <ele>1035</ele>
        <time>2011-09-03T13:04:46Z</time>
      </trkpt>
      <trkpt lat="45.29799" lon="3.07735">
        <ele>1031.15</ele>
        <time>2011-09-03T13:04:51Z</time>
      </trkpt>
      <trkpt lat="45.29811" lon="3.07788">
        <ele>1027.31</ele>
        <time>2011-09-03T13:04:54Z</time>
      </trkpt>
      <trkpt lat="45.29823" lon="3.07851">
        <ele>1022.98</ele>
        <time>2011-09-03T13:04:58Z</time>
      </trkpt>
      <trkpt lat="45.2983" lon="3.07881">
        <ele>1020.1</ele>
        <time>2011-09-03T13:05:00Z</time>
      </trkpt>
      <trkpt lat="45.29856" lon="3.0794">
        <ele>1015.29</ele>
        <time>2011-09-03T13:05:04Z</time>
      </trkpt>
      <trkpt lat="45.29869" lon="3.07965">
        <ele>1012.41</ele>
        <time>2011-09-03T13:05:06Z</time>
      </trkpt>
      <trkpt lat="45.2989" lon="3.07992">
        <ele>1008.08</ele>
        <time>2011-09-03T13:05:09Z</time>
      </trkpt>
      <trkpt lat="45.29899" lon="3.08015">
        <ele>1004.72</ele>
        <time>2011-09-03T13:05:12Z</time>
      </trkpt>
      <trkpt lat="45.2989" lon="3.0802">
        <ele>1004.23</ele>
        <time>2011-09-03T13:05:14Z</time>
      </trkpt>
      <trkpt lat="45.29872" lon="3.08022">
        <ele>1001.35</ele>
        <time>2011-09-03T13:05:17Z</time>
      </trkpt>
      <trkpt lat="45.29861" lon="3.08025">
        <ele>1000.39</ele>
        <time>2011-09-03T13:05:19Z</time>
      </trkpt>
      <trkpt lat="45.29849" lon="3.08031">
        <ele>999.91</ele>
        <time>2011-09-03T13:05:21Z</time>
      </trkpt>
      <trkpt lat="45.29832" lon="3.08045">
        <ele>996.54</ele>
        <time>2011-09-03T13:05:24Z</time>
      </trkpt>
      <trkpt lat="45.29824" lon="3.08055">
        <ele>994.62</ele>
        <time>2011-09-03T13:05:27Z</time>
      </trkpt>
      <trkpt lat="45.29829" lon="3.08061">
        <ele>992.7</ele>
        <time>2011-09-03T13:05:31Z</time>
      </trkpt>
      <trkpt lat="45.29848" lon="3.08058">
        <ele>991.26</ele>
        <time>2011-09-03T13:05:37Z</time>
      </trkpt>
      <trkpt lat="45.29866" lon="3.08065">
        <ele>988.85</ele>
        <time>2011-09-03T13:05:40Z</time>
      </trkpt>
      <trkpt lat="45.29888" lon="3.08073">
        <ele>986.45</ele>
        <time>2011-09-03T13:05:43Z</time>
      </trkpt>
      <trkpt lat="45.29916" lon="3.0807">
        <ele>983.09</ele>
        <time>2011-09-03T13:05:47Z</time>
      </trkpt>
      <trkpt lat="45.29922" lon="3.08067">
        <ele>982.12</ele>
        <time>2011-09-03T13:05:48Z</time>
      </trkpt>
      <trkpt lat="45.29941" lon="3.08045">
        <ele>979.24</ele>
        <time>2011-09-03T13:05:53Z</time>
      </trkpt>
      <trkpt lat="45.2995" lon="3.08019">
        <ele>977.32</ele>
        <time>2011-09-03T13:05:56Z</time>
      </trkpt>
      <trkpt lat="45.2996" lon="3.07987">
        <ele>974.43</ele>
        <time>2011-09-03T13:05:59Z</time>
      </trkpt>
      <trkpt lat="45.2997" lon="3.07958">
        <ele>970.59</ele>
        <time>2011-09-03T13:06:02Z</time>
      </trkpt>
      <trkpt lat="45.29976" lon="3.07937">
        <ele>968.67</ele>
        <time>2011-09-03T13:06:05Z</time>
      </trkpt>
      <trkpt lat="45.29978" lon="3.07921">
        <ele>966.74</ele>
        <time>2011-09-03T13:06:08Z</time>
      </trkpt>
      <trkpt lat="45.29984" lon="3.07925">
        <ele>964.82</ele>
        <time>2011-09-03T13:06:14Z</time>
      </trkpt>
      <trkpt lat="45.29985" lon="3.07949">
        <ele>963.38</ele>
        <time>2011-09-03T13:06:17Z</time>
      </trkpt>
      <trkpt lat="45.29987" lon="3.07969">
        <ele>961.46</ele>
        <time>2011-09-03T13:06:19Z</time>
      </trkpt>
      <trkpt lat="45.30001" lon="3.0802">
        <ele>957.13</ele>
        <time>2011-09-03T13:06:24Z</time>
      </trkpt>
      <trkpt lat="45.30006" lon="3.08062">
        <ele>953.77</ele>
        <time>2011-09-03T13:06:28Z</time>
      </trkpt>
      <trkpt lat="45.30007" lon="3.08082">
        <ele>951.84</ele>
        <time>2011-09-03T13:06:30Z</time>
      </trkpt>
      <trkpt lat="45.30011" lon="3.08113">
        <ele>950.4</ele>
        <time>2011-09-03T13:06:33Z</time>
      </trkpt>
      <trkpt lat="45.30015" lon="3.08142">
        <ele>946.56</ele>
        <time>2011-09-03T13:06:36Z</time>
      </trkpt>
      <trkpt lat="45.30017" lon="3.08162">
        <ele>946.07</ele>
        <time>2011-09-03T13:06:38Z</time>
      </trkpt>
      <trkpt lat="45.30022" lon="3.08196">
        <ele>941.27</ele>
        <time>2011-09-03T13:06:42Z</time>
      </trkpt>
      <trkpt lat="45.30023" lon="3.08203">
        <ele>941.27</ele>
        <time>2011-09-03T13:06:43Z</time>
      </trkpt>
      <trkpt lat="45.30024" lon="3.0821">
        <ele>940.79</ele>
        <time>2011-09-03T13:06:44Z</time>
      </trkpt>
      <trkpt lat="45.30028" lon="3.08222">
        <ele>939.83</ele>
        <time>2011-09-03T13:06:46Z</time>
      </trkpt>
      <trkpt lat="45.30034" lon="3.08233">
        <ele>937.9</ele>
        <time>2011-09-03T13:06:48Z</time>
      </trkpt>
      <trkpt lat="45.3005" lon="3.08257">
        <ele>935.02</ele>
        <time>2011-09-03T13:06:53Z</time>
      </trkpt>
      <trkpt lat="45.30073" lon="3.0829">
        <ele>931.17</ele>
        <time>2011-09-03T13:07:00Z</time>
      </trkpt>
      <trkpt lat="45.30094" lon="3.08317">
        <ele>926.85</ele>
        <time>2011-09-03T13:07:06Z</time>
      </trkpt>
      <trkpt lat="45.3011" lon="3.08349">
        <ele>924.93</ele>
        <time>2011-09-03T13:07:11Z</time>
      </trkpt>
      <trkpt lat="45.30112" lon="3.08355">
        <ele>924.45</ele>
        <time>2011-09-03T13:07:12Z</time>
      </trkpt>
      <trkpt lat="45.30114" lon="3.08378">
        <ele>921.56</ele>
        <time>2011-09-03T13:07:15Z</time>
      </trkpt>
      <trkpt lat="45.3011" lon="3.08402">
        <ele>920.12</ele>
        <time>2011-09-03T13:07:18Z</time>
      </trkpt>
      <trkpt lat="45.30107" lon="3.08408">
        <ele>919.16</ele>
        <time>2011-09-03T13:07:19Z</time>
      </trkpt>
      <trkpt lat="45.30089" lon="3.08435">
        <ele>915.79</ele>
        <time>2011-09-03T13:07:25Z</time>
      </trkpt>
      <trkpt lat="45.30074" lon="3.08455">
        <ele>911.95</ele>
        <time>2011-09-03T13:07:30Z</time>
      </trkpt>
      <trkpt lat="45.30071" lon="3.08458">
        <ele>912.43</ele>
        <time>2011-09-03T13:07:31Z</time>
      </trkpt>
      <trkpt lat="45.30065" lon="3.08466">
        <ele>910.99</ele>
        <time>2011-09-03T13:07:33Z</time>
      </trkpt>
      <trkpt lat="45.30059" lon="3.08475">
        <ele>910.51</ele>
        <time>2011-09-03T13:07:35Z</time>
      </trkpt>
      <trkpt lat="45.30041" lon="3.08491">
        <ele>906.66</ele>
        <time>2011-09-03T13:07:40Z</time>
      </trkpt>
      <trkpt lat="45.30037" lon="3.08494">
        <ele>907.14</ele>
        <time>2011-09-03T13:07:41Z</time>
      </trkpt>
      <trkpt lat="45.30029" lon="3.08509">
        <ele>904.74</ele>
        <time>2011-09-03T13:07:44Z</time>
      </trkpt>
      <trkpt lat="45.30018" lon="3.08527">
        <ele>901.85</ele>
        <time>2011-09-03T13:07:48Z</time>
      </trkpt>
      <trkpt lat="45.30015" lon="3.08531">
        <ele>902.33</ele>
        <time>2011-09-03T13:07:49Z</time>
      </trkpt>
      <trkpt lat="45.30008" lon="3.08544">
        <ele>900.41</ele>
        <time>2011-09-03T13:07:52Z</time>
      </trkpt>
      <trkpt lat="45.30002" lon="3.08552">
        <ele>899.93</ele>
        <time>2011-09-03T13:07:54Z</time>
      </trkpt>
      <trkpt lat="45.29998" lon="3.08556">
        <ele>898.49</ele>
        <time>2011-09-03T13:07:55Z</time>
      </trkpt>
      <trkpt lat="45.29973" lon="3.08553">
        <ele>896.09</ele>
        <time>2011-09-03T13:08:02Z</time>
      </trkpt>
      <trkpt lat="45.29967" lon="3.08539">
        <ele>894.16</ele>
        <time>2011-09-03T13:08:06Z</time>
      </trkpt>
      <trkpt lat="45.29959" lon="3.08552">
        <ele>893.2</ele>
        <time>2011-09-03T13:08:13Z</time>
      </trkpt>
      <trkpt lat="45.29964" lon="3.08561">
        <ele>892.24</ele>
        <time>2011-09-03T13:08:15Z</time>
      </trkpt>
      <trkpt lat="45.29979" lon="3.08604">
        <ele>888.4</ele>
        <time>2011-09-03T13:08:21Z</time>
      </trkpt>
      <trkpt lat="45.29991" lon="3.08635">
        <ele>885.51</ele>
        <time>2011-09-03T13:08:25Z</time>
      </trkpt>
      <trkpt lat="45.30005" lon="3.08672">
        <ele>882.15</ele>
        <time>2011-09-03T13:08:31Z</time>
      </trkpt>
      <trkpt lat="45.30009" lon="3.08681">
        <ele>881.67</ele>
        <time>2011-09-03T13:08:33Z</time>
      </trkpt>
      <trkpt lat="45.30012" lon="3.08686">
        <ele>880.22</ele>
        <time>2011-09-03T13:08:35Z</time>
      </trkpt>
      <trkpt lat="45.30014" lon="3.08688">
        <ele>879.26</ele>
        <time>2011-09-03T13:08:48Z</time>
      </trkpt>
      <trkpt lat="45.30014" lon="3.08688">
        <ele>879.74</ele>
        <time>2011-09-03T13:09:00Z</time>
      </trkpt>
      <trkpt lat="45.30018" lon="3.08705">
        <ele>879.26</ele>
        <time>2011-09-03T13:09:05Z</time>
      </trkpt>
      <trkpt lat="45.30028" lon="3.08724">
        <ele>877.34</ele>
        <time>2011-09-03T13:09:09Z</time>
      </trkpt>
      <trkpt lat="45.30048" lon="3.08755">
        <ele>873.01</ele>
        <time>2011-09-03T13:09:15Z</time>
      </trkpt>
      <trkpt lat="45.30051" lon="3.08761">
        <ele>873.01</ele>
        <time>2011-09-03T13:09:16Z</time>
      </trkpt>
      <trkpt lat="45.30057" lon="3.08773">
        <ele>871.57</ele>
        <time>2011-09-03T13:09:18Z</time>
      </trkpt>
      <trkpt lat="45.30061" lon="3.08786">
        <ele>870.13</ele>
        <time>2011-09-03T13:09:20Z</time>
      </trkpt>
      <trkpt lat="45.30069" lon="3.08811">
        <ele>869.17</ele>
        <time>2011-09-03T13:09:24Z</time>
      </trkpt>
      <trkpt lat="45.30071" lon="3.08832">
        <ele>866.29</ele>
        <time>2011-09-03T13:09:27Z</time>
      </trkpt>
      <trkpt lat="45.30065" lon="3.08857">
        <ele>862.92</ele>
        <time>2011-09-03T13:09:31Z</time>
      </trkpt>
      <trkpt lat="45.30063" lon="3.08863">
        <ele>863.88</ele>
        <time>2011-09-03T13:09:32Z</time>
      </trkpt>
      <trkpt lat="45.3006" lon="3.08869">
        <ele>863.88</ele>
        <time>2011-09-03T13:09:33Z</time>
      </trkpt>
      <trkpt lat="45.30051" lon="3.08884">
        <ele>862.92</ele>
        <time>2011-09-03T13:09:36Z</time>
      </trkpt>
      <trkpt lat="45.3004" lon="3.08912">
        <ele>860.52</ele>
        <time>2011-09-03T13:09:40Z</time>
      </trkpt>
      <trkpt lat="45.30033" lon="3.08936">
        <ele>859.08</ele>
        <time>2011-09-03T13:09:43Z</time>
      </trkpt>
      <trkpt lat="45.30031" lon="3.08943">
        <ele>858.59</ele>
        <time>2011-09-03T13:09:44Z</time>
      </trkpt>
      <trkpt lat="45.30022" lon="3.08964">
        <ele>854.27</ele>
        <time>2011-09-03T13:09:47Z</time>
      </trkpt>
      <trkpt lat="45.30015" lon="3.08986">
        <ele>853.79</ele>
        <time>2011-09-03T13:09:50Z</time>
      </trkpt>
      <trkpt lat="45.30014" lon="3.09015">
        <ele>850.42</ele>
        <time>2011-09-03T13:09:54Z</time>
      </trkpt>
      <trkpt lat="45.30027" lon="3.09043">
        <ele>847.06</ele>
        <time>2011-09-03T13:09:59Z</time>
      </trkpt>
      <trkpt lat="45.30037" lon="3.09051">
        <ele>847.54</ele>
        <time>2011-09-03T13:10:01Z</time>
      </trkpt>
      <trkpt lat="45.30057" lon="3.09061">
        <ele>844.66</ele>
        <time>2011-09-03T13:10:04Z</time>
      </trkpt>
      <trkpt lat="45.30071" lon="3.09069">
        <ele>841.77</ele>
        <time>2011-09-03T13:10:06Z</time>
      </trkpt>
      <trkpt lat="45.30098" lon="3.09082">
        <ele>839.37</ele>
        <time>2011-09-03T13:10:10Z</time>
      </trkpt>
      <trkpt lat="45.30119" lon="3.09092">
        <ele>836</ele>
        <time>2011-09-03T13:10:13Z</time>
      </trkpt>
      <trkpt lat="45.30145" lon="3.09109">
        <ele>833.6</ele>
        <time>2011-09-03T13:10:17Z</time>
      </trkpt>
      <trkpt lat="45.30164" lon="3.09125">
        <ele>829.76</ele>
        <time>2011-09-03T13:10:20Z</time>
      </trkpt>
      <trkpt lat="45.30191" lon="3.09148">
        <ele>826.39</ele>
        <time>2011-09-03T13:10:25Z</time>
      </trkpt>
      <trkpt lat="45.30207" lon="3.09169">
        <ele>824.47</ele>
        <time>2011-09-03T13:10:28Z</time>
      </trkpt>
      <trkpt lat="45.30211" lon="3.09175">
        <ele>824.95</ele>
        <time>2011-09-03T13:10:29Z</time>
      </trkpt>
      <trkpt lat="45.30219" lon="3.09207">
        <ele>821.58</ele>
        <time>2011-09-03T13:10:33Z</time>
      </trkpt>
      <trkpt lat="45.30219" lon="3.09215">
        <ele>822.55</ele>
        <time>2011-09-03T13:10:34Z</time>
      </trkpt>
      <trkpt lat="45.30213" lon="3.09252">
        <ele>816.3</ele>
        <time>2011-09-03T13:10:38Z</time>
      </trkpt>
      <trkpt lat="45.30209" lon="3.09272">
        <ele>815.82</ele>
        <time>2011-09-03T13:10:40Z</time>
      </trkpt>
      <trkpt lat="45.30207" lon="3.09293">
        <ele>813.41</ele>
        <time>2011-09-03T13:10:42Z</time>
      </trkpt>
      <trkpt lat="45.30202" lon="3.09328">
        <ele>810.53</ele>
        <time>2011-09-03T13:10:46Z</time>
      </trkpt>
      <trkpt lat="45.30201" lon="3.09365">
        <ele>809.57</ele>
        <time>2011-09-03T13:10:51Z</time>
      </trkpt>
      <trkpt lat="45.30203" lon="3.0938">
        <ele>807.64</ele>
        <time>2011-09-03T13:10:53Z</time>
      </trkpt>
      <trkpt lat="45.30208" lon="3.09394">
        <ele>806.2</ele>
        <time>2011-09-03T13:10:55Z</time>
      </trkpt>
      <trkpt lat="45.30223" lon="3.09408">
        <ele>804.28</ele>
        <time>2011-09-03T13:10:59Z</time>
      </trkpt>
      <trkpt lat="45.30233" lon="3.09407">
        <ele>802.84</ele>
        <time>2011-09-03T13:11:01Z</time>
      </trkpt>
      <trkpt lat="45.30259" lon="3.09396">
        <ele>799.95</ele>
        <time>2011-09-03T13:11:06Z</time>
      </trkpt>
      <trkpt lat="45.30297" lon="3.09377">
        <ele>792.74</ele>
        <time>2011-09-03T13:11:12Z</time>
      </trkpt>
      <trkpt lat="45.30303" lon="3.09374">
        <ele>794.19</ele>
        <time>2011-09-03T13:11:13Z</time>
      </trkpt>
      <trkpt lat="45.30335" lon="3.09357">
        <ele>790.34</ele>
        <time>2011-09-03T13:11:18Z</time>
      </trkpt>
      <trkpt lat="45.30365" lon="3.09337">
        <ele>786.5</ele>
        <time>2011-09-03T13:11:23Z</time>
      </trkpt>
      <trkpt lat="45.3037" lon="3.09332">
        <ele>786.5</ele>
        <time>2011-09-03T13:11:24Z</time>
      </trkpt>
      <trkpt lat="45.30384" lon="3.09321">
        <ele>783.13</ele>
        <time>2011-09-03T13:11:27Z</time>
      </trkpt>
      <trkpt lat="45.30388" lon="3.09317">
        <ele>784.09</ele>
        <time>2011-09-03T13:11:28Z</time>
      </trkpt>
      <trkpt lat="45.30407" lon="3.09304">
        <ele>780.73</ele>
        <time>2011-09-03T13:11:32Z</time>
      </trkpt>
      <trkpt lat="45.30412" lon="3.09301">
        <ele>780.73</ele>
        <time>2011-09-03T13:11:33Z</time>
      </trkpt>
      <trkpt lat="45.30423" lon="3.09295">
        <ele>778.32</ele>
        <time>2011-09-03T13:11:35Z</time>
      </trkpt>
      <trkpt lat="45.30434" lon="3.09293">
        <ele>777.84</ele>
        <time>2011-09-03T13:11:37Z</time>
      </trkpt>
      <trkpt lat="45.30451" lon="3.09292">
        <ele>774</ele>
        <time>2011-09-03T13:11:40Z</time>
      </trkpt>
      <trkpt lat="45.30456" lon="3.09291">
        <ele>776.4</ele>
        <time>2011-09-03T13:11:41Z</time>
      </trkpt>
      <trkpt lat="45.30462" lon="3.09291">
        <ele>776.4</ele>
        <time>2011-09-03T13:11:42Z</time>
      </trkpt>
      <trkpt lat="45.30479" lon="3.09294">
        <ele>774</ele>
        <time>2011-09-03T13:11:45Z</time>
      </trkpt>
      <trkpt lat="45.30495" lon="3.093">
        <ele>770.63</ele>
        <time>2011-09-03T13:11:48Z</time>
      </trkpt>
      <trkpt lat="45.30505" lon="3.09306">
        <ele>769.67</ele>
        <time>2011-09-03T13:11:50Z</time>
      </trkpt>
      <trkpt lat="45.30525" lon="3.09319">
        <ele>767.75</ele>
        <time>2011-09-03T13:11:54Z</time>
      </trkpt>
      <trkpt lat="45.30541" lon="3.09332">
        <ele>764.39</ele>
        <time>2011-09-03T13:11:57Z</time>
      </trkpt>
      <trkpt lat="45.30571" lon="3.09361">
        <ele>761.02</ele>
        <time>2011-09-03T13:12:03Z</time>
      </trkpt>
      <trkpt lat="45.30603" lon="3.0939">
        <ele>756.69</ele>
        <time>2011-09-03T13:12:09Z</time>
      </trkpt>
      <trkpt lat="45.30614" lon="3.09403">
        <ele>755.25</ele>
        <time>2011-09-03T13:12:11Z</time>
      </trkpt>
      <trkpt lat="45.30625" lon="3.0942">
        <ele>753.33</ele>
        <time>2011-09-03T13:12:14Z</time>
      </trkpt>
      <trkpt lat="45.30632" lon="3.09433">
        <ele>751.89</ele>
        <time>2011-09-03T13:12:16Z</time>
      </trkpt>
      <trkpt lat="45.30648" lon="3.09472">
        <ele>748.52</ele>
        <time>2011-09-03T13:12:21Z</time>
      </trkpt>
      <trkpt lat="45.30651" lon="3.09485">
        <ele>747.08</ele>
        <time>2011-09-03T13:12:23Z</time>
      </trkpt>
      <trkpt lat="45.3065" lon="3.095">
        <ele>746.12</ele>
        <time>2011-09-03T13:12:26Z</time>
      </trkpt>
      <trkpt lat="45.30649" lon="3.09509">
        <ele>745.64</ele>
        <time>2011-09-03T13:12:28Z</time>
      </trkpt>
      <trkpt lat="45.30657" lon="3.09513">
        <ele>744.2</ele>
        <time>2011-09-03T13:12:33Z</time>
      </trkpt>
      <trkpt lat="45.3066" lon="3.09495">
        <ele>740.83</ele>
        <time>2011-09-03T13:12:36Z</time>
      </trkpt>
      <trkpt lat="45.30664" lon="3.09474">
        <ele>739.87</ele>
        <time>2011-09-03T13:12:39Z</time>
      </trkpt>
      <trkpt lat="45.30669" lon="3.09449">
        <ele>737.95</ele>
        <time>2011-09-03T13:12:42Z</time>
      </trkpt>
      <trkpt lat="45.30675" lon="3.0941">
        <ele>733.62</ele>
        <time>2011-09-03T13:12:46Z</time>
      </trkpt>
      <trkpt lat="45.30676" lon="3.09389">
        <ele>731.22</ele>
        <time>2011-09-03T13:12:48Z</time>
      </trkpt>
      <trkpt lat="45.30666" lon="3.0934">
        <ele>726.41</ele>
        <time>2011-09-03T13:12:53Z</time>
      </trkpt>
      <trkpt lat="45.3064" lon="3.09304">
        <ele>722.57</ele>
        <time>2011-09-03T13:12:58Z</time>
      </trkpt>
      <trkpt lat="45.30623" lon="3.09286">
        <ele>717.76</ele>
        <time>2011-09-03T13:13:01Z</time>
      </trkpt>
      <trkpt lat="45.30617" lon="3.0928">
        <ele>717.76</ele>
        <time>2011-09-03T13:13:02Z</time>
      </trkpt>
      <trkpt lat="45.306" lon="3.09259">
        <ele>716.32</ele>
        <time>2011-09-03T13:13:05Z</time>
      </trkpt>
      <trkpt lat="45.30589" lon="3.09246">
        <ele>714.4</ele>
        <time>2011-09-03T13:13:07Z</time>
      </trkpt>
      <trkpt lat="45.30584" lon="3.09239">
        <ele>712.95</ele>
        <time>2011-09-03T13:13:08Z</time>
      </trkpt>
      <trkpt lat="45.30579" lon="3.09233">
        <ele>711.51</ele>
        <time>2011-09-03T13:13:09Z</time>
      </trkpt>
      <trkpt lat="45.30558" lon="3.09215">
        <ele>709.59</ele>
        <time>2011-09-03T13:13:13Z</time>
      </trkpt>
      <trkpt lat="45.30551" lon="3.09209">
        <ele>706.71</ele>
        <time>2011-09-03T13:13:15Z</time>
      </trkpt>
      <trkpt lat="45.30548" lon="3.09206">
        <ele>706.71</ele>
        <time>2011-09-03T13:13:16Z</time>
      </trkpt>
      <trkpt lat="45.30545" lon="3.09202">
        <ele>708.15</ele>
        <time>2011-09-03T13:13:17Z</time>
      </trkpt>
      <trkpt lat="45.30542" lon="3.09198">
        <ele>705.75</ele>
        <time>2011-09-03T13:13:18Z</time>
      </trkpt>
      <trkpt lat="45.3054" lon="3.09192">
        <ele>705.75</ele>
        <time>2011-09-03T13:13:19Z</time>
      </trkpt>
      <trkpt lat="45.3054" lon="3.09187">
        <ele>703.34</ele>
        <time>2011-09-03T13:13:20Z</time>
      </trkpt>
      <trkpt lat="45.30542" lon="3.09183">
        <ele>703.82</ele>
        <time>2011-09-03T13:13:21Z</time>
      </trkpt>
      <trkpt lat="45.30547" lon="3.09181">
        <ele>703.82</ele>
        <time>2011-09-03T13:13:23Z</time>
      </trkpt>
      <trkpt lat="45.30567" lon="3.09182">
        <ele>701.9</ele>
        <time>2011-09-03T13:13:28Z</time>
      </trkpt>
      <trkpt lat="45.30573" lon="3.09181">
        <ele>700.46</ele>
        <time>2011-09-03T13:13:29Z</time>
      </trkpt>
      <trkpt lat="45.30592" lon="3.0918">
        <ele>697.57</ele>
        <time>2011-09-03T13:13:32Z</time>
      </trkpt>
      <trkpt lat="45.30604" lon="3.0918">
        <ele>694.21</ele>
        <time>2011-09-03T13:13:34Z</time>
      </trkpt>
      <trkpt lat="45.3061" lon="3.0918">
        <ele>694.21</ele>
        <time>2011-09-03T13:13:35Z</time>
      </trkpt>
      <trkpt lat="45.30615" lon="3.09181">
        <ele>693.73</ele>
        <time>2011-09-03T13:13:36Z</time>
      </trkpt>
      <trkpt lat="45.3062" lon="3.09182">
        <ele>692.29</ele>
        <time>2011-09-03T13:13:37Z</time>
      </trkpt>
      <trkpt lat="45.30626" lon="3.09185">
        <ele>693.25</ele>
        <time>2011-09-03T13:13:38Z</time>
      </trkpt>
      <trkpt lat="45.30631" lon="3.09188">
        <ele>691.81</ele>
        <time>2011-09-03T13:13:39Z</time>
      </trkpt>
      <trkpt lat="45.30636" lon="3.09191">
        <ele>688.92</ele>
        <time>2011-09-03T13:13:40Z</time>
      </trkpt>
      <trkpt lat="45.30642" lon="3.09193">
        <ele>688.44</ele>
        <time>2011-09-03T13:13:41Z</time>
      </trkpt>
      <trkpt lat="45.3066" lon="3.09196">
        <ele>686.04</ele>
        <time>2011-09-03T13:13:44Z</time>
      </trkpt>
      <trkpt lat="45.30665" lon="3.09198">
        <ele>684.6</ele>
        <time>2011-09-03T13:13:45Z</time>
      </trkpt>
      <trkpt lat="45.30674" lon="3.09206">
        <ele>683.63</ele>
        <time>2011-09-03T13:13:47Z</time>
      </trkpt>
      <trkpt lat="45.30684" lon="3.09215">
        <ele>682.19</ele>
        <time>2011-09-03T13:13:49Z</time>
      </trkpt>
      <trkpt lat="45.30689" lon="3.09219">
        <ele>681.71</ele>
        <time>2011-09-03T13:13:50Z</time>
      </trkpt>
      <trkpt lat="45.30694" lon="3.09221">
        <ele>680.27</ele>
        <time>2011-09-03T13:13:51Z</time>
      </trkpt>
      <trkpt lat="45.30711" lon="3.09227">
        <ele>677.87</ele>
        <time>2011-09-03T13:13:54Z</time>
      </trkpt>
      <trkpt lat="45.30717" lon="3.09228">
        <ele>676.42</ele>
        <time>2011-09-03T13:13:55Z</time>
      </trkpt>
      <trkpt lat="45.30723" lon="3.09229">
        <ele>675.94</ele>
        <time>2011-09-03T13:13:56Z</time>
      </trkpt>
      <trkpt lat="45.30741" lon="3.09228">
        <ele>673.54</ele>
        <time>2011-09-03T13:13:59Z</time>
      </trkpt>
      <trkpt lat="45.30745" lon="3.09229">
        <ele>674.98</ele>
        <time>2011-09-03T13:14:00Z</time>
      </trkpt>
      <trkpt lat="45.30756" lon="3.09239">
        <ele>674.5</ele>
        <time>2011-09-03T13:14:02Z</time>
      </trkpt>
      <trkpt lat="45.3076" lon="3.09244">
        <ele>674.98</ele>
        <time>2011-09-03T13:14:03Z</time>
      </trkpt>
      <trkpt lat="45.3077" lon="3.09262">
        <ele>677.39</ele>
        <time>2011-09-03T13:14:06Z</time>
      </trkpt>
      <trkpt lat="45.30786" lon="3.09292">
        <ele>678.35</ele>
        <time>2011-09-03T13:14:10Z</time>
      </trkpt>
      <trkpt lat="45.3079" lon="3.09302">
        <ele>679.31</ele>
        <time>2011-09-03T13:14:11Z</time>
      </trkpt>
      <trkpt lat="45.30794" lon="3.09312">
        <ele>679.31</ele>
        <time>2011-09-03T13:14:12Z</time>
      </trkpt>
      <trkpt lat="45.30796" lon="3.09323">
        <ele>678.83</ele>
        <time>2011-09-03T13:14:13Z</time>
      </trkpt>
      <trkpt lat="45.308" lon="3.09358">
        <ele>678.83</ele>
        <time>2011-09-03T13:14:16Z</time>
      </trkpt>
      <trkpt lat="45.30798" lon="3.09388">
        <ele>678.35</ele>
        <time>2011-09-03T13:14:22Z</time>
      </trkpt>
      <trkpt lat="45.30798" lon="3.09388">
        <ele>676.42</ele>
        <time>2011-09-03T13:14:31Z</time>
      </trkpt>
      <trkpt lat="45.30798" lon="3.09388">
        <ele>679.31</ele>
        <time>2011-09-03T13:14:38Z</time>
      </trkpt>
      <trkpt lat="45.30798" lon="3.09388">
        <ele>675.94</ele>
        <time>2011-09-03T13:15:03Z</time>
      </trkpt>
      <trkpt lat="45.30798" lon="3.09388">
        <ele>675.94</ele>
        <time>2011-09-03T13:15:04Z</time>
      </trkpt>
      <trkpt lat="45.30798" lon="3.09388">
        <ele>677.87</ele>
        <time>2011-09-03T13:15:05Z</time>
      </trkpt>
      <trkpt lat="45.30798" lon="3.09388">
        <ele>678.35</ele>
        <time>2011-09-03T13:15:09Z</time>
      </trkpt>
      <trkpt lat="45.30798" lon="3.09388">
        <ele>676.42</ele>
        <time>2011-09-03T13:15:10Z</time>
      </trkpt>
      <trkpt lat="45.30798" lon="3.09388">
        <ele>678.83</ele>
        <time>2011-09-03T13:15:11Z</time>
      </trkpt>
      <trkpt lat="45.30798" lon="3.09388">
        <ele>676.91</ele>
        <time>2011-09-03T13:15:12Z</time>
      </trkpt>
      <trkpt lat="45.30798" lon="3.09388">
        <ele>677.39</ele>
        <time>2011-09-03T13:15:29Z</time>
      </trkpt>
      <trkpt lat="45.30798" lon="3.09388">
        <ele>677.87</ele>
        <time>2011-09-03T13:15:34Z</time>
      </trkpt>
      <trkpt lat="45.30796" lon="3.09403">
        <ele>676.42</ele>
        <time>2011-09-03T13:15:54Z</time>
      </trkpt>
      <trkpt lat="45.30786" lon="3.09419">
        <ele>675.46</ele>
        <time>2011-09-03T13:15:58Z</time>
      </trkpt>
      <trkpt lat="45.30782" lon="3.09423">
        <ele>674.02</ele>
        <time>2011-09-03T13:15:59Z</time>
      </trkpt>
      <trkpt lat="45.30778" lon="3.09428">
        <ele>674.5</ele>
        <time>2011-09-03T13:16:00Z</time>
      </trkpt>
      <trkpt lat="45.30774" lon="3.09433">
        <ele>673.54</ele>
        <time>2011-09-03T13:16:01Z</time>
      </trkpt>
      <trkpt lat="45.30771" lon="3.09439">
        <ele>674.02</ele>
        <time>2011-09-03T13:16:02Z</time>
      </trkpt>
      <trkpt lat="45.3077" lon="3.09446">
        <ele>673.06</ele>
        <time>2011-09-03T13:16:03Z</time>
      </trkpt>
      <trkpt lat="45.30769" lon="3.09453">
        <ele>672.1</ele>
        <time>2011-09-03T13:16:04Z</time>
      </trkpt>
      <trkpt lat="45.30768" lon="3.0946">
        <ele>671.62</ele>
        <time>2011-09-03T13:16:05Z</time>
      </trkpt>
      <trkpt lat="45.30769" lon="3.09467">
        <ele>670.66</ele>
        <time>2011-09-03T13:16:06Z</time>
      </trkpt>
      <trkpt lat="45.30771" lon="3.09473">
        <ele>670.66</ele>
        <time>2011-09-03T13:16:07Z</time>
      </trkpt>
      <trkpt lat="45.30781" lon="3.09496">
        <ele>671.62</ele>
        <time>2011-09-03T13:16:10Z</time>
      </trkpt>
      <trkpt lat="45.30787" lon="3.09512">
        <ele>670.18</ele>
        <time>2011-09-03T13:16:12Z</time>
      </trkpt>
      <trkpt lat="45.3079" lon="3.09521">
        <ele>670.18</ele>
        <time>2011-09-03T13:16:13Z</time>
      </trkpt>
      <trkpt lat="45.30792" lon="3.09532">
        <ele>670.18</ele>
        <time>2011-09-03T13:16:14Z</time>
      </trkpt>
      <trkpt lat="45.30792" lon="3.09558">
        <ele>669.22</ele>
        <time>2011-09-03T13:16:16Z</time>
      </trkpt>
      <trkpt lat="45.30791" lon="3.09596">
        <ele>668.73</ele>
        <time>2011-09-03T13:16:19Z</time>
      </trkpt>
      <trkpt lat="45.3079" lon="3.09607">
        <ele>669.22</ele>
        <time>2011-09-03T13:16:20Z</time>
      </trkpt>
      <trkpt lat="45.30786" lon="3.09627">
        <ele>667.77</ele>
        <time>2011-09-03T13:16:22Z</time>
      </trkpt>
      <trkpt lat="45.30783" lon="3.09647">
        <ele>667.77</ele>
        <time>2011-09-03T13:16:25Z</time>
      </trkpt>
      <trkpt lat="45.30782" lon="3.09648">
        <ele>668.73</ele>
        <time>2011-09-03T13:16:35Z</time>
      </trkpt>
      <trkpt lat="45.30782" lon="3.09648">
        <ele>667.29</ele>
        <time>2011-09-03T13:16:46Z</time>
      </trkpt>
      <trkpt lat="45.30782" lon="3.09648">
        <ele>665.37</ele>
        <time>2011-09-03T13:16:47Z</time>
      </trkpt>
      <trkpt lat="45.30782" lon="3.09648">
        <ele>667.29</ele>
        <time>2011-09-03T13:16:48Z</time>
      </trkpt>
      <trkpt lat="45.30782" lon="3.09648">
        <ele>666.81</ele>
        <time>2011-09-03T13:16:51Z</time>
      </trkpt>
      <trkpt lat="45.30782" lon="3.09648">
        <ele>666.81</ele>
        <time>2011-09-03T13:17:00Z</time>
      </trkpt>
      <trkpt lat="45.30782" lon="3.09656">
        <ele>667.77</ele>
        <time>2011-09-03T13:17:05Z</time>
      </trkpt>
      <trkpt lat="45.30778" lon="3.09724">
        <ele>667.77</ele>
        <time>2011-09-03T13:17:14Z</time>
      </trkpt>
      <trkpt lat="45.3078" lon="3.09737">
        <ele>668.73</ele>
        <time>2011-09-03T13:17:18Z</time>
      </trkpt>
      <trkpt lat="45.30784" lon="3.09739">
        <ele>668.25</ele>
        <time>2011-09-03T13:17:29Z</time>
      </trkpt>
      <trkpt lat="45.30789" lon="3.0974">
        <ele>665.85</ele>
        <time>2011-09-03T13:17:50Z</time>
      </trkpt>
      <trkpt lat="45.3079" lon="3.09738">
        <ele>665.37</ele>
        <time>2011-09-03T13:18:06Z</time>
      </trkpt>
      <trkpt lat="45.3079" lon="3.09738">
        <ele>666.81</ele>
        <time>2011-09-03T13:18:08Z</time>
      </trkpt>
      <trkpt lat="45.30791" lon="3.09739">
        <ele>666.33</ele>
        <time>2011-09-03T13:18:12Z</time>
      </trkpt>
      <trkpt lat="45.30797" lon="3.09751">
        <ele>668.25</ele>
        <time>2011-09-03T13:18:14Z</time>
      </trkpt>
      <trkpt lat="45.3082" lon="3.09791">
        <ele>666.81</ele>
        <time>2011-09-03T13:18:18Z</time>
      </trkpt>
      <trkpt lat="45.3084" lon="3.09817">
        <ele>666.33</ele>
        <time>2011-09-03T13:18:21Z</time>
      </trkpt>
      <trkpt lat="45.30857" lon="3.09843">
        <ele>663.93</ele>
        <time>2011-09-03T13:18:24Z</time>
      </trkpt>
      <trkpt lat="45.30867" lon="3.09875">
        <ele>662.01</ele>
        <time>2011-09-03T13:18:27Z</time>
      </trkpt>
      <trkpt lat="45.30873" lon="3.09896">
        <ele>659.6</ele>
        <time>2011-09-03T13:18:29Z</time>
      </trkpt>
      <trkpt lat="45.30879" lon="3.09906">
        <ele>659.6</ele>
        <time>2011-09-03T13:18:30Z</time>
      </trkpt>
      <trkpt lat="45.30903" lon="3.09941">
        <ele>661.52</ele>
        <time>2011-09-03T13:18:34Z</time>
      </trkpt>
      <trkpt lat="45.3093" lon="3.09961">
        <ele>665.37</ele>
        <time>2011-09-03T13:18:38Z</time>
      </trkpt>
      <trkpt lat="45.30937" lon="3.09965">
        <ele>665.37</ele>
        <time>2011-09-03T13:18:39Z</time>
      </trkpt>
      <trkpt lat="45.30964" lon="3.09975">
        <ele>666.81</ele>
        <time>2011-09-03T13:18:42Z</time>
      </trkpt>
      <trkpt lat="45.30994" lon="3.10018">
        <ele>668.73</ele>
        <time>2011-09-03T13:18:47Z</time>
      </trkpt>
      <trkpt lat="45.31018" lon="3.10061">
        <ele>664.41</ele>
        <time>2011-09-03T13:18:52Z</time>
      </trkpt>
      <trkpt lat="45.31025" lon="3.1007">
        <ele>664.41</ele>
        <time>2011-09-03T13:18:53Z</time>
      </trkpt>
      <trkpt lat="45.31045" lon="3.101">
        <ele>663.45</ele>
        <time>2011-09-03T13:18:56Z</time>
      </trkpt>
      <trkpt lat="45.31061" lon="3.1013">
        <ele>661.52</ele>
        <time>2011-09-03T13:18:59Z</time>
      </trkpt>
      <trkpt lat="45.31071" lon="3.10143">
        <ele>660.56</ele>
        <time>2011-09-03T13:19:01Z</time>
      </trkpt>
      <trkpt lat="45.31075" lon="3.10146">
        <ele>660.08</ele>
        <time>2011-09-03T13:19:02Z</time>
      </trkpt>
      <trkpt lat="45.31079" lon="3.10144">
        <ele>658.16</ele>
        <time>2011-09-03T13:19:03Z</time>
      </trkpt>
      <trkpt lat="45.31083" lon="3.1014">
        <ele>658.16</ele>
        <time>2011-09-03T13:19:04Z</time>
      </trkpt>
      <trkpt lat="45.31087" lon="3.10136">
        <ele>656.72</ele>
        <time>2011-09-03T13:19:05Z</time>
      </trkpt>
      <trkpt lat="45.31092" lon="3.10134">
        <ele>655.28</ele>
        <time>2011-09-03T13:19:06Z</time>
      </trkpt>
      <trkpt lat="45.31095" lon="3.10136">
        <ele>655.76</ele>
        <time>2011-09-03T13:19:07Z</time>
      </trkpt>
      <trkpt lat="45.31102" lon="3.10147">
        <ele>655.76</ele>
        <time>2011-09-03T13:19:14Z</time>
      </trkpt>
      <trkpt lat="45.31105" lon="3.10151">
        <ele>656.24</ele>
        <time>2011-09-03T13:19:15Z</time>
      </trkpt>
      <trkpt lat="45.3111" lon="3.10155">
        <ele>657.2</ele>
        <time>2011-09-03T13:19:16Z</time>
      </trkpt>
      <trkpt lat="45.31116" lon="3.10159">
        <ele>657.68</ele>
        <time>2011-09-03T13:19:17Z</time>
      </trkpt>
      <trkpt lat="45.31122" lon="3.10163">
        <ele>657.68</ele>
        <time>2011-09-03T13:19:18Z</time>
      </trkpt>
      <trkpt lat="45.31133" lon="3.10173">
        <ele>659.12</ele>
        <time>2011-09-03T13:19:20Z</time>
      </trkpt>
      <trkpt lat="45.31138" lon="3.10178">
        <ele>659.12</ele>
        <time>2011-09-03T13:19:21Z</time>
      </trkpt>
      <trkpt lat="45.31141" lon="3.10184">
        <ele>660.08</ele>
        <time>2011-09-03T13:19:22Z</time>
      </trkpt>
      <trkpt lat="45.31144" lon="3.10189">
        <ele>658.64</ele>
        <time>2011-09-03T13:19:23Z</time>
      </trkpt>
      <trkpt lat="45.31146" lon="3.10202">
        <ele>657.68</ele>
        <time>2011-09-03T13:19:25Z</time>
      </trkpt>
      <trkpt lat="45.31147" lon="3.10228">
        <ele>658.16</ele>
        <time>2011-09-03T13:19:29Z</time>
      </trkpt>
      <trkpt lat="45.31151" lon="3.10274">
        <ele>660.08</ele>
        <time>2011-09-03T13:19:36Z</time>
      </trkpt>
      <trkpt lat="45.31153" lon="3.10287">
        <ele>659.12</ele>
        <time>2011-09-03T13:19:39Z</time>
      </trkpt>
      <trkpt lat="45.31154" lon="3.10294">
        <ele>660.56</ele>
        <time>2011-09-03T13:19:40Z</time>
      </trkpt>
      <trkpt lat="45.31155" lon="3.1032">
        <ele>661.52</ele>
        <time>2011-09-03T13:19:42Z</time>
      </trkpt>
      <trkpt lat="45.31153" lon="3.10353">
        <ele>662.49</ele>
        <time>2011-09-03T13:19:44Z</time>
      </trkpt>
      <trkpt lat="45.3115" lon="3.1043">
        <ele>662.01</ele>
        <time>2011-09-03T13:19:48Z</time>
      </trkpt>
      <trkpt lat="45.31149" lon="3.10471">
        <ele>660.08</ele>
        <time>2011-09-03T13:19:50Z</time>
      </trkpt>
      <trkpt lat="45.31137" lon="3.10563">
        <ele>658.16</ele>
        <time>2011-09-03T13:19:55Z</time>
      </trkpt>
      <trkpt lat="45.31122" lon="3.10636">
        <ele>654.8</ele>
        <time>2011-09-03T13:19:59Z</time>
      </trkpt>
      <trkpt lat="45.31115" lon="3.10671">
        <ele>651.91</ele>
        <time>2011-09-03T13:20:01Z</time>
      </trkpt>
      <trkpt lat="45.31111" lon="3.10686">
        <ele>651.43</ele>
        <time>2011-09-03T13:20:02Z</time>
      </trkpt>
      <trkpt lat="45.31101" lon="3.10711">
        <ele>648.07</ele>
        <time>2011-09-03T13:20:04Z</time>
      </trkpt>
      <trkpt lat="45.31097" lon="3.10731">
        <ele>647.1</ele>
        <time>2011-09-03T13:20:06Z</time>
      </trkpt>
      <trkpt lat="45.31093" lon="3.10785">
        <ele>645.66</ele>
        <time>2011-09-03T13:20:11Z</time>
      </trkpt>
      <trkpt lat="45.31088" lon="3.10838">
        <ele>647.1</ele>
        <time>2011-09-03T13:20:15Z</time>
      </trkpt>
      <trkpt lat="45.31091" lon="3.10856">
        <ele>647.59</ele>
        <time>2011-09-03T13:20:16Z</time>
      </trkpt>
      <trkpt lat="45.31126" lon="3.1106">
        <ele>648.55</ele>
        <time>2011-09-03T13:20:26Z</time>
      </trkpt>
      <trkpt lat="45.31136" lon="3.11226">
        <ele>645.18</ele>
        <time>2011-09-03T13:20:34Z</time>
      </trkpt>
      <trkpt lat="45.31129" lon="3.11461">
        <ele>642.78</ele>
        <time>2011-09-03T13:20:44Z</time>
      </trkpt>
      <trkpt lat="45.31115" lon="3.11685">
        <ele>640.86</ele>
        <time>2011-09-03T13:20:54Z</time>
      </trkpt>
      <trkpt lat="45.31108" lon="3.11846">
        <ele>637.97</ele>
        <time>2011-09-03T13:21:01Z</time>
      </trkpt>
      <trkpt lat="45.31104" lon="3.11869">
        <ele>637.49</ele>
        <time>2011-09-03T13:21:02Z</time>
      </trkpt>
      <trkpt lat="45.31093" lon="3.11925">
        <ele>634.61</ele>
        <time>2011-09-03T13:21:05Z</time>
      </trkpt>
      <trkpt lat="45.31099" lon="3.11982">
        <ele>635.09</ele>
        <time>2011-09-03T13:21:09Z</time>
      </trkpt>
      <trkpt lat="45.31113" lon="3.12013">
        <ele>636.53</ele>
        <time>2011-09-03T13:21:11Z</time>
      </trkpt>
      <trkpt lat="45.31123" lon="3.12106">
        <ele>634.13</ele>
        <time>2011-09-03T13:21:16Z</time>
      </trkpt>
      <trkpt lat="45.31114" lon="3.12142">
        <ele>630.76</ele>
        <time>2011-09-03T13:21:18Z</time>
      </trkpt>
      <trkpt lat="45.31104" lon="3.12179">
        <ele>627.4</ele>
        <time>2011-09-03T13:21:21Z</time>
      </trkpt>
      <trkpt lat="45.31084" lon="3.12284">
        <ele>624.03</ele>
        <time>2011-09-03T13:21:30Z</time>
      </trkpt>
      <trkpt lat="45.31079" lon="3.12315">
        <ele>622.11</ele>
        <time>2011-09-03T13:21:33Z</time>
      </trkpt>
      <trkpt lat="45.31072" lon="3.12346">
        <ele>620.67</ele>
        <time>2011-09-03T13:21:37Z</time>
      </trkpt>
      <trkpt lat="45.3107" lon="3.12354">
        <ele>621.15</ele>
        <time>2011-09-03T13:21:38Z</time>
      </trkpt>
      <trkpt lat="45.31079" lon="3.12361">
        <ele>620.67</ele>
        <time>2011-09-03T13:21:42Z</time>
      </trkpt>
      <trkpt lat="45.3109" lon="3.12345">
        <ele>624.03</ele>
        <time>2011-09-03T13:21:44Z</time>
      </trkpt>
      <trkpt lat="45.31109" lon="3.12298">
        <ele>626.92</ele>
        <time>2011-09-03T13:21:48Z</time>
      </trkpt>
      <trkpt lat="45.31129" lon="3.12274">
        <ele>630.76</ele>
        <time>2011-09-03T13:21:52Z</time>
      </trkpt>
      <trkpt lat="45.31138" lon="3.12273">
        <ele>631.24</ele>
        <time>2011-09-03T13:21:53Z</time>
      </trkpt>
      <trkpt lat="45.31178" lon="3.12278">
        <ele>636.53</ele>
        <time>2011-09-03T13:21:57Z</time>
      </trkpt>
      <trkpt lat="45.31207" lon="3.12286">
        <ele>639.41</ele>
        <time>2011-09-03T13:22:01Z</time>
      </trkpt>
      <trkpt lat="45.31215" lon="3.12288">
        <ele>640.38</ele>
        <time>2011-09-03T13:22:03Z</time>
      </trkpt>
      <trkpt lat="45.31213" lon="3.12302">
        <ele>642.78</ele>
        <time>2011-09-03T13:22:08Z</time>
      </trkpt>
      <trkpt lat="45.31194" lon="3.12305">
        <ele>645.66</ele>
        <time>2011-09-03T13:22:11Z</time>
      </trkpt>
      <trkpt lat="45.31173" lon="3.12317">
        <ele>649.51</ele>
        <time>2011-09-03T13:22:14Z</time>
      </trkpt>
      <trkpt lat="45.31161" lon="3.12333">
        <ele>652.39</ele>
        <time>2011-09-03T13:22:16Z</time>
      </trkpt>
      <trkpt lat="45.31153" lon="3.12356">
        <ele>655.28</ele>
        <time>2011-09-03T13:22:18Z</time>
      </trkpt>
      <trkpt lat="45.31142" lon="3.124">
        <ele>661.52</ele>
        <time>2011-09-03T13:22:21Z</time>
      </trkpt>
      <trkpt lat="45.31137" lon="3.12422">
        <ele>662.49</ele>
        <time>2011-09-03T13:22:23Z</time>
      </trkpt>
      <trkpt lat="45.31134" lon="3.12437">
        <ele>665.37</ele>
        <time>2011-09-03T13:22:25Z</time>
      </trkpt>
      <trkpt lat="45.31133" lon="3.12443">
        <ele>665.37</ele>
        <time>2011-09-03T13:22:26Z</time>
      </trkpt>
      <trkpt lat="45.31146" lon="3.1244">
        <ele>667.77</ele>
        <time>2011-09-03T13:22:31Z</time>
      </trkpt>
      <trkpt lat="45.31157" lon="3.12418">
        <ele>670.18</ele>
        <time>2011-09-03T13:22:34Z</time>
      </trkpt>
      <trkpt lat="45.31173" lon="3.12398">
        <ele>673.06</ele>
        <time>2011-09-03T13:22:39Z</time>
      </trkpt>
      <trkpt lat="45.31179" lon="3.12403">
        <ele>676.42</ele>
        <time>2011-09-03T13:22:42Z</time>
      </trkpt>
      <trkpt lat="45.31179" lon="3.12408">
        <ele>676.42</ele>
        <time>2011-09-03T13:22:43Z</time>
      </trkpt>
      <trkpt lat="45.31179" lon="3.12419">
        <ele>677.87</ele>
        <time>2011-09-03T13:22:45Z</time>
      </trkpt>
      <trkpt lat="45.31177" lon="3.12425">
        <ele>679.79</ele>
        <time>2011-09-03T13:22:46Z</time>
      </trkpt>
      <trkpt lat="45.31173" lon="3.12447">
        <ele>682.67</ele>
        <time>2011-09-03T13:22:49Z</time>
      </trkpt>
      <trkpt lat="45.31173" lon="3.12503">
        <ele>688.92</ele>
        <time>2011-09-03T13:22:54Z</time>
      </trkpt>
      <trkpt lat="45.31175" lon="3.12537">
        <ele>692.29</ele>
        <time>2011-09-03T13:22:56Z</time>
      </trkpt>
      <trkpt lat="45.31174" lon="3.12592">
        <ele>697.57</ele>
        <time>2011-09-03T13:22:59Z</time>
      </trkpt>
      <trkpt lat="45.31172" lon="3.12632">
        <ele>702.86</ele>
        <time>2011-09-03T13:23:01Z</time>
      </trkpt>
      <trkpt lat="45.31169" lon="3.12672">
        <ele>705.75</ele>
        <time>2011-09-03T13:23:03Z</time>
      </trkpt>
      <trkpt lat="45.31165" lon="3.1271">
        <ele>709.11</ele>
        <time>2011-09-03T13:23:05Z</time>
      </trkpt>
      <trkpt lat="45.31157" lon="3.12768">
        <ele>713.44</ele>
        <time>2011-09-03T13:23:08Z</time>
      </trkpt>
      <trkpt lat="45.31148" lon="3.12815">
        <ele>715.84</ele>
        <time>2011-09-03T13:23:11Z</time>
      </trkpt>
      <trkpt lat="45.3114" lon="3.12841">
        <ele>719.2</ele>
        <time>2011-09-03T13:23:13Z</time>
      </trkpt>
      <trkpt lat="45.31127" lon="3.12875">
        <ele>720.65</ele>
        <time>2011-09-03T13:23:16Z</time>
      </trkpt>
      <trkpt lat="45.31123" lon="3.12911">
        <ele>724.49</ele>
        <time>2011-09-03T13:23:19Z</time>
      </trkpt>
      <trkpt lat="45.31129" lon="3.12933">
        <ele>727.86</ele>
        <time>2011-09-03T13:23:21Z</time>
      </trkpt>
      <trkpt lat="45.31134" lon="3.12944">
        <ele>727.37</ele>
        <time>2011-09-03T13:23:22Z</time>
      </trkpt>
      <trkpt lat="45.31164" lon="3.12972">
        <ele>730.74</ele>
        <time>2011-09-03T13:23:27Z</time>
      </trkpt>
      <trkpt lat="45.31176" lon="3.12967">
        <ele>733.14</ele>
        <time>2011-09-03T13:23:29Z</time>
      </trkpt>
      <trkpt lat="45.3119" lon="3.12953">
        <ele>735.55</ele>
        <time>2011-09-03T13:23:31Z</time>
      </trkpt>
      <trkpt lat="45.31214" lon="3.12925">
        <ele>738.91</ele>
        <time>2011-09-03T13:23:34Z</time>
      </trkpt>
      <trkpt lat="45.31242" lon="3.12885">
        <ele>741.79</ele>
        <time>2011-09-03T13:23:38Z</time>
      </trkpt>
      <trkpt lat="45.31305" lon="3.12842">
        <ele>747.08</ele>
        <time>2011-09-03T13:23:44Z</time>
      </trkpt>
      <trkpt lat="45.31337" lon="3.12825">
        <ele>747.08</ele>
        <time>2011-09-03T13:23:47Z</time>
      </trkpt>
      <trkpt lat="45.31367" lon="3.1282">
        <ele>749.49</ele>
        <time>2011-09-03T13:23:50Z</time>
      </trkpt>
      <trkpt lat="45.31394" lon="3.12806">
        <ele>750.93</ele>
        <time>2011-09-03T13:23:54Z</time>
      </trkpt>
      <trkpt lat="45.31428" lon="3.12765">
        <ele>757.66</ele>
        <time>2011-09-03T13:23:58Z</time>
      </trkpt>
      <trkpt lat="45.31439" lon="3.12755">
        <ele>758.14</ele>
        <time>2011-09-03T13:23:59Z</time>
      </trkpt>
      <trkpt lat="45.31457" lon="3.12737">
        <ele>760.06</ele>
        <time>2011-09-03T13:24:01Z</time>
      </trkpt>
      <trkpt lat="45.3148" lon="3.12704">
        <ele>762.94</ele>
        <time>2011-09-03T13:24:04Z</time>
      </trkpt>
      <trkpt lat="45.31496" lon="3.12677">
        <ele>765.83</ele>
        <time>2011-09-03T13:24:06Z</time>
      </trkpt>
      <trkpt lat="45.31559" lon="3.12611">
        <ele>767.27</ele>
        <time>2011-09-03T13:24:13Z</time>
      </trkpt>
      <trkpt lat="45.31579" lon="3.12602">
        <ele>769.19</ele>
        <time>2011-09-03T13:24:15Z</time>
      </trkpt>
      <trkpt lat="45.31599" lon="3.126">
        <ele>770.63</ele>
        <time>2011-09-03T13:24:17Z</time>
      </trkpt>
      <trkpt lat="45.31624" lon="3.126">
        <ele>772.56</ele>
        <time>2011-09-03T13:24:19Z</time>
      </trkpt>
      <trkpt lat="45.31664" lon="3.12591">
        <ele>777.84</ele>
        <time>2011-09-03T13:24:22Z</time>
      </trkpt>
      <trkpt lat="45.31678" lon="3.12587">
        <ele>777.84</ele>
        <time>2011-09-03T13:24:23Z</time>
      </trkpt>
      <trkpt lat="45.31707" lon="3.12582">
        <ele>779.29</ele>
        <time>2011-09-03T13:24:25Z</time>
      </trkpt>
      <trkpt lat="45.31742" lon="3.12575">
        <ele>781.21</ele>
        <time>2011-09-03T13:24:27Z</time>
      </trkpt>
      <trkpt lat="45.31807" lon="3.12562">
        <ele>785.53</ele>
        <time>2011-09-03T13:24:31Z</time>
      </trkpt>
      <trkpt lat="45.3182" lon="3.12558">
        <ele>786.02</ele>
        <time>2011-09-03T13:24:32Z</time>
      </trkpt>
      <trkpt lat="45.31858" lon="3.12548">
        <ele>789.86</ele>
        <time>2011-09-03T13:24:35Z</time>
      </trkpt>
      <trkpt lat="45.31891" lon="3.12531">
        <ele>792.74</ele>
        <time>2011-09-03T13:24:38Z</time>
      </trkpt>
      <trkpt lat="45.31944" lon="3.12449">
        <ele>798.51</ele>
        <time>2011-09-03T13:24:45Z</time>
      </trkpt>
      <trkpt lat="45.31954" lon="3.12392">
        <ele>805.24</ele>
        <time>2011-09-03T13:24:48Z</time>
      </trkpt>
      <trkpt lat="45.31957" lon="3.12372">
        <ele>805.24</ele>
        <time>2011-09-03T13:24:49Z</time>
      </trkpt>
      <trkpt lat="45.3196" lon="3.12353">
        <ele>808.13</ele>
        <time>2011-09-03T13:24:50Z</time>
      </trkpt>
      <trkpt lat="45.31962" lon="3.12335">
        <ele>808.61</ele>
        <time>2011-09-03T13:24:51Z</time>
      </trkpt>
      <trkpt lat="45.31965" lon="3.12318">
        <ele>808.61</ele>
        <time>2011-09-03T13:24:52Z</time>
      </trkpt>
      <trkpt lat="45.31985" lon="3.1225">
        <ele>814.85</ele>
        <time>2011-09-03T13:24:56Z</time>
      </trkpt>
      <trkpt lat="45.31999" lon="3.12216">
        <ele>818.7</ele>
        <time>2011-09-03T13:24:58Z</time>
      </trkpt>
      <trkpt lat="45.32029" lon="3.12169">
        <ele>823.51</ele>
        <time>2011-09-03T13:25:01Z</time>
      </trkpt>
      <trkpt lat="45.32055" lon="3.12136">
        <ele>827.83</ele>
        <time>2011-09-03T13:25:03Z</time>
      </trkpt>
      <trkpt lat="45.32078" lon="3.12107">
        <ele>831.2</ele>
        <time>2011-09-03T13:25:05Z</time>
      </trkpt>
      <trkpt lat="45.32088" lon="3.12095">
        <ele>832.64</ele>
        <time>2011-09-03T13:25:06Z</time>
      </trkpt>
      <trkpt lat="45.32104" lon="3.12062">
        <ele>837.93</ele>
        <time>2011-09-03T13:25:09Z</time>
      </trkpt>
      <trkpt lat="45.32106" lon="3.12048">
        <ele>837.93</ele>
        <time>2011-09-03T13:25:10Z</time>
      </trkpt>
      <trkpt lat="45.32106" lon="3.12033">
        <ele>842.73</ele>
        <time>2011-09-03T13:25:11Z</time>
      </trkpt>
      <trkpt lat="45.32105" lon="3.11994">
        <ele>846.58</ele>
        <time>2011-09-03T13:25:13Z</time>
      </trkpt>
      <trkpt lat="45.32103" lon="3.11949">
        <ele>853.31</ele>
        <time>2011-09-03T13:25:15Z</time>
      </trkpt>
      <trkpt lat="45.32099" lon="3.11904">
        <ele>857.63</ele>
        <time>2011-09-03T13:25:17Z</time>
      </trkpt>
      <trkpt lat="45.32096" lon="3.11885">
        <ele>857.15</ele>
        <time>2011-09-03T13:25:18Z</time>
      </trkpt>
      <trkpt lat="45.32089" lon="3.11843">
        <ele>860.04</ele>
        <time>2011-09-03T13:25:21Z</time>
      </trkpt>
      <trkpt lat="45.32101" lon="3.11802">
        <ele>865.8</ele>
        <time>2011-09-03T13:25:25Z</time>
      </trkpt>
      <trkpt lat="45.32121" lon="3.11781">
        <ele>871.57</ele>
        <time>2011-09-03T13:25:27Z</time>
      </trkpt>
      <trkpt lat="45.3213" lon="3.11769">
        <ele>872.05</ele>
        <time>2011-09-03T13:25:28Z</time>
      </trkpt>
      <trkpt lat="45.32156" lon="3.11725">
        <ele>877.34</ele>
        <time>2011-09-03T13:25:31Z</time>
      </trkpt>
      <trkpt lat="45.32174" lon="3.11697">
        <ele>880.71</ele>
        <time>2011-09-03T13:25:33Z</time>
      </trkpt>
      <trkpt lat="45.32189" lon="3.11669">
        <ele>881.67</ele>
        <time>2011-09-03T13:25:35Z</time>
      </trkpt>
      <trkpt lat="45.32202" lon="3.11638">
        <ele>883.59</ele>
        <time>2011-09-03T13:25:37Z</time>
      </trkpt>
      <trkpt lat="45.32212" lon="3.11587">
        <ele>886.47</ele>
        <time>2011-09-03T13:25:40Z</time>
      </trkpt>
      <trkpt lat="45.32215" lon="3.11547">
        <ele>891.28</ele>
        <time>2011-09-03T13:25:42Z</time>
      </trkpt>
      <trkpt lat="45.32215" lon="3.11527">
        <ele>891.28</ele>
        <time>2011-09-03T13:25:43Z</time>
      </trkpt>
      <trkpt lat="45.32214" lon="3.11506">
        <ele>894.64</ele>
        <time>2011-09-03T13:25:44Z</time>
      </trkpt>
      <trkpt lat="45.32208" lon="3.11445">
        <ele>898.97</ele>
        <time>2011-09-03T13:25:47Z</time>
      </trkpt>
      <trkpt lat="45.32206" lon="3.1141">
        <ele>902.33</ele>
        <time>2011-09-03T13:25:49Z</time>
      </trkpt>
      <trkpt lat="45.32206" lon="3.11371">
        <ele>904.26</ele>
        <time>2011-09-03T13:25:51Z</time>
      </trkpt>
      <trkpt lat="45.32209" lon="3.11334">
        <ele>908.1</ele>
        <time>2011-09-03T13:25:53Z</time>
      </trkpt>
      <trkpt lat="45.32213" lon="3.11305">
        <ele>909.06</ele>
        <time>2011-09-03T13:25:55Z</time>
      </trkpt>
      <trkpt lat="45.3222" lon="3.11262">
        <ele>910.51</ele>
        <time>2011-09-03T13:25:58Z</time>
      </trkpt>
      <trkpt lat="45.32212" lon="3.11197">
        <ele>909.54</ele>
        <time>2011-09-03T13:26:03Z</time>
      </trkpt>
      <trkpt lat="45.32185" lon="3.11126">
        <ele>908.58</ele>
        <time>2011-09-03T13:26:10Z</time>
      </trkpt>
      <trkpt lat="45.32117" lon="3.11038">
        <ele>908.1</ele>
        <time>2011-09-03T13:26:17Z</time>
      </trkpt>
      <trkpt lat="45.32087" lon="3.11013">
        <ele>910.51</ele>
        <time>2011-09-03T13:26:20Z</time>
      </trkpt>
      <trkpt lat="45.32064" lon="3.11">
        <ele>912.43</ele>
        <time>2011-09-03T13:26:22Z</time>
      </trkpt>
      <trkpt lat="45.32045" lon="3.10984">
        <ele>914.35</ele>
        <time>2011-09-03T13:26:24Z</time>
      </trkpt>
      <trkpt lat="45.32024" lon="3.10945">
        <ele>919.64</ele>
        <time>2011-09-03T13:26:27Z</time>
      </trkpt>
      <trkpt lat="45.32007" lon="3.10901">
        <ele>923</ele>
        <time>2011-09-03T13:26:30Z</time>
      </trkpt>
      <trkpt lat="45.31997" lon="3.10874">
        <ele>924.45</ele>
        <time>2011-09-03T13:26:32Z</time>
      </trkpt>
      <trkpt lat="45.31992" lon="3.1086">
        <ele>924.45</ele>
        <time>2011-09-03T13:26:33Z</time>
      </trkpt>
      <trkpt lat="45.31988" lon="3.10796">
        <ele>925.89</ele>
        <time>2011-09-03T13:26:37Z</time>
      </trkpt>
      <trkpt lat="45.31991" lon="3.10778">
        <ele>926.37</ele>
        <time>2011-09-03T13:26:38Z</time>
      </trkpt>
      <trkpt lat="45.32025" lon="3.10631">
        <ele>931.17</ele>
        <time>2011-09-03T13:26:46Z</time>
      </trkpt>
      <trkpt lat="45.32028" lon="3.1061">
        <ele>931.17</ele>
        <time>2011-09-03T13:26:47Z</time>
      </trkpt>
      <trkpt lat="45.32035" lon="3.10552">
        <ele>935.5</ele>
        <time>2011-09-03T13:26:50Z</time>
      </trkpt>
      <trkpt lat="45.32037" lon="3.10534">
        <ele>936.94</ele>
        <time>2011-09-03T13:26:51Z</time>
      </trkpt>
      <trkpt lat="45.32049" lon="3.10481">
        <ele>938.38</ele>
        <time>2011-09-03T13:26:54Z</time>
      </trkpt>
      <trkpt lat="45.32065" lon="3.10435">
        <ele>937.9</ele>
        <time>2011-09-03T13:26:57Z</time>
      </trkpt>
      <trkpt lat="45.3207" lon="3.10285">
        <ele>939.83</ele>
        <time>2011-09-03T13:27:06Z</time>
      </trkpt>
      <trkpt lat="45.32069" lon="3.10273">
        <ele>938.86</ele>
        <time>2011-09-03T13:27:07Z</time>
      </trkpt>
      <trkpt lat="45.32051" lon="3.10229">
        <ele>939.83</ele>
        <time>2011-09-03T13:27:11Z</time>
      </trkpt>
      <trkpt lat="45.3201" lon="3.10158">
        <ele>940.31</ele>
        <time>2011-09-03T13:27:19Z</time>
      </trkpt>
      <trkpt lat="45.32011" lon="3.10088">
        <ele>938.86</ele>
        <time>2011-09-03T13:27:26Z</time>
      </trkpt>
      <trkpt lat="45.32036" lon="3.10074">
        <ele>938.86</ele>
        <time>2011-09-03T13:27:29Z</time>
      </trkpt>
      <trkpt lat="45.32086" lon="3.10066">
        <ele>941.27</ele>
        <time>2011-09-03T13:27:33Z</time>
      </trkpt>
      <trkpt lat="45.32147" lon="3.10052">
        <ele>944.63</ele>
        <time>2011-09-03T13:27:37Z</time>
      </trkpt>
      <trkpt lat="45.32162" lon="3.10047">
        <ele>945.11</ele>
        <time>2011-09-03T13:27:38Z</time>
      </trkpt>
      <trkpt lat="45.32204" lon="3.10026">
        <ele>947.52</ele>
        <time>2011-09-03T13:27:41Z</time>
      </trkpt>
      <trkpt lat="45.32226" lon="3.10013">
        <ele>948.96</ele>
        <time>2011-09-03T13:27:43Z</time>
      </trkpt>
      <trkpt lat="45.3226" lon="3.10013">
        <ele>951.36</ele>
        <time>2011-09-03T13:27:47Z</time>
      </trkpt>
      <trkpt lat="45.32287" lon="3.10004">
        <ele>950.88</ele>
        <time>2011-09-03T13:27:52Z</time>
      </trkpt>
      <trkpt lat="45.323" lon="3.09985">
        <ele>952.32</ele>
        <time>2011-09-03T13:27:54Z</time>
      </trkpt>
      <trkpt lat="45.32307" lon="3.09976">
        <ele>952.8</ele>
        <time>2011-09-03T13:27:55Z</time>
      </trkpt>
      <trkpt lat="45.32365" lon="3.09944">
        <ele>954.73</ele>
        <time>2011-09-03T13:28:02Z</time>
      </trkpt>
      <trkpt lat="45.32385" lon="3.09943">
        <ele>955.69</ele>
        <time>2011-09-03T13:28:05Z</time>
      </trkpt>
      <trkpt lat="45.32405" lon="3.09954">
        <ele>957.61</ele>
        <time>2011-09-03T13:28:09Z</time>
      </trkpt>
      <trkpt lat="45.32438" lon="3.09997">
        <ele>961.46</ele>
        <time>2011-09-03T13:28:19Z</time>
      </trkpt>
      <trkpt lat="45.32439" lon="3.09998">
        <ele>961.46</ele>
        <time>2011-09-03T13:28:39Z</time>
      </trkpt>
      <trkpt lat="45.32438" lon="3.09999">
        <ele>961.94</ele>
        <time>2011-09-03T13:30:09Z</time>
      </trkpt>
      <trkpt lat="45.32438" lon="3.09999">
        <ele>961.46</ele>
        <time>2011-09-03T13:30:10Z</time>
      </trkpt>
      <trkpt lat="45.32452" lon="3.09977">
        <ele>965.78</ele>
        <time>2011-09-03T13:30:16Z</time>
      </trkpt>
      <trkpt lat="45.32455" lon="3.09953">
        <ele>969.15</ele>
        <time>2011-09-03T13:30:18Z</time>
      </trkpt>
      <trkpt lat="45.32471" lon="3.09909">
        <ele>973.47</ele>
        <time>2011-09-03T13:30:22Z</time>
      </trkpt>
      <trkpt lat="45.32495" lon="3.09868">
        <ele>977.8</ele>
        <time>2011-09-03T13:30:26Z</time>
      </trkpt>
      <trkpt lat="45.32502" lon="3.09857">
        <ele>978.28</ele>
        <time>2011-09-03T13:30:27Z</time>
      </trkpt>
      <trkpt lat="45.32517" lon="3.09797">
        <ele>983.09</ele>
        <time>2011-09-03T13:30:32Z</time>
      </trkpt>
      <trkpt lat="45.32514" lon="3.09648">
        <ele>984.53</ele>
        <time>2011-09-03T13:30:41Z</time>
      </trkpt>
      <trkpt lat="45.32506" lon="3.09599">
        <ele>984.53</ele>
        <time>2011-09-03T13:30:46Z</time>
      </trkpt>
      <trkpt lat="45.32524" lon="3.09563">
        <ele>985.49</ele>
        <time>2011-09-03T13:30:52Z</time>
      </trkpt>
      <trkpt lat="45.32581" lon="3.09511">
        <ele>985.01</ele>
        <time>2011-09-03T13:30:59Z</time>
      </trkpt>
      <trkpt lat="45.32622" lon="3.09497">
        <ele>986.45</ele>
        <time>2011-09-03T13:31:04Z</time>
      </trkpt>
      <trkpt lat="45.32632" lon="3.09502">
        <ele>987.41</ele>
        <time>2011-09-03T13:31:05Z</time>
      </trkpt>
      <trkpt lat="45.32717" lon="3.09556">
        <ele>989.81</ele>
        <time>2011-09-03T13:31:13Z</time>
      </trkpt>
      <trkpt lat="45.32803" lon="3.09572">
        <ele>985.97</ele>
        <time>2011-09-03T13:31:21Z</time>
      </trkpt>
      <trkpt lat="45.32815" lon="3.09568">
        <ele>985.01</ele>
        <time>2011-09-03T13:31:22Z</time>
      </trkpt>
      <trkpt lat="45.32858" lon="3.09548">
        <ele>980.68</ele>
        <time>2011-09-03T13:31:26Z</time>
      </trkpt>
      <trkpt lat="45.32889" lon="3.09529">
        <ele>977.32</ele>
        <time>2011-09-03T13:31:29Z</time>
      </trkpt>
      <trkpt lat="45.32917" lon="3.09508">
        <ele>973.95</ele>
        <time>2011-09-03T13:31:32Z</time>
      </trkpt>
      <trkpt lat="45.32954" lon="3.09478">
        <ele>971.07</ele>
        <time>2011-09-03T13:31:37Z</time>
      </trkpt>
      <trkpt lat="45.32982" lon="3.09453">
        <ele>971.07</ele>
        <time>2011-09-03T13:31:41Z</time>
      </trkpt>
      <trkpt lat="45.33019" lon="3.09456">
        <ele>971.07</ele>
        <time>2011-09-03T13:31:47Z</time>
      </trkpt>
      <trkpt lat="45.33029" lon="3.09483">
        <ele>972.51</ele>
        <time>2011-09-03T13:31:50Z</time>
      </trkpt>
      <trkpt lat="45.33032" lon="3.09508">
        <ele>973.95</ele>
        <time>2011-09-03T13:31:52Z</time>
      </trkpt>
      <trkpt lat="45.33047" lon="3.09572">
        <ele>978.28</ele>
        <time>2011-09-03T13:31:56Z</time>
      </trkpt>
      <trkpt lat="45.33053" lon="3.09602">
        <ele>980.68</ele>
        <time>2011-09-03T13:31:58Z</time>
      </trkpt>
      <trkpt lat="45.3307" lon="3.09637">
        <ele>985.97</ele>
        <time>2011-09-03T13:32:02Z</time>
      </trkpt>
      <trkpt lat="45.33076" lon="3.09642">
        <ele>985.97</ele>
        <time>2011-09-03T13:32:03Z</time>
      </trkpt>
      <trkpt lat="45.33091" lon="3.09648">
        <ele>989.81</ele>
        <time>2011-09-03T13:32:05Z</time>
      </trkpt>
      <trkpt lat="45.331" lon="3.09649">
        <ele>991.26</ele>
        <time>2011-09-03T13:32:06Z</time>
      </trkpt>
      <trkpt lat="45.3313" lon="3.09651">
        <ele>995.1</ele>
        <time>2011-09-03T13:32:09Z</time>
      </trkpt>
      <trkpt lat="45.33151" lon="3.09643">
        <ele>996.54</ele>
        <time>2011-09-03T13:32:12Z</time>
      </trkpt>
      <trkpt lat="45.33158" lon="3.09637">
        <ele>996.54</ele>
        <time>2011-09-03T13:32:13Z</time>
      </trkpt>
      <trkpt lat="45.33229" lon="3.09557">
        <ele>994.62</ele>
        <time>2011-09-03T13:32:21Z</time>
      </trkpt>
      <trkpt lat="45.33271" lon="3.09539">
        <ele>991.74</ele>
        <time>2011-09-03T13:32:25Z</time>
      </trkpt>
      <trkpt lat="45.33297" lon="3.09542">
        <ele>990.3</ele>
        <time>2011-09-03T13:32:27Z</time>
      </trkpt>
      <trkpt lat="45.33325" lon="3.09544">
        <ele>990.78</ele>
        <time>2011-09-03T13:32:29Z</time>
      </trkpt>
      <trkpt lat="45.33376" lon="3.09541">
        <ele>987.89</ele>
        <time>2011-09-03T13:32:33Z</time>
      </trkpt>
      <trkpt lat="45.33431" lon="3.09539">
        <ele>985.01</ele>
        <time>2011-09-03T13:32:37Z</time>
      </trkpt>
      <trkpt lat="45.33476" lon="3.09536">
        <ele>982.12</ele>
        <time>2011-09-03T13:32:40Z</time>
      </trkpt>
      <trkpt lat="45.33521" lon="3.09531">
        <ele>979.24</ele>
        <time>2011-09-03T13:32:43Z</time>
      </trkpt>
      <trkpt lat="45.33572" lon="3.09547">
        <ele>973.95</ele>
        <time>2011-09-03T13:32:47Z</time>
      </trkpt>
      <trkpt lat="45.33701" lon="3.09675">
        <ele>980.2</ele>
        <time>2011-09-03T13:32:57Z</time>
      </trkpt>
      <trkpt lat="45.33714" lon="3.09689">
        <ele>981.16</ele>
        <time>2011-09-03T13:32:58Z</time>
      </trkpt>
      <trkpt lat="45.33801" lon="3.09746">
        <ele>985.49</ele>
        <time>2011-09-03T13:33:04Z</time>
      </trkpt>
      <trkpt lat="45.33816" lon="3.09759">
        <ele>985.97</ele>
        <time>2011-09-03T13:33:05Z</time>
      </trkpt>
      <trkpt lat="45.33843" lon="3.09786">
        <ele>989.33</ele>
        <time>2011-09-03T13:33:07Z</time>
      </trkpt>
      <trkpt lat="45.33898" lon="3.09813">
        <ele>989.33</ele>
        <time>2011-09-03T13:33:11Z</time>
      </trkpt>
      <trkpt lat="45.33965" lon="3.09864">
        <ele>989.81</ele>
        <time>2011-09-03T13:33:18Z</time>
      </trkpt>
      <trkpt lat="45.33973" lon="3.09876">
        <ele>988.85</ele>
        <time>2011-09-03T13:33:25Z</time>
      </trkpt>
      <trkpt lat="45.33973" lon="3.09876">
        <ele>989.33</ele>
        <time>2011-09-03T13:33:48Z</time>
      </trkpt>
      <trkpt lat="45.33972" lon="3.09865">
        <ele>990.78</ele>
        <time>2011-09-03T13:33:52Z</time>
      </trkpt>
      <trkpt lat="45.33954" lon="3.09835">
        <ele>992.7</ele>
        <time>2011-09-03T13:33:56Z</time>
      </trkpt>
      <trkpt lat="45.33896" lon="3.0973">
        <ele>991.26</ele>
        <time>2011-09-03T13:34:04Z</time>
      </trkpt>
      <trkpt lat="45.33816" lon="3.09572">
        <ele>995.1</ele>
        <time>2011-09-03T13:34:13Z</time>
      </trkpt>
      <trkpt lat="45.33793" lon="3.09488">
        <ele>998.95</ele>
        <time>2011-09-03T13:34:17Z</time>
      </trkpt>
      <trkpt lat="45.33776" lon="3.09366">
        <ele>1002.31</ele>
        <time>2011-09-03T13:34:23Z</time>
      </trkpt>
      <trkpt lat="45.3375" lon="3.09281">
        <ele>1006.16</ele>
        <time>2011-09-03T13:34:28Z</time>
      </trkpt>
      <trkpt lat="45.33742" lon="3.09264">
        <ele>1006.16</ele>
        <time>2011-09-03T13:34:29Z</time>
      </trkpt>
      <trkpt lat="45.33714" lon="3.09216">
        <ele>1010</ele>
        <time>2011-09-03T13:34:32Z</time>
      </trkpt>
      <trkpt lat="45.3367" lon="3.09155">
        <ele>1013.37</ele>
        <time>2011-09-03T13:34:36Z</time>
      </trkpt>
      <trkpt lat="45.33646" lon="3.09126">
        <ele>1017.21</ele>
        <time>2011-09-03T13:34:38Z</time>
      </trkpt>
      <trkpt lat="45.33622" lon="3.09098">
        <ele>1017.69</ele>
        <time>2011-09-03T13:34:40Z</time>
      </trkpt>
      <trkpt lat="45.33599" lon="3.09068">
        <ele>1021.06</ele>
        <time>2011-09-03T13:34:42Z</time>
      </trkpt>
      <trkpt lat="45.3357" lon="3.09018">
        <ele>1024.42</ele>
        <time>2011-09-03T13:34:45Z</time>
      </trkpt>
      <trkpt lat="45.33561" lon="3.09001">
        <ele>1023.46</ele>
        <time>2011-09-03T13:34:46Z</time>
      </trkpt>
      <trkpt lat="45.33546" lon="3.08966">
        <ele>1027.31</ele>
        <time>2011-09-03T13:34:48Z</time>
      </trkpt>
      <trkpt lat="45.33531" lon="3.08908">
        <ele>1029.71</ele>
        <time>2011-09-03T13:34:51Z</time>
      </trkpt>
      <trkpt lat="45.33519" lon="3.08845">
        <ele>1034.04</ele>
        <time>2011-09-03T13:34:54Z</time>
      </trkpt>
      <trkpt lat="45.33508" lon="3.08801">
        <ele>1036.92</ele>
        <time>2011-09-03T13:34:56Z</time>
      </trkpt>
      <trkpt lat="45.33483" lon="3.08734">
        <ele>1041.73</ele>
        <time>2011-09-03T13:34:59Z</time>
      </trkpt>
      <trkpt lat="45.33461" lon="3.08693">
        <ele>1044.61</ele>
        <time>2011-09-03T13:35:01Z</time>
      </trkpt>
      <trkpt lat="45.3345" lon="3.08672">
        <ele>1046.53</ele>
        <time>2011-09-03T13:35:02Z</time>
      </trkpt>
      <trkpt lat="45.33433" lon="3.08627">
        <ele>1047.01</ele>
        <time>2011-09-03T13:35:04Z</time>
      </trkpt>
      <trkpt lat="45.33409" lon="3.08534">
        <ele>1049.9</ele>
        <time>2011-09-03T13:35:08Z</time>
      </trkpt>
      <trkpt lat="45.33365" lon="3.08401">
        <ele>1053.26</ele>
        <time>2011-09-03T13:35:14Z</time>
      </trkpt>
      <trkpt lat="45.33333" lon="3.08342">
        <ele>1055.67</ele>
        <time>2011-09-03T13:35:17Z</time>
      </trkpt>
      <trkpt lat="45.33295" lon="3.0829">
        <ele>1057.59</ele>
        <time>2011-09-03T13:35:20Z</time>
      </trkpt>
      <trkpt lat="45.33271" lon="3.08254">
        <ele>1058.55</ele>
        <time>2011-09-03T13:35:22Z</time>
      </trkpt>
      <trkpt lat="45.33226" lon="3.08144">
        <ele>1062.87</ele>
        <time>2011-09-03T13:35:27Z</time>
      </trkpt>
      <trkpt lat="45.3319" lon="3.08047">
        <ele>1065.76</ele>
        <time>2011-09-03T13:35:32Z</time>
      </trkpt>
      <trkpt lat="45.33161" lon="3.07993">
        <ele>1069.12</ele>
        <time>2011-09-03T13:35:35Z</time>
      </trkpt>
      <trkpt lat="45.33149" lon="3.07979">
        <ele>1069.12</ele>
        <time>2011-09-03T13:35:36Z</time>
      </trkpt>
      <trkpt lat="45.33098" lon="3.07918">
        <ele>1067.68</ele>
        <time>2011-09-03T13:35:41Z</time>
      </trkpt>
      <trkpt lat="45.33081" lon="3.0786">
        <ele>1066.24</ele>
        <time>2011-09-03T13:35:45Z</time>
      </trkpt>
      <trkpt lat="45.33087" lon="3.07772">
        <ele>1066.72</ele>
        <time>2011-09-03T13:35:56Z</time>
      </trkpt>
      <trkpt lat="45.33088" lon="3.07763">
        <ele>1065.76</ele>
        <time>2011-09-03T13:36:05Z</time>
      </trkpt>
      <trkpt lat="45.33085" lon="3.07682">
        <ele>1069.6</ele>
        <time>2011-09-03T13:36:13Z</time>
      </trkpt>
      <trkpt lat="45.33084" lon="3.07667">
        <ele>1071.05</ele>
        <time>2011-09-03T13:36:14Z</time>
      </trkpt>
      <trkpt lat="45.33096" lon="3.07599">
        <ele>1072.49</ele>
        <time>2011-09-03T13:36:20Z</time>
      </trkpt>
      <trkpt lat="45.33096" lon="3.07583">
        <ele>1072.97</ele>
        <time>2011-09-03T13:36:23Z</time>
      </trkpt>
      <trkpt lat="45.3309" lon="3.07556">
        <ele>1074.41</ele>
        <time>2011-09-03T13:36:27Z</time>
      </trkpt>
      <trkpt lat="45.33078" lon="3.0751">
        <ele>1077.29</ele>
        <time>2011-09-03T13:36:34Z</time>
      </trkpt>
      <trkpt lat="45.33072" lon="3.07489">
        <ele>1079.22</ele>
        <time>2011-09-03T13:36:38Z</time>
      </trkpt>
      <trkpt lat="45.3307" lon="3.07483">
        <ele>1079.7</ele>
        <time>2011-09-03T13:36:39Z</time>
      </trkpt>
      <trkpt lat="45.33062" lon="3.07465">
        <ele>1082.1</ele>
        <time>2011-09-03T13:36:42Z</time>
      </trkpt>
      <trkpt lat="45.33058" lon="3.07459">
        <ele>1083.54</ele>
        <time>2011-09-03T13:36:43Z</time>
      </trkpt>
      <trkpt lat="45.33031" lon="3.0741">
        <ele>1086.91</ele>
        <time>2011-09-03T13:36:49Z</time>
      </trkpt>
      <trkpt lat="45.33026" lon="3.07399">
        <ele>1087.39</ele>
        <time>2011-09-03T13:36:50Z</time>
      </trkpt>
      <trkpt lat="45.33016" lon="3.07373">
        <ele>1089.79</ele>
        <time>2011-09-03T13:36:52Z</time>
      </trkpt>
      <trkpt lat="45.33001" lon="3.07325">
        <ele>1093.64</ele>
        <time>2011-09-03T13:36:55Z</time>
      </trkpt>
      <trkpt lat="45.32997" lon="3.07309">
        <ele>1093.16</ele>
        <time>2011-09-03T13:36:56Z</time>
      </trkpt>
      <trkpt lat="45.32989" lon="3.07275">
        <ele>1096.52</ele>
        <time>2011-09-03T13:36:58Z</time>
      </trkpt>
      <trkpt lat="45.32953" lon="3.07167">
        <ele>1096.52</ele>
        <time>2011-09-03T13:37:05Z</time>
      </trkpt>
      <trkpt lat="45.32928" lon="3.0707">
        <ele>1097.96</ele>
        <time>2011-09-03T13:37:12Z</time>
      </trkpt>
      <trkpt lat="45.32888" lon="3.06958">
        <ele>1099.89</ele>
        <time>2011-09-03T13:37:21Z</time>
      </trkpt>
      <trkpt lat="45.32832" lon="3.06842">
        <ele>1103.25</ele>
        <time>2011-09-03T13:37:31Z</time>
      </trkpt>
      <trkpt lat="45.32825" lon="3.06832">
        <ele>1103.25</ele>
        <time>2011-09-03T13:37:32Z</time>
      </trkpt>
      <trkpt lat="45.32779" lon="3.06758">
        <ele>1105.65</ele>
        <time>2011-09-03T13:37:39Z</time>
      </trkpt>
      <trkpt lat="45.32758" lon="3.06732">
        <ele>1105.17</ele>
        <time>2011-09-03T13:37:46Z</time>
      </trkpt>
      <trkpt lat="45.32758" lon="3.06732">
        <ele>1105.17</ele>
        <time>2011-09-03T13:38:11Z</time>
      </trkpt>
      <trkpt lat="45.32758" lon="3.06732">
        <ele>1106.13</ele>
        <time>2011-09-03T13:38:25Z</time>
      </trkpt>
      <trkpt lat="45.32759" lon="3.06732">
        <ele>1106.61</ele>
        <time>2011-09-03T13:39:18Z</time>
      </trkpt>
      <trkpt lat="45.32759" lon="3.06732">
        <ele>1106.61</ele>
        <time>2011-09-03T13:39:35Z</time>
      </trkpt>
      <trkpt lat="45.32758" lon="3.06729">
        <ele>1105.17</ele>
        <time>2011-09-03T13:40:10Z</time>
      </trkpt>
      <trkpt lat="45.32756" lon="3.06727">
        <ele>1106.61</ele>
        <time>2011-09-03T13:40:19Z</time>
      </trkpt>
      <trkpt lat="45.32757" lon="3.06729">
        <ele>1106.61</ele>
        <time>2011-09-03T13:40:21Z</time>
      </trkpt>
      <trkpt lat="45.3276" lon="3.06734">
        <ele>1105.65</ele>
        <time>2011-09-03T13:40:41Z</time>
      </trkpt>
      <trkpt lat="45.3276" lon="3.06734">
        <ele>1106.61</ele>
        <time>2011-09-03T13:41:08Z</time>
      </trkpt>
      <trkpt lat="45.3276" lon="3.06734">
        <ele>1105.65</ele>
        <time>2011-09-03T13:41:22Z</time>
      </trkpt>
      <trkpt lat="45.3276" lon="3.06734">
        <ele>1107.1</ele>
        <time>2011-09-03T13:41:26Z</time>
      </trkpt>
      <trkpt lat="45.3276" lon="3.06734">
        <ele>1105.17</ele>
        <time>2011-09-03T13:41:31Z</time>
      </trkpt>
      <trkpt lat="45.32779" lon="3.06759">
        <ele>1106.61</ele>
        <time>2011-09-03T13:41:48Z</time>
      </trkpt>
      <trkpt lat="45.32806" lon="3.06803">
        <ele>1105.65</ele>
        <time>2011-09-03T13:41:53Z</time>
      </trkpt>
      <trkpt lat="45.32816" lon="3.06818">
        <ele>1105.17</ele>
        <time>2011-09-03T13:41:55Z</time>
      </trkpt>
      <trkpt lat="45.32876" lon="3.06926">
        <ele>1103.73</ele>
        <time>2011-09-03T13:42:05Z</time>
      </trkpt>
      <trkpt lat="45.32916" lon="3.07024">
        <ele>1101.81</ele>
        <time>2011-09-03T13:42:12Z</time>
      </trkpt>
      <trkpt lat="45.32943" lon="3.0712">
        <ele>1098.44</ele>
        <time>2011-09-03T13:42:18Z</time>
      </trkpt>
      <trkpt lat="45.32981" lon="3.07237">
        <ele>1099.89</ele>
        <time>2011-09-03T13:42:26Z</time>
      </trkpt>
      <trkpt lat="45.32999" lon="3.07312">
        <ele>1097.48</ele>
        <time>2011-09-03T13:42:31Z</time>
      </trkpt>
      <trkpt lat="45.33017" lon="3.07365">
        <ele>1094.12</ele>
        <time>2011-09-03T13:42:36Z</time>
      </trkpt>
      <trkpt lat="45.33026" lon="3.0739">
        <ele>1092.2</ele>
        <time>2011-09-03T13:42:39Z</time>
      </trkpt>
      <trkpt lat="45.33051" lon="3.07441">
        <ele>1088.35</ele>
        <time>2011-09-03T13:42:44Z</time>
      </trkpt>
      <trkpt lat="45.33062" lon="3.07459">
        <ele>1087.39</ele>
        <time>2011-09-03T13:42:46Z</time>
      </trkpt>
      <trkpt lat="45.33072" lon="3.07477">
        <ele>1083.54</ele>
        <time>2011-09-03T13:42:48Z</time>
      </trkpt>
      <trkpt lat="45.33077" lon="3.07486">
        <ele>1082.1</ele>
        <time>2011-09-03T13:42:49Z</time>
      </trkpt>
      <trkpt lat="45.33084" lon="3.07507">
        <ele>1080.66</ele>
        <time>2011-09-03T13:42:51Z</time>
      </trkpt>
      <trkpt lat="45.33094" lon="3.07551">
        <ele>1077.29</ele>
        <time>2011-09-03T13:42:55Z</time>
      </trkpt>
      <trkpt lat="45.33097" lon="3.0756">
        <ele>1077.29</ele>
        <time>2011-09-03T13:42:56Z</time>
      </trkpt>
      <trkpt lat="45.331" lon="3.07576">
        <ele>1075.85</ele>
        <time>2011-09-03T13:42:58Z</time>
      </trkpt>
      <trkpt lat="45.33097" lon="3.07607">
        <ele>1074.89</ele>
        <time>2011-09-03T13:43:02Z</time>
      </trkpt>
      <trkpt lat="45.33088" lon="3.07653">
        <ele>1073.93</ele>
        <time>2011-09-03T13:43:07Z</time>
      </trkpt>
      <trkpt lat="45.33089" lon="3.07684">
        <ele>1072.01</ele>
        <time>2011-09-03T13:43:12Z</time>
      </trkpt>
      <trkpt lat="45.3309" lon="3.07697">
        <ele>1072.97</ele>
        <time>2011-09-03T13:43:14Z</time>
      </trkpt>
      <trkpt lat="45.33092" lon="3.07732">
        <ele>1069.6</ele>
        <time>2011-09-03T13:43:20Z</time>
      </trkpt>
      <trkpt lat="45.33092" lon="3.0775">
        <ele>1069.12</ele>
        <time>2011-09-03T13:43:23Z</time>
      </trkpt>
      <trkpt lat="45.33082" lon="3.07837">
        <ele>1068.64</ele>
        <time>2011-09-03T13:43:34Z</time>
      </trkpt>
      <trkpt lat="45.33088" lon="3.07903">
        <ele>1070.57</ele>
        <time>2011-09-03T13:43:38Z</time>
      </trkpt>
      <trkpt lat="45.33115" lon="3.07945">
        <ele>1070.08</ele>
        <time>2011-09-03T13:43:41Z</time>
      </trkpt>
      <trkpt lat="45.33163" lon="3.08002">
        <ele>1069.6</ele>
        <time>2011-09-03T13:43:45Z</time>
      </trkpt>
      <trkpt lat="45.33191" lon="3.08055">
        <ele>1068.16</ele>
        <time>2011-09-03T13:43:48Z</time>
      </trkpt>
      <trkpt lat="45.33231" lon="3.08161">
        <ele>1066.72</ele>
        <time>2011-09-03T13:43:53Z</time>
      </trkpt>
      <trkpt lat="45.33246" lon="3.08205">
        <ele>1063.36</ele>
        <time>2011-09-03T13:43:55Z</time>
      </trkpt>
      <trkpt lat="45.33254" lon="3.08225">
        <ele>1061.91</ele>
        <time>2011-09-03T13:43:56Z</time>
      </trkpt>
      <trkpt lat="45.33309" lon="3.08312">
        <ele>1059.51</ele>
        <time>2011-09-03T13:44:01Z</time>
      </trkpt>
      <trkpt lat="45.33364" lon="3.08399">
        <ele>1056.15</ele>
        <time>2011-09-03T13:44:06Z</time>
      </trkpt>
      <trkpt lat="45.3338" lon="3.08439">
        <ele>1054.7</ele>
        <time>2011-09-03T13:44:08Z</time>
      </trkpt>
      <trkpt lat="45.33394" lon="3.08481">
        <ele>1055.67</ele>
        <time>2011-09-03T13:44:10Z</time>
      </trkpt>
      <trkpt lat="45.33419" lon="3.08569">
        <ele>1052.3</ele>
        <time>2011-09-03T13:44:14Z</time>
      </trkpt>
      <trkpt lat="45.33443" lon="3.08658">
        <ele>1051.82</ele>
        <time>2011-09-03T13:44:18Z</time>
      </trkpt>
      <trkpt lat="45.33483" lon="3.08738">
        <ele>1045.57</ele>
        <time>2011-09-03T13:44:22Z</time>
      </trkpt>
      <trkpt lat="45.33509" lon="3.08805">
        <ele>1042.69</ele>
        <time>2011-09-03T13:44:25Z</time>
      </trkpt>
      <trkpt lat="45.33531" lon="3.08899">
        <ele>1037.4</ele>
        <time>2011-09-03T13:44:29Z</time>
      </trkpt>
      <trkpt lat="45.33541" lon="3.08943">
        <ele>1035.96</ele>
        <time>2011-09-03T13:44:31Z</time>
      </trkpt>
      <trkpt lat="45.33573" lon="3.09029">
        <ele>1030.19</ele>
        <time>2011-09-03T13:44:35Z</time>
      </trkpt>
      <trkpt lat="45.33595" lon="3.09069">
        <ele>1026.83</ele>
        <time>2011-09-03T13:44:37Z</time>
      </trkpt>
      <trkpt lat="45.33622" lon="3.09106">
        <ele>1024.42</ele>
        <time>2011-09-03T13:44:39Z</time>
      </trkpt>
      <trkpt lat="45.33663" lon="3.09156">
        <ele>1020.1</ele>
        <time>2011-09-03T13:44:42Z</time>
      </trkpt>
      <trkpt lat="45.33677" lon="3.09172">
        <ele>1020.1</ele>
        <time>2011-09-03T13:44:43Z</time>
      </trkpt>
      <trkpt lat="45.33717" lon="3.09227">
        <ele>1015.29</ele>
        <time>2011-09-03T13:44:46Z</time>
      </trkpt>
      <trkpt lat="45.3374" lon="3.09266">
        <ele>1013.85</ele>
        <time>2011-09-03T13:44:48Z</time>
      </trkpt>
      <trkpt lat="45.3375" lon="3.09287">
        <ele>1011.44</ele>
        <time>2011-09-03T13:44:49Z</time>
      </trkpt>
      <trkpt lat="45.33772" lon="3.09353">
        <ele>1009.04</ele>
        <time>2011-09-03T13:44:52Z</time>
      </trkpt>
      <trkpt lat="45.33781" lon="3.09402">
        <ele>1008.56</ele>
        <time>2011-09-03T13:44:54Z</time>
      </trkpt>
      <trkpt lat="45.33794" lon="3.09499">
        <ele>1002.79</ele>
        <time>2011-09-03T13:44:58Z</time>
      </trkpt>
      <trkpt lat="45.338" lon="3.09523">
        <ele>1002.79</ele>
        <time>2011-09-03T13:44:59Z</time>
      </trkpt>
      <trkpt lat="45.33823" lon="3.09594">
        <ele>998.47</ele>
        <time>2011-09-03T13:45:02Z</time>
      </trkpt>
      <trkpt lat="45.33844" lon="3.09638">
        <ele>997.99</ele>
        <time>2011-09-03T13:45:04Z</time>
      </trkpt>
      <trkpt lat="45.33964" lon="3.09862">
        <ele>999.43</ele>
        <time>2011-09-03T13:45:15Z</time>
      </trkpt>
      <trkpt lat="45.33991" lon="3.09915">
        <ele>996.54</ele>
        <time>2011-09-03T13:45:18Z</time>
      </trkpt>
      <trkpt lat="45.34003" lon="3.10026">
        <ele>996.54</ele>
        <time>2011-09-03T13:45:24Z</time>
      </trkpt>
      <trkpt lat="45.34012" lon="3.10099">
        <ele>992.22</ele>
        <time>2011-09-03T13:45:30Z</time>
      </trkpt>
      <trkpt lat="45.3402" lon="3.10102">
        <ele>992.7</ele>
        <time>2011-09-03T13:45:31Z</time>
      </trkpt>
      <trkpt lat="45.3405" lon="3.10111">
        <ele>992.22</ele>
        <time>2011-09-03T13:45:34Z</time>
      </trkpt>
      <trkpt lat="45.34082" lon="3.10114">
        <ele>991.26</ele>
        <time>2011-09-03T13:45:37Z</time>
      </trkpt>
      <trkpt lat="45.34145" lon="3.10152">
        <ele>991.74</ele>
        <time>2011-09-03T13:45:43Z</time>
      </trkpt>
      <trkpt lat="45.34221" lon="3.10282">
        <ele>991.26</ele>
        <time>2011-09-03T13:45:51Z</time>
      </trkpt>
      <trkpt lat="45.34263" lon="3.10358">
        <ele>988.37</ele>
        <time>2011-09-03T13:45:55Z</time>
      </trkpt>
      <trkpt lat="45.34298" lon="3.10445">
        <ele>983.57</ele>
        <time>2011-09-03T13:45:59Z</time>
      </trkpt>
      <trkpt lat="45.34304" lon="3.10468">
        <ele>983.57</ele>
        <time>2011-09-03T13:46:00Z</time>
      </trkpt>
      <trkpt lat="45.34315" lon="3.10518">
        <ele>982.12</ele>
        <time>2011-09-03T13:46:02Z</time>
      </trkpt>
      <trkpt lat="45.34326" lon="3.10622">
        <ele>978.76</ele>
        <time>2011-09-03T13:46:06Z</time>
      </trkpt>
      <trkpt lat="45.34343" lon="3.10722">
        <ele>973.47</ele>
        <time>2011-09-03T13:46:10Z</time>
      </trkpt>
      <trkpt lat="45.34355" lon="3.1085">
        <ele>970.11</ele>
        <time>2011-09-03T13:46:15Z</time>
      </trkpt>
      <trkpt lat="45.34356" lon="3.10877">
        <ele>971.07</ele>
        <time>2011-09-03T13:46:16Z</time>
      </trkpt>
      <trkpt lat="45.34358" lon="3.10933">
        <ele>968.67</ele>
        <time>2011-09-03T13:46:18Z</time>
      </trkpt>
      <trkpt lat="45.34362" lon="3.11015">
        <ele>965.3</ele>
        <time>2011-09-03T13:46:21Z</time>
      </trkpt>
      <trkpt lat="45.34363" lon="3.11099">
        <ele>963.38</ele>
        <time>2011-09-03T13:46:24Z</time>
      </trkpt>
      <trkpt lat="45.34356" lon="3.11178">
        <ele>958.57</ele>
        <time>2011-09-03T13:46:27Z</time>
      </trkpt>
      <trkpt lat="45.34339" lon="3.11239">
        <ele>956.65</ele>
        <time>2011-09-03T13:46:30Z</time>
      </trkpt>
      <trkpt lat="45.34331" lon="3.11258">
        <ele>956.65</ele>
        <time>2011-09-03T13:46:31Z</time>
      </trkpt>
      <trkpt lat="45.34323" lon="3.11322">
        <ele>954.25</ele>
        <time>2011-09-03T13:46:34Z</time>
      </trkpt>
      <trkpt lat="45.34325" lon="3.11347">
        <ele>954.25</ele>
        <time>2011-09-03T13:46:35Z</time>
      </trkpt>
      <trkpt lat="45.34339" lon="3.11425">
        <ele>952.32</ele>
        <time>2011-09-03T13:46:38Z</time>
      </trkpt>
      <trkpt lat="45.34344" lon="3.11451">
        <ele>948.96</ele>
        <time>2011-09-03T13:46:39Z</time>
      </trkpt>
      <trkpt lat="45.34358" lon="3.11527">
        <ele>945.59</ele>
        <time>2011-09-03T13:46:42Z</time>
      </trkpt>
      <trkpt lat="45.34366" lon="3.11574">
        <ele>941.75</ele>
        <time>2011-09-03T13:46:44Z</time>
      </trkpt>
      <trkpt lat="45.34372" lon="3.11646">
        <ele>937.9</ele>
        <time>2011-09-03T13:46:47Z</time>
      </trkpt>
      <trkpt lat="45.34376" lon="3.11742">
        <ele>934.06</ele>
        <time>2011-09-03T13:46:51Z</time>
      </trkpt>
      <trkpt lat="45.34379" lon="3.11827">
        <ele>930.69</ele>
        <time>2011-09-03T13:46:55Z</time>
      </trkpt>
      <trkpt lat="45.3438" lon="3.11869">
        <ele>927.81</ele>
        <time>2011-09-03T13:46:57Z</time>
      </trkpt>
      <trkpt lat="45.34381" lon="3.11891">
        <ele>928.29</ele>
        <time>2011-09-03T13:46:58Z</time>
      </trkpt>
      <trkpt lat="45.34385" lon="3.12009">
        <ele>924.93</ele>
        <time>2011-09-03T13:47:03Z</time>
      </trkpt>
      <trkpt lat="45.34387" lon="3.12078">
        <ele>921.56</ele>
        <time>2011-09-03T13:47:06Z</time>
      </trkpt>
      <trkpt lat="45.34386" lon="3.121">
        <ele>921.08</ele>
        <time>2011-09-03T13:47:07Z</time>
      </trkpt>
      <trkpt lat="45.3438" lon="3.12166">
        <ele>918.2</ele>
        <time>2011-09-03T13:47:10Z</time>
      </trkpt>
      <trkpt lat="45.34326" lon="3.12319">
        <ele>914.35</ele>
        <time>2011-09-03T13:47:18Z</time>
      </trkpt>
      <trkpt lat="45.34318" lon="3.12372">
        <ele>911.47</ele>
        <time>2011-09-03T13:47:21Z</time>
      </trkpt>
      <trkpt lat="45.34319" lon="3.12408">
        <ele>910.03</ele>
        <time>2011-09-03T13:47:23Z</time>
      </trkpt>
      <trkpt lat="45.34337" lon="3.12446">
        <ele>907.14</ele>
        <time>2011-09-03T13:47:26Z</time>
      </trkpt>
      <trkpt lat="45.3437" lon="3.12494">
        <ele>904.74</ele>
        <time>2011-09-03T13:47:31Z</time>
      </trkpt>
      <trkpt lat="45.34368" lon="3.12508">
        <ele>905.22</ele>
        <time>2011-09-03T13:47:32Z</time>
      </trkpt>
      <trkpt lat="45.34326" lon="3.12695">
        <ele>903.78</ele>
        <time>2011-09-03T13:47:42Z</time>
      </trkpt>
      <trkpt lat="45.34315" lon="3.12746">
        <ele>902.33</ele>
        <time>2011-09-03T13:47:44Z</time>
      </trkpt>
      <trkpt lat="45.343" lon="3.12798">
        <ele>898.49</ele>
        <time>2011-09-03T13:47:46Z</time>
      </trkpt>
      <trkpt lat="45.34282" lon="3.12844">
        <ele>895.61</ele>
        <time>2011-09-03T13:47:48Z</time>
      </trkpt>
      <trkpt lat="45.34252" lon="3.12886">
        <ele>886.47</ele>
        <time>2011-09-03T13:47:51Z</time>
      </trkpt>
      <trkpt lat="45.34239" lon="3.12892">
        <ele>885.99</ele>
        <time>2011-09-03T13:47:52Z</time>
      </trkpt>
      <trkpt lat="45.34193" lon="3.12879">
        <ele>883.11</ele>
        <time>2011-09-03T13:47:56Z</time>
      </trkpt>
      <trkpt lat="45.34183" lon="3.1287">
        <ele>883.59</ele>
        <time>2011-09-03T13:47:57Z</time>
      </trkpt>
      <trkpt lat="45.34153" lon="3.12841">
        <ele>881.67</ele>
        <time>2011-09-03T13:48:00Z</time>
      </trkpt>
      <trkpt lat="45.34121" lon="3.12826">
        <ele>878.3</ele>
        <time>2011-09-03T13:48:03Z</time>
      </trkpt>
      <trkpt lat="45.34096" lon="3.12832">
        <ele>876.38</ele>
        <time>2011-09-03T13:48:05Z</time>
      </trkpt>
      <trkpt lat="45.34071" lon="3.12841">
        <ele>875.42</ele>
        <time>2011-09-03T13:48:07Z</time>
      </trkpt>
      <trkpt lat="45.34021" lon="3.12848">
        <ele>872.05</ele>
        <time>2011-09-03T13:48:11Z</time>
      </trkpt>
      <trkpt lat="45.34002" lon="3.12861">
        <ele>871.09</ele>
        <time>2011-09-03T13:48:13Z</time>
      </trkpt>
      <trkpt lat="45.3397" lon="3.1295">
        <ele>869.65</ele>
        <time>2011-09-03T13:48:18Z</time>
      </trkpt>
      <trkpt lat="45.33946" lon="3.12976">
        <ele>867.73</ele>
        <time>2011-09-03T13:48:20Z</time>
      </trkpt>
      <trkpt lat="45.33922" lon="3.12998">
        <ele>865.32</ele>
        <time>2011-09-03T13:48:22Z</time>
      </trkpt>
      <trkpt lat="45.33898" lon="3.13044">
        <ele>863.88</ele>
        <time>2011-09-03T13:48:25Z</time>
      </trkpt>
      <trkpt lat="45.33891" lon="3.13085">
        <ele>862.44</ele>
        <time>2011-09-03T13:48:27Z</time>
      </trkpt>
      <trkpt lat="45.33885" lon="3.1313">
        <ele>861.48</ele>
        <time>2011-09-03T13:48:29Z</time>
      </trkpt>
      <trkpt lat="45.33876" lon="3.13172">
        <ele>858.11</ele>
        <time>2011-09-03T13:48:31Z</time>
      </trkpt>
      <trkpt lat="45.33871" lon="3.1319">
        <ele>855.71</ele>
        <time>2011-09-03T13:48:32Z</time>
      </trkpt>
      <trkpt lat="45.33831" lon="3.13235">
        <ele>852.35</ele>
        <time>2011-09-03T13:48:36Z</time>
      </trkpt>
      <trkpt lat="45.33767" lon="3.13343">
        <ele>850.9</ele>
        <time>2011-09-03T13:48:42Z</time>
      </trkpt>
      <trkpt lat="45.33737" lon="3.13464">
        <ele>845.14</ele>
        <time>2011-09-03T13:48:47Z</time>
      </trkpt>
      <trkpt lat="45.33726" lon="3.13507">
        <ele>843.21</ele>
        <time>2011-09-03T13:48:49Z</time>
      </trkpt>
      <trkpt lat="45.33677" lon="3.13565">
        <ele>838.89</ele>
        <time>2011-09-03T13:48:54Z</time>
      </trkpt>
      <trkpt lat="45.33664" lon="3.13567">
        <ele>836</ele>
        <time>2011-09-03T13:48:55Z</time>
      </trkpt>
      <trkpt lat="45.33613" lon="3.1359">
        <ele>832.64</ele>
        <time>2011-09-03T13:49:00Z</time>
      </trkpt>
      <trkpt lat="45.33613" lon="3.13645">
        <ele>829.27</ele>
        <time>2011-09-03T13:49:04Z</time>
      </trkpt>
      <trkpt lat="45.33625" lon="3.1368">
        <ele>829.76</ele>
        <time>2011-09-03T13:49:06Z</time>
      </trkpt>
      <trkpt lat="45.3364" lon="3.13715">
        <ele>826.87</ele>
        <time>2011-09-03T13:49:08Z</time>
      </trkpt>
      <trkpt lat="45.3365" lon="3.13792">
        <ele>822.55</ele>
        <time>2011-09-03T13:49:12Z</time>
      </trkpt>
      <trkpt lat="45.33659" lon="3.1384">
        <ele>819.18</ele>
        <time>2011-09-03T13:49:15Z</time>
      </trkpt>
      <trkpt lat="45.33689" lon="3.13859">
        <ele>817.26</ele>
        <time>2011-09-03T13:49:18Z</time>
      </trkpt>
      <trkpt lat="45.33702" lon="3.13858">
        <ele>817.74</ele>
        <time>2011-09-03T13:49:19Z</time>
      </trkpt>
      <trkpt lat="45.33742" lon="3.13854">
        <ele>813.41</ele>
        <time>2011-09-03T13:49:22Z</time>
      </trkpt>
      <trkpt lat="45.33754" lon="3.13852">
        <ele>813.41</ele>
        <time>2011-09-03T13:49:23Z</time>
      </trkpt>
      <trkpt lat="45.33797" lon="3.13875">
        <ele>811.97</ele>
        <time>2011-09-03T13:49:27Z</time>
      </trkpt>
      <trkpt lat="45.33807" lon="3.13905">
        <ele>811.97</ele>
        <time>2011-09-03T13:49:29Z</time>
      </trkpt>
      <trkpt lat="45.33819" lon="3.14021">
        <ele>811.97</ele>
        <time>2011-09-03T13:49:35Z</time>
      </trkpt>
      <trkpt lat="45.33819" lon="3.1404">
        <ele>811.01</ele>
        <time>2011-09-03T13:49:36Z</time>
      </trkpt>
      <trkpt lat="45.3384" lon="3.14101">
        <ele>807.64</ele>
        <time>2011-09-03T13:49:40Z</time>
      </trkpt>
      <trkpt lat="45.33871" lon="3.14128">
        <ele>805.72</ele>
        <time>2011-09-03T13:49:43Z</time>
      </trkpt>
      <trkpt lat="45.33886" lon="3.14154">
        <ele>801.88</ele>
        <time>2011-09-03T13:49:45Z</time>
      </trkpt>
      <trkpt lat="45.33892" lon="3.14169">
        <ele>802.84</ele>
        <time>2011-09-03T13:49:46Z</time>
      </trkpt>
      <trkpt lat="45.33917" lon="3.14237">
        <ele>801.88</ele>
        <time>2011-09-03T13:49:50Z</time>
      </trkpt>
      <trkpt lat="45.33972" lon="3.14372">
        <ele>799.47</ele>
        <time>2011-09-03T13:49:57Z</time>
      </trkpt>
      <trkpt lat="45.34001" lon="3.14426">
        <ele>798.99</ele>
        <time>2011-09-03T13:50:00Z</time>
      </trkpt>
      <trkpt lat="45.34035" lon="3.14516">
        <ele>799.47</ele>
        <time>2011-09-03T13:50:04Z</time>
      </trkpt>
      <trkpt lat="45.3405" lon="3.14597">
        <ele>797.07</ele>
        <time>2011-09-03T13:50:07Z</time>
      </trkpt>
      <trkpt lat="45.34068" lon="3.14681">
        <ele>795.63</ele>
        <time>2011-09-03T13:50:10Z</time>
      </trkpt>
      <trkpt lat="45.34078" lon="3.14734">
        <ele>793.22</ele>
        <time>2011-09-03T13:50:12Z</time>
      </trkpt>
      <trkpt lat="45.34091" lon="3.14808">
        <ele>789.86</ele>
        <time>2011-09-03T13:50:15Z</time>
      </trkpt>
      <trkpt lat="45.34117" lon="3.14867">
        <ele>786.5</ele>
        <time>2011-09-03T13:50:18Z</time>
      </trkpt>
      <trkpt lat="45.34131" lon="3.14904">
        <ele>785.53</ele>
        <time>2011-09-03T13:50:20Z</time>
      </trkpt>
      <trkpt lat="45.34159" lon="3.14969">
        <ele>782.65</ele>
        <time>2011-09-03T13:50:24Z</time>
      </trkpt>
      <trkpt lat="45.3418" lon="3.15028">
        <ele>782.65</ele>
        <time>2011-09-03T13:50:27Z</time>
      </trkpt>
      <trkpt lat="45.34203" lon="3.15151">
        <ele>777.84</ele>
        <time>2011-09-03T13:50:33Z</time>
      </trkpt>
      <trkpt lat="45.34225" lon="3.15197">
        <ele>775.44</ele>
        <time>2011-09-03T13:50:36Z</time>
      </trkpt>
      <trkpt lat="45.34255" lon="3.15212">
        <ele>772.56</ele>
        <time>2011-09-03T13:50:39Z</time>
      </trkpt>
      <trkpt lat="45.34274" lon="3.15197">
        <ele>773.04</ele>
        <time>2011-09-03T13:50:41Z</time>
      </trkpt>
      <trkpt lat="45.34325" lon="3.15204">
        <ele>772.56</ele>
        <time>2011-09-03T13:50:47Z</time>
      </trkpt>
      <trkpt lat="45.34338" lon="3.15283">
        <ele>772.08</ele>
        <time>2011-09-03T13:50:52Z</time>
      </trkpt>
      <trkpt lat="45.34386" lon="3.15332">
        <ele>771.11</ele>
        <time>2011-09-03T13:50:56Z</time>
      </trkpt>
      <trkpt lat="45.34413" lon="3.15351">
        <ele>769.67</ele>
        <time>2011-09-03T13:50:58Z</time>
      </trkpt>
      <trkpt lat="45.34462" lon="3.15417">
        <ele>768.23</ele>
        <time>2011-09-03T13:51:02Z</time>
      </trkpt>
      <trkpt lat="45.34492" lon="3.15526">
        <ele>763.42</ele>
        <time>2011-09-03T13:51:07Z</time>
      </trkpt>
      <trkpt lat="45.34495" lon="3.15552">
        <ele>763.9</ele>
        <time>2011-09-03T13:51:08Z</time>
      </trkpt>
      <trkpt lat="45.34499" lon="3.15578">
        <ele>762.94</ele>
        <time>2011-09-03T13:51:09Z</time>
      </trkpt>
      <trkpt lat="45.34521" lon="3.15744">
        <ele>759.58</ele>
        <time>2011-09-03T13:51:15Z</time>
      </trkpt>
      <trkpt lat="45.34531" lon="3.15889">
        <ele>753.81</ele>
        <time>2011-09-03T13:51:20Z</time>
      </trkpt>
      <trkpt lat="45.34531" lon="3.15917">
        <ele>751.89</ele>
        <time>2011-09-03T13:51:21Z</time>
      </trkpt>
      <trkpt lat="45.34522" lon="3.16053">
        <ele>748.04</ele>
        <time>2011-09-03T13:51:26Z</time>
      </trkpt>
      <trkpt lat="45.34505" lon="3.16119">
        <ele>741.79</ele>
        <time>2011-09-03T13:51:29Z</time>
      </trkpt>
      <trkpt lat="45.34494" lon="3.16136">
        <ele>741.79</ele>
        <time>2011-09-03T13:51:30Z</time>
      </trkpt>
      <trkpt lat="45.3442" lon="3.16292">
        <ele>737.47</ele>
        <time>2011-09-03T13:51:37Z</time>
      </trkpt>
      <trkpt lat="45.3441" lon="3.16315">
        <ele>736.03</ele>
        <time>2011-09-03T13:51:38Z</time>
      </trkpt>
      <trkpt lat="45.34337" lon="3.16408">
        <ele>732.66</ele>
        <time>2011-09-03T13:51:43Z</time>
      </trkpt>
      <trkpt lat="45.34286" lon="3.16452">
        <ele>727.37</ele>
        <time>2011-09-03T13:51:46Z</time>
      </trkpt>
      <trkpt lat="45.34256" lon="3.16487">
        <ele>725.45</ele>
        <time>2011-09-03T13:51:48Z</time>
      </trkpt>
      <trkpt lat="45.34204" lon="3.16579">
        <ele>724.49</ele>
        <time>2011-09-03T13:51:52Z</time>
      </trkpt>
      <trkpt lat="45.34134" lon="3.16641">
        <ele>719.68</ele>
        <time>2011-09-03T13:51:56Z</time>
      </trkpt>
      <trkpt lat="45.34077" lon="3.16671">
        <ele>714.4</ele>
        <time>2011-09-03T13:51:59Z</time>
      </trkpt>
      <trkpt lat="45.34059" lon="3.1668">
        <ele>712.95</ele>
        <time>2011-09-03T13:52:00Z</time>
      </trkpt>
      <trkpt lat="45.34009" lon="3.16718">
        <ele>708.15</ele>
        <time>2011-09-03T13:52:03Z</time>
      </trkpt>
      <trkpt lat="45.33978" lon="3.16733">
        <ele>705.26</ele>
        <time>2011-09-03T13:52:05Z</time>
      </trkpt>
      <trkpt lat="45.33949" lon="3.16755">
        <ele>704.3</ele>
        <time>2011-09-03T13:52:07Z</time>
      </trkpt>
      <trkpt lat="45.33917" lon="3.16784">
        <ele>704.3</ele>
        <time>2011-09-03T13:52:09Z</time>
      </trkpt>
      <trkpt lat="45.33819" lon="3.16837">
        <ele>699.02</ele>
        <time>2011-09-03T13:52:14Z</time>
      </trkpt>
      <trkpt lat="45.338" lon="3.16844">
        <ele>698.05</ele>
        <time>2011-09-03T13:52:15Z</time>
      </trkpt>
      <trkpt lat="45.33766" lon="3.16861">
        <ele>692.77</ele>
        <time>2011-09-03T13:52:17Z</time>
      </trkpt>
      <trkpt lat="45.33722" lon="3.16873">
        <ele>690.36</ele>
        <time>2011-09-03T13:52:20Z</time>
      </trkpt>
      <trkpt lat="45.33707" lon="3.16872">
        <ele>688.92</ele>
        <time>2011-09-03T13:52:21Z</time>
      </trkpt>
      <trkpt lat="45.33641" lon="3.16883">
        <ele>686.52</ele>
        <time>2011-09-03T13:52:26Z</time>
      </trkpt>
      <trkpt lat="45.33584" lon="3.16934">
        <ele>684.12</ele>
        <time>2011-09-03T13:52:30Z</time>
      </trkpt>
      <trkpt lat="45.3352" lon="3.16992">
        <ele>681.23</ele>
        <time>2011-09-03T13:52:34Z</time>
      </trkpt>
      <trkpt lat="45.33492" lon="3.17021">
        <ele>676.91</ele>
        <time>2011-09-03T13:52:36Z</time>
      </trkpt>
      <trkpt lat="45.3347" lon="3.17057">
        <ele>675.46</ele>
        <time>2011-09-03T13:52:38Z</time>
      </trkpt>
      <trkpt lat="45.33461" lon="3.17077">
        <ele>675.46</ele>
        <time>2011-09-03T13:52:39Z</time>
      </trkpt>
      <trkpt lat="45.33426" lon="3.17123">
        <ele>671.14</ele>
        <time>2011-09-03T13:52:42Z</time>
      </trkpt>
      <trkpt lat="45.33394" lon="3.17135">
        <ele>668.25</ele>
        <time>2011-09-03T13:52:44Z</time>
      </trkpt>
      <trkpt lat="45.33325" lon="3.17139">
        <ele>667.77</ele>
        <time>2011-09-03T13:52:48Z</time>
      </trkpt>
      <trkpt lat="45.33213" lon="3.171">
        <ele>660.08</ele>
        <time>2011-09-03T13:52:54Z</time>
      </trkpt>
      <trkpt lat="45.33156" lon="3.17077">
        <ele>654.8</ele>
        <time>2011-09-03T13:52:57Z</time>
      </trkpt>
      <trkpt lat="45.33121" lon="3.17058">
        <ele>652.87</ele>
        <time>2011-09-03T13:52:59Z</time>
      </trkpt>
      <trkpt lat="45.33068" lon="3.17043">
        <ele>646.14</ele>
        <time>2011-09-03T13:53:02Z</time>
      </trkpt>
      <trkpt lat="45.33021" lon="3.17048">
        <ele>640.86</ele>
        <time>2011-09-03T13:53:05Z</time>
      </trkpt>
      <trkpt lat="45.32991" lon="3.17034">
        <ele>640.38</ele>
        <time>2011-09-03T13:53:07Z</time>
      </trkpt>
      <trkpt lat="45.32962" lon="3.17011">
        <ele>638.45</ele>
        <time>2011-09-03T13:53:09Z</time>
      </trkpt>
      <trkpt lat="45.32904" lon="3.16986">
        <ele>632.68</ele>
        <time>2011-09-03T13:53:13Z</time>
      </trkpt>
      <trkpt lat="45.32859" lon="3.16963">
        <ele>628.36</ele>
        <time>2011-09-03T13:53:16Z</time>
      </trkpt>
      <trkpt lat="45.32845" lon="3.1696">
        <ele>627.88</ele>
        <time>2011-09-03T13:53:17Z</time>
      </trkpt>
      <trkpt lat="45.32807" lon="3.16935">
        <ele>625.96</ele>
        <time>2011-09-03T13:53:20Z</time>
      </trkpt>
      <trkpt lat="45.32782" lon="3.16899">
        <ele>625.47</ele>
        <time>2011-09-03T13:53:22Z</time>
      </trkpt>
      <trkpt lat="45.32741" lon="3.16841">
        <ele>620.67</ele>
        <time>2011-09-03T13:53:25Z</time>
      </trkpt>
      <trkpt lat="45.32716" lon="3.16803">
        <ele>616.82</ele>
        <time>2011-09-03T13:53:27Z</time>
      </trkpt>
      <trkpt lat="45.32673" lon="3.16752">
        <ele>612.98</ele>
        <time>2011-09-03T13:53:30Z</time>
      </trkpt>
      <trkpt lat="45.32635" lon="3.16696">
        <ele>609.13</ele>
        <time>2011-09-03T13:53:33Z</time>
      </trkpt>
      <trkpt lat="45.32624" lon="3.16679">
        <ele>605.77</ele>
        <time>2011-09-03T13:53:34Z</time>
      </trkpt>
      <trkpt lat="45.32614" lon="3.16664">
        <ele>604.33</ele>
        <time>2011-09-03T13:53:35Z</time>
      </trkpt>
      <trkpt lat="45.3259" lon="3.16643">
        <ele>602.4</ele>
        <time>2011-09-03T13:53:37Z</time>
      </trkpt>
      <trkpt lat="45.32524" lon="3.16636">
        <ele>599.04</ele>
        <time>2011-09-03T13:53:41Z</time>
      </trkpt>
      <trkpt lat="45.32461" lon="3.16645">
        <ele>591.35</ele>
        <time>2011-09-03T13:53:45Z</time>
      </trkpt>
      <trkpt lat="45.32436" lon="3.16672">
        <ele>592.31</ele>
        <time>2011-09-03T13:53:47Z</time>
      </trkpt>
      <trkpt lat="45.32385" lon="3.16757">
        <ele>587.5</ele>
        <time>2011-09-03T13:53:51Z</time>
      </trkpt>
      <trkpt lat="45.32372" lon="3.16776">
        <ele>585.1</ele>
        <time>2011-09-03T13:53:52Z</time>
      </trkpt>
      <trkpt lat="45.32332" lon="3.1681">
        <ele>578.37</ele>
        <time>2011-09-03T13:53:55Z</time>
      </trkpt>
      <trkpt lat="45.32316" lon="3.16817">
        <ele>578.85</ele>
        <time>2011-09-03T13:53:56Z</time>
      </trkpt>
      <trkpt lat="45.32301" lon="3.16828">
        <ele>578.85</ele>
        <time>2011-09-03T13:53:57Z</time>
      </trkpt>
      <trkpt lat="45.32232" lon="3.16885">
        <ele>576.93</ele>
        <time>2011-09-03T13:54:01Z</time>
      </trkpt>
      <trkpt lat="45.32197" lon="3.16906">
        <ele>571.64</ele>
        <time>2011-09-03T13:54:03Z</time>
      </trkpt>
      <trkpt lat="45.32165" lon="3.16922">
        <ele>568.76</ele>
        <time>2011-09-03T13:54:05Z</time>
      </trkpt>
      <trkpt lat="45.32139" lon="3.16933">
        <ele>564.91</ele>
        <time>2011-09-03T13:54:07Z</time>
      </trkpt>
      <trkpt lat="45.32121" lon="3.16939">
        <ele>561.55</ele>
        <time>2011-09-03T13:54:09Z</time>
      </trkpt>
      <trkpt lat="45.32108" lon="3.16944">
        <ele>561.07</ele>
        <time>2011-09-03T13:54:11Z</time>
      </trkpt>
      <trkpt lat="45.32054" lon="3.16977">
        <ele>557.7</ele>
        <time>2011-09-03T13:54:19Z</time>
      </trkpt>
      <trkpt lat="45.32047" lon="3.16981">
        <ele>557.7</ele>
        <time>2011-09-03T13:54:20Z</time>
      </trkpt>
      <trkpt lat="45.32007" lon="3.17008">
        <ele>553.86</ele>
        <time>2011-09-03T13:54:26Z</time>
      </trkpt>
      <trkpt lat="45.32001" lon="3.17012">
        <ele>554.34</ele>
        <time>2011-09-03T13:54:27Z</time>
      </trkpt>
      <trkpt lat="45.31973" lon="3.17031">
        <ele>551.45</ele>
        <time>2011-09-03T13:54:32Z</time>
      </trkpt>
      <trkpt lat="45.31937" lon="3.17024">
        <ele>549.53</ele>
        <time>2011-09-03T13:54:38Z</time>
      </trkpt>
      <trkpt lat="45.31921" lon="3.17049">
        <ele>549.05</ele>
        <time>2011-09-03T13:54:42Z</time>
      </trkpt>
      <trkpt lat="45.31906" lon="3.17084">
        <ele>547.61</ele>
        <time>2011-09-03T13:54:46Z</time>
      </trkpt>
      <trkpt lat="45.31859" lon="3.17139">
        <ele>543.76</ele>
        <time>2011-09-03T13:54:54Z</time>
      </trkpt>
      <trkpt lat="45.31853" lon="3.17145">
        <ele>543.28</ele>
        <time>2011-09-03T13:54:55Z</time>
      </trkpt>
      <trkpt lat="45.31833" lon="3.17148">
        <ele>539.92</ele>
        <time>2011-09-03T13:55:00Z</time>
      </trkpt>
      <trkpt lat="45.31829" lon="3.17147">
        <ele>538.96</ele>
        <time>2011-09-03T13:55:14Z</time>
      </trkpt>
      <trkpt lat="45.31829" lon="3.17147">
        <ele>540.4</ele>
        <time>2011-09-03T13:55:42Z</time>
      </trkpt>
      <trkpt lat="45.31829" lon="3.17147">
        <ele>538.96</ele>
        <time>2011-09-03T13:55:44Z</time>
      </trkpt>
      <trkpt lat="45.31829" lon="3.17148">
        <ele>538.96</ele>
        <time>2011-09-03T13:56:22Z</time>
      </trkpt>
      <trkpt lat="45.31821" lon="3.17161">
        <ele>537.99</ele>
        <time>2011-09-03T13:56:26Z</time>
      </trkpt>
      <trkpt lat="45.31809" lon="3.17207">
        <ele>537.51</ele>
        <time>2011-09-03T13:56:31Z</time>
      </trkpt>
      <trkpt lat="45.31783" lon="3.17272">
        <ele>537.03</ele>
        <time>2011-09-03T13:56:37Z</time>
      </trkpt>
      <trkpt lat="45.31744" lon="3.17417">
        <ele>537.99</ele>
        <time>2011-09-03T13:56:48Z</time>
      </trkpt>
      <trkpt lat="45.3172" lon="3.1757">
        <ele>535.59</ele>
        <time>2011-09-03T13:56:57Z</time>
      </trkpt>
      <trkpt lat="45.3171" lon="3.17608">
        <ele>533.67</ele>
        <time>2011-09-03T13:57:00Z</time>
      </trkpt>
      <trkpt lat="45.3167" lon="3.17745">
        <ele>533.67</ele>
        <time>2011-09-03T13:57:09Z</time>
      </trkpt>
      <trkpt lat="45.31597" lon="3.17859">
        <ele>531.75</ele>
        <time>2011-09-03T13:57:17Z</time>
      </trkpt>
      <trkpt lat="45.31557" lon="3.17901">
        <ele>534.15</ele>
        <time>2011-09-03T13:57:20Z</time>
      </trkpt>
      <trkpt lat="45.31397" lon="3.18057">
        <ele>531.75</ele>
        <time>2011-09-03T13:57:30Z</time>
      </trkpt>
      <trkpt lat="45.31298" lon="3.18074">
        <ele>530.3</ele>
        <time>2011-09-03T13:57:36Z</time>
      </trkpt>
      <trkpt lat="45.31258" lon="3.18075">
        <ele>529.34</ele>
        <time>2011-09-03T13:57:39Z</time>
      </trkpt>
      <trkpt lat="45.31204" lon="3.18106">
        <ele>528.86</ele>
        <time>2011-09-03T13:57:43Z</time>
      </trkpt>
      <trkpt lat="45.31164" lon="3.18156">
        <ele>531.27</ele>
        <time>2011-09-03T13:57:46Z</time>
      </trkpt>
      <trkpt lat="45.31152" lon="3.18172">
        <ele>531.75</ele>
        <time>2011-09-03T13:57:47Z</time>
      </trkpt>
      <trkpt lat="45.31119" lon="3.18242">
        <ele>531.27</ele>
        <time>2011-09-03T13:57:51Z</time>
      </trkpt>
      <trkpt lat="45.31097" lon="3.1839">
        <ele>531.75</ele>
        <time>2011-09-03T13:57:59Z</time>
      </trkpt>
      <trkpt lat="45.31092" lon="3.18461">
        <ele>532.23</ele>
        <time>2011-09-03T13:58:03Z</time>
      </trkpt>
      <trkpt lat="45.31068" lon="3.18541">
        <ele>529.34</ele>
        <time>2011-09-03T13:58:08Z</time>
      </trkpt>
      <trkpt lat="45.31068" lon="3.1857">
        <ele>526.94</ele>
        <time>2011-09-03T13:58:10Z</time>
      </trkpt>
      <trkpt lat="45.31067" lon="3.18595">
        <ele>525.02</ele>
        <time>2011-09-03T13:58:13Z</time>
      </trkpt>
      <trkpt lat="45.31066" lon="3.18601">
        <ele>523.58</ele>
        <time>2011-09-03T13:58:21Z</time>
      </trkpt>
      <trkpt lat="45.31066" lon="3.18601">
        <ele>523.58</ele>
        <time>2011-09-03T13:58:22Z</time>
      </trkpt>
      <trkpt lat="45.31083" lon="3.18605">
        <ele>524.06</ele>
        <time>2011-09-03T13:58:26Z</time>
      </trkpt>
      <trkpt lat="45.31099" lon="3.18602">
        <ele>524.54</ele>
        <time>2011-09-03T13:58:28Z</time>
      </trkpt>
      <trkpt lat="45.31147" lon="3.1862">
        <ele>523.58</ele>
        <time>2011-09-03T13:58:33Z</time>
      </trkpt>
      <trkpt lat="45.31206" lon="3.1867">
        <ele>523.09</ele>
        <time>2011-09-03T13:58:39Z</time>
      </trkpt>
      <trkpt lat="45.31239" lon="3.1872">
        <ele>522.61</ele>
        <time>2011-09-03T13:58:43Z</time>
      </trkpt>
      <trkpt lat="45.31246" lon="3.18733">
        <ele>523.09</ele>
        <time>2011-09-03T13:58:44Z</time>
      </trkpt>
      <trkpt lat="45.31257" lon="3.18761">
        <ele>522.61</ele>
        <time>2011-09-03T13:58:46Z</time>
      </trkpt>
      <trkpt lat="45.31287" lon="3.1881">
        <ele>523.09</ele>
        <time>2011-09-03T13:58:50Z</time>
      </trkpt>
      <trkpt lat="45.314" lon="3.18898">
        <ele>526.46</ele>
        <time>2011-09-03T13:59:01Z</time>
      </trkpt>
      <trkpt lat="45.31443" lon="3.18914">
        <ele>527.42</ele>
        <time>2011-09-03T13:59:04Z</time>
      </trkpt>
      <trkpt lat="45.31476" lon="3.18938">
        <ele>528.38</ele>
        <time>2011-09-03T13:59:06Z</time>
      </trkpt>
      <trkpt lat="45.31508" lon="3.18977">
        <ele>532.23</ele>
        <time>2011-09-03T13:59:08Z</time>
      </trkpt>
      <trkpt lat="45.31671" lon="3.19172">
        <ele>533.19</ele>
        <time>2011-09-03T13:59:17Z</time>
      </trkpt>
      <trkpt lat="45.31777" lon="3.19268">
        <ele>530.3</ele>
        <time>2011-09-03T13:59:22Z</time>
      </trkpt>
      <trkpt lat="45.31837" lon="3.19323">
        <ele>528.86</ele>
        <time>2011-09-03T13:59:25Z</time>
      </trkpt>
      <trkpt lat="45.31895" lon="3.19378">
        <ele>527.42</ele>
        <time>2011-09-03T13:59:28Z</time>
      </trkpt>
      <trkpt lat="45.31952" lon="3.19482">
        <ele>526.46</ele>
        <time>2011-09-03T13:59:32Z</time>
      </trkpt>
      <trkpt lat="45.31972" lon="3.19538">
        <ele>527.42</ele>
        <time>2011-09-03T13:59:34Z</time>
      </trkpt>
      <trkpt lat="45.31986" lon="3.19564">
        <ele>527.9</ele>
        <time>2011-09-03T13:59:35Z</time>
      </trkpt>
      <trkpt lat="45.32001" lon="3.19588">
        <ele>527.42</ele>
        <time>2011-09-03T13:59:36Z</time>
      </trkpt>
      <trkpt lat="45.32019" lon="3.1961">
        <ele>528.38</ele>
        <time>2011-09-03T13:59:37Z</time>
      </trkpt>
      <trkpt lat="45.32037" lon="3.19631">
        <ele>527.42</ele>
        <time>2011-09-03T13:59:38Z</time>
      </trkpt>
      <trkpt lat="45.32073" lon="3.19675">
        <ele>527.42</ele>
        <time>2011-09-03T13:59:40Z</time>
      </trkpt>
      <trkpt lat="45.32088" lon="3.19701">
        <ele>525.5</ele>
        <time>2011-09-03T13:59:41Z</time>
      </trkpt>
      <trkpt lat="45.321" lon="3.19728">
        <ele>525.98</ele>
        <time>2011-09-03T13:59:42Z</time>
      </trkpt>
      <trkpt lat="45.32114" lon="3.19756">
        <ele>527.42</ele>
        <time>2011-09-03T13:59:43Z</time>
      </trkpt>
      <trkpt lat="45.3213" lon="3.19781">
        <ele>528.38</ele>
        <time>2011-09-03T13:59:44Z</time>
      </trkpt>
      <trkpt lat="45.32204" lon="3.19875">
        <ele>528.38</ele>
        <time>2011-09-03T13:59:48Z</time>
      </trkpt>
      <trkpt lat="45.32226" lon="3.19894">
        <ele>529.34</ele>
        <time>2011-09-03T13:59:49Z</time>
      </trkpt>
      <trkpt lat="45.32249" lon="3.19909">
        <ele>529.34</ele>
        <time>2011-09-03T13:59:50Z</time>
      </trkpt>
      <trkpt lat="45.32389" lon="3.19975">
        <ele>528.38</ele>
        <time>2011-09-03T13:59:56Z</time>
      </trkpt>
      <trkpt lat="45.32412" lon="3.19976">
        <ele>525.98</ele>
        <time>2011-09-03T13:59:57Z</time>
      </trkpt>
      <trkpt lat="45.32459" lon="3.19977">
        <ele>523.58</ele>
        <time>2011-09-03T13:59:59Z</time>
      </trkpt>
      <trkpt lat="45.32482" lon="3.19983">
        <ele>523.58</ele>
        <time>2011-09-03T14:00:00Z</time>
      </trkpt>
      <trkpt lat="45.32504" lon="3.19988">
        <ele>522.61</ele>
        <time>2011-09-03T14:00:01Z</time>
      </trkpt>
      <trkpt lat="45.32526" lon="3.1999">
        <ele>522.13</ele>
        <time>2011-09-03T14:00:02Z</time>
      </trkpt>
      <trkpt lat="45.32548" lon="3.19987">
        <ele>523.58</ele>
        <time>2011-09-03T14:00:03Z</time>
      </trkpt>
      <trkpt lat="45.3257" lon="3.19983">
        <ele>522.61</ele>
        <time>2011-09-03T14:00:04Z</time>
      </trkpt>
      <trkpt lat="45.32593" lon="3.19981">
        <ele>523.09</ele>
        <time>2011-09-03T14:00:05Z</time>
      </trkpt>
      <trkpt lat="45.32617" lon="3.19983">
        <ele>523.58</ele>
        <time>2011-09-03T14:00:06Z</time>
      </trkpt>
      <trkpt lat="45.3264" lon="3.19987">
        <ele>524.54</ele>
        <time>2011-09-03T14:00:07Z</time>
      </trkpt>
      <trkpt lat="45.32664" lon="3.19994">
        <ele>524.54</ele>
        <time>2011-09-03T14:00:08Z</time>
      </trkpt>
      <trkpt lat="45.32687" lon="3.20005">
        <ele>523.58</ele>
        <time>2011-09-03T14:00:09Z</time>
      </trkpt>
      <trkpt lat="45.32709" lon="3.20019">
        <ele>522.13</ele>
        <time>2011-09-03T14:00:10Z</time>
      </trkpt>
      <trkpt lat="45.32731" lon="3.20036">
        <ele>524.06</ele>
        <time>2011-09-03T14:00:11Z</time>
      </trkpt>
      <trkpt lat="45.32817" lon="3.20111">
        <ele>521.65</ele>
        <time>2011-09-03T14:00:15Z</time>
      </trkpt>
      <trkpt lat="45.32834" lon="3.20135">
        <ele>522.61</ele>
        <time>2011-09-03T14:00:16Z</time>
      </trkpt>
      <trkpt lat="45.3285" lon="3.2016">
        <ele>523.58</ele>
        <time>2011-09-03T14:00:17Z</time>
      </trkpt>
      <trkpt lat="45.32918" lon="3.20297">
        <ele>523.09</ele>
        <time>2011-09-03T14:00:22Z</time>
      </trkpt>
      <trkpt lat="45.32928" lon="3.20328">
        <ele>522.61</ele>
        <time>2011-09-03T14:00:23Z</time>
      </trkpt>
      <trkpt lat="45.32937" lon="3.20361">
        <ele>523.09</ele>
        <time>2011-09-03T14:00:24Z</time>
      </trkpt>
      <trkpt lat="45.32963" lon="3.20498">
        <ele>525.98</ele>
        <time>2011-09-03T14:00:28Z</time>
      </trkpt>
      <trkpt lat="45.32986" lon="3.20599">
        <ele>525.5</ele>
        <time>2011-09-03T14:00:31Z</time>
      </trkpt>
      <trkpt lat="45.33038" lon="3.20718">
        <ele>525.5</ele>
        <time>2011-09-03T14:00:35Z</time>
      </trkpt>
      <trkpt lat="45.33163" lon="3.20878">
        <ele>520.21</ele>
        <time>2011-09-03T14:00:42Z</time>
      </trkpt>
      <trkpt lat="45.3318" lon="3.20897">
        <ele>519.73</ele>
        <time>2011-09-03T14:00:43Z</time>
      </trkpt>
      <trkpt lat="45.3324" lon="3.2094">
        <ele>523.09</ele>
        <time>2011-09-03T14:00:46Z</time>
      </trkpt>
      <trkpt lat="45.33263" lon="3.20949">
        <ele>522.61</ele>
        <time>2011-09-03T14:00:47Z</time>
      </trkpt>
      <trkpt lat="45.33308" lon="3.20968">
        <ele>520.21</ele>
        <time>2011-09-03T14:00:49Z</time>
      </trkpt>
      <trkpt lat="45.33354" lon="3.20972">
        <ele>523.09</ele>
        <time>2011-09-03T14:00:51Z</time>
      </trkpt>
      <trkpt lat="45.33398" lon="3.20962">
        <ele>521.65</ele>
        <time>2011-09-03T14:00:53Z</time>
      </trkpt>
      <trkpt lat="45.33433" lon="3.20943">
        <ele>517.81</ele>
        <time>2011-09-03T14:00:55Z</time>
      </trkpt>
      <trkpt lat="45.33462" lon="3.20884">
        <ele>515.88</ele>
        <time>2011-09-03T14:00:58Z</time>
      </trkpt>
      <trkpt lat="45.3353" lon="3.20698">
        <ele>519.25</ele>
        <time>2011-09-03T14:01:05Z</time>
      </trkpt>
      <trkpt lat="45.33565" lon="3.2066">
        <ele>518.77</ele>
        <time>2011-09-03T14:01:07Z</time>
      </trkpt>
      <trkpt lat="45.33618" lon="3.20576">
        <ele>513.96</ele>
        <time>2011-09-03T14:01:11Z</time>
      </trkpt>
      <trkpt lat="45.33633" lon="3.20564">
        <ele>512.52</ele>
        <time>2011-09-03T14:01:12Z</time>
      </trkpt>
      <trkpt lat="45.3365" lon="3.20557">
        <ele>512.04</ele>
        <time>2011-09-03T14:01:13Z</time>
      </trkpt>
      <trkpt lat="45.33669" lon="3.20556">
        <ele>513.96</ele>
        <time>2011-09-03T14:01:14Z</time>
      </trkpt>
      <trkpt lat="45.33689" lon="3.20554">
        <ele>515.88</ele>
        <time>2011-09-03T14:01:15Z</time>
      </trkpt>
      <trkpt lat="45.3371" lon="3.20551">
        <ele>516.37</ele>
        <time>2011-09-03T14:01:16Z</time>
      </trkpt>
      <trkpt lat="45.3373" lon="3.20546">
        <ele>514.92</ele>
        <time>2011-09-03T14:01:17Z</time>
      </trkpt>
      <trkpt lat="45.33751" lon="3.20541">
        <ele>514.44</ele>
        <time>2011-09-03T14:01:18Z</time>
      </trkpt>
      <trkpt lat="45.33771" lon="3.20536">
        <ele>514.92</ele>
        <time>2011-09-03T14:01:19Z</time>
      </trkpt>
      <trkpt lat="45.33792" lon="3.20536">
        <ele>514.44</ele>
        <time>2011-09-03T14:01:20Z</time>
      </trkpt>
      <trkpt lat="45.33813" lon="3.2054">
        <ele>514.92</ele>
        <time>2011-09-03T14:01:21Z</time>
      </trkpt>
      <trkpt lat="45.33834" lon="3.20546">
        <ele>515.4</ele>
        <time>2011-09-03T14:01:22Z</time>
      </trkpt>
      <trkpt lat="45.33856" lon="3.20553">
        <ele>516.37</ele>
        <time>2011-09-03T14:01:23Z</time>
      </trkpt>
      <trkpt lat="45.33879" lon="3.20558">
        <ele>517.33</ele>
        <time>2011-09-03T14:01:24Z</time>
      </trkpt>
      <trkpt lat="45.33904" lon="3.2056">
        <ele>518.77</ele>
        <time>2011-09-03T14:01:25Z</time>
      </trkpt>
      <trkpt lat="45.34092" lon="3.20559">
        <ele>522.61</ele>
        <time>2011-09-03T14:01:32Z</time>
      </trkpt>
      <trkpt lat="45.34181" lon="3.20562">
        <ele>519.25</ele>
        <time>2011-09-03T14:01:35Z</time>
      </trkpt>
      <trkpt lat="45.3426" lon="3.20563">
        <ele>517.81</ele>
        <time>2011-09-03T14:01:38Z</time>
      </trkpt>
      <trkpt lat="45.34333" lon="3.20575">
        <ele>514.92</ele>
        <time>2011-09-03T14:01:41Z</time>
      </trkpt>
      <trkpt lat="45.34357" lon="3.20585">
        <ele>514.92</ele>
        <time>2011-09-03T14:01:42Z</time>
      </trkpt>
      <trkpt lat="45.3457" lon="3.20716">
        <ele>512.52</ele>
        <time>2011-09-03T14:01:51Z</time>
      </trkpt>
      <trkpt lat="45.3459" lon="3.20737">
        <ele>512.04</ele>
        <time>2011-09-03T14:01:52Z</time>
      </trkpt>
      <trkpt lat="45.34609" lon="3.20762">
        <ele>513</ele>
        <time>2011-09-03T14:01:53Z</time>
      </trkpt>
      <trkpt lat="45.34625" lon="3.20791">
        <ele>514.44</ele>
        <time>2011-09-03T14:01:54Z</time>
      </trkpt>
      <trkpt lat="45.3464" lon="3.20822">
        <ele>513.48</ele>
        <time>2011-09-03T14:01:55Z</time>
      </trkpt>
      <trkpt lat="45.34684" lon="3.20909">
        <ele>513.48</ele>
        <time>2011-09-03T14:01:58Z</time>
      </trkpt>
      <trkpt lat="45.34702" lon="3.20934">
        <ele>513.48</ele>
        <time>2011-09-03T14:01:59Z</time>
      </trkpt>
      <trkpt lat="45.34776" lon="3.21013">
        <ele>508.19</ele>
        <time>2011-09-03T14:02:03Z</time>
      </trkpt>
      <trkpt lat="45.34793" lon="3.21028">
        <ele>507.71</ele>
        <time>2011-09-03T14:02:04Z</time>
      </trkpt>
      <trkpt lat="45.34811" lon="3.21038">
        <ele>508.19</ele>
        <time>2011-09-03T14:02:05Z</time>
      </trkpt>
      <trkpt lat="45.3483" lon="3.2104">
        <ele>509.16</ele>
        <time>2011-09-03T14:02:06Z</time>
      </trkpt>
      <trkpt lat="45.3485" lon="3.21035">
        <ele>508.67</ele>
        <time>2011-09-03T14:02:07Z</time>
      </trkpt>
      <trkpt lat="45.34871" lon="3.21027">
        <ele>510.12</ele>
        <time>2011-09-03T14:02:08Z</time>
      </trkpt>
      <trkpt lat="45.34892" lon="3.2102">
        <ele>510.6</ele>
        <time>2011-09-03T14:02:09Z</time>
      </trkpt>
      <trkpt lat="45.34914" lon="3.21015">
        <ele>509.16</ele>
        <time>2011-09-03T14:02:10Z</time>
      </trkpt>
      <trkpt lat="45.34977" lon="3.21012">
        <ele>507.71</ele>
        <time>2011-09-03T14:02:13Z</time>
      </trkpt>
      <trkpt lat="45.34997" lon="3.21016">
        <ele>506.75</ele>
        <time>2011-09-03T14:02:14Z</time>
      </trkpt>
      <trkpt lat="45.35016" lon="3.21024">
        <ele>506.75</ele>
        <time>2011-09-03T14:02:15Z</time>
      </trkpt>
      <trkpt lat="45.35033" lon="3.21035">
        <ele>506.27</ele>
        <time>2011-09-03T14:02:16Z</time>
      </trkpt>
      <trkpt lat="45.35047" lon="3.2105">
        <ele>503.87</ele>
        <time>2011-09-03T14:02:17Z</time>
      </trkpt>
      <trkpt lat="45.35057" lon="3.21066">
        <ele>503.39</ele>
        <time>2011-09-03T14:02:18Z</time>
      </trkpt>
      <trkpt lat="45.35063" lon="3.21085">
        <ele>502.43</ele>
        <time>2011-09-03T14:02:19Z</time>
      </trkpt>
      <trkpt lat="45.35038" lon="3.21171">
        <ele>502.91</ele>
        <time>2011-09-03T14:02:23Z</time>
      </trkpt>
      <trkpt lat="45.3502" lon="3.21186">
        <ele>504.83</ele>
        <time>2011-09-03T14:02:24Z</time>
      </trkpt>
      <trkpt lat="45.35001" lon="3.21198">
        <ele>505.31</ele>
        <time>2011-09-03T14:02:25Z</time>
      </trkpt>
      <trkpt lat="45.34979" lon="3.21207">
        <ele>505.79</ele>
        <time>2011-09-03T14:02:26Z</time>
      </trkpt>
      <trkpt lat="45.34957" lon="3.21217">
        <ele>506.75</ele>
        <time>2011-09-03T14:02:27Z</time>
      </trkpt>
      <trkpt lat="45.34935" lon="3.21231">
        <ele>506.75</ele>
        <time>2011-09-03T14:02:28Z</time>
      </trkpt>
      <trkpt lat="45.34916" lon="3.21251">
        <ele>507.23</ele>
        <time>2011-09-03T14:02:29Z</time>
      </trkpt>
      <trkpt lat="45.34897" lon="3.21274">
        <ele>508.19</ele>
        <time>2011-09-03T14:02:30Z</time>
      </trkpt>
      <trkpt lat="45.34878" lon="3.213">
        <ele>508.67</ele>
        <time>2011-09-03T14:02:31Z</time>
      </trkpt>
      <trkpt lat="45.34826" lon="3.21375">
        <ele>504.83</ele>
        <time>2011-09-03T14:02:34Z</time>
      </trkpt>
      <trkpt lat="45.34797" lon="3.21419">
        <ele>501.95</ele>
        <time>2011-09-03T14:02:36Z</time>
      </trkpt>
      <trkpt lat="45.34778" lon="3.21462">
        <ele>500.5</ele>
        <time>2011-09-03T14:02:38Z</time>
      </trkpt>
      <trkpt lat="45.34786" lon="3.21555">
        <ele>500.98</ele>
        <time>2011-09-03T14:02:42Z</time>
      </trkpt>
      <trkpt lat="45.34801" lon="3.21626">
        <ele>499.54</ele>
        <time>2011-09-03T14:02:45Z</time>
      </trkpt>
      <trkpt lat="45.34806" lon="3.21713">
        <ele>501.95</ele>
        <time>2011-09-03T14:02:48Z</time>
      </trkpt>
      <trkpt lat="45.3481" lon="3.21742">
        <ele>502.91</ele>
        <time>2011-09-03T14:02:49Z</time>
      </trkpt>
      <trkpt lat="45.34869" lon="3.21882">
        <ele>500.5</ele>
        <time>2011-09-03T14:02:55Z</time>
      </trkpt>
      <trkpt lat="45.34879" lon="3.21909">
        <ele>501.46</ele>
        <time>2011-09-03T14:02:56Z</time>
      </trkpt>
      <trkpt lat="45.34898" lon="3.21967">
        <ele>502.43</ele>
        <time>2011-09-03T14:02:58Z</time>
      </trkpt>
      <trkpt lat="45.34941" lon="3.22112">
        <ele>500.98</ele>
        <time>2011-09-03T14:03:03Z</time>
      </trkpt>
      <trkpt lat="45.35011" lon="3.2222">
        <ele>502.43</ele>
        <time>2011-09-03T14:03:08Z</time>
      </trkpt>
      <trkpt lat="45.35098" lon="3.22225">
        <ele>502.43</ele>
        <time>2011-09-03T14:03:12Z</time>
      </trkpt>
      <trkpt lat="45.35182" lon="3.2216">
        <ele>502.43</ele>
        <time>2011-09-03T14:03:16Z</time>
      </trkpt>
      <trkpt lat="45.35239" lon="3.221">
        <ele>500.02</ele>
        <time>2011-09-03T14:03:19Z</time>
      </trkpt>
      <trkpt lat="45.35259" lon="3.22083">
        <ele>500.02</ele>
        <time>2011-09-03T14:03:20Z</time>
      </trkpt>
      <trkpt lat="45.35305" lon="3.22058">
        <ele>501.95</ele>
        <time>2011-09-03T14:03:22Z</time>
      </trkpt>
      <trkpt lat="45.35417" lon="3.22014">
        <ele>499.54</ele>
        <time>2011-09-03T14:03:27Z</time>
      </trkpt>
      <trkpt lat="45.35498" lon="3.22005">
        <ele>495.22</ele>
        <time>2011-09-03T14:03:31Z</time>
      </trkpt>
      <trkpt lat="45.3556" lon="3.2203">
        <ele>491.85</ele>
        <time>2011-09-03T14:03:35Z</time>
      </trkpt>
      <trkpt lat="45.35571" lon="3.22039">
        <ele>491.85</ele>
        <time>2011-09-03T14:03:36Z</time>
      </trkpt>
      <trkpt lat="45.35581" lon="3.22048">
        <ele>490.89</ele>
        <time>2011-09-03T14:03:37Z</time>
      </trkpt>
      <trkpt lat="45.35609" lon="3.22074">
        <ele>489.93</ele>
        <time>2011-09-03T14:03:40Z</time>
      </trkpt>
      <trkpt lat="45.35647" lon="3.22136">
        <ele>490.89</ele>
        <time>2011-09-03T14:03:45Z</time>
      </trkpt>
      <trkpt lat="45.35712" lon="3.2216">
        <ele>494.74</ele>
        <time>2011-09-03T14:03:50Z</time>
      </trkpt>
      <trkpt lat="45.35728" lon="3.2215">
        <ele>494.74</ele>
        <time>2011-09-03T14:03:51Z</time>
      </trkpt>
      <trkpt lat="45.35788" lon="3.22109">
        <ele>500.02</ele>
        <time>2011-09-03T14:03:54Z</time>
      </trkpt>
      <trkpt lat="45.35902" lon="3.2203">
        <ele>499.54</ele>
        <time>2011-09-03T14:03:59Z</time>
      </trkpt>
      <trkpt lat="45.35971" lon="3.21938">
        <ele>499.54</ele>
        <time>2011-09-03T14:04:03Z</time>
      </trkpt>
      <trkpt lat="45.36057" lon="3.21656">
        <ele>496.66</ele>
        <time>2011-09-03T14:04:12Z</time>
      </trkpt>
      <trkpt lat="45.36069" lon="3.21575">
        <ele>491.85</ele>
        <time>2011-09-03T14:04:15Z</time>
      </trkpt>
      <trkpt lat="45.36088" lon="3.21513">
        <ele>487.53</ele>
        <time>2011-09-03T14:04:18Z</time>
      </trkpt>
      <trkpt lat="45.36141" lon="3.21502">
        <ele>488.97</ele>
        <time>2011-09-03T14:04:22Z</time>
      </trkpt>
      <trkpt lat="45.36175" lon="3.21528">
        <ele>492.81</ele>
        <time>2011-09-03T14:04:24Z</time>
      </trkpt>
      <trkpt lat="45.36194" lon="3.21547">
        <ele>492.33</ele>
        <time>2011-09-03T14:04:25Z</time>
      </trkpt>
      <trkpt lat="45.363" lon="3.21702">
        <ele>495.22</ele>
        <time>2011-09-03T14:04:31Z</time>
      </trkpt>
      <trkpt lat="45.36426" lon="3.219">
        <ele>496.18</ele>
        <time>2011-09-03T14:04:38Z</time>
      </trkpt>
      <trkpt lat="45.36542" lon="3.22058">
        <ele>493.29</ele>
        <time>2011-09-03T14:04:44Z</time>
      </trkpt>
      <trkpt lat="45.36673" lon="3.22184">
        <ele>491.37</ele>
        <time>2011-09-03T14:04:50Z</time>
      </trkpt>
      <trkpt lat="45.36695" lon="3.22201">
        <ele>491.37</ele>
        <time>2011-09-03T14:04:51Z</time>
      </trkpt>
      <trkpt lat="45.36806" lon="3.22267">
        <ele>488.01</ele>
        <time>2011-09-03T14:04:56Z</time>
      </trkpt>
      <trkpt lat="45.36828" lon="3.22279">
        <ele>488.97</ele>
        <time>2011-09-03T14:04:57Z</time>
      </trkpt>
      <trkpt lat="45.36959" lon="3.22418">
        <ele>488.01</ele>
        <time>2011-09-03T14:05:04Z</time>
      </trkpt>
      <trkpt lat="45.37066" lon="3.22545">
        <ele>489.45</ele>
        <time>2011-09-03T14:05:10Z</time>
      </trkpt>
      <trkpt lat="45.37169" lon="3.22582">
        <ele>488.01</ele>
        <time>2011-09-03T14:05:15Z</time>
      </trkpt>
      <trkpt lat="45.3719" lon="3.22579">
        <ele>486.56</ele>
        <time>2011-09-03T14:05:16Z</time>
      </trkpt>
      <trkpt lat="45.3721" lon="3.2258">
        <ele>485.12</ele>
        <time>2011-09-03T14:05:17Z</time>
      </trkpt>
      <trkpt lat="45.37254" lon="3.22594">
        <ele>485.6</ele>
        <time>2011-09-03T14:05:19Z</time>
      </trkpt>
      <trkpt lat="45.37337" lon="3.22698">
        <ele>485.12</ele>
        <time>2011-09-03T14:05:24Z</time>
      </trkpt>
      <trkpt lat="45.37369" lon="3.22784">
        <ele>483.68</ele>
        <time>2011-09-03T14:05:27Z</time>
      </trkpt>
      <trkpt lat="45.37385" lon="3.22839">
        <ele>482.24</ele>
        <time>2011-09-03T14:05:29Z</time>
      </trkpt>
      <trkpt lat="45.3739" lon="3.2287">
        <ele>482.72</ele>
        <time>2011-09-03T14:05:30Z</time>
      </trkpt>
      <trkpt lat="45.37439" lon="3.23004">
        <ele>479.84</ele>
        <time>2011-09-03T14:05:35Z</time>
      </trkpt>
      <trkpt lat="45.37486" lon="3.23071">
        <ele>477.43</ele>
        <time>2011-09-03T14:05:39Z</time>
      </trkpt>
      <trkpt lat="45.37472" lon="3.23157">
        <ele>476.95</ele>
        <time>2011-09-03T14:05:43Z</time>
      </trkpt>
      <trkpt lat="45.37426" lon="3.23206">
        <ele>479.84</ele>
        <time>2011-09-03T14:05:46Z</time>
      </trkpt>
      <trkpt lat="45.37316" lon="3.23231">
        <ele>481.28</ele>
        <time>2011-09-03T14:05:51Z</time>
      </trkpt>
      <trkpt lat="45.37143" lon="3.2325">
        <ele>478.87</ele>
        <time>2011-09-03T14:05:58Z</time>
      </trkpt>
      <trkpt lat="45.37122" lon="3.23256">
        <ele>478.39</ele>
        <time>2011-09-03T14:05:59Z</time>
      </trkpt>
      <trkpt lat="45.37069" lon="3.23288">
        <ele>476.47</ele>
        <time>2011-09-03T14:06:02Z</time>
      </trkpt>
      <trkpt lat="45.37043" lon="3.23343">
        <ele>474.55</ele>
        <time>2011-09-03T14:06:05Z</time>
      </trkpt>
      <trkpt lat="45.37054" lon="3.23392">
        <ele>475.99</ele>
        <time>2011-09-03T14:06:07Z</time>
      </trkpt>
      <trkpt lat="45.3708" lon="3.23434">
        <ele>480.32</ele>
        <time>2011-09-03T14:06:09Z</time>
      </trkpt>
      <trkpt lat="45.37121" lon="3.23467">
        <ele>479.35</ele>
        <time>2011-09-03T14:06:11Z</time>
      </trkpt>
      <trkpt lat="45.37309" lon="3.23567">
        <ele>475.51</ele>
        <time>2011-09-03T14:06:19Z</time>
      </trkpt>
      <trkpt lat="45.37363" lon="3.23588">
        <ele>472.63</ele>
        <time>2011-09-03T14:06:22Z</time>
      </trkpt>
      <trkpt lat="45.37415" lon="3.23661">
        <ele>470.7</ele>
        <time>2011-09-03T14:06:27Z</time>
      </trkpt>
      <trkpt lat="45.37377" lon="3.23749">
        <ele>475.99</ele>
        <time>2011-09-03T14:06:31Z</time>
      </trkpt>
      <trkpt lat="45.37357" lon="3.23771">
        <ele>476.47</ele>
        <time>2011-09-03T14:06:32Z</time>
      </trkpt>
      <trkpt lat="45.37249" lon="3.23865">
        <ele>475.03</ele>
        <time>2011-09-03T14:06:37Z</time>
      </trkpt>
      <trkpt lat="45.37172" lon="3.24">
        <ele>476.95</ele>
        <time>2011-09-03T14:06:42Z</time>
      </trkpt>
      <trkpt lat="45.37164" lon="3.24132">
        <ele>478.39</ele>
        <time>2011-09-03T14:06:46Z</time>
      </trkpt>
      <trkpt lat="45.37183" lon="3.24313">
        <ele>478.39</ele>
        <time>2011-09-03T14:06:51Z</time>
      </trkpt>
      <trkpt lat="45.37163" lon="3.24449">
        <ele>475.99</ele>
        <time>2011-09-03T14:06:55Z</time>
      </trkpt>
      <trkpt lat="45.37141" lon="3.24597">
        <ele>474.07</ele>
        <time>2011-09-03T14:07:00Z</time>
      </trkpt>
      <trkpt lat="45.37149" lon="3.24689">
        <ele>474.55</ele>
        <time>2011-09-03T14:07:03Z</time>
      </trkpt>
      <trkpt lat="45.3716" lon="3.24812">
        <ele>475.51</ele>
        <time>2011-09-03T14:07:07Z</time>
      </trkpt>
      <trkpt lat="45.37217" lon="3.24912">
        <ele>474.07</ele>
        <time>2011-09-03T14:07:12Z</time>
      </trkpt>
      <trkpt lat="45.37254" lon="3.24918">
        <ele>475.03</ele>
        <time>2011-09-03T14:07:14Z</time>
      </trkpt>
      <trkpt lat="45.37274" lon="3.24913">
        <ele>475.99</ele>
        <time>2011-09-03T14:07:15Z</time>
      </trkpt>
      <trkpt lat="45.37465" lon="3.24798">
        <ele>472.14</ele>
        <time>2011-09-03T14:07:23Z</time>
      </trkpt>
      <trkpt lat="45.37488" lon="3.24789">
        <ele>471.18</ele>
        <time>2011-09-03T14:07:24Z</time>
      </trkpt>
      <trkpt lat="45.37602" lon="3.24809">
        <ele>469.26</ele>
        <time>2011-09-03T14:07:29Z</time>
      </trkpt>
      <trkpt lat="45.37622" lon="3.24826">
        <ele>469.26</ele>
        <time>2011-09-03T14:07:30Z</time>
      </trkpt>
      <trkpt lat="45.37653" lon="3.24876">
        <ele>471.66</ele>
        <time>2011-09-03T14:07:32Z</time>
      </trkpt>
      <trkpt lat="45.37691" lon="3.24966">
        <ele>468.3</ele>
        <time>2011-09-03T14:07:35Z</time>
      </trkpt>
      <trkpt lat="45.37701" lon="3.24996">
        <ele>469.74</ele>
        <time>2011-09-03T14:07:36Z</time>
      </trkpt>
      <trkpt lat="45.3773" lon="3.25158">
        <ele>467.82</ele>
        <time>2011-09-03T14:07:41Z</time>
      </trkpt>
      <trkpt lat="45.37744" lon="3.25246">
        <ele>466.38</ele>
        <time>2011-09-03T14:07:44Z</time>
      </trkpt>
      <trkpt lat="45.37805" lon="3.25335">
        <ele>465.42</ele>
        <time>2011-09-03T14:07:49Z</time>
      </trkpt>
      <trkpt lat="45.37847" lon="3.25349">
        <ele>461.57</ele>
        <time>2011-09-03T14:07:52Z</time>
      </trkpt>
      <trkpt lat="45.3786" lon="3.25355">
        <ele>461.57</ele>
        <time>2011-09-03T14:07:53Z</time>
      </trkpt>
      <trkpt lat="45.37908" lon="3.25389">
        <ele>462.53</ele>
        <time>2011-09-03T14:07:57Z</time>
      </trkpt>
      <trkpt lat="45.37939" lon="3.2543">
        <ele>462.53</ele>
        <time>2011-09-03T14:08:00Z</time>
      </trkpt>
      <trkpt lat="45.37965" lon="3.25499">
        <ele>466.38</ele>
        <time>2011-09-03T14:08:03Z</time>
      </trkpt>
      <trkpt lat="45.37977" lon="3.25558">
        <ele>468.78</ele>
        <time>2011-09-03T14:08:05Z</time>
      </trkpt>
      <trkpt lat="45.37993" lon="3.25697">
        <ele>471.18</ele>
        <time>2011-09-03T14:08:09Z</time>
      </trkpt>
      <trkpt lat="45.3802" lon="3.25907">
        <ele>470.22</ele>
        <time>2011-09-03T14:08:15Z</time>
      </trkpt>
      <trkpt lat="45.38063" lon="3.2603">
        <ele>468.3</ele>
        <time>2011-09-03T14:08:19Z</time>
      </trkpt>
      <trkpt lat="45.38081" lon="3.26087">
        <ele>466.86</ele>
        <time>2011-09-03T14:08:21Z</time>
      </trkpt>
      <trkpt lat="45.38084" lon="3.2615">
        <ele>465.9</ele>
        <time>2011-09-03T14:08:23Z</time>
      </trkpt>
      <trkpt lat="45.3809" lon="3.26214">
        <ele>466.38</ele>
        <time>2011-09-03T14:08:25Z</time>
      </trkpt>
      <trkpt lat="45.38098" lon="3.26244">
        <ele>467.34</ele>
        <time>2011-09-03T14:08:26Z</time>
      </trkpt>
      <trkpt lat="45.3811" lon="3.26272">
        <ele>466.86</ele>
        <time>2011-09-03T14:08:27Z</time>
      </trkpt>
      <trkpt lat="45.38124" lon="3.26297">
        <ele>464.45</ele>
        <time>2011-09-03T14:08:28Z</time>
      </trkpt>
      <trkpt lat="45.38138" lon="3.2632">
        <ele>465.42</ele>
        <time>2011-09-03T14:08:29Z</time>
      </trkpt>
      <trkpt lat="45.38225" lon="3.26463">
        <ele>462.05</ele>
        <time>2011-09-03T14:08:36Z</time>
      </trkpt>
      <trkpt lat="45.38237" lon="3.26478">
        <ele>461.57</ele>
        <time>2011-09-03T14:08:37Z</time>
      </trkpt>
      <trkpt lat="45.38269" lon="3.26522">
        <ele>463.49</ele>
        <time>2011-09-03T14:08:40Z</time>
      </trkpt>
      <trkpt lat="45.38296" lon="3.26584">
        <ele>461.09</ele>
        <time>2011-09-03T14:08:44Z</time>
      </trkpt>
      <trkpt lat="45.383" lon="3.26601">
        <ele>460.13</ele>
        <time>2011-09-03T14:08:45Z</time>
      </trkpt>
      <trkpt lat="45.38303" lon="3.26619">
        <ele>460.61</ele>
        <time>2011-09-03T14:08:46Z</time>
      </trkpt>
      <trkpt lat="45.38305" lon="3.26638">
        <ele>459.17</ele>
        <time>2011-09-03T14:08:47Z</time>
      </trkpt>
      <trkpt lat="45.38305" lon="3.26656">
        <ele>460.61</ele>
        <time>2011-09-03T14:08:48Z</time>
      </trkpt>
      <trkpt lat="45.38305" lon="3.26675">
        <ele>460.61</ele>
        <time>2011-09-03T14:08:49Z</time>
      </trkpt>
      <trkpt lat="45.38309" lon="3.26759">
        <ele>459.17</ele>
        <time>2011-09-03T14:08:54Z</time>
      </trkpt>
      <trkpt lat="45.38312" lon="3.26771">
        <ele>459.65</ele>
        <time>2011-09-03T14:08:55Z</time>
      </trkpt>
      <trkpt lat="45.38317" lon="3.26785">
        <ele>458.21</ele>
        <time>2011-09-03T14:08:57Z</time>
      </trkpt>
      <trkpt lat="45.38319" lon="3.26791">
        <ele>456.76</ele>
        <time>2011-09-03T14:08:59Z</time>
      </trkpt>
      <trkpt lat="45.38323" lon="3.26815">
        <ele>457.24</ele>
        <time>2011-09-03T14:09:10Z</time>
      </trkpt>
      <trkpt lat="45.38326" lon="3.26819">
        <ele>457.24</ele>
        <time>2011-09-03T14:09:12Z</time>
      </trkpt>
      <trkpt lat="45.38327" lon="3.2682">
        <ele>456.28</ele>
        <time>2011-09-03T14:09:28Z</time>
      </trkpt>
      <trkpt lat="45.38327" lon="3.2682">
        <ele>455.8</ele>
        <time>2011-09-03T14:10:52Z</time>
      </trkpt>
      <trkpt lat="45.38327" lon="3.2682">
        <ele>455.32</ele>
        <time>2011-09-03T14:11:27Z</time>
      </trkpt>
      <trkpt lat="45.38327" lon="3.2682">
        <ele>454.36</ele>
        <time>2011-09-03T14:11:46Z</time>
      </trkpt>
      <trkpt lat="45.38327" lon="3.26819">
        <ele>454.36</ele>
        <time>2011-09-03T14:12:00Z</time>
      </trkpt>
      <trkpt lat="45.38326" lon="3.26819">
        <ele>453.88</ele>
        <time>2011-09-03T14:13:40Z</time>
      </trkpt>
      <trkpt lat="45.38326" lon="3.26819">
        <ele>452.92</ele>
        <time>2011-09-03T14:13:53Z</time>
      </trkpt>
      <trkpt lat="45.38326" lon="3.26819">
        <ele>454.84</ele>
        <time>2011-09-03T14:13:55Z</time>
      </trkpt>
      <trkpt lat="45.38326" lon="3.26819">
        <ele>453.4</ele>
        <time>2011-09-03T14:14:16Z</time>
      </trkpt>
      <trkpt lat="45.38326" lon="3.26819">
        <ele>454.84</ele>
        <time>2011-09-03T14:14:18Z</time>
      </trkpt>
      <trkpt lat="45.38327" lon="3.2682">
        <ele>453.88</ele>
        <time>2011-09-03T14:14:29Z</time>
      </trkpt>
      <trkpt lat="45.38328" lon="3.26822">
        <ele>454.84</ele>
        <time>2011-09-03T14:14:30Z</time>
      </trkpt>
      <trkpt lat="45.38329" lon="3.26827">
        <ele>454.84</ele>
        <time>2011-09-03T14:14:31Z</time>
      </trkpt>
      <trkpt lat="45.38331" lon="3.26833">
        <ele>454.84</ele>
        <time>2011-09-03T14:14:32Z</time>
      </trkpt>
      <trkpt lat="45.38333" lon="3.26841">
        <ele>454.36</ele>
        <time>2011-09-03T14:14:33Z</time>
      </trkpt>
      <trkpt lat="45.38333" lon="3.2685">
        <ele>454.84</ele>
        <time>2011-09-03T14:14:34Z</time>
      </trkpt>
      <trkpt lat="45.38333" lon="3.26858">
        <ele>455.32</ele>
        <time>2011-09-03T14:14:35Z</time>
      </trkpt>
      <trkpt lat="45.38333" lon="3.26869">
        <ele>455.8</ele>
        <time>2011-09-03T14:14:36Z</time>
      </trkpt>
      <trkpt lat="45.38333" lon="3.26883">
        <ele>457.24</ele>
        <time>2011-09-03T14:14:37Z</time>
      </trkpt>
      <trkpt lat="45.38324" lon="3.27011">
        <ele>457.72</ele>
        <time>2011-09-03T14:14:44Z</time>
      </trkpt>
      <trkpt lat="45.38318" lon="3.2705">
        <ele>457.72</ele>
        <time>2011-09-03T14:14:46Z</time>
      </trkpt>
      <trkpt lat="45.38312" lon="3.2707">
        <ele>459.65</ele>
        <time>2011-09-03T14:14:47Z</time>
      </trkpt>
      <trkpt lat="45.38304" lon="3.2709">
        <ele>462.05</ele>
        <time>2011-09-03T14:14:48Z</time>
      </trkpt>
      <trkpt lat="45.38284" lon="3.27132">
        <ele>463.49</ele>
        <time>2011-09-03T14:14:50Z</time>
      </trkpt>
      <trkpt lat="45.38187" lon="3.27327">
        <ele>465.42</ele>
        <time>2011-09-03T14:14:59Z</time>
      </trkpt>
      <trkpt lat="45.38175" lon="3.27353">
        <ele>465.9</ele>
        <time>2011-09-03T14:15:00Z</time>
      </trkpt>
      <trkpt lat="45.3814" lon="3.27424">
        <ele>467.82</ele>
        <time>2011-09-03T14:15:03Z</time>
      </trkpt>
      <trkpt lat="45.38068" lon="3.27571">
        <ele>466.38</ele>
        <time>2011-09-03T14:15:11Z</time>
      </trkpt>
      <trkpt lat="45.38062" lon="3.27582">
        <ele>466.38</ele>
        <time>2011-09-03T14:15:12Z</time>
      </trkpt>
      <trkpt lat="45.38055" lon="3.2759">
        <ele>464.45</ele>
        <time>2011-09-03T14:15:13Z</time>
      </trkpt>
      <trkpt lat="45.38047" lon="3.27594">
        <ele>463.97</ele>
        <time>2011-09-03T14:15:14Z</time>
      </trkpt>
      <trkpt lat="45.38031" lon="3.27597">
        <ele>463.49</ele>
        <time>2011-09-03T14:15:16Z</time>
      </trkpt>
      <trkpt lat="45.38026" lon="3.27604">
        <ele>463.49</ele>
        <time>2011-09-03T14:15:17Z</time>
      </trkpt>
      <trkpt lat="45.38025" lon="3.27615">
        <ele>463.01</ele>
        <time>2011-09-03T14:15:18Z</time>
      </trkpt>
      <trkpt lat="45.38026" lon="3.27628">
        <ele>463.49</ele>
        <time>2011-09-03T14:15:19Z</time>
      </trkpt>
      <trkpt lat="45.38027" lon="3.27642">
        <ele>464.45</ele>
        <time>2011-09-03T14:15:20Z</time>
      </trkpt>
      <trkpt lat="45.38025" lon="3.27657">
        <ele>462.53</ele>
        <time>2011-09-03T14:15:21Z</time>
      </trkpt>
      <trkpt lat="45.38019" lon="3.27672">
        <ele>463.49</ele>
        <time>2011-09-03T14:15:22Z</time>
      </trkpt>
      <trkpt lat="45.38012" lon="3.27688">
        <ele>464.45</ele>
        <time>2011-09-03T14:15:23Z</time>
      </trkpt>
      <trkpt lat="45.37917" lon="3.27884">
        <ele>466.86</ele>
        <time>2011-09-03T14:15:33Z</time>
      </trkpt>
      <trkpt lat="45.37869" lon="3.27983">
        <ele>465.42</ele>
        <time>2011-09-03T14:15:38Z</time>
      </trkpt>
      <trkpt lat="45.37825" lon="3.28086">
        <ele>465.42</ele>
        <time>2011-09-03T14:15:43Z</time>
      </trkpt>
      <trkpt lat="45.37805" lon="3.28164">
        <ele>467.82</ele>
        <time>2011-09-03T14:15:46Z</time>
      </trkpt>
      <trkpt lat="45.37795" lon="3.28189">
        <ele>466.86</ele>
        <time>2011-09-03T14:15:47Z</time>
      </trkpt>
      <trkpt lat="45.37783" lon="3.28212">
        <ele>466.86</ele>
        <time>2011-09-03T14:15:48Z</time>
      </trkpt>
      <trkpt lat="45.37747" lon="3.2828">
        <ele>465.9</ele>
        <time>2011-09-03T14:15:51Z</time>
      </trkpt>
      <trkpt lat="45.37738" lon="3.28304">
        <ele>466.38</ele>
        <time>2011-09-03T14:15:52Z</time>
      </trkpt>
      <trkpt lat="45.37731" lon="3.28329">
        <ele>464.93</ele>
        <time>2011-09-03T14:15:53Z</time>
      </trkpt>
      <trkpt lat="45.37727" lon="3.28354">
        <ele>466.38</ele>
        <time>2011-09-03T14:15:54Z</time>
      </trkpt>
      <trkpt lat="45.37723" lon="3.2838">
        <ele>466.86</ele>
        <time>2011-09-03T14:15:55Z</time>
      </trkpt>
      <trkpt lat="45.37701" lon="3.28533">
        <ele>466.38</ele>
        <time>2011-09-03T14:16:01Z</time>
      </trkpt>
      <trkpt lat="45.37694" lon="3.28554">
        <ele>465.42</ele>
        <time>2011-09-03T14:16:02Z</time>
      </trkpt>
      <trkpt lat="45.37687" lon="3.28573">
        <ele>466.38</ele>
        <time>2011-09-03T14:16:03Z</time>
      </trkpt>
      <trkpt lat="45.37677" lon="3.28591">
        <ele>464.45</ele>
        <time>2011-09-03T14:16:04Z</time>
      </trkpt>
      <trkpt lat="45.37665" lon="3.28609">
        <ele>465.9</ele>
        <time>2011-09-03T14:16:05Z</time>
      </trkpt>
      <trkpt lat="45.37652" lon="3.28627">
        <ele>467.82</ele>
        <time>2011-09-03T14:16:06Z</time>
      </trkpt>
      <trkpt lat="45.37636" lon="3.28644">
        <ele>468.78</ele>
        <time>2011-09-03T14:16:07Z</time>
      </trkpt>
      <trkpt lat="45.37619" lon="3.2866">
        <ele>470.7</ele>
        <time>2011-09-03T14:16:08Z</time>
      </trkpt>
      <trkpt lat="45.376" lon="3.28674">
        <ele>470.7</ele>
        <time>2011-09-03T14:16:09Z</time>
      </trkpt>
      <trkpt lat="45.37579" lon="3.28688">
        <ele>472.63</ele>
        <time>2011-09-03T14:16:10Z</time>
      </trkpt>
      <trkpt lat="45.37536" lon="3.2872">
        <ele>473.59</ele>
        <time>2011-09-03T14:16:12Z</time>
      </trkpt>
      <trkpt lat="45.37515" lon="3.28741">
        <ele>474.55</ele>
        <time>2011-09-03T14:16:13Z</time>
      </trkpt>
      <trkpt lat="45.37497" lon="3.28765">
        <ele>473.59</ele>
        <time>2011-09-03T14:16:14Z</time>
      </trkpt>
      <trkpt lat="45.3748" lon="3.28792">
        <ele>474.55</ele>
        <time>2011-09-03T14:16:15Z</time>
      </trkpt>
      <trkpt lat="45.37466" lon="3.28819">
        <ele>473.59</ele>
        <time>2011-09-03T14:16:16Z</time>
      </trkpt>
      <trkpt lat="45.37452" lon="3.28846">
        <ele>474.07</ele>
        <time>2011-09-03T14:16:17Z</time>
      </trkpt>
      <trkpt lat="45.37393" lon="3.28967">
        <ele>470.22</ele>
        <time>2011-09-03T14:16:22Z</time>
      </trkpt>
      <trkpt lat="45.37374" lon="3.29003">
        <ele>467.82</ele>
        <time>2011-09-03T14:16:24Z</time>
      </trkpt>
      <trkpt lat="45.37354" lon="3.29041">
        <ele>463.97</ele>
        <time>2011-09-03T14:16:27Z</time>
      </trkpt>
      <trkpt lat="45.37349" lon="3.29048">
        <ele>464.45</ele>
        <time>2011-09-03T14:16:28Z</time>
      </trkpt>
      <trkpt lat="45.37344" lon="3.29053">
        <ele>464.45</ele>
        <time>2011-09-03T14:16:29Z</time>
      </trkpt>
      <trkpt lat="45.37339" lon="3.29055">
        <ele>463.01</ele>
        <time>2011-09-03T14:16:30Z</time>
      </trkpt>
      <trkpt lat="45.37335" lon="3.29057">
        <ele>462.53</ele>
        <time>2011-09-03T14:16:31Z</time>
      </trkpt>
      <trkpt lat="45.37324" lon="3.29063">
        <ele>461.57</ele>
        <time>2011-09-03T14:16:40Z</time>
      </trkpt>
      <trkpt lat="45.37324" lon="3.29063">
        <ele>462.05</ele>
        <time>2011-09-03T14:17:06Z</time>
      </trkpt>
      <trkpt lat="45.37324" lon="3.29059">
        <ele>462.05</ele>
        <time>2011-09-03T14:17:16Z</time>
      </trkpt>
      <trkpt lat="45.37321" lon="3.29063">
        <ele>461.09</ele>
        <time>2011-09-03T14:17:39Z</time>
      </trkpt>
      <trkpt lat="45.37321" lon="3.29063">
        <ele>463.01</ele>
        <time>2011-09-03T14:17:54Z</time>
      </trkpt>
      <trkpt lat="45.37321" lon="3.29063">
        <ele>462.53</ele>
        <time>2011-09-03T14:18:06Z</time>
      </trkpt>
      <trkpt lat="45.37321" lon="3.29063">
        <ele>461.09</ele>
        <time>2011-09-03T14:18:43Z</time>
      </trkpt>
      <trkpt lat="45.37321" lon="3.29063">
        <ele>460.13</ele>
        <time>2011-09-03T14:19:04Z</time>
      </trkpt>
      <trkpt lat="45.3732" lon="3.29063">
        <ele>461.57</ele>
        <time>2011-09-03T14:21:15Z</time>
      </trkpt>
      <trkpt lat="45.3732" lon="3.29063">
        <ele>459.65</ele>
        <time>2011-09-03T14:21:17Z</time>
      </trkpt>
      <trkpt lat="45.37321" lon="3.29063">
        <ele>460.13</ele>
        <time>2011-09-03T14:24:05Z</time>
      </trkpt>
      <trkpt lat="45.37321" lon="3.29063">
        <ele>459.17</ele>
        <time>2011-09-03T14:24:38Z</time>
      </trkpt>
      <trkpt lat="45.37321" lon="3.29063">
        <ele>459.65</ele>
        <time>2011-09-03T14:25:07Z</time>
      </trkpt>
      <trkpt lat="45.37319" lon="3.29066">
        <ele>459.65</ele>
        <time>2011-09-03T14:25:32Z</time>
      </trkpt>
      <trkpt lat="45.37319" lon="3.29071">
        <ele>459.65</ele>
        <time>2011-09-03T14:25:33Z</time>
      </trkpt>
      <trkpt lat="45.37321" lon="3.29077">
        <ele>459.65</ele>
        <time>2011-09-03T14:25:34Z</time>
      </trkpt>
      <trkpt lat="45.37328" lon="3.29088">
        <ele>459.65</ele>
        <time>2011-09-03T14:25:37Z</time>
      </trkpt>
      <trkpt lat="45.3733" lon="3.2909">
        <ele>459.65</ele>
        <time>2011-09-03T14:25:39Z</time>
      </trkpt>
      <trkpt lat="45.37337" lon="3.29087">
        <ele>458.69</ele>
        <time>2011-09-03T14:25:42Z</time>
      </trkpt>
      <trkpt lat="45.37341" lon="3.29081">
        <ele>459.65</ele>
        <time>2011-09-03T14:25:43Z</time>
      </trkpt>
      <trkpt lat="45.37345" lon="3.29073">
        <ele>459.65</ele>
        <time>2011-09-03T14:25:44Z</time>
      </trkpt>
      <trkpt lat="45.37388" lon="3.28994">
        <ele>459.17</ele>
        <time>2011-09-03T14:25:50Z</time>
      </trkpt>
      <trkpt lat="45.37479" lon="3.28802">
        <ele>460.13</ele>
        <time>2011-09-03T14:26:00Z</time>
      </trkpt>
      <trkpt lat="45.37518" lon="3.28743">
        <ele>460.61</ele>
        <time>2011-09-03T14:26:03Z</time>
      </trkpt>
      <trkpt lat="45.37532" lon="3.28728">
        <ele>460.13</ele>
        <time>2011-09-03T14:26:04Z</time>
      </trkpt>
      <trkpt lat="45.37547" lon="3.28716">
        <ele>459.17</ele>
        <time>2011-09-03T14:26:05Z</time>
      </trkpt>
      <trkpt lat="45.37665" lon="3.28628">
        <ele>459.17</ele>
        <time>2011-09-03T14:26:14Z</time>
      </trkpt>
      <trkpt lat="45.37677" lon="3.28613">
        <ele>459.17</ele>
        <time>2011-09-03T14:26:15Z</time>
      </trkpt>
      <trkpt lat="45.37688" lon="3.28595">
        <ele>458.69</ele>
        <time>2011-09-03T14:26:16Z</time>
      </trkpt>
      <trkpt lat="45.37698" lon="3.28574">
        <ele>460.13</ele>
        <time>2011-09-03T14:26:17Z</time>
      </trkpt>
      <trkpt lat="45.37706" lon="3.2855">
        <ele>460.61</ele>
        <time>2011-09-03T14:26:18Z</time>
      </trkpt>
      <trkpt lat="45.37713" lon="3.28525">
        <ele>460.61</ele>
        <time>2011-09-03T14:26:19Z</time>
      </trkpt>
      <trkpt lat="45.37718" lon="3.28499">
        <ele>460.13</ele>
        <time>2011-09-03T14:26:20Z</time>
      </trkpt>
      <trkpt lat="45.37722" lon="3.28474">
        <ele>459.17</ele>
        <time>2011-09-03T14:26:21Z</time>
      </trkpt>
      <trkpt lat="45.37724" lon="3.28449">
        <ele>457.24</ele>
        <time>2011-09-03T14:26:22Z</time>
      </trkpt>
      <trkpt lat="45.37731" lon="3.28377">
        <ele>456.28</ele>
        <time>2011-09-03T14:26:25Z</time>
      </trkpt>
      <trkpt lat="45.37734" lon="3.28355">
        <ele>456.76</ele>
        <time>2011-09-03T14:26:26Z</time>
      </trkpt>
      <trkpt lat="45.37739" lon="3.28334">
        <ele>455.32</ele>
        <time>2011-09-03T14:26:27Z</time>
      </trkpt>
      <trkpt lat="45.37747" lon="3.28315">
        <ele>456.28</ele>
        <time>2011-09-03T14:26:28Z</time>
      </trkpt>
      <trkpt lat="45.37758" lon="3.28298">
        <ele>457.24</ele>
        <time>2011-09-03T14:26:29Z</time>
      </trkpt>
      <trkpt lat="45.37769" lon="3.28282">
        <ele>460.61</ele>
        <time>2011-09-03T14:26:30Z</time>
      </trkpt>
      <trkpt lat="45.37781" lon="3.28267">
        <ele>460.61</ele>
        <time>2011-09-03T14:26:31Z</time>
      </trkpt>
      <trkpt lat="45.37793" lon="3.28249">
        <ele>461.57</ele>
        <time>2011-09-03T14:26:32Z</time>
      </trkpt>
      <trkpt lat="45.37803" lon="3.2823">
        <ele>461.57</ele>
        <time>2011-09-03T14:26:33Z</time>
      </trkpt>
      <trkpt lat="45.37811" lon="3.28207">
        <ele>463.49</ele>
        <time>2011-09-03T14:26:34Z</time>
      </trkpt>
      <trkpt lat="45.37818" lon="3.28182">
        <ele>463.97</ele>
        <time>2011-09-03T14:26:35Z</time>
      </trkpt>
      <trkpt lat="45.37823" lon="3.28156">
        <ele>463.49</ele>
        <time>2011-09-03T14:26:36Z</time>
      </trkpt>
      <trkpt lat="45.37828" lon="3.28129">
        <ele>463.97</ele>
        <time>2011-09-03T14:26:37Z</time>
      </trkpt>
      <trkpt lat="45.37846" lon="3.28045">
        <ele>461.57</ele>
        <time>2011-09-03T14:26:40Z</time>
      </trkpt>
      <trkpt lat="45.37857" lon="3.28018">
        <ele>463.01</ele>
        <time>2011-09-03T14:26:41Z</time>
      </trkpt>
      <trkpt lat="45.37916" lon="3.27894">
        <ele>459.65</ele>
        <time>2011-09-03T14:26:46Z</time>
      </trkpt>
      <trkpt lat="45.38025" lon="3.27668">
        <ele>459.17</ele>
        <time>2011-09-03T14:26:57Z</time>
      </trkpt>
      <trkpt lat="45.38056" lon="3.27601">
        <ele>461.09</ele>
        <time>2011-09-03T14:27:01Z</time>
      </trkpt>
      <trkpt lat="45.38135" lon="3.27438">
        <ele>463.49</ele>
        <time>2011-09-03T14:27:09Z</time>
      </trkpt>
      <trkpt lat="45.38217" lon="3.2727">
        <ele>459.65</ele>
        <time>2011-09-03T14:27:16Z</time>
      </trkpt>
      <trkpt lat="45.38303" lon="3.27091">
        <ele>456.76</ele>
        <time>2011-09-03T14:27:24Z</time>
      </trkpt>
      <trkpt lat="45.38318" lon="3.27049">
        <ele>455.8</ele>
        <time>2011-09-03T14:27:26Z</time>
      </trkpt>
      <trkpt lat="45.38324" lon="3.27028">
        <ele>455.32</ele>
        <time>2011-09-03T14:27:27Z</time>
      </trkpt>
      <trkpt lat="45.38327" lon="3.27007">
        <ele>454.84</ele>
        <time>2011-09-03T14:27:28Z</time>
      </trkpt>
      <trkpt lat="45.38335" lon="3.26928">
        <ele>452.92</ele>
        <time>2011-09-03T14:27:32Z</time>
      </trkpt>
      <trkpt lat="45.38337" lon="3.26895">
        <ele>451.48</ele>
        <time>2011-09-03T14:27:34Z</time>
      </trkpt>
      <trkpt lat="45.38338" lon="3.2686">
        <ele>449.07</ele>
        <time>2011-09-03T14:27:38Z</time>
      </trkpt>
      <trkpt lat="45.38335" lon="3.26838">
        <ele>448.59</ele>
        <time>2011-09-03T14:27:50Z</time>
      </trkpt>
      <trkpt lat="45.38333" lon="3.2684">
        <ele>447.63</ele>
        <time>2011-09-03T14:29:15Z</time>
      </trkpt>
      <trkpt lat="45.38333" lon="3.2684">
        <ele>447.63</ele>
        <time>2011-09-03T14:29:30Z</time>
      </trkpt>
      <trkpt lat="45.38333" lon="3.26841">
        <ele>446.67</ele>
        <time>2011-09-03T14:30:03Z</time>
      </trkpt>
      <trkpt lat="45.38333" lon="3.2684">
        <ele>448.11</ele>
        <time>2011-09-03T14:30:57Z</time>
      </trkpt>
      <trkpt lat="45.38334" lon="3.2684">
        <ele>444.75</ele>
        <time>2011-09-03T14:32:57Z</time>
      </trkpt>
      <trkpt lat="45.38338" lon="3.26838">
        <ele>443.79</ele>
        <time>2011-09-03T14:43:06Z</time>
      </trkpt>
      <trkpt lat="45.3834" lon="3.26839">
        <ele>442.82</ele>
        <time>2011-09-03T14:43:07Z</time>
      </trkpt>
      <trkpt lat="45.38341" lon="3.26842">
        <ele>442.82</ele>
        <time>2011-09-03T14:43:08Z</time>
      </trkpt>
      <trkpt lat="45.3834" lon="3.2685">
        <ele>443.31</ele>
        <time>2011-09-03T14:43:09Z</time>
      </trkpt>
      <trkpt lat="45.38339" lon="3.26859">
        <ele>443.31</ele>
        <time>2011-09-03T14:43:10Z</time>
      </trkpt>
      <trkpt lat="45.38336" lon="3.26894">
        <ele>443.79</ele>
        <time>2011-09-03T14:43:13Z</time>
      </trkpt>
      <trkpt lat="45.38328" lon="3.27003">
        <ele>443.79</ele>
        <time>2011-09-03T14:43:23Z</time>
      </trkpt>
      <trkpt lat="45.38328" lon="3.27012">
        <ele>443.31</ele>
        <time>2011-09-03T14:43:24Z</time>
      </trkpt>
      <trkpt lat="45.38328" lon="3.27019">
        <ele>442.82</ele>
        <time>2011-09-03T14:43:25Z</time>
      </trkpt>
      <trkpt lat="45.38332" lon="3.27024">
        <ele>443.31</ele>
        <time>2011-09-03T14:43:26Z</time>
      </trkpt>
      <trkpt lat="45.38337" lon="3.27027">
        <ele>443.79</ele>
        <time>2011-09-03T14:43:27Z</time>
      </trkpt>
      <trkpt lat="45.38345" lon="3.27029">
        <ele>443.31</ele>
        <time>2011-09-03T14:43:28Z</time>
      </trkpt>
      <trkpt lat="45.38353" lon="3.27031">
        <ele>442.82</ele>
        <time>2011-09-03T14:43:29Z</time>
      </trkpt>
      <trkpt lat="45.38361" lon="3.27033">
        <ele>441.86</ele>
        <time>2011-09-03T14:43:30Z</time>
      </trkpt>
      <trkpt lat="45.38368" lon="3.27035">
        <ele>441.86</ele>
        <time>2011-09-03T14:43:31Z</time>
      </trkpt>
      <trkpt lat="45.38393" lon="3.27043">
        <ele>440.42</ele>
        <time>2011-09-03T14:43:35Z</time>
      </trkpt>
      <trkpt lat="45.38413" lon="3.2705">
        <ele>439.46</ele>
        <time>2011-09-03T14:43:42Z</time>
      </trkpt>
      <trkpt lat="45.38419" lon="3.27051">
        <ele>440.42</ele>
        <time>2011-09-03T14:43:43Z</time>
      </trkpt>
      <trkpt lat="45.38486" lon="3.27065">
        <ele>439.94</ele>
        <time>2011-09-03T14:43:51Z</time>
      </trkpt>
      <trkpt lat="45.38492" lon="3.27065">
        <ele>439.46</ele>
        <time>2011-09-03T14:43:52Z</time>
      </trkpt>
      <trkpt lat="45.38501" lon="3.27066">
        <ele>438.5</ele>
        <time>2011-09-03T14:43:54Z</time>
      </trkpt>
      <trkpt lat="45.38503" lon="3.27067">
        <ele>438.98</ele>
        <time>2011-09-03T14:43:55Z</time>
      </trkpt>
      <trkpt lat="45.38504" lon="3.27071">
        <ele>438.5</ele>
        <time>2011-09-03T14:43:56Z</time>
      </trkpt>
      <trkpt lat="45.38505" lon="3.27078">
        <ele>438.5</ele>
        <time>2011-09-03T14:43:57Z</time>
      </trkpt>
      <trkpt lat="45.38508" lon="3.27176">
        <ele>440.9</ele>
        <time>2011-09-03T14:44:04Z</time>
      </trkpt>
      <trkpt lat="45.38525" lon="3.27415">
        <ele>441.86</ele>
        <time>2011-09-03T14:44:17Z</time>
      </trkpt>
      <trkpt lat="45.38557" lon="3.27524">
        <ele>445.71</ele>
        <time>2011-09-03T14:44:22Z</time>
      </trkpt>
      <trkpt lat="45.3859" lon="3.27595">
        <ele>447.15</ele>
        <time>2011-09-03T14:44:25Z</time>
      </trkpt>
      <trkpt lat="45.38606" lon="3.27644">
        <ele>448.59</ele>
        <time>2011-09-03T14:44:27Z</time>
      </trkpt>
      <trkpt lat="45.38616" lon="3.2769">
        <ele>447.63</ele>
        <time>2011-09-03T14:44:29Z</time>
      </trkpt>
      <trkpt lat="45.38633" lon="3.27784">
        <ele>443.31</ele>
        <time>2011-09-03T14:44:34Z</time>
      </trkpt>
      <trkpt lat="45.38638" lon="3.27834">
        <ele>440.42</ele>
        <time>2011-09-03T14:44:38Z</time>
      </trkpt>
      <trkpt lat="45.38643" lon="3.27853">
        <ele>438.5</ele>
        <time>2011-09-03T14:44:40Z</time>
      </trkpt>
      <trkpt lat="45.38651" lon="3.2786">
        <ele>437.06</ele>
        <time>2011-09-03T14:44:42Z</time>
      </trkpt>
      <trkpt lat="45.38656" lon="3.27863">
        <ele>437.06</ele>
        <time>2011-09-03T14:44:44Z</time>
      </trkpt>
      <trkpt lat="45.38661" lon="3.27863">
        <ele>437.06</ele>
        <time>2011-09-03T14:44:58Z</time>
      </trkpt>
      <trkpt lat="45.38664" lon="3.27862">
        <ele>437.54</ele>
        <time>2011-09-03T14:45:34Z</time>
      </trkpt>
      <trkpt lat="45.38729" lon="3.27891">
        <ele>440.42</ele>
        <time>2011-09-03T14:45:41Z</time>
      </trkpt>
      <trkpt lat="45.38742" lon="3.27899">
        <ele>440.42</ele>
        <time>2011-09-03T14:45:42Z</time>
      </trkpt>
      <trkpt lat="45.38843" lon="3.2796">
        <ele>436.58</ele>
        <time>2011-09-03T14:45:49Z</time>
      </trkpt>
      <trkpt lat="45.38947" lon="3.28019">
        <ele>435.13</ele>
        <time>2011-09-03T14:45:57Z</time>
      </trkpt>
      <trkpt lat="45.38961" lon="3.28013">
        <ele>434.17</ele>
        <time>2011-09-03T14:46:03Z</time>
      </trkpt>
      <trkpt lat="45.38933" lon="3.28006">
        <ele>436.1</ele>
        <time>2011-09-03T14:46:08Z</time>
      </trkpt>
      <trkpt lat="45.38883" lon="3.27976">
        <ele>439.46</ele>
        <time>2011-09-03T14:46:12Z</time>
      </trkpt>
      <trkpt lat="45.38853" lon="3.27958">
        <ele>440.9</ele>
        <time>2011-09-03T14:46:14Z</time>
      </trkpt>
      <trkpt lat="45.38724" lon="3.27881">
        <ele>440.9</ele>
        <time>2011-09-03T14:46:23Z</time>
      </trkpt>
      <trkpt lat="45.38699" lon="3.27867">
        <ele>439.46</ele>
        <time>2011-09-03T14:46:25Z</time>
      </trkpt>
      <trkpt lat="45.38654" lon="3.27815">
        <ele>440.9</ele>
        <time>2011-09-03T14:46:30Z</time>
      </trkpt>
      <trkpt lat="45.38639" lon="3.27791">
        <ele>441.38</ele>
        <time>2011-09-03T14:46:32Z</time>
      </trkpt>
      <trkpt lat="45.38634" lon="3.27774">
        <ele>443.31</ele>
        <time>2011-09-03T14:46:33Z</time>
      </trkpt>
      <trkpt lat="45.38622" lon="3.2771">
        <ele>448.11</ele>
        <time>2011-09-03T14:46:36Z</time>
      </trkpt>
      <trkpt lat="45.38609" lon="3.27643">
        <ele>448.59</ele>
        <time>2011-09-03T14:46:39Z</time>
      </trkpt>
      <trkpt lat="45.38589" lon="3.27585">
        <ele>444.75</ele>
        <time>2011-09-03T14:46:42Z</time>
      </trkpt>
      <trkpt lat="45.38574" lon="3.27556">
        <ele>442.82</ele>
        <time>2011-09-03T14:46:44Z</time>
      </trkpt>
      <trkpt lat="45.38555" lon="3.27518">
        <ele>439.94</ele>
        <time>2011-09-03T14:46:47Z</time>
      </trkpt>
      <trkpt lat="45.38533" lon="3.27452">
        <ele>441.38</ele>
        <time>2011-09-03T14:46:51Z</time>
      </trkpt>
      <trkpt lat="45.38523" lon="3.27414">
        <ele>442.34</ele>
        <time>2011-09-03T14:46:53Z</time>
      </trkpt>
      <trkpt lat="45.38517" lon="3.27361">
        <ele>440.9</ele>
        <time>2011-09-03T14:46:56Z</time>
      </trkpt>
      <trkpt lat="45.38509" lon="3.27205">
        <ele>440.9</ele>
        <time>2011-09-03T14:47:04Z</time>
      </trkpt>
      <trkpt lat="45.38507" lon="3.27166">
        <ele>442.34</ele>
        <time>2011-09-03T14:47:06Z</time>
      </trkpt>
      <trkpt lat="45.38514" lon="3.27005">
        <ele>441.86</ele>
        <time>2011-09-03T14:47:15Z</time>
      </trkpt>
      <trkpt lat="45.38521" lon="3.26966">
        <ele>438.98</ele>
        <time>2011-09-03T14:47:18Z</time>
      </trkpt>
      <trkpt lat="45.38524" lon="3.26957">
        <ele>439.94</ele>
        <time>2011-09-03T14:47:19Z</time>
      </trkpt>
      <trkpt lat="45.38528" lon="3.2695">
        <ele>440.42</ele>
        <time>2011-09-03T14:47:20Z</time>
      </trkpt>
      <trkpt lat="45.38534" lon="3.26943">
        <ele>439.94</ele>
        <time>2011-09-03T14:47:21Z</time>
      </trkpt>
      <trkpt lat="45.3854" lon="3.26936">
        <ele>439.94</ele>
        <time>2011-09-03T14:47:22Z</time>
      </trkpt>
      <trkpt lat="45.38563" lon="3.26913">
        <ele>440.42</ele>
        <time>2011-09-03T14:47:25Z</time>
      </trkpt>
      <trkpt lat="45.38592" lon="3.26895">
        <ele>438.98</ele>
        <time>2011-09-03T14:47:28Z</time>
      </trkpt>
      <trkpt lat="45.3872" lon="3.26876">
        <ele>442.82</ele>
        <time>2011-09-03T14:47:37Z</time>
      </trkpt>
      <trkpt lat="45.38737" lon="3.26877">
        <ele>442.82</ele>
        <time>2011-09-03T14:47:38Z</time>
      </trkpt>
      <trkpt lat="45.38822" lon="3.26882">
        <ele>446.19</ele>
        <time>2011-09-03T14:47:43Z</time>
      </trkpt>
      <trkpt lat="45.38897" lon="3.26888">
        <ele>447.15</ele>
        <time>2011-09-03T14:47:47Z</time>
      </trkpt>
      <trkpt lat="45.38914" lon="3.26883">
        <ele>447.63</ele>
        <time>2011-09-03T14:47:48Z</time>
      </trkpt>
      <trkpt lat="45.38929" lon="3.26873">
        <ele>447.63</ele>
        <time>2011-09-03T14:47:49Z</time>
      </trkpt>
      <trkpt lat="45.38941" lon="3.26857">
        <ele>448.11</ele>
        <time>2011-09-03T14:47:50Z</time>
      </trkpt>
      <trkpt lat="45.38951" lon="3.26836">
        <ele>448.11</ele>
        <time>2011-09-03T14:47:51Z</time>
      </trkpt>
      <trkpt lat="45.38956" lon="3.26814">
        <ele>448.11</ele>
        <time>2011-09-03T14:47:52Z</time>
      </trkpt>
      <trkpt lat="45.3896" lon="3.26791">
        <ele>448.59</ele>
        <time>2011-09-03T14:47:53Z</time>
      </trkpt>
      <trkpt lat="45.3897" lon="3.26748">
        <ele>448.11</ele>
        <time>2011-09-03T14:47:55Z</time>
      </trkpt>
      <trkpt lat="45.38979" lon="3.2673">
        <ele>447.63</ele>
        <time>2011-09-03T14:47:56Z</time>
      </trkpt>
      <trkpt lat="45.38991" lon="3.26716">
        <ele>448.11</ele>
        <time>2011-09-03T14:47:57Z</time>
      </trkpt>
      <trkpt lat="45.39004" lon="3.26707">
        <ele>446.19</ele>
        <time>2011-09-03T14:47:58Z</time>
      </trkpt>
      <trkpt lat="45.39017" lon="3.26704">
        <ele>445.23</ele>
        <time>2011-09-03T14:47:59Z</time>
      </trkpt>
      <trkpt lat="45.39032" lon="3.26708">
        <ele>445.23</ele>
        <time>2011-09-03T14:48:00Z</time>
      </trkpt>
      <trkpt lat="45.39047" lon="3.26717">
        <ele>444.75</ele>
        <time>2011-09-03T14:48:01Z</time>
      </trkpt>
      <trkpt lat="45.39061" lon="3.26728">
        <ele>445.23</ele>
        <time>2011-09-03T14:48:02Z</time>
      </trkpt>
      <trkpt lat="45.39075" lon="3.26739">
        <ele>444.75</ele>
        <time>2011-09-03T14:48:03Z</time>
      </trkpt>
      <trkpt lat="45.39137" lon="3.26794">
        <ele>442.82</ele>
        <time>2011-09-03T14:48:08Z</time>
      </trkpt>
      <trkpt lat="45.39232" lon="3.26888">
        <ele>439.46</ele>
        <time>2011-09-03T14:48:17Z</time>
      </trkpt>
      <trkpt lat="45.3924" lon="3.26898">
        <ele>439.46</ele>
        <time>2011-09-03T14:48:18Z</time>
      </trkpt>
      <trkpt lat="45.39256" lon="3.26916">
        <ele>438.5</ele>
        <time>2011-09-03T14:48:20Z</time>
      </trkpt>
      <trkpt lat="45.39294" lon="3.26912">
        <ele>439.94</ele>
        <time>2011-09-03T14:48:25Z</time>
      </trkpt>
      <trkpt lat="45.39349" lon="3.26874">
        <ele>441.86</ele>
        <time>2011-09-03T14:48:30Z</time>
      </trkpt>
      <trkpt lat="45.39364" lon="3.26871">
        <ele>441.86</ele>
        <time>2011-09-03T14:48:31Z</time>
      </trkpt>
      <trkpt lat="45.39402" lon="3.26867">
        <ele>439.94</ele>
        <time>2011-09-03T14:48:34Z</time>
      </trkpt>
      <trkpt lat="45.39424" lon="3.26864">
        <ele>438.02</ele>
        <time>2011-09-03T14:48:36Z</time>
      </trkpt>
      <trkpt lat="45.39466" lon="3.26856">
        <ele>440.9</ele>
        <time>2011-09-03T14:48:39Z</time>
      </trkpt>
      <trkpt lat="45.39524" lon="3.26852">
        <ele>444.75</ele>
        <time>2011-09-03T14:48:42Z</time>
      </trkpt>
      <trkpt lat="45.39569" lon="3.26846">
        <ele>448.11</ele>
        <time>2011-09-03T14:48:44Z</time>
      </trkpt>
      <trkpt lat="45.39593" lon="3.26843">
        <ele>448.11</ele>
        <time>2011-09-03T14:48:45Z</time>
      </trkpt>
      <trkpt lat="45.39866" lon="3.26808">
        <ele>446.19</ele>
        <time>2011-09-03T14:48:56Z</time>
      </trkpt>
      <trkpt lat="45.40022" lon="3.26788">
        <ele>448.11</ele>
        <time>2011-09-03T14:49:02Z</time>
      </trkpt>
      <trkpt lat="45.40219" lon="3.26763">
        <ele>444.75</ele>
        <time>2011-09-03T14:49:10Z</time>
      </trkpt>
      <trkpt lat="45.40262" lon="3.26758">
        <ele>444.27</ele>
        <time>2011-09-03T14:49:12Z</time>
      </trkpt>
      <trkpt lat="45.40416" lon="3.26737">
        <ele>444.27</ele>
        <time>2011-09-03T14:49:20Z</time>
      </trkpt>
      <trkpt lat="45.40537" lon="3.26721">
        <ele>448.59</ele>
        <time>2011-09-03T14:49:26Z</time>
      </trkpt>
      <trkpt lat="45.40557" lon="3.26718">
        <ele>448.11</ele>
        <time>2011-09-03T14:49:27Z</time>
      </trkpt>
      <trkpt lat="45.40598" lon="3.26713">
        <ele>450.52</ele>
        <time>2011-09-03T14:49:29Z</time>
      </trkpt>
      <trkpt lat="45.40666" lon="3.26754">
        <ele>452.44</ele>
        <time>2011-09-03T14:49:33Z</time>
      </trkpt>
      <trkpt lat="45.40677" lon="3.26777">
        <ele>453.4</ele>
        <time>2011-09-03T14:49:34Z</time>
      </trkpt>
      <trkpt lat="45.40711" lon="3.26873">
        <ele>457.72</ele>
        <time>2011-09-03T14:49:38Z</time>
      </trkpt>
      <trkpt lat="45.4075" lon="3.26905">
        <ele>458.21</ele>
        <time>2011-09-03T14:49:42Z</time>
      </trkpt>
      <trkpt lat="45.40767" lon="3.26878">
        <ele>461.57</ele>
        <time>2011-09-03T14:49:44Z</time>
      </trkpt>
      <trkpt lat="45.40785" lon="3.26839">
        <ele>466.38</ele>
        <time>2011-09-03T14:49:46Z</time>
      </trkpt>
      <trkpt lat="45.40807" lon="3.26793">
        <ele>470.7</ele>
        <time>2011-09-03T14:49:48Z</time>
      </trkpt>
      <trkpt lat="45.40819" lon="3.26767">
        <ele>475.03</ele>
        <time>2011-09-03T14:49:49Z</time>
      </trkpt>
      <trkpt lat="45.40846" lon="3.26709">
        <ele>479.84</ele>
        <time>2011-09-03T14:49:51Z</time>
      </trkpt>
      <trkpt lat="45.40861" lon="3.26678">
        <ele>483.68</ele>
        <time>2011-09-03T14:49:52Z</time>
      </trkpt>
      <trkpt lat="45.40876" lon="3.26645">
        <ele>487.53</ele>
        <time>2011-09-03T14:49:53Z</time>
      </trkpt>
      <trkpt lat="45.40906" lon="3.26581">
        <ele>488.49</ele>
        <time>2011-09-03T14:49:55Z</time>
      </trkpt>
      <trkpt lat="45.40973" lon="3.26443">
        <ele>488.49</ele>
        <time>2011-09-03T14:50:00Z</time>
      </trkpt>
      <trkpt lat="45.41047" lon="3.2637">
        <ele>493.29</ele>
        <time>2011-09-03T14:50:04Z</time>
      </trkpt>
      <trkpt lat="45.41093" lon="3.26338">
        <ele>495.22</ele>
        <time>2011-09-03T14:50:06Z</time>
      </trkpt>
      <trkpt lat="45.41163" lon="3.26288">
        <ele>498.58</ele>
        <time>2011-09-03T14:50:09Z</time>
      </trkpt>
      <trkpt lat="45.41186" lon="3.26271">
        <ele>498.58</ele>
        <time>2011-09-03T14:50:10Z</time>
      </trkpt>
      <trkpt lat="45.41282" lon="3.26202">
        <ele>501.95</ele>
        <time>2011-09-03T14:50:14Z</time>
      </trkpt>
      <trkpt lat="45.41421" lon="3.26102">
        <ele>498.58</ele>
        <time>2011-09-03T14:50:20Z</time>
      </trkpt>
      <trkpt lat="45.41442" lon="3.26087">
        <ele>498.58</ele>
        <time>2011-09-03T14:50:21Z</time>
      </trkpt>
      <trkpt lat="45.41462" lon="3.26072">
        <ele>494.26</ele>
        <time>2011-09-03T14:50:22Z</time>
      </trkpt>
      <trkpt lat="45.41501" lon="3.26043">
        <ele>490.41</ele>
        <time>2011-09-03T14:50:24Z</time>
      </trkpt>
      <trkpt lat="45.4152" lon="3.26031">
        <ele>488.49</ele>
        <time>2011-09-03T14:50:25Z</time>
      </trkpt>
      <trkpt lat="45.41561" lon="3.26018">
        <ele>487.05</ele>
        <time>2011-09-03T14:50:27Z</time>
      </trkpt>
      <trkpt lat="45.41642" lon="3.26061">
        <ele>488.97</ele>
        <time>2011-09-03T14:50:31Z</time>
      </trkpt>
      <trkpt lat="45.41714" lon="3.26075">
        <ele>492.81</ele>
        <time>2011-09-03T14:50:35Z</time>
      </trkpt>
      <trkpt lat="45.41732" lon="3.26064">
        <ele>496.18</ele>
        <time>2011-09-03T14:50:36Z</time>
      </trkpt>
      <trkpt lat="45.41751" lon="3.26049">
        <ele>499.06</ele>
        <time>2011-09-03T14:50:37Z</time>
      </trkpt>
      <trkpt lat="45.41854" lon="3.25954">
        <ele>505.79</ele>
        <time>2011-09-03T14:50:42Z</time>
      </trkpt>
      <trkpt lat="45.41875" lon="3.25934">
        <ele>505.79</ele>
        <time>2011-09-03T14:50:43Z</time>
      </trkpt>
      <trkpt lat="45.41984" lon="3.25835">
        <ele>500.5</ele>
        <time>2011-09-03T14:50:48Z</time>
      </trkpt>
      <trkpt lat="45.42027" lon="3.25795">
        <ele>496.18</ele>
        <time>2011-09-03T14:50:50Z</time>
      </trkpt>
      <trkpt lat="45.42071" lon="3.25754">
        <ele>493.29</ele>
        <time>2011-09-03T14:50:52Z</time>
      </trkpt>
      <trkpt lat="45.42201" lon="3.25633">
        <ele>496.66</ele>
        <time>2011-09-03T14:50:58Z</time>
      </trkpt>
      <trkpt lat="45.42223" lon="3.25612">
        <ele>495.7</ele>
        <time>2011-09-03T14:50:59Z</time>
      </trkpt>
      <trkpt lat="45.42308" lon="3.25533">
        <ele>499.06</ele>
        <time>2011-09-03T14:51:03Z</time>
      </trkpt>
      <trkpt lat="45.4235" lon="3.25494">
        <ele>502.43</ele>
        <time>2011-09-03T14:51:05Z</time>
      </trkpt>
      <trkpt lat="45.42435" lon="3.25416">
        <ele>506.27</ele>
        <time>2011-09-03T14:51:09Z</time>
      </trkpt>
      <trkpt lat="45.42477" lon="3.25376">
        <ele>507.23</ele>
        <time>2011-09-03T14:51:11Z</time>
      </trkpt>
      <trkpt lat="45.42638" lon="3.25228">
        <ele>507.71</ele>
        <time>2011-09-03T14:51:19Z</time>
      </trkpt>
      <trkpt lat="45.42703" lon="3.25201">
        <ele>513</ele>
        <time>2011-09-03T14:51:22Z</time>
      </trkpt>
      <trkpt lat="45.42727" lon="3.25199">
        <ele>514.44</ele>
        <time>2011-09-03T14:51:23Z</time>
      </trkpt>
      <trkpt lat="45.42803" lon="3.252">
        <ele>519.25</ele>
        <time>2011-09-03T14:51:26Z</time>
      </trkpt>
      <trkpt lat="45.42904" lon="3.25202">
        <ele>517.81</ele>
        <time>2011-09-03T14:51:30Z</time>
      </trkpt>
      <trkpt lat="45.42952" lon="3.25193">
        <ele>519.25</ele>
        <time>2011-09-03T14:51:32Z</time>
      </trkpt>
      <trkpt lat="45.42976" lon="3.25184">
        <ele>520.69</ele>
        <time>2011-09-03T14:51:33Z</time>
      </trkpt>
      <trkpt lat="45.43025" lon="3.25161">
        <ele>524.06</ele>
        <time>2011-09-03T14:51:35Z</time>
      </trkpt>
      <trkpt lat="45.431" lon="3.25125">
        <ele>528.38</ele>
        <time>2011-09-03T14:51:38Z</time>
      </trkpt>
      <trkpt lat="45.43201" lon="3.25077">
        <ele>531.75</ele>
        <time>2011-09-03T14:51:42Z</time>
      </trkpt>
      <trkpt lat="45.43331" lon="3.25016">
        <ele>529.82</ele>
        <time>2011-09-03T14:51:47Z</time>
      </trkpt>
      <trkpt lat="45.43496" lon="3.24936">
        <ele>525.5</ele>
        <time>2011-09-03T14:51:53Z</time>
      </trkpt>
      <trkpt lat="45.43608" lon="3.24883">
        <ele>522.13</ele>
        <time>2011-09-03T14:51:57Z</time>
      </trkpt>
      <trkpt lat="45.43693" lon="3.24842">
        <ele>517.81</ele>
        <time>2011-09-03T14:52:00Z</time>
      </trkpt>
      <trkpt lat="45.43778" lon="3.24801">
        <ele>512.52</ele>
        <time>2011-09-03T14:52:03Z</time>
      </trkpt>
      <trkpt lat="45.43835" lon="3.24774">
        <ele>511.08</ele>
        <time>2011-09-03T14:52:05Z</time>
      </trkpt>
      <trkpt lat="45.43922" lon="3.24733">
        <ele>505.79</ele>
        <time>2011-09-03T14:52:08Z</time>
      </trkpt>
      <trkpt lat="45.43979" lon="3.24705">
        <ele>504.83</ele>
        <time>2011-09-03T14:52:10Z</time>
      </trkpt>
      <trkpt lat="45.44036" lon="3.24677">
        <ele>501.95</ele>
        <time>2011-09-03T14:52:12Z</time>
      </trkpt>
      <trkpt lat="45.44092" lon="3.24651">
        <ele>497.62</ele>
        <time>2011-09-03T14:52:14Z</time>
      </trkpt>
      <trkpt lat="45.44146" lon="3.24625">
        <ele>494.26</ele>
        <time>2011-09-03T14:52:16Z</time>
      </trkpt>
      <trkpt lat="45.442" lon="3.24599">
        <ele>490.41</ele>
        <time>2011-09-03T14:52:18Z</time>
      </trkpt>
      <trkpt lat="45.44255" lon="3.24572">
        <ele>488.01</ele>
        <time>2011-09-03T14:52:20Z</time>
      </trkpt>
      <trkpt lat="45.44338" lon="3.24533">
        <ele>482.72</ele>
        <time>2011-09-03T14:52:23Z</time>
      </trkpt>
      <trkpt lat="45.44502" lon="3.24454">
        <ele>478.87</ele>
        <time>2011-09-03T14:52:29Z</time>
      </trkpt>
      <trkpt lat="45.44529" lon="3.24441">
        <ele>479.35</ele>
        <time>2011-09-03T14:52:30Z</time>
      </trkpt>
      <trkpt lat="45.44612" lon="3.24401">
        <ele>477.91</ele>
        <time>2011-09-03T14:52:33Z</time>
      </trkpt>
      <trkpt lat="45.44667" lon="3.24375">
        <ele>474.55</ele>
        <time>2011-09-03T14:52:35Z</time>
      </trkpt>
      <trkpt lat="45.44778" lon="3.24322">
        <ele>469.74</ele>
        <time>2011-09-03T14:52:39Z</time>
      </trkpt>
      <trkpt lat="45.44862" lon="3.24281">
        <ele>465.42</ele>
        <time>2011-09-03T14:52:42Z</time>
      </trkpt>
      <trkpt lat="45.44976" lon="3.24226">
        <ele>460.61</ele>
        <time>2011-09-03T14:52:46Z</time>
      </trkpt>
      <trkpt lat="45.45004" lon="3.24212">
        <ele>460.13</ele>
        <time>2011-09-03T14:52:47Z</time>
      </trkpt>
      <trkpt lat="45.45113" lon="3.24159">
        <ele>456.28</ele>
        <time>2011-09-03T14:52:51Z</time>
      </trkpt>
      <trkpt lat="45.45187" lon="3.24123">
        <ele>452.92</ele>
        <time>2011-09-03T14:52:54Z</time>
      </trkpt>
      <trkpt lat="45.45256" lon="3.2409">
        <ele>444.75</ele>
        <time>2011-09-03T14:52:57Z</time>
      </trkpt>
      <trkpt lat="45.45274" lon="3.24081">
        <ele>441.38</ele>
        <time>2011-09-03T14:52:58Z</time>
      </trkpt>
      <trkpt lat="45.45307" lon="3.24066">
        <ele>438.02</ele>
        <time>2011-09-03T14:53:00Z</time>
      </trkpt>
      <trkpt lat="45.45337" lon="3.24051">
        <ele>436.1</ele>
        <time>2011-09-03T14:53:02Z</time>
      </trkpt>
      <trkpt lat="45.45479" lon="3.23981">
        <ele>432.25</ele>
        <time>2011-09-03T14:53:12Z</time>
      </trkpt>
      <trkpt lat="45.45592" lon="3.23926">
        <ele>429.37</ele>
        <time>2011-09-03T14:53:22Z</time>
      </trkpt>
      <trkpt lat="45.45616" lon="3.23915">
        <ele>426.48</ele>
        <time>2011-09-03T14:53:24Z</time>
      </trkpt>
      <trkpt lat="45.45628" lon="3.23908">
        <ele>426.48</ele>
        <time>2011-09-03T14:53:25Z</time>
      </trkpt>
      <trkpt lat="45.45664" lon="3.23884">
        <ele>424.56</ele>
        <time>2011-09-03T14:53:28Z</time>
      </trkpt>
      <trkpt lat="45.45698" lon="3.23859">
        <ele>420.23</ele>
        <time>2011-09-03T14:53:31Z</time>
      </trkpt>
      <trkpt lat="45.45709" lon="3.23851">
        <ele>419.75</ele>
        <time>2011-09-03T14:53:32Z</time>
      </trkpt>
      <trkpt lat="45.45731" lon="3.23837">
        <ele>418.31</ele>
        <time>2011-09-03T14:53:34Z</time>
      </trkpt>
      <trkpt lat="45.45768" lon="3.23812">
        <ele>415.91</ele>
        <time>2011-09-03T14:53:38Z</time>
      </trkpt>
      <trkpt lat="45.45808" lon="3.23798">
        <ele>415.43</ele>
        <time>2011-09-03T14:53:42Z</time>
      </trkpt>
      <trkpt lat="45.45854" lon="3.23801">
        <ele>414.95</ele>
        <time>2011-09-03T14:53:46Z</time>
      </trkpt>
      <trkpt lat="45.4589" lon="3.23814">
        <ele>414.95</ele>
        <time>2011-09-03T14:53:49Z</time>
      </trkpt>
      <trkpt lat="45.4593" lon="3.23865">
        <ele>413.98</ele>
        <time>2011-09-03T14:53:54Z</time>
      </trkpt>
      <trkpt lat="45.45939" lon="3.23897">
        <ele>412.54</ele>
        <time>2011-09-03T14:53:57Z</time>
      </trkpt>
      <trkpt lat="45.45961" lon="3.2391">
        <ele>413.02</ele>
        <time>2011-09-03T14:54:01Z</time>
      </trkpt>
      <trkpt lat="45.45971" lon="3.23909">
        <ele>412.54</ele>
        <time>2011-09-03T14:54:02Z</time>
      </trkpt>
      <trkpt lat="45.46074" lon="3.23885">
        <ele>417.83</ele>
        <time>2011-09-03T14:54:09Z</time>
      </trkpt>
      <trkpt lat="45.46093" lon="3.23879">
        <ele>417.83</ele>
        <time>2011-09-03T14:54:10Z</time>
      </trkpt>
      <trkpt lat="45.46159" lon="3.23861">
        <ele>415.91</ele>
        <time>2011-09-03T14:54:13Z</time>
      </trkpt>
      <trkpt lat="45.46286" lon="3.23784">
        <ele>416.87</ele>
        <time>2011-09-03T14:54:20Z</time>
      </trkpt>
      <trkpt lat="45.4644" lon="3.23673">
        <ele>413.02</ele>
        <time>2011-09-03T14:54:30Z</time>
      </trkpt>
      <trkpt lat="45.46454" lon="3.23645">
        <ele>411.1</ele>
        <time>2011-09-03T14:54:33Z</time>
      </trkpt>
      <trkpt lat="45.46449" lon="3.23622">
        <ele>413.02</ele>
        <time>2011-09-03T14:54:35Z</time>
      </trkpt>
      <trkpt lat="45.46417" lon="3.23544">
        <ele>415.91</ele>
        <time>2011-09-03T14:54:40Z</time>
      </trkpt>
      <trkpt lat="45.46401" lon="3.235">
        <ele>417.83</ele>
        <time>2011-09-03T14:54:42Z</time>
      </trkpt>
      <trkpt lat="45.46368" lon="3.23403">
        <ele>420.23</ele>
        <time>2011-09-03T14:54:46Z</time>
      </trkpt>
      <trkpt lat="45.46348" lon="3.23322">
        <ele>421.68</ele>
        <time>2011-09-03T14:54:49Z</time>
      </trkpt>
      <trkpt lat="45.46319" lon="3.23107">
        <ele>425.52</ele>
        <time>2011-09-03T14:54:56Z</time>
      </trkpt>
      <trkpt lat="45.46261" lon="3.22818">
        <ele>426.48</ele>
        <time>2011-09-03T14:55:05Z</time>
      </trkpt>
      <trkpt lat="45.46238" lon="3.2268">
        <ele>423.6</ele>
        <time>2011-09-03T14:55:11Z</time>
      </trkpt>
      <trkpt lat="45.46223" lon="3.22631">
        <ele>422.64</ele>
        <time>2011-09-03T14:55:16Z</time>
      </trkpt>
      <trkpt lat="45.4622" lon="3.22626">
        <ele>421.68</ele>
        <time>2011-09-03T14:55:28Z</time>
      </trkpt>
      <trkpt lat="45.4622" lon="3.22626">
        <ele>421.68</ele>
        <time>2011-09-03T14:55:35Z</time>
      </trkpt>
      <trkpt lat="45.46192" lon="3.22588">
        <ele>424.56</ele>
        <time>2011-09-03T14:55:40Z</time>
      </trkpt>
      <trkpt lat="45.46161" lon="3.22546">
        <ele>426.96</ele>
        <time>2011-09-03T14:55:43Z</time>
      </trkpt>
      <trkpt lat="45.4612" lon="3.22463">
        <ele>430.33</ele>
        <time>2011-09-03T14:55:47Z</time>
      </trkpt>
      <trkpt lat="45.46109" lon="3.22439">
        <ele>431.29</ele>
        <time>2011-09-03T14:55:48Z</time>
      </trkpt>
      <trkpt lat="45.46052" lon="3.22354">
        <ele>432.25</ele>
        <time>2011-09-03T14:55:52Z</time>
      </trkpt>
      <trkpt lat="45.45985" lon="3.22281">
        <ele>429.85</ele>
        <time>2011-09-03T14:55:56Z</time>
      </trkpt>
      <trkpt lat="45.45941" lon="3.22212">
        <ele>433.21</ele>
        <time>2011-09-03T14:55:59Z</time>
      </trkpt>
      <trkpt lat="45.45908" lon="3.22168">
        <ele>432.73</ele>
        <time>2011-09-03T14:56:01Z</time>
      </trkpt>
      <trkpt lat="45.45829" lon="3.22094">
        <ele>434.65</ele>
        <time>2011-09-03T14:56:05Z</time>
      </trkpt>
      <trkpt lat="45.45745" lon="3.21976">
        <ele>433.69</ele>
        <time>2011-09-03T14:56:10Z</time>
      </trkpt>
      <trkpt lat="45.45635" lon="3.21718">
        <ele>437.54</ele>
        <time>2011-09-03T14:56:19Z</time>
      </trkpt>
      <trkpt lat="45.45623" lon="3.21689">
        <ele>437.06</ele>
        <time>2011-09-03T14:56:20Z</time>
      </trkpt>
      <trkpt lat="45.45543" lon="3.21516">
        <ele>441.38</ele>
        <time>2011-09-03T14:56:26Z</time>
      </trkpt>
      <trkpt lat="45.45528" lon="3.2149">
        <ele>440.9</ele>
        <time>2011-09-03T14:56:27Z</time>
      </trkpt>
      <trkpt lat="45.45434" lon="3.21339">
        <ele>441.86</ele>
        <time>2011-09-03T14:56:33Z</time>
      </trkpt>
      <trkpt lat="45.45378" lon="3.21122">
        <ele>442.82</ele>
        <time>2011-09-03T14:56:40Z</time>
      </trkpt>
      <trkpt lat="45.45348" lon="3.20997">
        <ele>445.23</ele>
        <time>2011-09-03T14:56:44Z</time>
      </trkpt>
      <trkpt lat="45.45306" lon="3.20838">
        <ele>449.07</ele>
        <time>2011-09-03T14:56:49Z</time>
      </trkpt>
      <trkpt lat="45.45265" lon="3.20676">
        <ele>452.44</ele>
        <time>2011-09-03T14:56:54Z</time>
      </trkpt>
      <trkpt lat="45.45231" lon="3.20403">
        <ele>454.84</ele>
        <time>2011-09-03T14:57:02Z</time>
      </trkpt>
      <trkpt lat="45.45243" lon="3.20092">
        <ele>457.24</ele>
        <time>2011-09-03T14:57:11Z</time>
      </trkpt>
      <trkpt lat="45.45282" lon="3.19885">
        <ele>460.61</ele>
        <time>2011-09-03T14:57:17Z</time>
      </trkpt>
      <trkpt lat="45.453" lon="3.19776">
        <ele>462.53</ele>
        <time>2011-09-03T14:57:20Z</time>
      </trkpt>
      <trkpt lat="45.45311" lon="3.19703">
        <ele>463.49</ele>
        <time>2011-09-03T14:57:22Z</time>
      </trkpt>
      <trkpt lat="45.45353" lon="3.19568">
        <ele>464.93</ele>
        <time>2011-09-03T14:57:26Z</time>
      </trkpt>
      <trkpt lat="45.45411" lon="3.19359">
        <ele>464.93</ele>
        <time>2011-09-03T14:57:32Z</time>
      </trkpt>
      <trkpt lat="45.4545" lon="3.19271">
        <ele>463.49</ele>
        <time>2011-09-03T14:57:35Z</time>
      </trkpt>
      <trkpt lat="45.45488" lon="3.19181">
        <ele>463.49</ele>
        <time>2011-09-03T14:57:38Z</time>
      </trkpt>
      <trkpt lat="45.4556" lon="3.1907">
        <ele>459.65</ele>
        <time>2011-09-03T14:57:43Z</time>
      </trkpt>
      <trkpt lat="45.45606" lon="3.19013">
        <ele>463.49</ele>
        <time>2011-09-03T14:57:46Z</time>
      </trkpt>
      <trkpt lat="45.45656" lon="3.18956">
        <ele>468.78</ele>
        <time>2011-09-03T14:57:49Z</time>
      </trkpt>
      <trkpt lat="45.45672" lon="3.18936">
        <ele>467.34</ele>
        <time>2011-09-03T14:57:50Z</time>
      </trkpt>
      <trkpt lat="45.45703" lon="3.18896">
        <ele>466.38</ele>
        <time>2011-09-03T14:57:52Z</time>
      </trkpt>
      <trkpt lat="45.45803" lon="3.18737">
        <ele>466.38</ele>
        <time>2011-09-03T14:58:00Z</time>
      </trkpt>
      <trkpt lat="45.45875" lon="3.18653">
        <ele>466.38</ele>
        <time>2011-09-03T14:58:07Z</time>
      </trkpt>
      <trkpt lat="45.45934" lon="3.18538">
        <ele>468.78</ele>
        <time>2011-09-03T14:58:17Z</time>
      </trkpt>
      <trkpt lat="45.45963" lon="3.18471">
        <ele>471.18</ele>
        <time>2011-09-03T14:58:22Z</time>
      </trkpt>
      <trkpt lat="45.45988" lon="3.18435">
        <ele>470.22</ele>
        <time>2011-09-03T14:58:25Z</time>
      </trkpt>
      <trkpt lat="45.46022" lon="3.1837">
        <ele>473.11</ele>
        <time>2011-09-03T14:58:29Z</time>
      </trkpt>
      <trkpt lat="45.46048" lon="3.18311">
        <ele>474.55</ele>
        <time>2011-09-03T14:58:32Z</time>
      </trkpt>
      <trkpt lat="45.46056" lon="3.18292">
        <ele>475.03</ele>
        <time>2011-09-03T14:58:33Z</time>
      </trkpt>
      <trkpt lat="45.46073" lon="3.18201">
        <ele>475.99</ele>
        <time>2011-09-03T14:58:37Z</time>
      </trkpt>
      <trkpt lat="45.46125" lon="3.1807">
        <ele>477.91</ele>
        <time>2011-09-03T14:58:43Z</time>
      </trkpt>
      <trkpt lat="45.46138" lon="3.18054">
        <ele>479.35</ele>
        <time>2011-09-03T14:58:44Z</time>
      </trkpt>
      <trkpt lat="45.46193" lon="3.17977">
        <ele>483.68</ele>
        <time>2011-09-03T14:58:48Z</time>
      </trkpt>
      <trkpt lat="45.46205" lon="3.17954">
        <ele>483.68</ele>
        <time>2011-09-03T14:58:49Z</time>
      </trkpt>
      <trkpt lat="45.46239" lon="3.17878">
        <ele>487.53</ele>
        <time>2011-09-03T14:58:52Z</time>
      </trkpt>
      <trkpt lat="45.46281" lon="3.17772">
        <ele>489.45</ele>
        <time>2011-09-03T14:58:56Z</time>
      </trkpt>
      <trkpt lat="45.46309" lon="3.17689">
        <ele>491.37</ele>
        <time>2011-09-03T14:58:59Z</time>
      </trkpt>
      <trkpt lat="45.46363" lon="3.17413">
        <ele>492.33</ele>
        <time>2011-09-03T14:59:08Z</time>
      </trkpt>
      <trkpt lat="45.46372" lon="3.17362">
        <ele>488.01</ele>
        <time>2011-09-03T14:59:10Z</time>
      </trkpt>
      <trkpt lat="45.46377" lon="3.1734">
        <ele>488.01</ele>
        <time>2011-09-03T14:59:11Z</time>
      </trkpt>
      <trkpt lat="45.46411" lon="3.17275">
        <ele>487.05</ele>
        <time>2011-09-03T14:59:15Z</time>
      </trkpt>
      <trkpt lat="45.46471" lon="3.17197">
        <ele>490.41</ele>
        <time>2011-09-03T14:59:20Z</time>
      </trkpt>
      <trkpt lat="45.46517" lon="3.17081">
        <ele>490.41</ele>
        <time>2011-09-03T14:59:25Z</time>
      </trkpt>
      <trkpt lat="45.46573" lon="3.17014">
        <ele>492.33</ele>
        <time>2011-09-03T14:59:30Z</time>
      </trkpt>
      <trkpt lat="45.46603" lon="3.17001">
        <ele>493.29</ele>
        <time>2011-09-03T14:59:32Z</time>
      </trkpt>
      <trkpt lat="45.46641" lon="3.1696">
        <ele>494.74</ele>
        <time>2011-09-03T14:59:35Z</time>
      </trkpt>
      <trkpt lat="45.4666" lon="3.16916">
        <ele>497.62</ele>
        <time>2011-09-03T14:59:37Z</time>
      </trkpt>
      <trkpt lat="45.46688" lon="3.16838">
        <ele>500.5</ele>
        <time>2011-09-03T14:59:40Z</time>
      </trkpt>
      <trkpt lat="45.46721" lon="3.16738">
        <ele>500.5</ele>
        <time>2011-09-03T14:59:44Z</time>
      </trkpt>
      <trkpt lat="45.46742" lon="3.166">
        <ele>505.31</ele>
        <time>2011-09-03T14:59:49Z</time>
      </trkpt>
      <trkpt lat="45.4675" lon="3.16519">
        <ele>503.39</ele>
        <time>2011-09-03T14:59:52Z</time>
      </trkpt>
      <trkpt lat="45.46761" lon="3.16417">
        <ele>499.54</ele>
        <time>2011-09-03T14:59:57Z</time>
      </trkpt>
      <trkpt lat="45.46764" lon="3.164">
        <ele>500.02</ele>
        <time>2011-09-03T14:59:58Z</time>
      </trkpt>
      <trkpt lat="45.46771" lon="3.16367">
        <ele>500.5</ele>
        <time>2011-09-03T15:00:00Z</time>
      </trkpt>
      <trkpt lat="45.46788" lon="3.16337">
        <ele>500.98</ele>
        <time>2011-09-03T15:00:02Z</time>
      </trkpt>
      <trkpt lat="45.46846" lon="3.16265">
        <ele>505.31</ele>
        <time>2011-09-03T15:00:07Z</time>
      </trkpt>
      <trkpt lat="45.46859" lon="3.1625">
        <ele>505.31</ele>
        <time>2011-09-03T15:00:08Z</time>
      </trkpt>
      <trkpt lat="45.469" lon="3.16204">
        <ele>508.19</ele>
        <time>2011-09-03T15:00:11Z</time>
      </trkpt>
      <trkpt lat="45.46928" lon="3.16172">
        <ele>511.56</ele>
        <time>2011-09-03T15:00:13Z</time>
      </trkpt>
      <trkpt lat="45.46942" lon="3.16155">
        <ele>511.08</ele>
        <time>2011-09-03T15:00:14Z</time>
      </trkpt>
      <trkpt lat="45.46982" lon="3.16109">
        <ele>513.48</ele>
        <time>2011-09-03T15:00:17Z</time>
      </trkpt>
      <trkpt lat="45.47004" lon="3.1608">
        <ele>513.96</ele>
        <time>2011-09-03T15:00:19Z</time>
      </trkpt>
      <trkpt lat="45.47034" lon="3.16009">
        <ele>514.44</ele>
        <time>2011-09-03T15:00:26Z</time>
      </trkpt>
      <trkpt lat="45.47038" lon="3.15998">
        <ele>514.44</ele>
        <time>2011-09-03T15:00:27Z</time>
      </trkpt>
      <trkpt lat="45.47052" lon="3.15976">
        <ele>517.81</ele>
        <time>2011-09-03T15:00:30Z</time>
      </trkpt>
      <trkpt lat="45.47059" lon="3.15972">
        <ele>517.33</ele>
        <time>2011-09-03T15:00:31Z</time>
      </trkpt>
      <trkpt lat="45.47066" lon="3.15969">
        <ele>516.85</ele>
        <time>2011-09-03T15:00:32Z</time>
      </trkpt>
      <trkpt lat="45.47096" lon="3.15962">
        <ele>517.81</ele>
        <time>2011-09-03T15:00:40Z</time>
      </trkpt>
      <trkpt lat="45.47095" lon="3.15963">
        <ele>518.29</ele>
        <time>2011-09-03T15:00:45Z</time>
      </trkpt>
      <trkpt lat="45.47098" lon="3.15962">
        <ele>517.33</ele>
        <time>2011-09-03T15:01:01Z</time>
      </trkpt>
      <trkpt lat="45.47097" lon="3.15962">
        <ele>516.85</ele>
        <time>2011-09-03T15:01:31Z</time>
      </trkpt>
      <trkpt lat="45.47098" lon="3.15963">
        <ele>519.25</ele>
        <time>2011-09-03T15:02:45Z</time>
      </trkpt>
      <trkpt lat="45.47097" lon="3.15964">
        <ele>522.13</ele>
        <time>2011-09-03T15:09:29Z</time>
      </trkpt>
      <trkpt lat="45.47097" lon="3.15964">
        <ele>520.69</ele>
        <time>2011-09-03T15:09:32Z</time>
      </trkpt>
      <trkpt lat="45.47097" lon="3.15963">
        <ele>522.13</ele>
        <time>2011-09-03T15:11:25Z</time>
      </trkpt>
      <trkpt lat="45.47096" lon="3.15963">
        <ele>521.17</ele>
        <time>2011-09-03T15:11:31Z</time>
      </trkpt>
      <trkpt lat="45.47069" lon="3.15967">
        <ele>522.13</ele>
        <time>2011-09-03T15:11:38Z</time>
      </trkpt>
      <trkpt lat="45.47061" lon="3.15968">
        <ele>521.17</ele>
        <time>2011-09-03T15:11:39Z</time>
      </trkpt>
      <trkpt lat="45.47023" lon="3.16005">
        <ele>519.25</ele>
        <time>2011-09-03T15:11:44Z</time>
      </trkpt>
      <trkpt lat="45.47003" lon="3.16058">
        <ele>517.81</ele>
        <time>2011-09-03T15:11:48Z</time>
      </trkpt>
      <trkpt lat="45.46983" lon="3.16093">
        <ele>515.4</ele>
        <time>2011-09-03T15:11:51Z</time>
      </trkpt>
      <trkpt lat="45.46934" lon="3.16152">
        <ele>513.48</ele>
        <time>2011-09-03T15:11:56Z</time>
      </trkpt>
      <trkpt lat="45.46891" lon="3.16202">
        <ele>511.08</ele>
        <time>2011-09-03T15:12:00Z</time>
      </trkpt>
      <trkpt lat="45.46832" lon="3.16269">
        <ele>508.67</ele>
        <time>2011-09-03T15:12:05Z</time>
      </trkpt>
      <trkpt lat="45.46773" lon="3.16339">
        <ele>504.35</ele>
        <time>2011-09-03T15:12:10Z</time>
      </trkpt>
      <trkpt lat="45.46744" lon="3.16434">
        <ele>502.43</ele>
        <time>2011-09-03T15:12:16Z</time>
      </trkpt>
      <trkpt lat="45.46713" lon="3.16719">
        <ele>500.98</ele>
        <time>2011-09-03T15:12:30Z</time>
      </trkpt>
      <trkpt lat="45.46687" lon="3.16816">
        <ele>500.02</ele>
        <time>2011-09-03T15:12:35Z</time>
      </trkpt>
      <trkpt lat="45.4664" lon="3.16949">
        <ele>497.14</ele>
        <time>2011-09-03T15:12:42Z</time>
      </trkpt>
      <trkpt lat="45.46632" lon="3.16968">
        <ele>496.66</ele>
        <time>2011-09-03T15:12:43Z</time>
      </trkpt>
      <trkpt lat="45.46602" lon="3.17008">
        <ele>495.22</ele>
        <time>2011-09-03T15:12:46Z</time>
      </trkpt>
      <trkpt lat="45.46577" lon="3.17021">
        <ele>495.7</ele>
        <time>2011-09-03T15:12:48Z</time>
      </trkpt>
      <trkpt lat="45.46501" lon="3.17109">
        <ele>491.85</ele>
        <time>2011-09-03T15:12:55Z</time>
      </trkpt>
      <trkpt lat="45.46487" lon="3.17154">
        <ele>490.89</ele>
        <time>2011-09-03T15:12:57Z</time>
      </trkpt>
      <trkpt lat="45.46411" lon="3.17289">
        <ele>489.45</ele>
        <time>2011-09-03T15:13:05Z</time>
      </trkpt>
      <trkpt lat="45.46399" lon="3.17301">
        <ele>488.01</ele>
        <time>2011-09-03T15:13:06Z</time>
      </trkpt>
      <trkpt lat="45.46361" lon="3.17386">
        <ele>489.45</ele>
        <time>2011-09-03T15:13:11Z</time>
      </trkpt>
      <trkpt lat="45.46344" lon="3.17481">
        <ele>490.89</ele>
        <time>2011-09-03T15:13:15Z</time>
      </trkpt>
      <trkpt lat="45.46302" lon="3.17707">
        <ele>489.93</ele>
        <time>2011-09-03T15:13:24Z</time>
      </trkpt>
      <trkpt lat="45.46208" lon="3.17949">
        <ele>487.05</ele>
        <time>2011-09-03T15:13:34Z</time>
      </trkpt>
      <trkpt lat="45.46172" lon="3.18016">
        <ele>483.2</ele>
        <time>2011-09-03T15:13:37Z</time>
      </trkpt>
      <trkpt lat="45.46116" lon="3.18084">
        <ele>477.43</ele>
        <time>2011-09-03T15:13:41Z</time>
      </trkpt>
      <trkpt lat="45.46094" lon="3.1812">
        <ele>476.47</ele>
        <time>2011-09-03T15:13:43Z</time>
      </trkpt>
      <trkpt lat="45.46066" lon="3.18224">
        <ele>475.99</ele>
        <time>2011-09-03T15:13:48Z</time>
      </trkpt>
      <trkpt lat="45.46017" lon="3.18381">
        <ele>474.55</ele>
        <time>2011-09-03T15:13:56Z</time>
      </trkpt>
      <trkpt lat="45.46" lon="3.18417">
        <ele>472.63</ele>
        <time>2011-09-03T15:13:58Z</time>
      </trkpt>
      <trkpt lat="45.45966" lon="3.18467">
        <ele>472.14</ele>
        <time>2011-09-03T15:14:02Z</time>
      </trkpt>
      <trkpt lat="45.45903" lon="3.18616">
        <ele>469.74</ele>
        <time>2011-09-03T15:14:14Z</time>
      </trkpt>
      <trkpt lat="45.45892" lon="3.18638">
        <ele>467.82</ele>
        <time>2011-09-03T15:14:16Z</time>
      </trkpt>
      <trkpt lat="45.45859" lon="3.18682">
        <ele>466.38</ele>
        <time>2011-09-03T15:14:21Z</time>
      </trkpt>
      <trkpt lat="45.45781" lon="3.18782">
        <ele>469.26</ele>
        <time>2011-09-03T15:14:28Z</time>
      </trkpt>
      <trkpt lat="45.45769" lon="3.18803">
        <ele>469.26</ele>
        <time>2011-09-03T15:14:29Z</time>
      </trkpt>
      <trkpt lat="45.45667" lon="3.18947">
        <ele>465.9</ele>
        <time>2011-09-03T15:14:36Z</time>
      </trkpt>
      <trkpt lat="45.45636" lon="3.18985">
        <ele>464.93</ele>
        <time>2011-09-03T15:14:38Z</time>
      </trkpt>
      <trkpt lat="45.45523" lon="3.19123">
        <ele>460.61</ele>
        <time>2011-09-03T15:14:45Z</time>
      </trkpt>
      <trkpt lat="45.45464" lon="3.19246">
        <ele>460.13</ele>
        <time>2011-09-03T15:14:50Z</time>
      </trkpt>
      <trkpt lat="45.45438" lon="3.19294">
        <ele>460.13</ele>
        <time>2011-09-03T15:14:52Z</time>
      </trkpt>
      <trkpt lat="45.45374" lon="3.19486">
        <ele>458.21</ele>
        <time>2011-09-03T15:14:59Z</time>
      </trkpt>
      <trkpt lat="45.45318" lon="3.19663">
        <ele>457.24</ele>
        <time>2011-09-03T15:15:05Z</time>
      </trkpt>
      <trkpt lat="45.453" lon="3.19749">
        <ele>454.84</ele>
        <time>2011-09-03T15:15:08Z</time>
      </trkpt>
      <trkpt lat="45.45249" lon="3.20051">
        <ele>454.84</ele>
        <time>2011-09-03T15:15:18Z</time>
      </trkpt>
      <trkpt lat="45.45238" lon="3.20111">
        <ele>453.4</ele>
        <time>2011-09-03T15:15:20Z</time>
      </trkpt>
      <trkpt lat="45.45232" lon="3.20426">
        <ele>450.03</ele>
        <time>2011-09-03T15:15:30Z</time>
      </trkpt>
      <trkpt lat="45.45234" lon="3.20457">
        <ele>450.03</ele>
        <time>2011-09-03T15:15:31Z</time>
      </trkpt>
      <trkpt lat="45.45261" lon="3.20666">
        <ele>446.67</ele>
        <time>2011-09-03T15:15:38Z</time>
      </trkpt>
      <trkpt lat="45.45312" lon="3.20869">
        <ele>445.23</ele>
        <time>2011-09-03T15:15:45Z</time>
      </trkpt>
      <trkpt lat="45.45358" lon="3.21042">
        <ele>441.86</ele>
        <time>2011-09-03T15:15:51Z</time>
      </trkpt>
      <trkpt lat="45.45372" lon="3.21095">
        <ele>439.94</ele>
        <time>2011-09-03T15:15:53Z</time>
      </trkpt>
      <trkpt lat="45.45406" lon="3.21263">
        <ele>439.46</ele>
        <time>2011-09-03T15:15:59Z</time>
      </trkpt>
      <trkpt lat="45.45447" lon="3.2137">
        <ele>437.06</ele>
        <time>2011-09-03T15:16:03Z</time>
      </trkpt>
      <trkpt lat="45.45569" lon="3.21568">
        <ele>435.13</ele>
        <time>2011-09-03T15:16:11Z</time>
      </trkpt>
      <trkpt lat="45.45657" lon="3.21767">
        <ele>434.17</ele>
        <time>2011-09-03T15:16:18Z</time>
      </trkpt>
      <trkpt lat="45.45736" lon="3.21958">
        <ele>430.81</ele>
        <time>2011-09-03T15:16:25Z</time>
      </trkpt>
      <trkpt lat="45.45788" lon="3.22055">
        <ele>430.81</ele>
        <time>2011-09-03T15:16:29Z</time>
      </trkpt>
      <trkpt lat="45.4582" lon="3.22094">
        <ele>429.85</ele>
        <time>2011-09-03T15:16:31Z</time>
      </trkpt>
      <trkpt lat="45.45871" lon="3.22138">
        <ele>427.92</ele>
        <time>2011-09-03T15:16:34Z</time>
      </trkpt>
      <trkpt lat="45.45966" lon="3.22261">
        <ele>425.52</ele>
        <time>2011-09-03T15:16:41Z</time>
      </trkpt>
      <trkpt lat="45.45976" lon="3.22277">
        <ele>425.52</ele>
        <time>2011-09-03T15:16:42Z</time>
      </trkpt>
      <trkpt lat="45.46006" lon="3.22316">
        <ele>423.6</ele>
        <time>2011-09-03T15:16:45Z</time>
      </trkpt>
      <trkpt lat="45.46044" lon="3.22356">
        <ele>421.68</ele>
        <time>2011-09-03T15:16:49Z</time>
      </trkpt>
      <trkpt lat="45.46087" lon="3.22403">
        <ele>422.64</ele>
        <time>2011-09-03T15:16:54Z</time>
      </trkpt>
      <trkpt lat="45.46127" lon="3.22486">
        <ele>422.16</ele>
        <time>2011-09-03T15:17:01Z</time>
      </trkpt>
      <trkpt lat="45.46201" lon="3.22606">
        <ele>422.16</ele>
        <time>2011-09-03T15:17:12Z</time>
      </trkpt>
      <trkpt lat="45.46209" lon="3.22618">
        <ele>423.6</ele>
        <time>2011-09-03T15:17:13Z</time>
      </trkpt>
      <trkpt lat="45.46232" lon="3.22665">
        <ele>424.56</ele>
        <time>2011-09-03T15:17:16Z</time>
      </trkpt>
      <trkpt lat="45.46242" lon="3.22705">
        <ele>424.08</ele>
        <time>2011-09-03T15:17:18Z</time>
      </trkpt>
      <trkpt lat="45.4626" lon="3.22815">
        <ele>420.71</ele>
        <time>2011-09-03T15:17:23Z</time>
      </trkpt>
      <trkpt lat="45.46264" lon="3.22837">
        <ele>421.68</ele>
        <time>2011-09-03T15:17:24Z</time>
      </trkpt>
      <trkpt lat="45.46275" lon="3.22901">
        <ele>419.27</ele>
        <time>2011-09-03T15:17:27Z</time>
      </trkpt>
      <trkpt lat="45.4631" lon="3.23063">
        <ele>415.91</ele>
        <time>2011-09-03T15:17:35Z</time>
      </trkpt>
      <trkpt lat="45.46325" lon="3.2313">
        <ele>419.27</ele>
        <time>2011-09-03T15:17:38Z</time>
      </trkpt>
      <trkpt lat="45.46333" lon="3.23181">
        <ele>419.75</ele>
        <time>2011-09-03T15:17:40Z</time>
      </trkpt>
      <trkpt lat="45.46366" lon="3.23401">
        <ele>419.27</ele>
        <time>2011-09-03T15:17:48Z</time>
      </trkpt>
      <trkpt lat="45.46391" lon="3.23477">
        <ele>417.83</ele>
        <time>2011-09-03T15:17:51Z</time>
      </trkpt>
      <trkpt lat="45.46424" lon="3.23566">
        <ele>414.47</ele>
        <time>2011-09-03T15:17:55Z</time>
      </trkpt>
      <trkpt lat="45.46455" lon="3.23637">
        <ele>410.14</ele>
        <time>2011-09-03T15:18:00Z</time>
      </trkpt>
      <trkpt lat="45.46463" lon="3.23663">
        <ele>409.66</ele>
        <time>2011-09-03T15:18:05Z</time>
      </trkpt>
      <trkpt lat="45.4648" lon="3.23673">
        <ele>411.58</ele>
        <time>2011-09-03T15:18:09Z</time>
      </trkpt>
      <trkpt lat="45.46488" lon="3.23669">
        <ele>411.58</ele>
        <time>2011-09-03T15:18:10Z</time>
      </trkpt>
      <trkpt lat="45.4653" lon="3.23637">
        <ele>417.83</ele>
        <time>2011-09-03T15:18:14Z</time>
      </trkpt>
      <trkpt lat="45.46577" lon="3.23608">
        <ele>423.6</ele>
        <time>2011-09-03T15:18:17Z</time>
      </trkpt>
      <trkpt lat="45.46613" lon="3.23585">
        <ele>427.44</ele>
        <time>2011-09-03T15:18:19Z</time>
      </trkpt>
      <trkpt lat="45.46696" lon="3.23533">
        <ele>431.77</ele>
        <time>2011-09-03T15:18:23Z</time>
      </trkpt>
      <trkpt lat="45.46741" lon="3.23505">
        <ele>432.73</ele>
        <time>2011-09-03T15:18:25Z</time>
      </trkpt>
      <trkpt lat="45.46917" lon="3.23396">
        <ele>428.89</ele>
        <time>2011-09-03T15:18:33Z</time>
      </trkpt>
      <trkpt lat="45.47029" lon="3.23399">
        <ele>428.89</ele>
        <time>2011-09-03T15:18:38Z</time>
      </trkpt>
      <trkpt lat="45.47221" lon="3.23508">
        <ele>426</ele>
        <time>2011-09-03T15:18:46Z</time>
      </trkpt>
      <trkpt lat="45.47339" lon="3.2358">
        <ele>420.71</ele>
        <time>2011-09-03T15:18:51Z</time>
      </trkpt>
      <trkpt lat="45.47381" lon="3.23605">
        <ele>417.35</ele>
        <time>2011-09-03T15:18:53Z</time>
      </trkpt>
      <trkpt lat="45.47402" lon="3.23616">
        <ele>416.87</ele>
        <time>2011-09-03T15:18:54Z</time>
      </trkpt>
      <trkpt lat="45.47465" lon="3.23631">
        <ele>414.47</ele>
        <time>2011-09-03T15:18:57Z</time>
      </trkpt>
      <trkpt lat="45.47506" lon="3.23625">
        <ele>413.5</ele>
        <time>2011-09-03T15:18:59Z</time>
      </trkpt>
      <trkpt lat="45.47632" lon="3.23634">
        <ele>414.95</ele>
        <time>2011-09-03T15:19:05Z</time>
      </trkpt>
      <trkpt lat="45.47706" lon="3.2367">
        <ele>419.27</ele>
        <time>2011-09-03T15:19:08Z</time>
      </trkpt>
      <trkpt lat="45.47731" lon="3.23682">
        <ele>418.31</ele>
        <time>2011-09-03T15:19:09Z</time>
      </trkpt>
      <trkpt lat="45.47811" lon="3.23719">
        <ele>423.6</ele>
        <time>2011-09-03T15:19:12Z</time>
      </trkpt>
      <trkpt lat="45.47984" lon="3.23806">
        <ele>428.4</ele>
        <time>2011-09-03T15:19:18Z</time>
      </trkpt>
      <trkpt lat="45.48095" lon="3.2386">
        <ele>432.25</ele>
        <time>2011-09-03T15:19:22Z</time>
      </trkpt>
      <trkpt lat="45.48122" lon="3.23873">
        <ele>435.13</ele>
        <time>2011-09-03T15:19:23Z</time>
      </trkpt>
      <trkpt lat="45.48175" lon="3.23899">
        <ele>436.1</ele>
        <time>2011-09-03T15:19:25Z</time>
      </trkpt>
      <trkpt lat="45.48254" lon="3.23937">
        <ele>437.54</ele>
        <time>2011-09-03T15:19:28Z</time>
      </trkpt>
      <trkpt lat="45.48355" lon="3.23988">
        <ele>440.9</ele>
        <time>2011-09-03T15:19:32Z</time>
      </trkpt>
      <trkpt lat="45.48378" lon="3.24002">
        <ele>441.86</ele>
        <time>2011-09-03T15:19:33Z</time>
      </trkpt>
      <trkpt lat="45.48421" lon="3.24038">
        <ele>443.31</ele>
        <time>2011-09-03T15:19:35Z</time>
      </trkpt>
      <trkpt lat="45.48588" lon="3.24226">
        <ele>443.31</ele>
        <time>2011-09-03T15:19:43Z</time>
      </trkpt>
      <trkpt lat="45.48859" lon="3.24534">
        <ele>445.23</ele>
        <time>2011-09-03T15:19:56Z</time>
      </trkpt>
      <trkpt lat="45.48899" lon="3.24576">
        <ele>441.86</ele>
        <time>2011-09-03T15:19:58Z</time>
      </trkpt>
      <trkpt lat="45.4894" lon="3.24613">
        <ele>438.5</ele>
        <time>2011-09-03T15:20:00Z</time>
      </trkpt>
      <trkpt lat="45.48979" lon="3.24644">
        <ele>434.65</ele>
        <time>2011-09-03T15:20:02Z</time>
      </trkpt>
      <trkpt lat="45.49019" lon="3.24671">
        <ele>432.25</ele>
        <time>2011-09-03T15:20:04Z</time>
      </trkpt>
      <trkpt lat="45.49107" lon="3.24718">
        <ele>431.29</ele>
        <time>2011-09-03T15:20:08Z</time>
      </trkpt>
      <trkpt lat="45.49227" lon="3.24766">
        <ele>427.92</ele>
        <time>2011-09-03T15:20:13Z</time>
      </trkpt>
      <trkpt lat="45.49274" lon="3.24789">
        <ele>425.04</ele>
        <time>2011-09-03T15:20:15Z</time>
      </trkpt>
      <trkpt lat="45.49297" lon="3.24802">
        <ele>424.56</ele>
        <time>2011-09-03T15:20:16Z</time>
      </trkpt>
      <trkpt lat="45.49362" lon="3.24846">
        <ele>421.68</ele>
        <time>2011-09-03T15:20:19Z</time>
      </trkpt>
      <trkpt lat="45.4954" lon="3.2502">
        <ele>423.6</ele>
        <time>2011-09-03T15:20:28Z</time>
      </trkpt>
      <trkpt lat="45.49587" lon="3.2509">
        <ele>420.71</ele>
        <time>2011-09-03T15:20:31Z</time>
      </trkpt>
      <trkpt lat="45.49601" lon="3.25114">
        <ele>420.71</ele>
        <time>2011-09-03T15:20:32Z</time>
      </trkpt>
      <trkpt lat="45.49674" lon="3.25268">
        <ele>417.35</ele>
        <time>2011-09-03T15:20:38Z</time>
      </trkpt>
      <trkpt lat="45.49685" lon="3.25293">
        <ele>418.31</ele>
        <time>2011-09-03T15:20:39Z</time>
      </trkpt>
      <trkpt lat="45.49731" lon="3.25379">
        <ele>414.95</ele>
        <time>2011-09-03T15:20:43Z</time>
      </trkpt>
      <trkpt lat="45.49742" lon="3.25398">
        <ele>414.47</ele>
        <time>2011-09-03T15:20:44Z</time>
      </trkpt>
      <trkpt lat="45.49766" lon="3.25432">
        <ele>413.5</ele>
        <time>2011-09-03T15:20:46Z</time>
      </trkpt>
      <trkpt lat="45.49856" lon="3.25528">
        <ele>411.58</ele>
        <time>2011-09-03T15:20:54Z</time>
      </trkpt>
      <trkpt lat="45.49926" lon="3.2559">
        <ele>413.5</ele>
        <time>2011-09-03T15:21:03Z</time>
      </trkpt>
      <trkpt lat="45.49979" lon="3.25657">
        <ele>414.95</ele>
        <time>2011-09-03T15:21:12Z</time>
      </trkpt>
      <trkpt lat="45.50053" lon="3.2573">
        <ele>416.39</ele>
        <time>2011-09-03T15:21:19Z</time>
      </trkpt>
      <trkpt lat="45.50197" lon="3.25827">
        <ele>419.27</ele>
        <time>2011-09-03T15:21:28Z</time>
      </trkpt>
      <trkpt lat="45.50282" lon="3.25918">
        <ele>417.35</ele>
        <time>2011-09-03T15:21:34Z</time>
      </trkpt>
      <trkpt lat="45.50359" lon="3.25953">
        <ele>418.79</ele>
        <time>2011-09-03T15:21:39Z</time>
      </trkpt>
      <trkpt lat="45.50534" lon="3.25948">
        <ele>419.27</ele>
        <time>2011-09-03T15:21:49Z</time>
      </trkpt>
      <trkpt lat="45.50551" lon="3.2595">
        <ele>418.31</ele>
        <time>2011-09-03T15:21:50Z</time>
      </trkpt>
      <trkpt lat="45.50667" lon="3.2602">
        <ele>418.79</ele>
        <time>2011-09-03T15:21:58Z</time>
      </trkpt>
      <trkpt lat="45.50768" lon="3.26045">
        <ele>419.27</ele>
        <time>2011-09-03T15:22:04Z</time>
      </trkpt>
      <trkpt lat="45.5088" lon="3.26074">
        <ele>418.79</ele>
        <time>2011-09-03T15:22:11Z</time>
      </trkpt>
      <trkpt lat="45.50894" lon="3.26081">
        <ele>418.31</ele>
        <time>2011-09-03T15:22:12Z</time>
      </trkpt>
      <trkpt lat="45.50997" lon="3.26121">
        <ele>422.16</ele>
        <time>2011-09-03T15:22:19Z</time>
      </trkpt>
      <trkpt lat="45.5109" lon="3.26115">
        <ele>426.48</ele>
        <time>2011-09-03T15:22:25Z</time>
      </trkpt>
      <trkpt lat="45.51121" lon="3.26106">
        <ele>426.96</ele>
        <time>2011-09-03T15:22:27Z</time>
      </trkpt>
      <trkpt lat="45.51187" lon="3.26081">
        <ele>430.33</ele>
        <time>2011-09-03T15:22:31Z</time>
      </trkpt>
      <trkpt lat="45.51294" lon="3.26041">
        <ele>431.29</ele>
        <time>2011-09-03T15:22:38Z</time>
      </trkpt>
      <trkpt lat="45.5134" lon="3.26023">
        <ele>432.73</ele>
        <time>2011-09-03T15:22:41Z</time>
      </trkpt>
      <trkpt lat="45.51388" lon="3.26004">
        <ele>436.1</ele>
        <time>2011-09-03T15:22:44Z</time>
      </trkpt>
      <trkpt lat="45.51456" lon="3.25956">
        <ele>434.17</ele>
        <time>2011-09-03T15:22:50Z</time>
      </trkpt>
      <trkpt lat="45.51542" lon="3.25858">
        <ele>434.65</ele>
        <time>2011-09-03T15:23:01Z</time>
      </trkpt>
      <trkpt lat="45.51649" lon="3.25778">
        <ele>439.46</ele>
        <time>2011-09-03T15:23:10Z</time>
      </trkpt>
      <trkpt lat="45.51668" lon="3.25771">
        <ele>439.46</ele>
        <time>2011-09-03T15:23:11Z</time>
      </trkpt>
      <trkpt lat="45.51727" lon="3.2575">
        <ele>435.13</ele>
        <time>2011-09-03T15:23:14Z</time>
      </trkpt>
      <trkpt lat="45.51804" lon="3.25721">
        <ele>431.77</ele>
        <time>2011-09-03T15:23:18Z</time>
      </trkpt>
      <trkpt lat="45.51907" lon="3.25637">
        <ele>432.25</ele>
        <time>2011-09-03T15:23:24Z</time>
      </trkpt>
      <trkpt lat="45.51948" lon="3.25583">
        <ele>430.81</ele>
        <time>2011-09-03T15:23:27Z</time>
      </trkpt>
      <trkpt lat="45.51998" lon="3.25515">
        <ele>427.44</ele>
        <time>2011-09-03T15:23:31Z</time>
      </trkpt>
      <trkpt lat="45.52048" lon="3.25455">
        <ele>424.56</ele>
        <time>2011-09-03T15:23:35Z</time>
      </trkpt>
      <trkpt lat="45.52092" lon="3.25419">
        <ele>421.68</ele>
        <time>2011-09-03T15:23:38Z</time>
      </trkpt>
      <trkpt lat="45.52122" lon="3.254">
        <ele>417.83</ele>
        <time>2011-09-03T15:23:40Z</time>
      </trkpt>
      <trkpt lat="45.52137" lon="3.2539">
        <ele>417.83</ele>
        <time>2011-09-03T15:23:41Z</time>
      </trkpt>
      <trkpt lat="45.52168" lon="3.25372">
        <ele>414.47</ele>
        <time>2011-09-03T15:23:43Z</time>
      </trkpt>
      <trkpt lat="45.52184" lon="3.25364">
        <ele>413.98</ele>
        <time>2011-09-03T15:23:44Z</time>
      </trkpt>
      <trkpt lat="45.52236" lon="3.25354">
        <ele>410.62</ele>
        <time>2011-09-03T15:23:47Z</time>
      </trkpt>
      <trkpt lat="45.52293" lon="3.25371">
        <ele>410.62</ele>
        <time>2011-09-03T15:23:50Z</time>
      </trkpt>
      <trkpt lat="45.52331" lon="3.25391">
        <ele>412.54</ele>
        <time>2011-09-03T15:23:52Z</time>
      </trkpt>
      <trkpt lat="45.52367" lon="3.25407">
        <ele>407.26</ele>
        <time>2011-09-03T15:23:54Z</time>
      </trkpt>
      <trkpt lat="45.52402" lon="3.25417">
        <ele>404.37</ele>
        <time>2011-09-03T15:23:56Z</time>
      </trkpt>
      <trkpt lat="45.52436" lon="3.25419">
        <ele>402.45</ele>
        <time>2011-09-03T15:23:58Z</time>
      </trkpt>
      <trkpt lat="45.52523" lon="3.25403">
        <ele>398.6</ele>
        <time>2011-09-03T15:24:04Z</time>
      </trkpt>
      <trkpt lat="45.52571" lon="3.25388">
        <ele>395.72</ele>
        <time>2011-09-03T15:24:08Z</time>
      </trkpt>
      <trkpt lat="45.52582" lon="3.25385">
        <ele>395.24</ele>
        <time>2011-09-03T15:24:09Z</time>
      </trkpt>
      <trkpt lat="45.52623" lon="3.25422">
        <ele>391.39</ele>
        <time>2011-09-03T15:24:15Z</time>
      </trkpt>
      <trkpt lat="45.52647" lon="3.25497">
        <ele>388.99</ele>
        <time>2011-09-03T15:24:20Z</time>
      </trkpt>
      <trkpt lat="45.52656" lon="3.2552">
        <ele>386.11</ele>
        <time>2011-09-03T15:24:24Z</time>
      </trkpt>
      <trkpt lat="45.52656" lon="3.25521">
        <ele>386.59</ele>
        <time>2011-09-03T15:24:33Z</time>
      </trkpt>
      <trkpt lat="45.52658" lon="3.2553">
        <ele>385.63</ele>
        <time>2011-09-03T15:24:42Z</time>
      </trkpt>
      <trkpt lat="45.52659" lon="3.25537">
        <ele>386.11</ele>
        <time>2011-09-03T15:24:51Z</time>
      </trkpt>
      <trkpt lat="45.5266" lon="3.25547">
        <ele>385.63</ele>
        <time>2011-09-03T15:25:06Z</time>
      </trkpt>
      <trkpt lat="45.52661" lon="3.25548">
        <ele>385.63</ele>
        <time>2011-09-03T15:25:17Z</time>
      </trkpt>
      <trkpt lat="45.52662" lon="3.25554">
        <ele>386.11</ele>
        <time>2011-09-03T15:25:30Z</time>
      </trkpt>
      <trkpt lat="45.5268" lon="3.25548">
        <ele>387.07</ele>
        <time>2011-09-03T15:25:34Z</time>
      </trkpt>
      <trkpt lat="45.52689" lon="3.25543">
        <ele>388.99</ele>
        <time>2011-09-03T15:25:35Z</time>
      </trkpt>
      <trkpt lat="45.52812" lon="3.25482">
        <ele>393.32</ele>
        <time>2011-09-03T15:25:45Z</time>
      </trkpt>
      <trkpt lat="45.52962" lon="3.25411">
        <ele>395.72</ele>
        <time>2011-09-03T15:25:58Z</time>
      </trkpt>
      <trkpt lat="45.53032" lon="3.25389">
        <ele>399.08</ele>
        <time>2011-09-03T15:26:04Z</time>
      </trkpt>
      <trkpt lat="45.53177" lon="3.25337">
        <ele>398.12</ele>
        <time>2011-09-03T15:26:17Z</time>
      </trkpt>
      <trkpt lat="45.53302" lon="3.25294">
        <ele>395.24</ele>
        <time>2011-09-03T15:26:28Z</time>
      </trkpt>
      <trkpt lat="45.53432" lon="3.2525">
        <ele>395.24</ele>
        <time>2011-09-03T15:26:41Z</time>
      </trkpt>
      <trkpt lat="45.53556" lon="3.25207">
        <ele>396.2</ele>
        <time>2011-09-03T15:26:52Z</time>
      </trkpt>
      <trkpt lat="45.53676" lon="3.2515">
        <ele>395.72</ele>
        <time>2011-09-03T15:27:04Z</time>
      </trkpt>
      <trkpt lat="45.53706" lon="3.25131">
        <ele>395.24</ele>
        <time>2011-09-03T15:27:08Z</time>
      </trkpt>
      <trkpt lat="45.53711" lon="3.25098">
        <ele>394.76</ele>
        <time>2011-09-03T15:27:14Z</time>
      </trkpt>
      <trkpt lat="45.53709" lon="3.25088">
        <ele>395.24</ele>
        <time>2011-09-03T15:27:15Z</time>
      </trkpt>
      <trkpt lat="45.53701" lon="3.25022">
        <ele>399.08</ele>
        <time>2011-09-03T15:27:19Z</time>
      </trkpt>
      <trkpt lat="45.53676" lon="3.24815">
        <ele>400.05</ele>
        <time>2011-09-03T15:27:28Z</time>
      </trkpt>
      <trkpt lat="45.53665" lon="3.2472">
        <ele>397.16</ele>
        <time>2011-09-03T15:27:33Z</time>
      </trkpt>
      <trkpt lat="45.53675" lon="3.24629">
        <ele>394.28</ele>
        <time>2011-09-03T15:27:43Z</time>
      </trkpt>
      <trkpt lat="45.53678" lon="3.24616">
        <ele>395.24</ele>
        <time>2011-09-03T15:27:46Z</time>
      </trkpt>
      <trkpt lat="45.53687" lon="3.24594">
        <ele>395.24</ele>
        <time>2011-09-03T15:27:49Z</time>
      </trkpt>
      <trkpt lat="45.53727" lon="3.24511">
        <ele>396.68</ele>
        <time>2011-09-03T15:27:57Z</time>
      </trkpt>
      <trkpt lat="45.53758" lon="3.24478">
        <ele>396.2</ele>
        <time>2011-09-03T15:28:02Z</time>
      </trkpt>
      <trkpt lat="45.53855" lon="3.24423">
        <ele>397.64</ele>
        <time>2011-09-03T15:28:13Z</time>
      </trkpt>
      <trkpt lat="45.53973" lon="3.24351">
        <ele>394.28</ele>
        <time>2011-09-03T15:28:25Z</time>
      </trkpt>
      <trkpt lat="45.53984" lon="3.24344">
        <ele>394.28</ele>
        <time>2011-09-03T15:28:26Z</time>
      </trkpt>
      <trkpt lat="45.54003" lon="3.24333">
        <ele>392.84</ele>
        <time>2011-09-03T15:28:28Z</time>
      </trkpt>
      <trkpt lat="45.54115" lon="3.24264">
        <ele>392.84</ele>
        <time>2011-09-03T15:28:40Z</time>
      </trkpt>
      <trkpt lat="45.54165" lon="3.24235">
        <ele>393.8</ele>
        <time>2011-09-03T15:28:49Z</time>
      </trkpt>
      <trkpt lat="45.54247" lon="3.24198">
        <ele>392.36</ele>
        <time>2011-09-03T15:29:02Z</time>
      </trkpt>
      <trkpt lat="45.54301" lon="3.24175">
        <ele>393.8</ele>
        <time>2011-09-03T15:29:09Z</time>
      </trkpt>
      <trkpt lat="45.5431" lon="3.24173">
        <ele>393.32</ele>
        <time>2011-09-03T15:29:10Z</time>
      </trkpt>
      <trkpt lat="45.54379" lon="3.24169">
        <ele>393.32</ele>
        <time>2011-09-03T15:29:19Z</time>
      </trkpt>
      <trkpt lat="45.54407" lon="3.24169">
        <ele>392.36</ele>
        <time>2011-09-03T15:29:24Z</time>
      </trkpt>
      <trkpt lat="45.54436" lon="3.2416">
        <ele>393.32</ele>
        <time>2011-09-03T15:29:31Z</time>
      </trkpt>
      <trkpt lat="45.54431" lon="3.24141">
        <ele>394.76</ele>
        <time>2011-09-03T15:29:33Z</time>
      </trkpt>
      <trkpt lat="45.54392" lon="3.23981">
        <ele>397.16</ele>
        <time>2011-09-03T15:29:43Z</time>
      </trkpt>
      <trkpt lat="45.5436" lon="3.23806">
        <ele>396.2</ele>
        <time>2011-09-03T15:29:54Z</time>
      </trkpt>
      <trkpt lat="45.54359" lon="3.2359">
        <ele>397.64</ele>
        <time>2011-09-03T15:30:06Z</time>
      </trkpt>
      <trkpt lat="45.54359" lon="3.23327">
        <ele>400.05</ele>
        <time>2011-09-03T15:30:21Z</time>
      </trkpt>
      <trkpt lat="45.54358" lon="3.23166">
        <ele>399.08</ele>
        <time>2011-09-03T15:30:32Z</time>
      </trkpt>
      <trkpt lat="45.54359" lon="3.23064">
        <ele>401.97</ele>
        <time>2011-09-03T15:30:38Z</time>
      </trkpt>
      <trkpt lat="45.54359" lon="3.23019">
        <ele>403.41</ele>
        <time>2011-09-03T15:30:40Z</time>
      </trkpt>
      <trkpt lat="45.54359" lon="3.2277">
        <ele>404.85</ele>
        <time>2011-09-03T15:30:51Z</time>
      </trkpt>
      <trkpt lat="45.54358" lon="3.22532">
        <ele>404.85</ele>
        <time>2011-09-03T15:31:02Z</time>
      </trkpt>
      <trkpt lat="45.54358" lon="3.22473">
        <ele>402.93</ele>
        <time>2011-09-03T15:31:06Z</time>
      </trkpt>
      <trkpt lat="45.5436" lon="3.22434">
        <ele>402.45</ele>
        <time>2011-09-03T15:31:10Z</time>
      </trkpt>
      <trkpt lat="45.54357" lon="3.22354">
        <ele>406.29</ele>
        <time>2011-09-03T15:31:15Z</time>
      </trkpt>
      <trkpt lat="45.54357" lon="3.22304">
        <ele>409.66</ele>
        <time>2011-09-03T15:31:17Z</time>
      </trkpt>
      <trkpt lat="45.54357" lon="3.2225">
        <ele>410.62</ele>
        <time>2011-09-03T15:31:19Z</time>
      </trkpt>
      <trkpt lat="45.54356" lon="3.2197">
        <ele>410.62</ele>
        <time>2011-09-03T15:31:30Z</time>
      </trkpt>
      <trkpt lat="45.54356" lon="3.21676">
        <ele>414.47</ele>
        <time>2011-09-03T15:31:43Z</time>
      </trkpt>
      <trkpt lat="45.54355" lon="3.21362">
        <ele>413.5</ele>
        <time>2011-09-03T15:31:57Z</time>
      </trkpt>
      <trkpt lat="45.54355" lon="3.21285">
        <ele>410.62</ele>
        <time>2011-09-03T15:32:02Z</time>
      </trkpt>
      <trkpt lat="45.54355" lon="3.21259">
        <ele>409.66</ele>
        <time>2011-09-03T15:32:09Z</time>
      </trkpt>
      <trkpt lat="45.54355" lon="3.21225">
        <ele>410.14</ele>
        <time>2011-09-03T15:32:20Z</time>
      </trkpt>
      <trkpt lat="45.54355" lon="3.2119">
        <ele>412.06</ele>
        <time>2011-09-03T15:32:23Z</time>
      </trkpt>
      <trkpt lat="45.54355" lon="3.21019">
        <ele>413.98</ele>
        <time>2011-09-03T15:32:34Z</time>
      </trkpt>
      <trkpt lat="45.54355" lon="3.2085">
        <ele>416.87</ele>
        <time>2011-09-03T15:32:44Z</time>
      </trkpt>
      <trkpt lat="45.54357" lon="3.20733">
        <ele>418.31</ele>
        <time>2011-09-03T15:32:52Z</time>
      </trkpt>
      <trkpt lat="45.5438" lon="3.20614">
        <ele>418.31</ele>
        <time>2011-09-03T15:32:58Z</time>
      </trkpt>
      <trkpt lat="45.54389" lon="3.20568">
        <ele>422.64</ele>
        <time>2011-09-03T15:33:00Z</time>
      </trkpt>
      <trkpt lat="45.54391" lon="3.20369">
        <ele>423.12</ele>
        <time>2011-09-03T15:33:08Z</time>
      </trkpt>
      <trkpt lat="45.54408" lon="3.20287">
        <ele>422.16</ele>
        <time>2011-09-03T15:33:12Z</time>
      </trkpt>
      <trkpt lat="45.54425" lon="3.20248">
        <ele>424.56</ele>
        <time>2011-09-03T15:33:14Z</time>
      </trkpt>
      <trkpt lat="45.54445" lon="3.20165">
        <ele>423.6</ele>
        <time>2011-09-03T15:33:18Z</time>
      </trkpt>
      <trkpt lat="45.54515" lon="3.20032">
        <ele>427.92</ele>
        <time>2011-09-03T15:33:25Z</time>
      </trkpt>
      <trkpt lat="45.54571" lon="3.19935">
        <ele>427.92</ele>
        <time>2011-09-03T15:33:30Z</time>
      </trkpt>
      <trkpt lat="45.54609" lon="3.19858">
        <ele>428.89</ele>
        <time>2011-09-03T15:33:34Z</time>
      </trkpt>
      <trkpt lat="45.54627" lon="3.19794">
        <ele>426.48</ele>
        <time>2011-09-03T15:33:37Z</time>
      </trkpt>
      <trkpt lat="45.54637" lon="3.19749">
        <ele>429.85</ele>
        <time>2011-09-03T15:33:39Z</time>
      </trkpt>
      <trkpt lat="45.54641" lon="3.19728">
        <ele>429.37</ele>
        <time>2011-09-03T15:33:40Z</time>
      </trkpt>
      <trkpt lat="45.54646" lon="3.19709">
        <ele>429.37</ele>
        <time>2011-09-03T15:33:41Z</time>
      </trkpt>
      <trkpt lat="45.54672" lon="3.19647">
        <ele>430.81</ele>
        <time>2011-09-03T15:33:45Z</time>
      </trkpt>
      <trkpt lat="45.54711" lon="3.19585">
        <ele>434.17</ele>
        <time>2011-09-03T15:33:49Z</time>
      </trkpt>
      <trkpt lat="45.54745" lon="3.19476">
        <ele>437.06</ele>
        <time>2011-09-03T15:33:54Z</time>
      </trkpt>
      <trkpt lat="45.54805" lon="3.19246">
        <ele>436.58</ele>
        <time>2011-09-03T15:34:03Z</time>
      </trkpt>
      <trkpt lat="45.5482" lon="3.19203">
        <ele>434.65</ele>
        <time>2011-09-03T15:34:05Z</time>
      </trkpt>
      <trkpt lat="45.54874" lon="3.19064">
        <ele>435.61</ele>
        <time>2011-09-03T15:34:13Z</time>
      </trkpt>
      <trkpt lat="45.54915" lon="3.18982">
        <ele>439.94</ele>
        <time>2011-09-03T15:34:18Z</time>
      </trkpt>
      <trkpt lat="45.54957" lon="3.18904">
        <ele>443.79</ele>
        <time>2011-09-03T15:34:22Z</time>
      </trkpt>
      <trkpt lat="45.54994" lon="3.18838">
        <ele>448.59</ele>
        <time>2011-09-03T15:34:25Z</time>
      </trkpt>
      <trkpt lat="45.55007" lon="3.18816">
        <ele>448.59</ele>
        <time>2011-09-03T15:34:26Z</time>
      </trkpt>
      <trkpt lat="45.55056" lon="3.18729">
        <ele>448.59</ele>
        <time>2011-09-03T15:34:30Z</time>
      </trkpt>
      <trkpt lat="45.55077" lon="3.18595">
        <ele>450.52</ele>
        <time>2011-09-03T15:34:36Z</time>
      </trkpt>
      <trkpt lat="45.55072" lon="3.18546">
        <ele>451.48</ele>
        <time>2011-09-03T15:34:38Z</time>
      </trkpt>
      <trkpt lat="45.55082" lon="3.18423">
        <ele>454.84</ele>
        <time>2011-09-03T15:34:43Z</time>
      </trkpt>
      <trkpt lat="45.55103" lon="3.18316">
        <ele>458.21</ele>
        <time>2011-09-03T15:34:47Z</time>
      </trkpt>
      <trkpt lat="45.55135" lon="3.18214">
        <ele>461.09</ele>
        <time>2011-09-03T15:34:51Z</time>
      </trkpt>
      <trkpt lat="45.55173" lon="3.18115">
        <ele>463.49</ele>
        <time>2011-09-03T15:34:55Z</time>
      </trkpt>
      <trkpt lat="45.55208" lon="3.18042">
        <ele>466.86</ele>
        <time>2011-09-03T15:34:58Z</time>
      </trkpt>
      <trkpt lat="45.55279" lon="3.17909">
        <ele>467.34</ele>
        <time>2011-09-03T15:35:04Z</time>
      </trkpt>
      <trkpt lat="45.55329" lon="3.17852">
        <ele>468.78</ele>
        <time>2011-09-03T15:35:08Z</time>
      </trkpt>
      <trkpt lat="45.55363" lon="3.17803">
        <ele>469.74</ele>
        <time>2011-09-03T15:35:11Z</time>
      </trkpt>
      <trkpt lat="45.55371" lon="3.17782">
        <ele>471.18</ele>
        <time>2011-09-03T15:35:12Z</time>
      </trkpt>
      <trkpt lat="45.55417" lon="3.17628">
        <ele>473.11</ele>
        <time>2011-09-03T15:35:19Z</time>
      </trkpt>
      <trkpt lat="45.55407" lon="3.17549">
        <ele>475.99</ele>
        <time>2011-09-03T15:35:23Z</time>
      </trkpt>
      <trkpt lat="45.55393" lon="3.1751">
        <ele>477.43</ele>
        <time>2011-09-03T15:35:25Z</time>
      </trkpt>
      <trkpt lat="45.55388" lon="3.17433">
        <ele>477.91</ele>
        <time>2011-09-03T15:35:29Z</time>
      </trkpt>
      <trkpt lat="45.55392" lon="3.17412">
        <ele>478.87</ele>
        <time>2011-09-03T15:35:30Z</time>
      </trkpt>
      <trkpt lat="45.5542" lon="3.17323">
        <ele>482.72</ele>
        <time>2011-09-03T15:35:34Z</time>
      </trkpt>
      <trkpt lat="45.55456" lon="3.17213">
        <ele>484.64</ele>
        <time>2011-09-03T15:35:39Z</time>
      </trkpt>
      <trkpt lat="45.55503" lon="3.17132">
        <ele>490.41</ele>
        <time>2011-09-03T15:35:43Z</time>
      </trkpt>
      <trkpt lat="45.55548" lon="3.17064">
        <ele>492.81</ele>
        <time>2011-09-03T15:35:46Z</time>
      </trkpt>
      <trkpt lat="45.55593" lon="3.16995">
        <ele>495.7</ele>
        <time>2011-09-03T15:35:49Z</time>
      </trkpt>
      <trkpt lat="45.55608" lon="3.16971">
        <ele>496.18</ele>
        <time>2011-09-03T15:35:50Z</time>
      </trkpt>
      <trkpt lat="45.55784" lon="3.16717">
        <ele>499.54</ele>
        <time>2011-09-03T15:36:01Z</time>
      </trkpt>
      <trkpt lat="45.55823" lon="3.1668">
        <ele>500.02</ele>
        <time>2011-09-03T15:36:03Z</time>
      </trkpt>
      <trkpt lat="45.56056" lon="3.16463">
        <ele>503.39</ele>
        <time>2011-09-03T15:36:15Z</time>
      </trkpt>
      <trkpt lat="45.5628" lon="3.16254">
        <ele>507.23</ele>
        <time>2011-09-03T15:36:28Z</time>
      </trkpt>
      <trkpt lat="45.56297" lon="3.16239">
        <ele>507.23</ele>
        <time>2011-09-03T15:36:29Z</time>
      </trkpt>
      <trkpt lat="45.56346" lon="3.16194">
        <ele>508.67</ele>
        <time>2011-09-03T15:36:32Z</time>
      </trkpt>
      <trkpt lat="45.56375" lon="3.16167">
        <ele>505.31</ele>
        <time>2011-09-03T15:36:34Z</time>
      </trkpt>
      <trkpt lat="45.56389" lon="3.16155">
        <ele>505.79</ele>
        <time>2011-09-03T15:36:35Z</time>
      </trkpt>
      <trkpt lat="45.56474" lon="3.16075">
        <ele>509.16</ele>
        <time>2011-09-03T15:36:41Z</time>
      </trkpt>
      <trkpt lat="45.56544" lon="3.16012">
        <ele>512.04</ele>
        <time>2011-09-03T15:36:45Z</time>
      </trkpt>
      <trkpt lat="45.56601" lon="3.15959">
        <ele>515.4</ele>
        <time>2011-09-03T15:36:48Z</time>
      </trkpt>
      <trkpt lat="45.56662" lon="3.15901">
        <ele>517.33</ele>
        <time>2011-09-03T15:36:51Z</time>
      </trkpt>
      <trkpt lat="45.56791" lon="3.15778">
        <ele>520.69</ele>
        <time>2011-09-03T15:36:57Z</time>
      </trkpt>
      <trkpt lat="45.56836" lon="3.15736">
        <ele>521.17</ele>
        <time>2011-09-03T15:36:59Z</time>
      </trkpt>
      <trkpt lat="45.56903" lon="3.15675">
        <ele>523.09</ele>
        <time>2011-09-03T15:37:02Z</time>
      </trkpt>
      <trkpt lat="45.57079" lon="3.1551">
        <ele>526.46</ele>
        <time>2011-09-03T15:37:10Z</time>
      </trkpt>
      <trkpt lat="45.57425" lon="3.15187">
        <ele>527.42</ele>
        <time>2011-09-03T15:37:26Z</time>
      </trkpt>
      <trkpt lat="45.57583" lon="3.15043">
        <ele>524.54</ele>
        <time>2011-09-03T15:37:34Z</time>
      </trkpt>
      <trkpt lat="45.57601" lon="3.15026">
        <ele>524.54</ele>
        <time>2011-09-03T15:37:35Z</time>
      </trkpt>
      <trkpt lat="45.57638" lon="3.14992">
        <ele>527.42</ele>
        <time>2011-09-03T15:37:37Z</time>
      </trkpt>
      <trkpt lat="45.57677" lon="3.14956">
        <ele>527.9</ele>
        <time>2011-09-03T15:37:39Z</time>
      </trkpt>
      <trkpt lat="45.57716" lon="3.14921">
        <ele>527.9</ele>
        <time>2011-09-03T15:37:41Z</time>
      </trkpt>
      <trkpt lat="45.57826" lon="3.14899">
        <ele>526.46</ele>
        <time>2011-09-03T15:37:46Z</time>
      </trkpt>
      <trkpt lat="45.57875" lon="3.14918">
        <ele>527.42</ele>
        <time>2011-09-03T15:37:48Z</time>
      </trkpt>
      <trkpt lat="45.57949" lon="3.14949">
        <ele>525.5</ele>
        <time>2011-09-03T15:37:51Z</time>
      </trkpt>
      <trkpt lat="45.57972" lon="3.14959">
        <ele>522.61</ele>
        <time>2011-09-03T15:37:52Z</time>
      </trkpt>
      <trkpt lat="45.58018" lon="3.14975">
        <ele>520.21</ele>
        <time>2011-09-03T15:37:54Z</time>
      </trkpt>
      <trkpt lat="45.5811" lon="3.14954">
        <ele>516.85</ele>
        <time>2011-09-03T15:37:58Z</time>
      </trkpt>
      <trkpt lat="45.58131" lon="3.14934">
        <ele>517.33</ele>
        <time>2011-09-03T15:37:59Z</time>
      </trkpt>
      <trkpt lat="45.58177" lon="3.14813">
        <ele>513</ele>
        <time>2011-09-03T15:38:03Z</time>
      </trkpt>
      <trkpt lat="45.58176" lon="3.14741">
        <ele>511.56</ele>
        <time>2011-09-03T15:38:05Z</time>
      </trkpt>
      <trkpt lat="45.58158" lon="3.146">
        <ele>507.23</ele>
        <time>2011-09-03T15:38:09Z</time>
      </trkpt>
      <trkpt lat="45.58151" lon="3.14538">
        <ele>501.95</ele>
        <time>2011-09-03T15:38:11Z</time>
      </trkpt>
      <trkpt lat="45.58181" lon="3.14427">
        <ele>497.14</ele>
        <time>2011-09-03T15:38:16Z</time>
      </trkpt>
      <trkpt lat="45.58223" lon="3.14423">
        <ele>497.14</ele>
        <time>2011-09-03T15:38:19Z</time>
      </trkpt>
      <trkpt lat="45.58241" lon="3.14435">
        <ele>498.58</ele>
        <time>2011-09-03T15:38:20Z</time>
      </trkpt>
      <trkpt lat="45.58327" lon="3.14472">
        <ele>497.14</ele>
        <time>2011-09-03T15:38:24Z</time>
      </trkpt>
      <trkpt lat="45.58418" lon="3.14416">
        <ele>492.33</ele>
        <time>2011-09-03T15:38:28Z</time>
      </trkpt>
      <trkpt lat="45.58441" lon="3.1436">
        <ele>490.41</ele>
        <time>2011-09-03T15:38:30Z</time>
      </trkpt>
      <trkpt lat="45.58445" lon="3.14262">
        <ele>488.01</ele>
        <time>2011-09-03T15:38:33Z</time>
      </trkpt>
      <trkpt lat="45.58393" lon="3.14104">
        <ele>483.68</ele>
        <time>2011-09-03T15:38:39Z</time>
      </trkpt>
      <trkpt lat="45.5838" lon="3.14056">
        <ele>482.72</ele>
        <time>2011-09-03T15:38:41Z</time>
      </trkpt>
      <trkpt lat="45.58403" lon="3.13964">
        <ele>481.28</ele>
        <time>2011-09-03T15:38:45Z</time>
      </trkpt>
      <trkpt lat="45.58455" lon="3.13955">
        <ele>482.24</ele>
        <time>2011-09-03T15:38:48Z</time>
      </trkpt>
      <trkpt lat="45.58544" lon="3.13934">
        <ele>481.28</ele>
        <time>2011-09-03T15:38:52Z</time>
      </trkpt>
      <trkpt lat="45.58563" lon="3.13915">
        <ele>480.32</ele>
        <time>2011-09-03T15:38:53Z</time>
      </trkpt>
      <trkpt lat="45.58658" lon="3.13866">
        <ele>474.55</ele>
        <time>2011-09-03T15:38:58Z</time>
      </trkpt>
      <trkpt lat="45.58722" lon="3.13873">
        <ele>471.66</ele>
        <time>2011-09-03T15:39:01Z</time>
      </trkpt>
      <trkpt lat="45.58793" lon="3.13832">
        <ele>468.78</ele>
        <time>2011-09-03T15:39:05Z</time>
      </trkpt>
      <trkpt lat="45.58864" lon="3.13719">
        <ele>465.9</ele>
        <time>2011-09-03T15:39:10Z</time>
      </trkpt>
      <trkpt lat="45.58886" lon="3.13649">
        <ele>461.09</ele>
        <time>2011-09-03T15:39:13Z</time>
      </trkpt>
      <trkpt lat="45.58882" lon="3.13601">
        <ele>459.65</ele>
        <time>2011-09-03T15:39:15Z</time>
      </trkpt>
      <trkpt lat="45.58877" lon="3.13578">
        <ele>458.69</ele>
        <time>2011-09-03T15:39:16Z</time>
      </trkpt>
      <trkpt lat="45.58862" lon="3.13493">
        <ele>455.32</ele>
        <time>2011-09-03T15:39:20Z</time>
      </trkpt>
      <trkpt lat="45.58864" lon="3.13474">
        <ele>455.32</ele>
        <time>2011-09-03T15:39:21Z</time>
      </trkpt>
      <trkpt lat="45.58867" lon="3.13408">
        <ele>450.52</ele>
        <time>2011-09-03T15:39:26Z</time>
      </trkpt>
      <trkpt lat="45.58869" lon="3.13388">
        <ele>449.07</ele>
        <time>2011-09-03T15:39:34Z</time>
      </trkpt>
      <trkpt lat="45.58869" lon="3.13388">
        <ele>449.07</ele>
        <time>2011-09-03T15:39:44Z</time>
      </trkpt>
      <trkpt lat="45.58863" lon="3.13364">
        <ele>450.52</ele>
        <time>2011-09-03T15:39:47Z</time>
      </trkpt>
      <trkpt lat="45.58856" lon="3.13279">
        <ele>453.88</ele>
        <time>2011-09-03T15:39:52Z</time>
      </trkpt>
      <trkpt lat="45.58877" lon="3.1322">
        <ele>454.36</ele>
        <time>2011-09-03T15:39:55Z</time>
      </trkpt>
      <trkpt lat="45.58933" lon="3.13101">
        <ele>453.88</ele>
        <time>2011-09-03T15:40:02Z</time>
      </trkpt>
      <trkpt lat="45.58929" lon="3.13007">
        <ele>453.88</ele>
        <time>2011-09-03T15:40:08Z</time>
      </trkpt>
      <trkpt lat="45.5889" lon="3.12959">
        <ele>453.4</ele>
        <time>2011-09-03T15:40:13Z</time>
      </trkpt>
      <trkpt lat="45.58873" lon="3.12952">
        <ele>453.88</ele>
        <time>2011-09-03T15:40:15Z</time>
      </trkpt>
      <trkpt lat="45.58798" lon="3.12913">
        <ele>453.88</ele>
        <time>2011-09-03T15:40:25Z</time>
      </trkpt>
      <trkpt lat="45.58786" lon="3.12906">
        <ele>452.92</ele>
        <time>2011-09-03T15:40:27Z</time>
      </trkpt>
      <trkpt lat="45.58771" lon="3.12891">
        <ele>452.92</ele>
        <time>2011-09-03T15:40:30Z</time>
      </trkpt>
      <trkpt lat="45.58771" lon="3.12822">
        <ele>453.88</ele>
        <time>2011-09-03T15:40:37Z</time>
      </trkpt>
      <trkpt lat="45.58781" lon="3.12801">
        <ele>454.36</ele>
        <time>2011-09-03T15:40:39Z</time>
      </trkpt>
      <trkpt lat="45.58801" lon="3.12778">
        <ele>455.32</ele>
        <time>2011-09-03T15:40:42Z</time>
      </trkpt>
      <trkpt lat="45.58852" lon="3.12723">
        <ele>456.76</ele>
        <time>2011-09-03T15:40:49Z</time>
      </trkpt>
      <trkpt lat="45.58908" lon="3.12615">
        <ele>457.72</ele>
        <time>2011-09-03T15:40:58Z</time>
      </trkpt>
      <trkpt lat="45.58913" lon="3.12604">
        <ele>458.69</ele>
        <time>2011-09-03T15:40:59Z</time>
      </trkpt>
      <trkpt lat="45.58935" lon="3.12428">
        <ele>460.61</ele>
        <time>2011-09-03T15:41:11Z</time>
      </trkpt>
      <trkpt lat="45.58928" lon="3.12246">
        <ele>462.53</ele>
        <time>2011-09-03T15:41:21Z</time>
      </trkpt>
      <trkpt lat="45.58915" lon="3.1205">
        <ele>464.45</ele>
        <time>2011-09-03T15:41:32Z</time>
      </trkpt>
      <trkpt lat="45.58902" lon="3.11905">
        <ele>466.38</ele>
        <time>2011-09-03T15:41:40Z</time>
      </trkpt>
      <trkpt lat="45.5888" lon="3.11667">
        <ele>466.38</ele>
        <time>2011-09-03T15:41:52Z</time>
      </trkpt>
      <trkpt lat="45.58861" lon="3.11467">
        <ele>468.3</ele>
        <time>2011-09-03T15:42:02Z</time>
      </trkpt>
      <trkpt lat="45.58842" lon="3.11213">
        <ele>470.7</ele>
        <time>2011-09-03T15:42:14Z</time>
      </trkpt>
      <trkpt lat="45.58853" lon="3.11031">
        <ele>474.07</ele>
        <time>2011-09-03T15:42:22Z</time>
      </trkpt>
      <trkpt lat="45.58846" lon="3.10935">
        <ele>475.99</ele>
        <time>2011-09-03T15:42:26Z</time>
      </trkpt>
      <trkpt lat="45.58831" lon="3.10847">
        <ele>481.28</ele>
        <time>2011-09-03T15:42:29Z</time>
      </trkpt>
      <trkpt lat="45.58815" lon="3.10744">
        <ele>484.64</ele>
        <time>2011-09-03T15:42:32Z</time>
      </trkpt>
      <trkpt lat="45.58765" lon="3.10467">
        <ele>483.68</ele>
        <time>2011-09-03T15:42:40Z</time>
      </trkpt>
      <trkpt lat="45.58758" lon="3.10398">
        <ele>487.05</ele>
        <time>2011-09-03T15:42:42Z</time>
      </trkpt>
      <trkpt lat="45.58758" lon="3.10321">
        <ele>490.41</ele>
        <time>2011-09-03T15:42:44Z</time>
      </trkpt>
      <trkpt lat="45.58759" lon="3.10282">
        <ele>492.81</ele>
        <time>2011-09-03T15:42:45Z</time>
      </trkpt>
      <trkpt lat="45.58737" lon="3.10137">
        <ele>492.33</ele>
        <time>2011-09-03T15:42:49Z</time>
      </trkpt>
      <trkpt lat="45.58685" lon="3.10002">
        <ele>487.05</ele>
        <time>2011-09-03T15:42:54Z</time>
      </trkpt>
      <trkpt lat="45.58675" lon="3.09978">
        <ele>487.53</ele>
        <time>2011-09-03T15:42:55Z</time>
      </trkpt>
      <trkpt lat="45.58667" lon="3.09954">
        <ele>487.53</ele>
        <time>2011-09-03T15:42:56Z</time>
      </trkpt>
      <trkpt lat="45.58658" lon="3.09848">
        <ele>489.45</ele>
        <time>2011-09-03T15:43:00Z</time>
      </trkpt>
      <trkpt lat="45.58671" lon="3.09698">
        <ele>488.97</ele>
        <time>2011-09-03T15:43:06Z</time>
      </trkpt>
      <trkpt lat="45.58681" lon="3.09566">
        <ele>488.49</ele>
        <time>2011-09-03T15:43:14Z</time>
      </trkpt>
      <trkpt lat="45.58672" lon="3.09449">
        <ele>491.37</ele>
        <time>2011-09-03T15:43:22Z</time>
      </trkpt>
      <trkpt lat="45.58642" lon="3.09312">
        <ele>492.33</ele>
        <time>2011-09-03T15:43:31Z</time>
      </trkpt>
      <trkpt lat="45.58587" lon="3.09217">
        <ele>489.93</ele>
        <time>2011-09-03T15:43:39Z</time>
      </trkpt>
      <trkpt lat="45.58513" lon="3.09109">
        <ele>489.45</ele>
        <time>2011-09-03T15:43:51Z</time>
      </trkpt>
      <trkpt lat="45.58495" lon="3.09087">
        <ele>489.45</ele>
        <time>2011-09-03T15:43:54Z</time>
      </trkpt>
      <trkpt lat="45.58463" lon="3.09018">
        <ele>490.89</ele>
        <time>2011-09-03T15:43:59Z</time>
      </trkpt>
      <trkpt lat="45.58397" lon="3.08866">
        <ele>490.89</ele>
        <time>2011-09-03T15:44:08Z</time>
      </trkpt>
      <trkpt lat="45.58385" lon="3.08832">
        <ele>491.37</ele>
        <time>2011-09-03T15:44:10Z</time>
      </trkpt>
      <trkpt lat="45.58344" lon="3.08692">
        <ele>494.26</ele>
        <time>2011-09-03T15:44:18Z</time>
      </trkpt>
      <trkpt lat="45.58303" lon="3.08618">
        <ele>494.74</ele>
        <time>2011-09-03T15:44:23Z</time>
      </trkpt>
      <trkpt lat="45.5828" lon="3.08591">
        <ele>495.22</ele>
        <time>2011-09-03T15:44:25Z</time>
      </trkpt>
      <trkpt lat="45.58173" lon="3.0846">
        <ele>497.14</ele>
        <time>2011-09-03T15:44:34Z</time>
      </trkpt>
      <trkpt lat="45.58135" lon="3.08412">
        <ele>499.06</ele>
        <time>2011-09-03T15:44:37Z</time>
      </trkpt>
      <trkpt lat="45.58036" lon="3.08309">
        <ele>502.91</ele>
        <time>2011-09-03T15:44:44Z</time>
      </trkpt>
      <trkpt lat="45.58005" lon="3.08271">
        <ele>504.83</ele>
        <time>2011-09-03T15:44:46Z</time>
      </trkpt>
      <trkpt lat="45.57961" lon="3.08178">
        <ele>507.71</ele>
        <time>2011-09-03T15:44:50Z</time>
      </trkpt>
      <trkpt lat="45.57946" lon="3.08124">
        <ele>508.19</ele>
        <time>2011-09-03T15:44:52Z</time>
      </trkpt>
      <trkpt lat="45.57934" lon="3.08071">
        <ele>507.23</ele>
        <time>2011-09-03T15:44:54Z</time>
      </trkpt>
      <trkpt lat="45.5794" lon="3.07914">
        <ele>507.71</ele>
        <time>2011-09-03T15:45:00Z</time>
      </trkpt>
      <trkpt lat="45.57953" lon="3.07871">
        <ele>508.19</ele>
        <time>2011-09-03T15:45:02Z</time>
      </trkpt>
      <trkpt lat="45.57961" lon="3.07753">
        <ele>511.08</ele>
        <time>2011-09-03T15:45:07Z</time>
      </trkpt>
      <trkpt lat="45.57941" lon="3.07667">
        <ele>511.56</ele>
        <time>2011-09-03T15:45:10Z</time>
      </trkpt>
      <trkpt lat="45.57933" lon="3.07572">
        <ele>518.77</ele>
        <time>2011-09-03T15:45:13Z</time>
      </trkpt>
      <trkpt lat="45.5793" lon="3.07461">
        <ele>520.69</ele>
        <time>2011-09-03T15:45:16Z</time>
      </trkpt>
      <trkpt lat="45.57917" lon="3.07361">
        <ele>519.73</ele>
        <time>2011-09-03T15:45:19Z</time>
      </trkpt>
      <trkpt lat="45.57891" lon="3.07292">
        <ele>517.33</ele>
        <time>2011-09-03T15:45:22Z</time>
      </trkpt>
      <trkpt lat="45.57843" lon="3.07277">
        <ele>520.21</ele>
        <time>2011-09-03T15:45:25Z</time>
      </trkpt>
      <trkpt lat="45.57807" lon="3.07281">
        <ele>522.13</ele>
        <time>2011-09-03T15:45:27Z</time>
      </trkpt>
      <trkpt lat="45.57738" lon="3.07235">
        <ele>523.58</ele>
        <time>2011-09-03T15:45:31Z</time>
      </trkpt>
      <trkpt lat="45.57726" lon="3.07157">
        <ele>528.38</ele>
        <time>2011-09-03T15:45:34Z</time>
      </trkpt>
      <trkpt lat="45.57728" lon="3.07096">
        <ele>529.82</ele>
        <time>2011-09-03T15:45:36Z</time>
      </trkpt>
      <trkpt lat="45.57732" lon="3.06996">
        <ele>536.07</ele>
        <time>2011-09-03T15:45:39Z</time>
      </trkpt>
      <trkpt lat="45.57733" lon="3.06963">
        <ele>534.15</ele>
        <time>2011-09-03T15:45:40Z</time>
      </trkpt>
      <trkpt lat="45.57734" lon="3.06931">
        <ele>535.11</ele>
        <time>2011-09-03T15:45:41Z</time>
      </trkpt>
      <trkpt lat="45.57728" lon="3.06868">
        <ele>537.03</ele>
        <time>2011-09-03T15:45:43Z</time>
      </trkpt>
      <trkpt lat="45.57687" lon="3.06764">
        <ele>536.55</ele>
        <time>2011-09-03T15:45:47Z</time>
      </trkpt>
      <trkpt lat="45.57649" lon="3.06736">
        <ele>537.51</ele>
        <time>2011-09-03T15:45:49Z</time>
      </trkpt>
      <trkpt lat="45.57582" lon="3.067">
        <ele>539.92</ele>
        <time>2011-09-03T15:45:52Z</time>
      </trkpt>
      <trkpt lat="45.57522" lon="3.06635">
        <ele>539.44</ele>
        <time>2011-09-03T15:45:55Z</time>
      </trkpt>
      <trkpt lat="45.57506" lon="3.06605">
        <ele>542.32</ele>
        <time>2011-09-03T15:45:56Z</time>
      </trkpt>
      <trkpt lat="45.57453" lon="3.06492">
        <ele>543.76</ele>
        <time>2011-09-03T15:46:00Z</time>
      </trkpt>
      <trkpt lat="45.57396" lon="3.06344">
        <ele>547.61</ele>
        <time>2011-09-03T15:46:05Z</time>
      </trkpt>
      <trkpt lat="45.57393" lon="3.06308">
        <ele>548.57</ele>
        <time>2011-09-03T15:46:06Z</time>
      </trkpt>
      <trkpt lat="45.57381" lon="3.06164">
        <ele>550.49</ele>
        <time>2011-09-03T15:46:10Z</time>
      </trkpt>
      <trkpt lat="45.57354" lon="3.06072">
        <ele>552.41</ele>
        <time>2011-09-03T15:46:13Z</time>
      </trkpt>
      <trkpt lat="45.57331" lon="3.06016">
        <ele>551.93</ele>
        <time>2011-09-03T15:46:15Z</time>
      </trkpt>
      <trkpt lat="45.57269" lon="3.05952">
        <ele>549.53</ele>
        <time>2011-09-03T15:46:19Z</time>
      </trkpt>
      <trkpt lat="45.57217" lon="3.05934">
        <ele>545.69</ele>
        <time>2011-09-03T15:46:23Z</time>
      </trkpt>
      <trkpt lat="45.57189" lon="3.05886">
        <ele>544.72</ele>
        <time>2011-09-03T15:46:28Z</time>
      </trkpt>
      <trkpt lat="45.57184" lon="3.05804">
        <ele>544.24</ele>
        <time>2011-09-03T15:46:33Z</time>
      </trkpt>
      <trkpt lat="45.57194" lon="3.05709">
        <ele>545.2</ele>
        <time>2011-09-03T15:46:39Z</time>
      </trkpt>
      <trkpt lat="45.57191" lon="3.05673">
        <ele>549.05</ele>
        <time>2011-09-03T15:46:41Z</time>
      </trkpt>
      <trkpt lat="45.57187" lon="3.05652">
        <ele>549.53</ele>
        <time>2011-09-03T15:46:42Z</time>
      </trkpt>
      <trkpt lat="45.57182" lon="3.0563">
        <ele>551.93</ele>
        <time>2011-09-03T15:46:43Z</time>
      </trkpt>
      <trkpt lat="45.57158" lon="3.05556">
        <ele>553.86</ele>
        <time>2011-09-03T15:46:46Z</time>
      </trkpt>
      <trkpt lat="45.5714" lon="3.05498">
        <ele>557.7</ele>
        <time>2011-09-03T15:46:48Z</time>
      </trkpt>
      <trkpt lat="45.5713" lon="3.0547">
        <ele>557.7</ele>
        <time>2011-09-03T15:46:49Z</time>
      </trkpt>
      <trkpt lat="45.5712" lon="3.05441">
        <ele>559.14</ele>
        <time>2011-09-03T15:46:50Z</time>
      </trkpt>
      <trkpt lat="45.57106" lon="3.05317">
        <ele>562.51</ele>
        <time>2011-09-03T15:46:54Z</time>
      </trkpt>
      <trkpt lat="45.5713" lon="3.05178">
        <ele>569.24</ele>
        <time>2011-09-03T15:46:58Z</time>
      </trkpt>
      <trkpt lat="45.57138" lon="3.05144">
        <ele>568.28</ele>
        <time>2011-09-03T15:46:59Z</time>
      </trkpt>
      <trkpt lat="45.57155" lon="3.05083">
        <ele>566.35</ele>
        <time>2011-09-03T15:47:01Z</time>
      </trkpt>
      <trkpt lat="45.5721" lon="3.04997">
        <ele>570.68</ele>
        <time>2011-09-03T15:47:05Z</time>
      </trkpt>
      <trkpt lat="45.57253" lon="3.04968">
        <ele>570.68</ele>
        <time>2011-09-03T15:47:07Z</time>
      </trkpt>
      <trkpt lat="45.57323" lon="3.04835">
        <ele>571.64</ele>
        <time>2011-09-03T15:47:12Z</time>
      </trkpt>
      <trkpt lat="45.57339" lon="3.04737">
        <ele>571.64</ele>
        <time>2011-09-03T15:47:15Z</time>
      </trkpt>
      <trkpt lat="45.5735" lon="3.04708">
        <ele>571.64</ele>
        <time>2011-09-03T15:47:16Z</time>
      </trkpt>
      <trkpt lat="45.57365" lon="3.0468">
        <ele>572.6</ele>
        <time>2011-09-03T15:47:17Z</time>
      </trkpt>
      <trkpt lat="45.57398" lon="3.04626">
        <ele>575.97</ele>
        <time>2011-09-03T15:47:19Z</time>
      </trkpt>
      <trkpt lat="45.57411" lon="3.04595">
        <ele>575.49</ele>
        <time>2011-09-03T15:47:20Z</time>
      </trkpt>
      <trkpt lat="45.5742" lon="3.04561">
        <ele>576.45</ele>
        <time>2011-09-03T15:47:21Z</time>
      </trkpt>
      <trkpt lat="45.5744" lon="3.04425">
        <ele>575.01</ele>
        <time>2011-09-03T15:47:25Z</time>
      </trkpt>
      <trkpt lat="45.57439" lon="3.04392">
        <ele>573.08</ele>
        <time>2011-09-03T15:47:26Z</time>
      </trkpt>
      <trkpt lat="45.57435" lon="3.04361">
        <ele>574.04</ele>
        <time>2011-09-03T15:47:27Z</time>
      </trkpt>
      <trkpt lat="45.57428" lon="3.04332">
        <ele>575.01</ele>
        <time>2011-09-03T15:47:28Z</time>
      </trkpt>
      <trkpt lat="45.57418" lon="3.04308">
        <ele>575.49</ele>
        <time>2011-09-03T15:47:29Z</time>
      </trkpt>
      <trkpt lat="45.57405" lon="3.04288">
        <ele>576.93</ele>
        <time>2011-09-03T15:47:30Z</time>
      </trkpt>
      <trkpt lat="45.57392" lon="3.0427">
        <ele>577.41</ele>
        <time>2011-09-03T15:47:31Z</time>
      </trkpt>
      <trkpt lat="45.57381" lon="3.04251">
        <ele>579.33</ele>
        <time>2011-09-03T15:47:32Z</time>
      </trkpt>
      <trkpt lat="45.57372" lon="3.0423">
        <ele>577.89</ele>
        <time>2011-09-03T15:47:33Z</time>
      </trkpt>
      <trkpt lat="45.57367" lon="3.04208">
        <ele>578.37</ele>
        <time>2011-09-03T15:47:34Z</time>
      </trkpt>
      <trkpt lat="45.57367" lon="3.04184">
        <ele>581.73</ele>
        <time>2011-09-03T15:47:35Z</time>
      </trkpt>
      <trkpt lat="45.57371" lon="3.0416">
        <ele>582.22</ele>
        <time>2011-09-03T15:47:36Z</time>
      </trkpt>
      <trkpt lat="45.57378" lon="3.04137">
        <ele>585.58</ele>
        <time>2011-09-03T15:47:37Z</time>
      </trkpt>
      <trkpt lat="45.57388" lon="3.04114">
        <ele>587.5</ele>
        <time>2011-09-03T15:47:38Z</time>
      </trkpt>
      <trkpt lat="45.57397" lon="3.04087">
        <ele>588.46</ele>
        <time>2011-09-03T15:47:39Z</time>
      </trkpt>
      <trkpt lat="45.57402" lon="3.03993">
        <ele>592.79</ele>
        <time>2011-09-03T15:47:42Z</time>
      </trkpt>
      <trkpt lat="45.57399" lon="3.03931">
        <ele>592.79</ele>
        <time>2011-09-03T15:47:44Z</time>
      </trkpt>
      <trkpt lat="45.57365" lon="3.03836">
        <ele>597.12</ele>
        <time>2011-09-03T15:47:48Z</time>
      </trkpt>
      <trkpt lat="45.57334" lon="3.03786">
        <ele>599.52</ele>
        <time>2011-09-03T15:47:51Z</time>
      </trkpt>
      <trkpt lat="45.57326" lon="3.03767">
        <ele>599.04</ele>
        <time>2011-09-03T15:47:52Z</time>
      </trkpt>
      <trkpt lat="45.57309" lon="3.03709">
        <ele>600.48</ele>
        <time>2011-09-03T15:47:55Z</time>
      </trkpt>
      <trkpt lat="45.57302" lon="3.03668">
        <ele>601.92</ele>
        <time>2011-09-03T15:47:57Z</time>
      </trkpt>
      <trkpt lat="45.57301" lon="3.03646">
        <ele>602.4</ele>
        <time>2011-09-03T15:47:58Z</time>
      </trkpt>
      <trkpt lat="45.57302" lon="3.03621">
        <ele>603.36</ele>
        <time>2011-09-03T15:47:59Z</time>
      </trkpt>
      <trkpt lat="45.57306" lon="3.03594">
        <ele>606.73</ele>
        <time>2011-09-03T15:48:00Z</time>
      </trkpt>
      <trkpt lat="45.57311" lon="3.03568">
        <ele>607.21</ele>
        <time>2011-09-03T15:48:01Z</time>
      </trkpt>
      <trkpt lat="45.57319" lon="3.0354">
        <ele>609.13</ele>
        <time>2011-09-03T15:48:02Z</time>
      </trkpt>
      <trkpt lat="45.57336" lon="3.0348">
        <ele>612.98</ele>
        <time>2011-09-03T15:48:04Z</time>
      </trkpt>
      <trkpt lat="45.57343" lon="3.03447">
        <ele>614.42</ele>
        <time>2011-09-03T15:48:05Z</time>
      </trkpt>
      <trkpt lat="45.57347" lon="3.03413">
        <ele>613.94</ele>
        <time>2011-09-03T15:48:06Z</time>
      </trkpt>
      <trkpt lat="45.57351" lon="3.03378">
        <ele>615.38</ele>
        <time>2011-09-03T15:48:07Z</time>
      </trkpt>
      <trkpt lat="45.57353" lon="3.03341">
        <ele>618.26</ele>
        <time>2011-09-03T15:48:08Z</time>
      </trkpt>
      <trkpt lat="45.57358" lon="3.03266">
        <ele>619.23</ele>
        <time>2011-09-03T15:48:10Z</time>
      </trkpt>
      <trkpt lat="45.57375" lon="3.02993">
        <ele>621.15</ele>
        <time>2011-09-03T15:48:17Z</time>
      </trkpt>
      <trkpt lat="45.57382" lon="3.02881">
        <ele>618.75</ele>
        <time>2011-09-03T15:48:20Z</time>
      </trkpt>
      <trkpt lat="45.5739" lon="3.02773">
        <ele>621.15</ele>
        <time>2011-09-03T15:48:23Z</time>
      </trkpt>
      <trkpt lat="45.57436" lon="3.02635">
        <ele>620.19</ele>
        <time>2011-09-03T15:48:28Z</time>
      </trkpt>
      <trkpt lat="45.57463" lon="3.02548">
        <ele>627.88</ele>
        <time>2011-09-03T15:48:31Z</time>
      </trkpt>
      <trkpt lat="45.5747" lon="3.02477">
        <ele>630.28</ele>
        <time>2011-09-03T15:48:33Z</time>
      </trkpt>
      <trkpt lat="45.57471" lon="3.02339">
        <ele>632.2</ele>
        <time>2011-09-03T15:48:37Z</time>
      </trkpt>
      <trkpt lat="45.57453" lon="3.02115">
        <ele>627.4</ele>
        <time>2011-09-03T15:48:44Z</time>
      </trkpt>
      <trkpt lat="45.57452" lon="3.02087">
        <ele>624.03</ele>
        <time>2011-09-03T15:48:45Z</time>
      </trkpt>
      <trkpt lat="45.57448" lon="3.02014">
        <ele>618.75</ele>
        <time>2011-09-03T15:48:48Z</time>
      </trkpt>
      <trkpt lat="45.57444" lon="3.01973">
        <ele>616.34</ele>
        <time>2011-09-03T15:48:50Z</time>
      </trkpt>
      <trkpt lat="45.57417" lon="3.01886">
        <ele>616.34</ele>
        <time>2011-09-03T15:48:55Z</time>
      </trkpt>
      <trkpt lat="45.57337" lon="3.01735">
        <ele>619.71</ele>
        <time>2011-09-03T15:49:06Z</time>
      </trkpt>
      <trkpt lat="45.57329" lon="3.01698">
        <ele>624.03</ele>
        <time>2011-09-03T15:49:08Z</time>
      </trkpt>
      <trkpt lat="45.57321" lon="3.01655">
        <ele>627.4</ele>
        <time>2011-09-03T15:49:10Z</time>
      </trkpt>
      <trkpt lat="45.57318" lon="3.01633">
        <ele>626.92</ele>
        <time>2011-09-03T15:49:11Z</time>
      </trkpt>
      <trkpt lat="45.573" lon="3.01522">
        <ele>624.99</ele>
        <time>2011-09-03T15:49:17Z</time>
      </trkpt>
      <trkpt lat="45.57296" lon="3.01434">
        <ele>624.51</ele>
        <time>2011-09-03T15:49:22Z</time>
      </trkpt>
      <trkpt lat="45.57304" lon="3.01333">
        <ele>627.88</ele>
        <time>2011-09-03T15:49:27Z</time>
      </trkpt>
      <trkpt lat="45.57309" lon="3.0129">
        <ele>628.84</ele>
        <time>2011-09-03T15:49:29Z</time>
      </trkpt>
      <trkpt lat="45.57351" lon="3.01186">
        <ele>632.2</ele>
        <time>2011-09-03T15:49:34Z</time>
      </trkpt>
      <trkpt lat="45.57367" lon="3.01166">
        <ele>633.65</ele>
        <time>2011-09-03T15:49:35Z</time>
      </trkpt>
      <trkpt lat="45.57422" lon="3.01105">
        <ele>639.41</ele>
        <time>2011-09-03T15:49:38Z</time>
      </trkpt>
      <trkpt lat="45.5744" lon="3.01083">
        <ele>639.89</ele>
        <time>2011-09-03T15:49:39Z</time>
      </trkpt>
      <trkpt lat="45.575" lon="3.00961">
        <ele>647.1</ele>
        <time>2011-09-03T15:49:43Z</time>
      </trkpt>
      <trkpt lat="45.57526" lon="3.0089">
        <ele>649.99</ele>
        <time>2011-09-03T15:49:45Z</time>
      </trkpt>
      <trkpt lat="45.57559" lon="3.00664">
        <ele>650.95</ele>
        <time>2011-09-03T15:49:51Z</time>
      </trkpt>
      <trkpt lat="45.57594" lon="3.00392">
        <ele>650.47</ele>
        <time>2011-09-03T15:49:59Z</time>
      </trkpt>
      <trkpt lat="45.57602" lon="3.00343">
        <ele>648.07</ele>
        <time>2011-09-03T15:50:01Z</time>
      </trkpt>
      <trkpt lat="45.57614" lon="3.00277">
        <ele>649.51</ele>
        <time>2011-09-03T15:50:04Z</time>
      </trkpt>
      <trkpt lat="45.57633" lon="3.00195">
        <ele>649.51</ele>
        <time>2011-09-03T15:50:08Z</time>
      </trkpt>
      <trkpt lat="45.57641" lon="3.00179">
        <ele>649.51</ele>
        <time>2011-09-03T15:50:09Z</time>
      </trkpt>
      <trkpt lat="45.57652" lon="3.00166">
        <ele>650.47</ele>
        <time>2011-09-03T15:50:10Z</time>
      </trkpt>
      <trkpt lat="45.57676" lon="3.00144">
        <ele>650.95</ele>
        <time>2011-09-03T15:50:12Z</time>
      </trkpt>
      <trkpt lat="45.57712" lon="3.0011">
        <ele>650.95</ele>
        <time>2011-09-03T15:50:15Z</time>
      </trkpt>
      <trkpt lat="45.57723" lon="3.00096">
        <ele>652.39</ele>
        <time>2011-09-03T15:50:16Z</time>
      </trkpt>
      <trkpt lat="45.57732" lon="3.00079">
        <ele>651.43</ele>
        <time>2011-09-03T15:50:17Z</time>
      </trkpt>
      <trkpt lat="45.57792" lon="2.99954">
        <ele>651.43</ele>
        <time>2011-09-03T15:50:24Z</time>
      </trkpt>
      <trkpt lat="45.57803" lon="2.99941">
        <ele>651.43</ele>
        <time>2011-09-03T15:50:25Z</time>
      </trkpt>
      <trkpt lat="45.57816" lon="2.99929">
        <ele>651.43</ele>
        <time>2011-09-03T15:50:26Z</time>
      </trkpt>
      <trkpt lat="45.57829" lon="2.99919">
        <ele>652.39</ele>
        <time>2011-09-03T15:50:27Z</time>
      </trkpt>
      <trkpt lat="45.57842" lon="2.9991">
        <ele>651.91</ele>
        <time>2011-09-03T15:50:28Z</time>
      </trkpt>
      <trkpt lat="45.57855" lon="2.99898">
        <ele>653.35</ele>
        <time>2011-09-03T15:50:29Z</time>
      </trkpt>
      <trkpt lat="45.57866" lon="2.99884">
        <ele>653.35</ele>
        <time>2011-09-03T15:50:30Z</time>
      </trkpt>
      <trkpt lat="45.57875" lon="2.99867">
        <ele>653.83</ele>
        <time>2011-09-03T15:50:31Z</time>
      </trkpt>
      <trkpt lat="45.57881" lon="2.9985">
        <ele>654.31</ele>
        <time>2011-09-03T15:50:32Z</time>
      </trkpt>
      <trkpt lat="45.57887" lon="2.99832">
        <ele>654.31</ele>
        <time>2011-09-03T15:50:33Z</time>
      </trkpt>
      <trkpt lat="45.57915" lon="2.99705">
        <ele>654.8</ele>
        <time>2011-09-03T15:50:41Z</time>
      </trkpt>
      <trkpt lat="45.57921" lon="2.99675">
        <ele>655.28</ele>
        <time>2011-09-03T15:50:43Z</time>
      </trkpt>
      <trkpt lat="45.57925" lon="2.9961">
        <ele>656.24</ele>
        <time>2011-09-03T15:50:47Z</time>
      </trkpt>
      <trkpt lat="45.57923" lon="2.99531">
        <ele>659.12</ele>
        <time>2011-09-03T15:50:52Z</time>
      </trkpt>
      <trkpt lat="45.57925" lon="2.99496">
        <ele>660.08</ele>
        <time>2011-09-03T15:50:54Z</time>
      </trkpt>
      <trkpt lat="45.57966" lon="2.99414">
        <ele>662.49</ele>
        <time>2011-09-03T15:51:00Z</time>
      </trkpt>
      <trkpt lat="45.57978" lon="2.99409">
        <ele>662.97</ele>
        <time>2011-09-03T15:51:01Z</time>
      </trkpt>
      <trkpt lat="45.58053" lon="2.99342">
        <ele>664.41</ele>
        <time>2011-09-03T15:51:08Z</time>
      </trkpt>
      <trkpt lat="45.58069" lon="2.99317">
        <ele>664.89</ele>
        <time>2011-09-03T15:51:10Z</time>
      </trkpt>
      <trkpt lat="45.58123" lon="2.99296">
        <ele>668.73</ele>
        <time>2011-09-03T15:51:15Z</time>
      </trkpt>
      <trkpt lat="45.58136" lon="2.993">
        <ele>668.73</ele>
        <time>2011-09-03T15:51:16Z</time>
      </trkpt>
      <trkpt lat="45.58185" lon="2.99319">
        <ele>667.77</ele>
        <time>2011-09-03T15:51:20Z</time>
      </trkpt>
      <trkpt lat="45.58225" lon="2.99307">
        <ele>671.62</ele>
        <time>2011-09-03T15:51:23Z</time>
      </trkpt>
      <trkpt lat="45.5824" lon="2.99295">
        <ele>672.58</ele>
        <time>2011-09-03T15:51:24Z</time>
      </trkpt>
      <trkpt lat="45.58279" lon="2.99257">
        <ele>674.02</ele>
        <time>2011-09-03T15:51:27Z</time>
      </trkpt>
      <trkpt lat="45.58316" lon="2.99218">
        <ele>674.98</ele>
        <time>2011-09-03T15:51:30Z</time>
      </trkpt>
      <trkpt lat="45.58343" lon="2.99198">
        <ele>673.06</ele>
        <time>2011-09-03T15:51:32Z</time>
      </trkpt>
      <trkpt lat="45.58383" lon="2.99198">
        <ele>674.98</ele>
        <time>2011-09-03T15:51:35Z</time>
      </trkpt>
      <trkpt lat="45.58427" lon="2.99218">
        <ele>676.42</ele>
        <time>2011-09-03T15:51:39Z</time>
      </trkpt>
      <trkpt lat="45.58463" lon="2.9922">
        <ele>679.31</ele>
        <time>2011-09-03T15:51:42Z</time>
      </trkpt>
      <trkpt lat="45.58476" lon="2.99215">
        <ele>679.31</ele>
        <time>2011-09-03T15:51:43Z</time>
      </trkpt>
      <trkpt lat="45.58526" lon="2.99194">
        <ele>682.19</ele>
        <time>2011-09-03T15:51:47Z</time>
      </trkpt>
      <trkpt lat="45.58552" lon="2.99187">
        <ele>683.15</ele>
        <time>2011-09-03T15:51:49Z</time>
      </trkpt>
      <trkpt lat="45.58587" lon="2.99179">
        <ele>684.6</ele>
        <time>2011-09-03T15:51:52Z</time>
      </trkpt>
      <trkpt lat="45.58644" lon="2.99215">
        <ele>685.08</ele>
        <time>2011-09-03T15:51:58Z</time>
      </trkpt>
      <trkpt lat="45.58699" lon="2.99253">
        <ele>687.48</ele>
        <time>2011-09-03T15:52:05Z</time>
      </trkpt>
      <trkpt lat="45.58707" lon="2.99246">
        <ele>687.48</ele>
        <time>2011-09-03T15:52:06Z</time>
      </trkpt>
      <trkpt lat="45.58721" lon="2.99225">
        <ele>688.44</ele>
        <time>2011-09-03T15:52:08Z</time>
      </trkpt>
      <trkpt lat="45.58767" lon="2.99139">
        <ele>691.33</ele>
        <time>2011-09-03T15:52:16Z</time>
      </trkpt>
      <trkpt lat="45.58782" lon="2.99088">
        <ele>694.69</ele>
        <time>2011-09-03T15:52:20Z</time>
      </trkpt>
      <trkpt lat="45.58788" lon="2.9901">
        <ele>698.05</ele>
        <time>2011-09-03T15:52:25Z</time>
      </trkpt>
      <trkpt lat="45.58795" lon="2.98993">
        <ele>699.02</ele>
        <time>2011-09-03T15:52:26Z</time>
      </trkpt>
      <trkpt lat="45.58824" lon="2.98936">
        <ele>702.86</ele>
        <time>2011-09-03T15:52:29Z</time>
      </trkpt>
      <trkpt lat="45.58838" lon="2.98842">
        <ele>706.23</ele>
        <time>2011-09-03T15:52:33Z</time>
      </trkpt>
      <trkpt lat="45.58835" lon="2.98818">
        <ele>707.19</ele>
        <time>2011-09-03T15:52:34Z</time>
      </trkpt>
      <trkpt lat="45.58839" lon="2.98725">
        <ele>709.11</ele>
        <time>2011-09-03T15:52:38Z</time>
      </trkpt>
      <trkpt lat="45.58858" lon="2.98683">
        <ele>711.99</ele>
        <time>2011-09-03T15:52:40Z</time>
      </trkpt>
      <trkpt lat="45.58885" lon="2.9864">
        <ele>716.32</ele>
        <time>2011-09-03T15:52:42Z</time>
      </trkpt>
      <trkpt lat="45.58919" lon="2.98566">
        <ele>715.84</ele>
        <time>2011-09-03T15:52:45Z</time>
      </trkpt>
      <trkpt lat="45.58955" lon="2.98504">
        <ele>717.28</ele>
        <time>2011-09-03T15:52:48Z</time>
      </trkpt>
      <trkpt lat="45.5897" lon="2.98395">
        <ele>724.01</ele>
        <time>2011-09-03T15:52:53Z</time>
      </trkpt>
      <trkpt lat="45.58957" lon="2.98333">
        <ele>728.82</ele>
        <time>2011-09-03T15:52:55Z</time>
      </trkpt>
      <trkpt lat="45.58937" lon="2.98266">
        <ele>734.1</ele>
        <time>2011-09-03T15:52:57Z</time>
      </trkpt>
      <trkpt lat="45.58866" lon="2.9809">
        <ele>733.14</ele>
        <time>2011-09-03T15:53:03Z</time>
      </trkpt>
      <trkpt lat="45.5886" lon="2.98064">
        <ele>732.66</ele>
        <time>2011-09-03T15:53:04Z</time>
      </trkpt>
      <trkpt lat="45.5886" lon="2.98037">
        <ele>735.07</ele>
        <time>2011-09-03T15:53:05Z</time>
      </trkpt>
      <trkpt lat="45.58865" lon="2.98009">
        <ele>737.95</ele>
        <time>2011-09-03T15:53:06Z</time>
      </trkpt>
      <trkpt lat="45.58873" lon="2.97979">
        <ele>739.87</ele>
        <time>2011-09-03T15:53:07Z</time>
      </trkpt>
      <trkpt lat="45.58883" lon="2.97947">
        <ele>742.28</ele>
        <time>2011-09-03T15:53:08Z</time>
      </trkpt>
      <trkpt lat="45.58903" lon="2.97877">
        <ele>747.08</ele>
        <time>2011-09-03T15:53:10Z</time>
      </trkpt>
      <trkpt lat="45.58924" lon="2.97805">
        <ele>750.93</ele>
        <time>2011-09-03T15:53:12Z</time>
      </trkpt>
      <trkpt lat="45.5895" lon="2.97692">
        <ele>753.81</ele>
        <time>2011-09-03T15:53:15Z</time>
      </trkpt>
      <trkpt lat="45.58976" lon="2.97508">
        <ele>755.73</ele>
        <time>2011-09-03T15:53:20Z</time>
      </trkpt>
      <trkpt lat="45.58975" lon="2.97472">
        <ele>756.21</ele>
        <time>2011-09-03T15:53:21Z</time>
      </trkpt>
      <trkpt lat="45.58971" lon="2.97438">
        <ele>757.66</ele>
        <time>2011-09-03T15:53:22Z</time>
      </trkpt>
      <trkpt lat="45.58965" lon="2.97404">
        <ele>760.06</ele>
        <time>2011-09-03T15:53:23Z</time>
      </trkpt>
      <trkpt lat="45.58956" lon="2.9737">
        <ele>761.98</ele>
        <time>2011-09-03T15:53:24Z</time>
      </trkpt>
      <trkpt lat="45.58945" lon="2.97335">
        <ele>763.42</ele>
        <time>2011-09-03T15:53:25Z</time>
      </trkpt>
      <trkpt lat="45.58922" lon="2.97266">
        <ele>764.87</ele>
        <time>2011-09-03T15:53:27Z</time>
      </trkpt>
      <trkpt lat="45.58902" lon="2.97202">
        <ele>762.94</ele>
        <time>2011-09-03T15:53:29Z</time>
      </trkpt>
      <trkpt lat="45.58897" lon="2.9717">
        <ele>762.46</ele>
        <time>2011-09-03T15:53:30Z</time>
      </trkpt>
      <trkpt lat="45.58895" lon="2.97137">
        <ele>764.39</ele>
        <time>2011-09-03T15:53:31Z</time>
      </trkpt>
      <trkpt lat="45.58897" lon="2.97103">
        <ele>765.83</ele>
        <time>2011-09-03T15:53:32Z</time>
      </trkpt>
      <trkpt lat="45.58903" lon="2.97068">
        <ele>768.71</ele>
        <time>2011-09-03T15:53:33Z</time>
      </trkpt>
      <trkpt lat="45.58912" lon="2.97033">
        <ele>770.63</ele>
        <time>2011-09-03T15:53:34Z</time>
      </trkpt>
      <trkpt lat="45.58921" lon="2.96997">
        <ele>772.08</ele>
        <time>2011-09-03T15:53:35Z</time>
      </trkpt>
      <trkpt lat="45.58976" lon="2.96883">
        <ele>773.04</ele>
        <time>2011-09-03T15:53:39Z</time>
      </trkpt>
      <trkpt lat="45.58999" lon="2.9674">
        <ele>775.92</ele>
        <time>2011-09-03T15:53:44Z</time>
      </trkpt>
      <trkpt lat="45.58986" lon="2.96686">
        <ele>776.4</ele>
        <time>2011-09-03T15:53:46Z</time>
      </trkpt>
      <trkpt lat="45.58952" lon="2.96597">
        <ele>776.88</ele>
        <time>2011-09-03T15:53:50Z</time>
      </trkpt>
      <trkpt lat="45.58944" lon="2.96507">
        <ele>780.25</ele>
        <time>2011-09-03T15:53:54Z</time>
      </trkpt>
      <trkpt lat="45.58948" lon="2.96484">
        <ele>782.65</ele>
        <time>2011-09-03T15:53:55Z</time>
      </trkpt>
      <trkpt lat="45.58958" lon="2.9644">
        <ele>783.61</ele>
        <time>2011-09-03T15:53:57Z</time>
      </trkpt>
      <trkpt lat="45.5896" lon="2.96353">
        <ele>786.02</ele>
        <time>2011-09-03T15:54:01Z</time>
      </trkpt>
      <trkpt lat="45.58934" lon="2.96295">
        <ele>789.86</ele>
        <time>2011-09-03T15:54:04Z</time>
      </trkpt>
      <trkpt lat="45.589" lon="2.96268">
        <ele>795.63</ele>
        <time>2011-09-03T15:54:06Z</time>
      </trkpt>
      <trkpt lat="45.58854" lon="2.96245">
        <ele>803.8</ele>
        <time>2011-09-03T15:54:08Z</time>
      </trkpt>
      <trkpt lat="45.58778" lon="2.96209">
        <ele>809.09</ele>
        <time>2011-09-03T15:54:11Z</time>
      </trkpt>
      <trkpt lat="45.58723" lon="2.96184">
        <ele>810.53</ele>
        <time>2011-09-03T15:54:13Z</time>
      </trkpt>
      <trkpt lat="45.58697" lon="2.9617">
        <ele>810.53</ele>
        <time>2011-09-03T15:54:14Z</time>
      </trkpt>
      <trkpt lat="45.58623" lon="2.96109">
        <ele>806.68</ele>
        <time>2011-09-03T15:54:17Z</time>
      </trkpt>
      <trkpt lat="45.58602" lon="2.96082">
        <ele>805.72</ele>
        <time>2011-09-03T15:54:18Z</time>
      </trkpt>
      <trkpt lat="45.5852" lon="2.95974">
        <ele>799.95</ele>
        <time>2011-09-03T15:54:22Z</time>
      </trkpt>
      <trkpt lat="45.58461" lon="2.95898">
        <ele>797.55</ele>
        <time>2011-09-03T15:54:25Z</time>
      </trkpt>
      <trkpt lat="45.5844" lon="2.95875">
        <ele>797.07</ele>
        <time>2011-09-03T15:54:26Z</time>
      </trkpt>
      <trkpt lat="45.58395" lon="2.95836">
        <ele>795.63</ele>
        <time>2011-09-03T15:54:28Z</time>
      </trkpt>
      <trkpt lat="45.58173" lon="2.95699">
        <ele>794.67</ele>
        <time>2011-09-03T15:54:37Z</time>
      </trkpt>
      <trkpt lat="45.57963" lon="2.95568">
        <ele>794.67</ele>
        <time>2011-09-03T15:54:46Z</time>
      </trkpt>
      <trkpt lat="45.57945" lon="2.95549">
        <ele>794.67</ele>
        <time>2011-09-03T15:54:47Z</time>
      </trkpt>
      <trkpt lat="45.5793" lon="2.95528">
        <ele>795.15</ele>
        <time>2011-09-03T15:54:48Z</time>
      </trkpt>
      <trkpt lat="45.57918" lon="2.95505">
        <ele>795.15</ele>
        <time>2011-09-03T15:54:49Z</time>
      </trkpt>
      <trkpt lat="45.57908" lon="2.95481">
        <ele>794.67</ele>
        <time>2011-09-03T15:54:50Z</time>
      </trkpt>
      <trkpt lat="45.579" lon="2.95458">
        <ele>795.15</ele>
        <time>2011-09-03T15:54:51Z</time>
      </trkpt>
      <trkpt lat="45.57869" lon="2.9539">
        <ele>796.59</ele>
        <time>2011-09-03T15:54:54Z</time>
      </trkpt>
      <trkpt lat="45.57792" lon="2.95284">
        <ele>797.55</ele>
        <time>2011-09-03T15:55:00Z</time>
      </trkpt>
      <trkpt lat="45.57769" lon="2.95249">
        <ele>799.47</ele>
        <time>2011-09-03T15:55:02Z</time>
      </trkpt>
      <trkpt lat="45.57759" lon="2.95226">
        <ele>802.36</ele>
        <time>2011-09-03T15:55:03Z</time>
      </trkpt>
      <trkpt lat="45.57751" lon="2.95202">
        <ele>803.32</ele>
        <time>2011-09-03T15:55:04Z</time>
      </trkpt>
      <trkpt lat="45.57737" lon="2.95152">
        <ele>804.28</ele>
        <time>2011-09-03T15:55:06Z</time>
      </trkpt>
      <trkpt lat="45.57689" lon="2.94995">
        <ele>804.76</ele>
        <time>2011-09-03T15:55:14Z</time>
      </trkpt>
      <trkpt lat="45.57676" lon="2.94957">
        <ele>805.72</ele>
        <time>2011-09-03T15:55:16Z</time>
      </trkpt>
      <trkpt lat="45.57668" lon="2.9494">
        <ele>806.2</ele>
        <time>2011-09-03T15:55:17Z</time>
      </trkpt>
      <trkpt lat="45.57659" lon="2.94924">
        <ele>806.68</ele>
        <time>2011-09-03T15:55:18Z</time>
      </trkpt>
      <trkpt lat="45.5763" lon="2.94877">
        <ele>808.61</ele>
        <time>2011-09-03T15:55:21Z</time>
      </trkpt>
      <trkpt lat="45.57624" lon="2.9486">
        <ele>807.64</ele>
        <time>2011-09-03T15:55:22Z</time>
      </trkpt>
      <trkpt lat="45.5762" lon="2.94842">
        <ele>808.61</ele>
        <time>2011-09-03T15:55:23Z</time>
      </trkpt>
      <trkpt lat="45.57617" lon="2.94824">
        <ele>808.13</ele>
        <time>2011-09-03T15:55:24Z</time>
      </trkpt>
      <trkpt lat="45.57614" lon="2.94805">
        <ele>808.61</ele>
        <time>2011-09-03T15:55:25Z</time>
      </trkpt>
      <trkpt lat="45.57609" lon="2.94788">
        <ele>809.57</ele>
        <time>2011-09-03T15:55:26Z</time>
      </trkpt>
      <trkpt lat="45.57601" lon="2.94773">
        <ele>810.05</ele>
        <time>2011-09-03T15:55:27Z</time>
      </trkpt>
      <trkpt lat="45.57591" lon="2.9476">
        <ele>809.57</ele>
        <time>2011-09-03T15:55:28Z</time>
      </trkpt>
      <trkpt lat="45.57581" lon="2.94749">
        <ele>811.01</ele>
        <time>2011-09-03T15:55:29Z</time>
      </trkpt>
      <trkpt lat="45.57572" lon="2.94738">
        <ele>810.53</ele>
        <time>2011-09-03T15:55:30Z</time>
      </trkpt>
      <trkpt lat="45.57556" lon="2.94694">
        <ele>812.45</ele>
        <time>2011-09-03T15:55:33Z</time>
      </trkpt>
      <trkpt lat="45.57547" lon="2.94648">
        <ele>812.45</ele>
        <time>2011-09-03T15:55:36Z</time>
      </trkpt>
      <trkpt lat="45.57549" lon="2.94585">
        <ele>814.37</ele>
        <time>2011-09-03T15:55:40Z</time>
      </trkpt>
      <trkpt lat="45.57561" lon="2.94532">
        <ele>816.78</ele>
        <time>2011-09-03T15:55:43Z</time>
      </trkpt>
      <trkpt lat="45.57563" lon="2.94514">
        <ele>816.78</ele>
        <time>2011-09-03T15:55:44Z</time>
      </trkpt>
      <trkpt lat="45.57553" lon="2.94444">
        <ele>817.74</ele>
        <time>2011-09-03T15:55:48Z</time>
      </trkpt>
      <trkpt lat="45.57531" lon="2.94383">
        <ele>814.37</ele>
        <time>2011-09-03T15:55:52Z</time>
      </trkpt>
      <trkpt lat="45.57503" lon="2.94344">
        <ele>813.41</ele>
        <time>2011-09-03T15:55:56Z</time>
      </trkpt>
      <trkpt lat="45.57455" lon="2.94299">
        <ele>813.89</ele>
        <time>2011-09-03T15:56:02Z</time>
      </trkpt>
      <trkpt lat="45.57434" lon="2.9428">
        <ele>814.37</ele>
        <time>2011-09-03T15:56:05Z</time>
      </trkpt>
      <trkpt lat="45.57418" lon="2.94213">
        <ele>814.85</ele>
        <time>2011-09-03T15:56:11Z</time>
      </trkpt>
      <trkpt lat="45.57431" lon="2.94183">
        <ele>815.82</ele>
        <time>2011-09-03T15:56:14Z</time>
      </trkpt>
      <trkpt lat="45.57453" lon="2.94145">
        <ele>816.78</ele>
        <time>2011-09-03T15:56:18Z</time>
      </trkpt>
      <trkpt lat="45.57465" lon="2.94118">
        <ele>817.74</ele>
        <time>2011-09-03T15:56:20Z</time>
      </trkpt>
      <trkpt lat="45.57471" lon="2.94087">
        <ele>817.74</ele>
        <time>2011-09-03T15:56:22Z</time>
      </trkpt>
      <trkpt lat="45.57474" lon="2.9407">
        <ele>819.18</ele>
        <time>2011-09-03T15:56:23Z</time>
      </trkpt>
      <trkpt lat="45.57487" lon="2.93964">
        <ele>820.62</ele>
        <time>2011-09-03T15:56:30Z</time>
      </trkpt>
      <trkpt lat="45.57487" lon="2.93954">
        <ele>820.62</ele>
        <time>2011-09-03T15:56:31Z</time>
      </trkpt>
      <trkpt lat="45.57486" lon="2.93946">
        <ele>820.62</ele>
        <time>2011-09-03T15:56:32Z</time>
      </trkpt>
      <trkpt lat="45.57484" lon="2.9394">
        <ele>821.1</ele>
        <time>2011-09-03T15:56:33Z</time>
      </trkpt>
      <trkpt lat="45.57482" lon="2.93933">
        <ele>822.06</ele>
        <time>2011-09-03T15:56:34Z</time>
      </trkpt>
      <trkpt lat="45.57479" lon="2.93923">
        <ele>822.06</ele>
        <time>2011-09-03T15:56:35Z</time>
      </trkpt>
      <trkpt lat="45.57477" lon="2.93911">
        <ele>822.55</ele>
        <time>2011-09-03T15:56:36Z</time>
      </trkpt>
      <trkpt lat="45.57475" lon="2.93896">
        <ele>823.51</ele>
        <time>2011-09-03T15:56:37Z</time>
      </trkpt>
      <trkpt lat="45.57475" lon="2.9388">
        <ele>825.43</ele>
        <time>2011-09-03T15:56:38Z</time>
      </trkpt>
      <trkpt lat="45.57477" lon="2.93863">
        <ele>825.91</ele>
        <time>2011-09-03T15:56:39Z</time>
      </trkpt>
      <trkpt lat="45.57481" lon="2.93844">
        <ele>826.39</ele>
        <time>2011-09-03T15:56:40Z</time>
      </trkpt>
      <trkpt lat="45.57488" lon="2.93826">
        <ele>827.83</ele>
        <time>2011-09-03T15:56:41Z</time>
      </trkpt>
      <trkpt lat="45.57522" lon="2.93786">
        <ele>830.72</ele>
        <time>2011-09-03T15:56:44Z</time>
      </trkpt>
      <trkpt lat="45.57534" lon="2.93771">
        <ele>830.72</ele>
        <time>2011-09-03T15:56:45Z</time>
      </trkpt>
      <trkpt lat="45.57542" lon="2.93752">
        <ele>832.16</ele>
        <time>2011-09-03T15:56:46Z</time>
      </trkpt>
      <trkpt lat="45.57547" lon="2.93731">
        <ele>832.16</ele>
        <time>2011-09-03T15:56:47Z</time>
      </trkpt>
      <trkpt lat="45.57551" lon="2.93709">
        <ele>832.64</ele>
        <time>2011-09-03T15:56:48Z</time>
      </trkpt>
      <trkpt lat="45.5756" lon="2.93644">
        <ele>834.08</ele>
        <time>2011-09-03T15:56:51Z</time>
      </trkpt>
      <trkpt lat="45.57561" lon="2.93625">
        <ele>834.08</ele>
        <time>2011-09-03T15:56:52Z</time>
      </trkpt>
      <trkpt lat="45.57559" lon="2.93608">
        <ele>833.6</ele>
        <time>2011-09-03T15:56:53Z</time>
      </trkpt>
      <trkpt lat="45.57557" lon="2.93594">
        <ele>833.6</ele>
        <time>2011-09-03T15:56:54Z</time>
      </trkpt>
      <trkpt lat="45.57554" lon="2.93583">
        <ele>833.12</ele>
        <time>2011-09-03T15:56:55Z</time>
      </trkpt>
      <trkpt lat="45.57551" lon="2.93573">
        <ele>833.12</ele>
        <time>2011-09-03T15:56:56Z</time>
      </trkpt>
      <trkpt lat="45.57534" lon="2.93514">
        <ele>836</ele>
        <time>2011-09-03T15:57:01Z</time>
      </trkpt>
      <trkpt lat="45.57533" lon="2.93501">
        <ele>836.48</ele>
        <time>2011-09-03T15:57:02Z</time>
      </trkpt>
      <trkpt lat="45.57532" lon="2.93488">
        <ele>836.96</ele>
        <time>2011-09-03T15:57:03Z</time>
      </trkpt>
      <trkpt lat="45.57533" lon="2.93474">
        <ele>836.48</ele>
        <time>2011-09-03T15:57:04Z</time>
      </trkpt>
      <trkpt lat="45.57535" lon="2.93461">
        <ele>837.45</ele>
        <time>2011-09-03T15:57:05Z</time>
      </trkpt>
      <trkpt lat="45.57538" lon="2.93448">
        <ele>838.41</ele>
        <time>2011-09-03T15:57:06Z</time>
      </trkpt>
      <trkpt lat="45.57543" lon="2.93434">
        <ele>840.33</ele>
        <time>2011-09-03T15:57:07Z</time>
      </trkpt>
      <trkpt lat="45.57549" lon="2.93419">
        <ele>841.29</ele>
        <time>2011-09-03T15:57:08Z</time>
      </trkpt>
      <trkpt lat="45.57556" lon="2.93406">
        <ele>841.77</ele>
        <time>2011-09-03T15:57:09Z</time>
      </trkpt>
      <trkpt lat="45.5759" lon="2.9334">
        <ele>843.21</ele>
        <time>2011-09-03T15:57:15Z</time>
      </trkpt>
      <trkpt lat="45.57593" lon="2.93328">
        <ele>844.18</ele>
        <time>2011-09-03T15:57:16Z</time>
      </trkpt>
      <trkpt lat="45.57595" lon="2.93315">
        <ele>843.69</ele>
        <time>2011-09-03T15:57:17Z</time>
      </trkpt>
      <trkpt lat="45.57595" lon="2.93301">
        <ele>844.66</ele>
        <time>2011-09-03T15:57:18Z</time>
      </trkpt>
      <trkpt lat="45.57596" lon="2.93287">
        <ele>845.14</ele>
        <time>2011-09-03T15:57:19Z</time>
      </trkpt>
      <trkpt lat="45.57596" lon="2.93257">
        <ele>846.58</ele>
        <time>2011-09-03T15:57:21Z</time>
      </trkpt>
      <trkpt lat="45.57595" lon="2.93148">
        <ele>847.06</ele>
        <time>2011-09-03T15:57:30Z</time>
      </trkpt>
      <trkpt lat="45.57596" lon="2.93118">
        <ele>849.46</ele>
        <time>2011-09-03T15:57:33Z</time>
      </trkpt>
      <trkpt lat="45.57597" lon="2.93108">
        <ele>848.98</ele>
        <time>2011-09-03T15:57:34Z</time>
      </trkpt>
      <trkpt lat="45.57599" lon="2.931">
        <ele>848.5</ele>
        <time>2011-09-03T15:57:35Z</time>
      </trkpt>
      <trkpt lat="45.57601" lon="2.93094">
        <ele>848.5</ele>
        <time>2011-09-03T15:57:36Z</time>
      </trkpt>
      <trkpt lat="45.57603" lon="2.9309">
        <ele>848.98</ele>
        <time>2011-09-03T15:57:37Z</time>
      </trkpt>
      <trkpt lat="45.57604" lon="2.93089">
        <ele>848.98</ele>
        <time>2011-09-03T15:57:38Z</time>
      </trkpt>
      <trkpt lat="45.5761" lon="2.9308">
        <ele>849.46</ele>
        <time>2011-09-03T15:57:44Z</time>
      </trkpt>
      <trkpt lat="45.57615" lon="2.93076">
        <ele>849.94</ele>
        <time>2011-09-03T15:57:45Z</time>
      </trkpt>
      <trkpt lat="45.57621" lon="2.93073">
        <ele>850.9</ele>
        <time>2011-09-03T15:57:46Z</time>
      </trkpt>
      <trkpt lat="45.57626" lon="2.93068">
        <ele>851.38</ele>
        <time>2011-09-03T15:57:47Z</time>
      </trkpt>
      <trkpt lat="45.57629" lon="2.93061">
        <ele>851.38</ele>
        <time>2011-09-03T15:57:48Z</time>
      </trkpt>
      <trkpt lat="45.57629" lon="2.93054">
        <ele>851.87</ele>
        <time>2011-09-03T15:57:49Z</time>
      </trkpt>
      <trkpt lat="45.57626" lon="2.93049">
        <ele>851.38</ele>
        <time>2011-09-03T15:57:50Z</time>
      </trkpt>
      <trkpt lat="45.57621" lon="2.93045">
        <ele>851.87</ele>
        <time>2011-09-03T15:57:51Z</time>
      </trkpt>
      <trkpt lat="45.57616" lon="2.9304">
        <ele>851.87</ele>
        <time>2011-09-03T15:57:52Z</time>
      </trkpt>
      <trkpt lat="45.57611" lon="2.93034">
        <ele>852.83</ele>
        <time>2011-09-03T15:57:53Z</time>
      </trkpt>
      <trkpt lat="45.57606" lon="2.93027">
        <ele>853.31</ele>
        <time>2011-09-03T15:57:54Z</time>
      </trkpt>
      <trkpt lat="45.57602" lon="2.9302">
        <ele>853.79</ele>
        <time>2011-09-03T15:57:55Z</time>
      </trkpt>
      <trkpt lat="45.57587" lon="2.92995">
        <ele>855.71</ele>
        <time>2011-09-03T15:57:58Z</time>
      </trkpt>
      <trkpt lat="45.57582" lon="2.92985">
        <ele>856.19</ele>
        <time>2011-09-03T15:57:59Z</time>
      </trkpt>
      <trkpt lat="45.57578" lon="2.92973">
        <ele>857.15</ele>
        <time>2011-09-03T15:58:00Z</time>
      </trkpt>
      <trkpt lat="45.57574" lon="2.92959">
        <ele>858.11</ele>
        <time>2011-09-03T15:58:01Z</time>
      </trkpt>
      <trkpt lat="45.5756" lon="2.92911">
        <ele>862.44</ele>
        <time>2011-09-03T15:58:04Z</time>
      </trkpt>
      <trkpt lat="45.57555" lon="2.92896">
        <ele>861.96</ele>
        <time>2011-09-03T15:58:05Z</time>
      </trkpt>
      <trkpt lat="45.57532" lon="2.92843">
        <ele>861.96</ele>
        <time>2011-09-03T15:58:09Z</time>
      </trkpt>
      <trkpt lat="45.57524" lon="2.92833">
        <ele>861.96</ele>
        <time>2011-09-03T15:58:10Z</time>
      </trkpt>
      <trkpt lat="45.575" lon="2.92816">
        <ele>862.92</ele>
        <time>2011-09-03T15:58:13Z</time>
      </trkpt>
      <trkpt lat="45.57472" lon="2.92805">
        <ele>862.92</ele>
        <time>2011-09-03T15:58:18Z</time>
      </trkpt>
      <trkpt lat="45.57463" lon="2.92798">
        <ele>863.88</ele>
        <time>2011-09-03T15:58:20Z</time>
      </trkpt>
      <trkpt lat="45.57455" lon="2.92787">
        <ele>863.4</ele>
        <time>2011-09-03T15:58:22Z</time>
      </trkpt>
      <trkpt lat="45.5744" lon="2.92775">
        <ele>865.8</ele>
        <time>2011-09-03T15:58:24Z</time>
      </trkpt>
      <trkpt lat="45.57432" lon="2.92765">
        <ele>867.25</ele>
        <time>2011-09-03T15:58:25Z</time>
      </trkpt>
      <trkpt lat="45.57423" lon="2.92753">
        <ele>868.69</ele>
        <time>2011-09-03T15:58:26Z</time>
      </trkpt>
      <trkpt lat="45.57413" lon="2.9274">
        <ele>868.69</ele>
        <time>2011-09-03T15:58:27Z</time>
      </trkpt>
      <trkpt lat="45.57376" lon="2.927">
        <ele>869.17</ele>
        <time>2011-09-03T15:58:30Z</time>
      </trkpt>
      <trkpt lat="45.57367" lon="2.92681">
        <ele>869.17</ele>
        <time>2011-09-03T15:58:31Z</time>
      </trkpt>
      <trkpt lat="45.57362" lon="2.92659">
        <ele>870.13</ele>
        <time>2011-09-03T15:58:32Z</time>
      </trkpt>
      <trkpt lat="45.57359" lon="2.92635">
        <ele>872.05</ele>
        <time>2011-09-03T15:58:33Z</time>
      </trkpt>
      <trkpt lat="45.57357" lon="2.92611">
        <ele>871.09</ele>
        <time>2011-09-03T15:58:34Z</time>
      </trkpt>
      <trkpt lat="45.57358" lon="2.92587">
        <ele>871.57</ele>
        <time>2011-09-03T15:58:35Z</time>
      </trkpt>
      <trkpt lat="45.57359" lon="2.92564">
        <ele>871.09</ele>
        <time>2011-09-03T15:58:36Z</time>
      </trkpt>
      <trkpt lat="45.5736" lon="2.92529">
        <ele>866.29</ele>
        <time>2011-09-03T15:58:38Z</time>
      </trkpt>
      <trkpt lat="45.57361" lon="2.92515">
        <ele>864.36</ele>
        <time>2011-09-03T15:58:40Z</time>
      </trkpt>
      <trkpt lat="45.57363" lon="2.92482">
        <ele>864.36</ele>
        <time>2011-09-03T15:58:45Z</time>
      </trkpt>
      <trkpt lat="45.57366" lon="2.92438">
        <ele>866.29</ele>
        <time>2011-09-03T15:58:48Z</time>
      </trkpt>
      <trkpt lat="45.57366" lon="2.92379">
        <ele>868.21</ele>
        <time>2011-09-03T15:58:51Z</time>
      </trkpt>
      <trkpt lat="45.57364" lon="2.92313">
        <ele>866.77</ele>
        <time>2011-09-03T15:58:54Z</time>
      </trkpt>
      <trkpt lat="45.5736" lon="2.92291">
        <ele>867.25</ele>
        <time>2011-09-03T15:58:55Z</time>
      </trkpt>
      <trkpt lat="45.57356" lon="2.9227">
        <ele>866.77</ele>
        <time>2011-09-03T15:58:56Z</time>
      </trkpt>
      <trkpt lat="45.57331" lon="2.92172">
        <ele>865.8</ele>
        <time>2011-09-03T15:59:01Z</time>
      </trkpt>
      <trkpt lat="45.57328" lon="2.92153">
        <ele>865.8</ele>
        <time>2011-09-03T15:59:02Z</time>
      </trkpt>
      <trkpt lat="45.57326" lon="2.92132">
        <ele>866.29</ele>
        <time>2011-09-03T15:59:03Z</time>
      </trkpt>
      <trkpt lat="45.57325" lon="2.92111">
        <ele>866.77</ele>
        <time>2011-09-03T15:59:04Z</time>
      </trkpt>
      <trkpt lat="45.57325" lon="2.92089">
        <ele>866.77</ele>
        <time>2011-09-03T15:59:05Z</time>
      </trkpt>
      <trkpt lat="45.57328" lon="2.92023">
        <ele>866.77</ele>
        <time>2011-09-03T15:59:08Z</time>
      </trkpt>
      <trkpt lat="45.57333" lon="2.92003">
        <ele>867.25</ele>
        <time>2011-09-03T15:59:09Z</time>
      </trkpt>
      <trkpt lat="45.5734" lon="2.91984">
        <ele>867.25</ele>
        <time>2011-09-03T15:59:10Z</time>
      </trkpt>
      <trkpt lat="45.57432" lon="2.91826">
        <ele>866.29</ele>
        <time>2011-09-03T15:59:19Z</time>
      </trkpt>
      <trkpt lat="45.57541" lon="2.91666">
        <ele>868.69</ele>
        <time>2011-09-03T15:59:29Z</time>
      </trkpt>
      <trkpt lat="45.57571" lon="2.91572">
        <ele>871.09</ele>
        <time>2011-09-03T15:59:33Z</time>
      </trkpt>
      <trkpt lat="45.57574" lon="2.91546">
        <ele>872.05</ele>
        <time>2011-09-03T15:59:34Z</time>
      </trkpt>
      <trkpt lat="45.57574" lon="2.9152">
        <ele>872.53</ele>
        <time>2011-09-03T15:59:35Z</time>
      </trkpt>
      <trkpt lat="45.57573" lon="2.91494">
        <ele>873.01</ele>
        <time>2011-09-03T15:59:36Z</time>
      </trkpt>
      <trkpt lat="45.57565" lon="2.91337">
        <ele>875.42</ele>
        <time>2011-09-03T15:59:43Z</time>
      </trkpt>
      <trkpt lat="45.57559" lon="2.913">
        <ele>874.94</ele>
        <time>2011-09-03T15:59:45Z</time>
      </trkpt>
      <trkpt lat="45.57554" lon="2.91283">
        <ele>875.42</ele>
        <time>2011-09-03T15:59:46Z</time>
      </trkpt>
      <trkpt lat="45.57506" lon="2.91123">
        <ele>876.86</ele>
        <time>2011-09-03T15:59:53Z</time>
      </trkpt>
      <trkpt lat="45.57461" lon="2.91002">
        <ele>881.19</ele>
        <time>2011-09-03T15:59:57Z</time>
      </trkpt>
      <trkpt lat="45.57448" lon="2.90969">
        <ele>880.71</ele>
        <time>2011-09-03T15:59:58Z</time>
      </trkpt>
      <trkpt lat="45.57397" lon="2.90834">
        <ele>878.3</ele>
        <time>2011-09-03T16:00:02Z</time>
      </trkpt>
      <trkpt lat="45.57354" lon="2.90735">
        <ele>879.26</ele>
        <time>2011-09-03T16:00:05Z</time>
      </trkpt>
      <trkpt lat="45.57315" lon="2.90677">
        <ele>881.67</ele>
        <time>2011-09-03T16:00:07Z</time>
      </trkpt>
      <trkpt lat="45.57208" lon="2.9054">
        <ele>880.71</ele>
        <time>2011-09-03T16:00:12Z</time>
      </trkpt>
      <trkpt lat="45.57158" lon="2.9046">
        <ele>878.78</ele>
        <time>2011-09-03T16:00:15Z</time>
      </trkpt>
      <trkpt lat="45.57116" lon="2.90394">
        <ele>875.42</ele>
        <time>2011-09-03T16:00:18Z</time>
      </trkpt>
      <trkpt lat="45.57104" lon="2.90374">
        <ele>874.94</ele>
        <time>2011-09-03T16:00:19Z</time>
      </trkpt>
      <trkpt lat="45.57067" lon="2.90234">
        <ele>873.98</ele>
        <time>2011-09-03T16:00:25Z</time>
      </trkpt>
      <trkpt lat="45.57054" lon="2.90118">
        <ele>872.05</ele>
        <time>2011-09-03T16:00:31Z</time>
      </trkpt>
      <trkpt lat="45.57076" lon="2.90006">
        <ele>873.5</ele>
        <time>2011-09-03T16:00:39Z</time>
      </trkpt>
      <trkpt lat="45.57113" lon="2.8994">
        <ele>877.82</ele>
        <time>2011-09-03T16:00:43Z</time>
      </trkpt>
      <trkpt lat="45.57156" lon="2.89895">
        <ele>882.15</ele>
        <time>2011-09-03T16:00:46Z</time>
      </trkpt>
      <trkpt lat="45.57191" lon="2.8987">
        <ele>886.47</ele>
        <time>2011-09-03T16:00:48Z</time>
      </trkpt>
      <trkpt lat="45.57227" lon="2.89847">
        <ele>889.84</ele>
        <time>2011-09-03T16:00:50Z</time>
      </trkpt>
      <trkpt lat="45.57297" lon="2.89791">
        <ele>894.16</ele>
        <time>2011-09-03T16:00:54Z</time>
      </trkpt>
      <trkpt lat="45.57356" lon="2.89706">
        <ele>899.93</ele>
        <time>2011-09-03T16:00:58Z</time>
      </trkpt>
      <trkpt lat="45.57368" lon="2.89682">
        <ele>901.37</ele>
        <time>2011-09-03T16:00:59Z</time>
      </trkpt>
      <trkpt lat="45.57379" lon="2.89655">
        <ele>902.33</ele>
        <time>2011-09-03T16:01:00Z</time>
      </trkpt>
      <trkpt lat="45.57388" lon="2.89628">
        <ele>903.3</ele>
        <time>2011-09-03T16:01:01Z</time>
      </trkpt>
      <trkpt lat="45.57395" lon="2.896">
        <ele>905.22</ele>
        <time>2011-09-03T16:01:02Z</time>
      </trkpt>
      <trkpt lat="45.574" lon="2.89572">
        <ele>905.7</ele>
        <time>2011-09-03T16:01:03Z</time>
      </trkpt>
      <trkpt lat="45.57404" lon="2.89543">
        <ele>906.66</ele>
        <time>2011-09-03T16:01:04Z</time>
      </trkpt>
      <trkpt lat="45.57406" lon="2.89514">
        <ele>908.1</ele>
        <time>2011-09-03T16:01:05Z</time>
      </trkpt>
      <trkpt lat="45.57406" lon="2.89485">
        <ele>909.06</ele>
        <time>2011-09-03T16:01:06Z</time>
      </trkpt>
      <trkpt lat="45.57405" lon="2.89454">
        <ele>912.91</ele>
        <time>2011-09-03T16:01:07Z</time>
      </trkpt>
      <trkpt lat="45.57402" lon="2.89424">
        <ele>915.31</ele>
        <time>2011-09-03T16:01:08Z</time>
      </trkpt>
      <trkpt lat="45.57398" lon="2.89362">
        <ele>920.12</ele>
        <time>2011-09-03T16:01:10Z</time>
      </trkpt>
      <trkpt lat="45.57395" lon="2.89268">
        <ele>923.96</ele>
        <time>2011-09-03T16:01:13Z</time>
      </trkpt>
      <trkpt lat="45.57393" lon="2.89173">
        <ele>928.29</ele>
        <time>2011-09-03T16:01:16Z</time>
      </trkpt>
      <trkpt lat="45.57394" lon="2.89106">
        <ele>931.65</ele>
        <time>2011-09-03T16:01:18Z</time>
      </trkpt>
      <trkpt lat="45.57395" lon="2.89003">
        <ele>937.42</ele>
        <time>2011-09-03T16:01:21Z</time>
      </trkpt>
      <trkpt lat="45.57397" lon="2.88933">
        <ele>940.31</ele>
        <time>2011-09-03T16:01:23Z</time>
      </trkpt>
      <trkpt lat="45.57401" lon="2.8883">
        <ele>943.67</ele>
        <time>2011-09-03T16:01:26Z</time>
      </trkpt>
      <trkpt lat="45.57401" lon="2.888">
        <ele>943.67</ele>
        <time>2011-09-03T16:01:27Z</time>
      </trkpt>
      <trkpt lat="45.57399" lon="2.88771">
        <ele>943.19</ele>
        <time>2011-09-03T16:01:28Z</time>
      </trkpt>
      <trkpt lat="45.57406" lon="2.88658">
        <ele>947.04</ele>
        <time>2011-09-03T16:01:32Z</time>
      </trkpt>
      <trkpt lat="45.57396" lon="2.88554">
        <ele>950.88</ele>
        <time>2011-09-03T16:01:37Z</time>
      </trkpt>
      <trkpt lat="45.57364" lon="2.885">
        <ele>953.28</ele>
        <time>2011-09-03T16:01:40Z</time>
      </trkpt>
      <trkpt lat="45.57356" lon="2.88476">
        <ele>955.69</ele>
        <time>2011-09-03T16:01:41Z</time>
      </trkpt>
      <trkpt lat="45.57334" lon="2.88402">
        <ele>960.98</ele>
        <time>2011-09-03T16:01:44Z</time>
      </trkpt>
      <trkpt lat="45.57328" lon="2.88311">
        <ele>964.34</ele>
        <time>2011-09-03T16:01:48Z</time>
      </trkpt>
      <trkpt lat="45.57307" lon="2.88229">
        <ele>968.18</ele>
        <time>2011-09-03T16:01:52Z</time>
      </trkpt>
      <trkpt lat="45.57287" lon="2.88184">
        <ele>972.51</ele>
        <time>2011-09-03T16:01:54Z</time>
      </trkpt>
      <trkpt lat="45.57265" lon="2.8814">
        <ele>975.88</ele>
        <time>2011-09-03T16:01:56Z</time>
      </trkpt>
      <trkpt lat="45.57233" lon="2.8808">
        <ele>977.32</ele>
        <time>2011-09-03T16:01:59Z</time>
      </trkpt>
      <trkpt lat="45.57222" lon="2.88064">
        <ele>977.8</ele>
        <time>2011-09-03T16:02:00Z</time>
      </trkpt>
      <trkpt lat="45.57194" lon="2.88026">
        <ele>975.88</ele>
        <time>2011-09-03T16:02:03Z</time>
      </trkpt>
      <trkpt lat="45.57189" lon="2.88015">
        <ele>975.88</ele>
        <time>2011-09-03T16:02:04Z</time>
      </trkpt>
      <trkpt lat="45.57188" lon="2.88005">
        <ele>976.36</ele>
        <time>2011-09-03T16:02:05Z</time>
      </trkpt>
      <trkpt lat="45.5719" lon="2.87996">
        <ele>976.36</ele>
        <time>2011-09-03T16:02:06Z</time>
      </trkpt>
      <trkpt lat="45.57194" lon="2.87989">
        <ele>976.36</ele>
        <time>2011-09-03T16:02:07Z</time>
      </trkpt>
      <trkpt lat="45.57214" lon="2.87997">
        <ele>978.76</ele>
        <time>2011-09-03T16:02:10Z</time>
      </trkpt>
      <trkpt lat="45.57222" lon="2.88009">
        <ele>980.68</ele>
        <time>2011-09-03T16:02:11Z</time>
      </trkpt>
      <trkpt lat="45.57229" lon="2.88026">
        <ele>983.09</ele>
        <time>2011-09-03T16:02:12Z</time>
      </trkpt>
      <trkpt lat="45.57236" lon="2.88045">
        <ele>984.53</ele>
        <time>2011-09-03T16:02:13Z</time>
      </trkpt>
      <trkpt lat="45.57251" lon="2.88086">
        <ele>986.93</ele>
        <time>2011-09-03T16:02:15Z</time>
      </trkpt>
      <trkpt lat="45.57261" lon="2.88104">
        <ele>988.37</ele>
        <time>2011-09-03T16:02:16Z</time>
      </trkpt>
      <trkpt lat="45.57272" lon="2.8812">
        <ele>989.81</ele>
        <time>2011-09-03T16:02:17Z</time>
      </trkpt>
      <trkpt lat="45.573" lon="2.8815">
        <ele>993.18</ele>
        <time>2011-09-03T16:02:19Z</time>
      </trkpt>
      <trkpt lat="45.57346" lon="2.88195">
        <ele>995.1</ele>
        <time>2011-09-03T16:02:22Z</time>
      </trkpt>
      <trkpt lat="45.57377" lon="2.88211">
        <ele>996.54</ele>
        <time>2011-09-03T16:02:24Z</time>
      </trkpt>
      <trkpt lat="45.57432" lon="2.88248">
        <ele>1000.87</ele>
        <time>2011-09-03T16:02:28Z</time>
      </trkpt>
      <trkpt lat="45.57444" lon="2.88265">
        <ele>1004.23</ele>
        <time>2011-09-03T16:02:29Z</time>
      </trkpt>
      <trkpt lat="45.57472" lon="2.88332">
        <ele>1007.6</ele>
        <time>2011-09-03T16:02:32Z</time>
      </trkpt>
      <trkpt lat="45.57494" lon="2.8841">
        <ele>1011.93</ele>
        <time>2011-09-03T16:02:35Z</time>
      </trkpt>
      <trkpt lat="45.57502" lon="2.88433">
        <ele>1011.93</ele>
        <time>2011-09-03T16:02:36Z</time>
      </trkpt>
      <trkpt lat="45.57546" lon="2.88489">
        <ele>1013.85</ele>
        <time>2011-09-03T16:02:40Z</time>
      </trkpt>
      <trkpt lat="45.57562" lon="2.88496">
        <ele>1015.77</ele>
        <time>2011-09-03T16:02:41Z</time>
      </trkpt>
      <trkpt lat="45.57594" lon="2.88508">
        <ele>1019.13</ele>
        <time>2011-09-03T16:02:43Z</time>
      </trkpt>
      <trkpt lat="45.57648" lon="2.885">
        <ele>1019.62</ele>
        <time>2011-09-03T16:02:47Z</time>
      </trkpt>
      <trkpt lat="45.57672" lon="2.88477">
        <ele>1022.5</ele>
        <time>2011-09-03T16:02:49Z</time>
      </trkpt>
      <trkpt lat="45.57692" lon="2.88453">
        <ele>1023.46</ele>
        <time>2011-09-03T16:02:51Z</time>
      </trkpt>
      <trkpt lat="45.5773" lon="2.88381">
        <ele>1026.34</ele>
        <time>2011-09-03T16:02:56Z</time>
      </trkpt>
      <trkpt lat="45.57742" lon="2.8828">
        <ele>1030.67</ele>
        <time>2011-09-03T16:03:01Z</time>
      </trkpt>
      <trkpt lat="45.57759" lon="2.88207">
        <ele>1036.44</ele>
        <time>2011-09-03T16:03:04Z</time>
      </trkpt>
      <trkpt lat="45.57771" lon="2.88162">
        <ele>1037.4</ele>
        <time>2011-09-03T16:03:06Z</time>
      </trkpt>
      <trkpt lat="45.57788" lon="2.88112">
        <ele>1037.4</ele>
        <time>2011-09-03T16:03:09Z</time>
      </trkpt>
      <trkpt lat="45.57817" lon="2.88099">
        <ele>1038.36</ele>
        <time>2011-09-03T16:03:13Z</time>
      </trkpt>
      <trkpt lat="45.57824" lon="2.88109">
        <ele>1039.8</ele>
        <time>2011-09-03T16:03:14Z</time>
      </trkpt>
      <trkpt lat="45.57828" lon="2.88122">
        <ele>1040.28</ele>
        <time>2011-09-03T16:03:15Z</time>
      </trkpt>
      <trkpt lat="45.57829" lon="2.88138">
        <ele>1041.73</ele>
        <time>2011-09-03T16:03:16Z</time>
      </trkpt>
      <trkpt lat="45.57828" lon="2.88155">
        <ele>1042.21</ele>
        <time>2011-09-03T16:03:17Z</time>
      </trkpt>
      <trkpt lat="45.57825" lon="2.88173">
        <ele>1043.65</ele>
        <time>2011-09-03T16:03:18Z</time>
      </trkpt>
      <trkpt lat="45.5782" lon="2.88193">
        <ele>1046.05</ele>
        <time>2011-09-03T16:03:19Z</time>
      </trkpt>
      <trkpt lat="45.57816" lon="2.88214">
        <ele>1046.53</ele>
        <time>2011-09-03T16:03:20Z</time>
      </trkpt>
      <trkpt lat="45.57813" lon="2.88237">
        <ele>1048.45</ele>
        <time>2011-09-03T16:03:21Z</time>
      </trkpt>
      <trkpt lat="45.5781" lon="2.88288">
        <ele>1052.78</ele>
        <time>2011-09-03T16:03:23Z</time>
      </trkpt>
      <trkpt lat="45.57808" lon="2.88343">
        <ele>1056.15</ele>
        <time>2011-09-03T16:03:25Z</time>
      </trkpt>
      <trkpt lat="45.57803" lon="2.88398">
        <ele>1057.59</ele>
        <time>2011-09-03T16:03:27Z</time>
      </trkpt>
      <trkpt lat="45.57801" lon="2.88425">
        <ele>1059.99</ele>
        <time>2011-09-03T16:03:28Z</time>
      </trkpt>
      <trkpt lat="45.57812" lon="2.88521">
        <ele>1060.47</ele>
        <time>2011-09-03T16:03:32Z</time>
      </trkpt>
      <trkpt lat="45.57829" lon="2.88567">
        <ele>1064.32</ele>
        <time>2011-09-03T16:03:34Z</time>
      </trkpt>
      <trkpt lat="45.57865" lon="2.88634">
        <ele>1070.57</ele>
        <time>2011-09-03T16:03:37Z</time>
      </trkpt>
      <trkpt lat="45.57879" lon="2.88656">
        <ele>1070.57</ele>
        <time>2011-09-03T16:03:38Z</time>
      </trkpt>
      <trkpt lat="45.57904" lon="2.88702">
        <ele>1072.49</ele>
        <time>2011-09-03T16:03:40Z</time>
      </trkpt>
      <trkpt lat="45.57916" lon="2.88724">
        <ele>1072.49</ele>
        <time>2011-09-03T16:03:41Z</time>
      </trkpt>
      <trkpt lat="45.57934" lon="2.88845">
        <ele>1073.93</ele>
        <time>2011-09-03T16:03:47Z</time>
      </trkpt>
      <trkpt lat="45.57906" lon="2.88877">
        <ele>1078.26</ele>
        <time>2011-09-03T16:03:50Z</time>
      </trkpt>
      <trkpt lat="45.57876" lon="2.88888">
        <ele>1081.14</ele>
        <time>2011-09-03T16:03:52Z</time>
      </trkpt>
      <trkpt lat="45.57846" lon="2.88905">
        <ele>1082.58</ele>
        <time>2011-09-03T16:03:54Z</time>
      </trkpt>
      <trkpt lat="45.57815" lon="2.88981">
        <ele>1083.06</ele>
        <time>2011-09-03T16:03:58Z</time>
      </trkpt>
      <trkpt lat="45.57846" lon="2.89031">
        <ele>1083.54</ele>
        <time>2011-09-03T16:04:02Z</time>
      </trkpt>
      <trkpt lat="45.57872" lon="2.89021">
        <ele>1087.39</ele>
        <time>2011-09-03T16:04:04Z</time>
      </trkpt>
      <trkpt lat="45.57934" lon="2.88998">
        <ele>1093.16</ele>
        <time>2011-09-03T16:04:08Z</time>
      </trkpt>
      <trkpt lat="45.57969" lon="2.8901">
        <ele>1096.04</ele>
        <time>2011-09-03T16:04:10Z</time>
      </trkpt>
      <trkpt lat="45.58045" lon="2.89022">
        <ele>1103.25</ele>
        <time>2011-09-03T16:04:14Z</time>
      </trkpt>
      <trkpt lat="45.58065" lon="2.89015">
        <ele>1106.61</ele>
        <time>2011-09-03T16:04:15Z</time>
      </trkpt>
      <trkpt lat="45.58102" lon="2.88995">
        <ele>1107.1</ele>
        <time>2011-09-03T16:04:17Z</time>
      </trkpt>
      <trkpt lat="45.5815" lon="2.88927">
        <ele>1110.94</ele>
        <time>2011-09-03T16:04:21Z</time>
      </trkpt>
      <trkpt lat="45.58172" lon="2.88883">
        <ele>1114.31</ele>
        <time>2011-09-03T16:04:23Z</time>
      </trkpt>
      <trkpt lat="45.58186" lon="2.88861">
        <ele>1117.67</ele>
        <time>2011-09-03T16:04:24Z</time>
      </trkpt>
      <trkpt lat="45.58234" lon="2.88786">
        <ele>1117.19</ele>
        <time>2011-09-03T16:04:28Z</time>
      </trkpt>
      <trkpt lat="45.58265" lon="2.88767">
        <ele>1117.19</ele>
        <time>2011-09-03T16:04:31Z</time>
      </trkpt>
      <trkpt lat="45.58275" lon="2.88772">
        <ele>1117.19</ele>
        <time>2011-09-03T16:04:32Z</time>
      </trkpt>
      <trkpt lat="45.58285" lon="2.88782">
        <ele>1118.15</ele>
        <time>2011-09-03T16:04:33Z</time>
      </trkpt>
      <trkpt lat="45.58295" lon="2.88797">
        <ele>1119.11</ele>
        <time>2011-09-03T16:04:34Z</time>
      </trkpt>
      <trkpt lat="45.58304" lon="2.88814">
        <ele>1121.52</ele>
        <time>2011-09-03T16:04:35Z</time>
      </trkpt>
      <trkpt lat="45.58325" lon="2.88852">
        <ele>1125.84</ele>
        <time>2011-09-03T16:04:37Z</time>
      </trkpt>
      <trkpt lat="45.58338" lon="2.88869">
        <ele>1126.8</ele>
        <time>2011-09-03T16:04:38Z</time>
      </trkpt>
      <trkpt lat="45.58353" lon="2.88885">
        <ele>1127.76</ele>
        <time>2011-09-03T16:04:39Z</time>
      </trkpt>
      <trkpt lat="45.58386" lon="2.88916">
        <ele>1130.65</ele>
        <time>2011-09-03T16:04:41Z</time>
      </trkpt>
      <trkpt lat="45.58435" lon="2.89005">
        <ele>1133.05</ele>
        <time>2011-09-03T16:04:45Z</time>
      </trkpt>
      <trkpt lat="45.58441" lon="2.89033">
        <ele>1134.49</ele>
        <time>2011-09-03T16:04:46Z</time>
      </trkpt>
      <trkpt lat="45.58452" lon="2.8909">
        <ele>1137.86</ele>
        <time>2011-09-03T16:04:48Z</time>
      </trkpt>
      <trkpt lat="45.58467" lon="2.89141">
        <ele>1138.82</ele>
        <time>2011-09-03T16:04:50Z</time>
      </trkpt>
      <trkpt lat="45.58515" lon="2.89207">
        <ele>1141.7</ele>
        <time>2011-09-03T16:04:54Z</time>
      </trkpt>
      <trkpt lat="45.5855" lon="2.89218">
        <ele>1144.59</ele>
        <time>2011-09-03T16:04:56Z</time>
      </trkpt>
      <trkpt lat="45.58596" lon="2.89217">
        <ele>1146.51</ele>
        <time>2011-09-03T16:04:59Z</time>
      </trkpt>
      <trkpt lat="45.58628" lon="2.89161">
        <ele>1149.87</ele>
        <time>2011-09-03T16:05:03Z</time>
      </trkpt>
      <trkpt lat="45.5864" lon="2.89113">
        <ele>1155.64</ele>
        <time>2011-09-03T16:05:05Z</time>
      </trkpt>
      <trkpt lat="45.58653" lon="2.8906">
        <ele>1158.05</ele>
        <time>2011-09-03T16:05:07Z</time>
      </trkpt>
      <trkpt lat="45.58664" lon="2.88967">
        <ele>1164.29</ele>
        <time>2011-09-03T16:05:10Z</time>
      </trkpt>
      <trkpt lat="45.58667" lon="2.88898">
        <ele>1170.06</ele>
        <time>2011-09-03T16:05:12Z</time>
      </trkpt>
      <trkpt lat="45.58669" lon="2.88823">
        <ele>1173.91</ele>
        <time>2011-09-03T16:05:14Z</time>
      </trkpt>
      <trkpt lat="45.5867" lon="2.88751">
        <ele>1174.87</ele>
        <time>2011-09-03T16:05:16Z</time>
      </trkpt>
      <trkpt lat="45.58673" lon="2.88631">
        <ele>1173.91</ele>
        <time>2011-09-03T16:05:20Z</time>
      </trkpt>
      <trkpt lat="45.58703" lon="2.88521">
        <ele>1179.67</ele>
        <time>2011-09-03T16:05:24Z</time>
      </trkpt>
      <trkpt lat="45.58726" lon="2.88464">
        <ele>1184</ele>
        <time>2011-09-03T16:05:26Z</time>
      </trkpt>
      <trkpt lat="45.58736" lon="2.88435">
        <ele>1185.44</ele>
        <time>2011-09-03T16:05:27Z</time>
      </trkpt>
      <trkpt lat="45.5876" lon="2.88318">
        <ele>1188.33</ele>
        <time>2011-09-03T16:05:31Z</time>
      </trkpt>
      <trkpt lat="45.58754" lon="2.88212">
        <ele>1191.21</ele>
        <time>2011-09-03T16:05:35Z</time>
      </trkpt>
      <trkpt lat="45.5876" lon="2.88123">
        <ele>1193.13</ele>
        <time>2011-09-03T16:05:39Z</time>
      </trkpt>
      <trkpt lat="45.58788" lon="2.88059">
        <ele>1197.46</ele>
        <time>2011-09-03T16:05:42Z</time>
      </trkpt>
      <trkpt lat="45.58791" lon="2.87976">
        <ele>1199.38</ele>
        <time>2011-09-03T16:05:46Z</time>
      </trkpt>
      <trkpt lat="45.58777" lon="2.87936">
        <ele>1202.75</ele>
        <time>2011-09-03T16:05:48Z</time>
      </trkpt>
      <trkpt lat="45.58773" lon="2.87918">
        <ele>1201.3</ele>
        <time>2011-09-03T16:05:49Z</time>
      </trkpt>
      <trkpt lat="45.58789" lon="2.87847">
        <ele>1204.67</ele>
        <time>2011-09-03T16:05:53Z</time>
      </trkpt>
      <trkpt lat="45.58838" lon="2.87774">
        <ele>1213.32</ele>
        <time>2011-09-03T16:05:57Z</time>
      </trkpt>
      <trkpt lat="45.58854" lon="2.87754">
        <ele>1213.32</ele>
        <time>2011-09-03T16:05:58Z</time>
      </trkpt>
      <trkpt lat="45.58885" lon="2.87709">
        <ele>1220.53</ele>
        <time>2011-09-03T16:06:00Z</time>
      </trkpt>
      <trkpt lat="45.58915" lon="2.87658">
        <ele>1224.38</ele>
        <time>2011-09-03T16:06:02Z</time>
      </trkpt>
      <trkpt lat="45.58944" lon="2.87606">
        <ele>1227.74</ele>
        <time>2011-09-03T16:06:04Z</time>
      </trkpt>
      <trkpt lat="45.5897" lon="2.87551">
        <ele>1231.11</ele>
        <time>2011-09-03T16:06:06Z</time>
      </trkpt>
      <trkpt lat="45.58997" lon="2.87461">
        <ele>1234.95</ele>
        <time>2011-09-03T16:06:09Z</time>
      </trkpt>
      <trkpt lat="45.5901" lon="2.87402">
        <ele>1236.87</ele>
        <time>2011-09-03T16:06:11Z</time>
      </trkpt>
      <trkpt lat="45.59014" lon="2.87347">
        <ele>1239.28</ele>
        <time>2011-09-03T16:06:13Z</time>
      </trkpt>
      <trkpt lat="45.59003" lon="2.87277">
        <ele>1238.8</ele>
        <time>2011-09-03T16:06:16Z</time>
      </trkpt>
      <trkpt lat="45.58981" lon="2.87214">
        <ele>1244.08</ele>
        <time>2011-09-03T16:06:19Z</time>
      </trkpt>
      <trkpt lat="45.58977" lon="2.87159">
        <ele>1246.97</ele>
        <time>2011-09-03T16:06:22Z</time>
      </trkpt>
      <trkpt lat="45.58982" lon="2.8714">
        <ele>1246.49</ele>
        <time>2011-09-03T16:06:23Z</time>
      </trkpt>
      <trkpt lat="45.58987" lon="2.8712">
        <ele>1249.85</ele>
        <time>2011-09-03T16:06:24Z</time>
      </trkpt>
      <trkpt lat="45.58991" lon="2.87096">
        <ele>1253.22</ele>
        <time>2011-09-03T16:06:25Z</time>
      </trkpt>
      <trkpt lat="45.58993" lon="2.87015">
        <ele>1256.58</ele>
        <time>2011-09-03T16:06:28Z</time>
      </trkpt>
      <trkpt lat="45.58987" lon="2.86959">
        <ele>1259.94</ele>
        <time>2011-09-03T16:06:30Z</time>
      </trkpt>
      <trkpt lat="45.58991" lon="2.86817">
        <ele>1266.19</ele>
        <time>2011-09-03T16:06:35Z</time>
      </trkpt>
      <trkpt lat="45.59009" lon="2.86733">
        <ele>1270.52</ele>
        <time>2011-09-03T16:06:38Z</time>
      </trkpt>
      <trkpt lat="45.59025" lon="2.86673">
        <ele>1275.33</ele>
        <time>2011-09-03T16:06:40Z</time>
      </trkpt>
      <trkpt lat="45.59037" lon="2.86609">
        <ele>1278.21</ele>
        <time>2011-09-03T16:06:42Z</time>
      </trkpt>
      <trkpt lat="45.59052" lon="2.86517">
        <ele>1282.06</ele>
        <time>2011-09-03T16:06:45Z</time>
      </trkpt>
      <trkpt lat="45.59057" lon="2.86489">
        <ele>1283.5</ele>
        <time>2011-09-03T16:06:46Z</time>
      </trkpt>
      <trkpt lat="45.59095" lon="2.86385">
        <ele>1288.3</ele>
        <time>2011-09-03T16:06:50Z</time>
      </trkpt>
      <trkpt lat="45.59107" lon="2.86364">
        <ele>1287.34</ele>
        <time>2011-09-03T16:06:51Z</time>
      </trkpt>
      <trkpt lat="45.59174" lon="2.86301">
        <ele>1291.19</ele>
        <time>2011-09-03T16:06:56Z</time>
      </trkpt>
      <trkpt lat="45.59212" lon="2.86285">
        <ele>1296.96</ele>
        <time>2011-09-03T16:06:58Z</time>
      </trkpt>
      <trkpt lat="45.59232" lon="2.86275">
        <ele>1296.96</ele>
        <time>2011-09-03T16:06:59Z</time>
      </trkpt>
      <trkpt lat="45.59293" lon="2.86243">
        <ele>1301.28</ele>
        <time>2011-09-03T16:07:02Z</time>
      </trkpt>
      <trkpt lat="45.5933" lon="2.86225">
        <ele>1303.2</ele>
        <time>2011-09-03T16:07:04Z</time>
      </trkpt>
      <trkpt lat="45.59361" lon="2.86214">
        <ele>1301.28</ele>
        <time>2011-09-03T16:07:06Z</time>
      </trkpt>
      <trkpt lat="45.59394" lon="2.86179">
        <ele>1305.13</ele>
        <time>2011-09-03T16:07:09Z</time>
      </trkpt>
      <trkpt lat="45.59401" lon="2.86159">
        <ele>1307.53</ele>
        <time>2011-09-03T16:07:10Z</time>
      </trkpt>
      <trkpt lat="45.59421" lon="2.86102">
        <ele>1308.97</ele>
        <time>2011-09-03T16:07:13Z</time>
      </trkpt>
      <trkpt lat="45.59406" lon="2.86025">
        <ele>1312.34</ele>
        <time>2011-09-03T16:07:18Z</time>
      </trkpt>
      <trkpt lat="45.59398" lon="2.85984">
        <ele>1317.14</ele>
        <time>2011-09-03T16:07:20Z</time>
      </trkpt>
      <trkpt lat="45.59401" lon="2.8594">
        <ele>1321.47</ele>
        <time>2011-09-03T16:07:22Z</time>
      </trkpt>
      <trkpt lat="45.59415" lon="2.85866">
        <ele>1326.76</ele>
        <time>2011-09-03T16:07:25Z</time>
      </trkpt>
      <trkpt lat="45.59429" lon="2.85792">
        <ele>1327.72</ele>
        <time>2011-09-03T16:07:28Z</time>
      </trkpt>
      <trkpt lat="45.59416" lon="2.85713">
        <ele>1331.56</ele>
        <time>2011-09-03T16:07:32Z</time>
      </trkpt>
      <trkpt lat="45.59404" lon="2.85697">
        <ele>1332.52</ele>
        <time>2011-09-03T16:07:33Z</time>
      </trkpt>
      <trkpt lat="45.59372" lon="2.85648">
        <ele>1337.33</ele>
        <time>2011-09-03T16:07:36Z</time>
      </trkpt>
      <trkpt lat="45.59367" lon="2.85609">
        <ele>1340.22</ele>
        <time>2011-09-03T16:07:38Z</time>
      </trkpt>
      <trkpt lat="45.59374" lon="2.85568">
        <ele>1342.14</ele>
        <time>2011-09-03T16:07:40Z</time>
      </trkpt>
      <trkpt lat="45.59393" lon="2.85493">
        <ele>1347.43</ele>
        <time>2011-09-03T16:07:43Z</time>
      </trkpt>
      <trkpt lat="45.59402" lon="2.85439">
        <ele>1350.79</ele>
        <time>2011-09-03T16:07:45Z</time>
      </trkpt>
      <trkpt lat="45.59406" lon="2.85414">
        <ele>1350.79</ele>
        <time>2011-09-03T16:07:46Z</time>
      </trkpt>
      <trkpt lat="45.59443" lon="2.85327">
        <ele>1355.12</ele>
        <time>2011-09-03T16:07:50Z</time>
      </trkpt>
      <trkpt lat="45.59458" lon="2.85308">
        <ele>1356.08</ele>
        <time>2011-09-03T16:07:51Z</time>
      </trkpt>
      <trkpt lat="45.59506" lon="2.85245">
        <ele>1362.33</ele>
        <time>2011-09-03T16:07:54Z</time>
      </trkpt>
      <trkpt lat="45.59533" lon="2.85205">
        <ele>1362.33</ele>
        <time>2011-09-03T16:07:56Z</time>
      </trkpt>
      <trkpt lat="45.59594" lon="2.85174">
        <ele>1365.69</ele>
        <time>2011-09-03T16:08:00Z</time>
      </trkpt>
      <trkpt lat="45.59631" lon="2.85167">
        <ele>1368.09</ele>
        <time>2011-09-03T16:08:02Z</time>
      </trkpt>
      <trkpt lat="45.59702" lon="2.851">
        <ele>1372.9</ele>
        <time>2011-09-03T16:08:07Z</time>
      </trkpt>
      <trkpt lat="45.59712" lon="2.85078">
        <ele>1374.34</ele>
        <time>2011-09-03T16:08:08Z</time>
      </trkpt>
      <trkpt lat="45.59807" lon="2.8484">
        <ele>1369.54</ele>
        <time>2011-09-03T16:08:16Z</time>
      </trkpt>
      <trkpt lat="45.59832" lon="2.84774">
        <ele>1364.73</ele>
        <time>2011-09-03T16:08:18Z</time>
      </trkpt>
      <trkpt lat="45.59871" lon="2.84674">
        <ele>1360.88</ele>
        <time>2011-09-03T16:08:21Z</time>
      </trkpt>
      <trkpt lat="45.59898" lon="2.84608">
        <ele>1356.08</ele>
        <time>2011-09-03T16:08:23Z</time>
      </trkpt>
      <trkpt lat="45.59911" lon="2.84576">
        <ele>1352.71</ele>
        <time>2011-09-03T16:08:24Z</time>
      </trkpt>
      <trkpt lat="45.59948" lon="2.84481">
        <ele>1348.39</ele>
        <time>2011-09-03T16:08:27Z</time>
      </trkpt>
      <trkpt lat="45.59972" lon="2.84418">
        <ele>1345.5</ele>
        <time>2011-09-03T16:08:29Z</time>
      </trkpt>
      <trkpt lat="45.59997" lon="2.8432">
        <ele>1342.14</ele>
        <time>2011-09-03T16:08:32Z</time>
      </trkpt>
      <trkpt lat="45.60007" lon="2.84251">
        <ele>1338.77</ele>
        <time>2011-09-03T16:08:34Z</time>
      </trkpt>
      <trkpt lat="45.60015" lon="2.84186">
        <ele>1336.85</ele>
        <time>2011-09-03T16:08:36Z</time>
      </trkpt>
      <trkpt lat="45.60013" lon="2.84093">
        <ele>1331.08</ele>
        <time>2011-09-03T16:08:39Z</time>
      </trkpt>
      <trkpt lat="45.59978" lon="2.83966">
        <ele>1329.16</ele>
        <time>2011-09-03T16:08:43Z</time>
      </trkpt>
      <trkpt lat="45.59928" lon="2.83842">
        <ele>1323.87</ele>
        <time>2011-09-03T16:08:47Z</time>
      </trkpt>
      <trkpt lat="45.59904" lon="2.83783">
        <ele>1319.07</ele>
        <time>2011-09-03T16:08:49Z</time>
      </trkpt>
      <trkpt lat="45.59882" lon="2.83728">
        <ele>1314.74</ele>
        <time>2011-09-03T16:08:51Z</time>
      </trkpt>
      <trkpt lat="45.59871" lon="2.83702">
        <ele>1312.82</ele>
        <time>2011-09-03T16:08:52Z</time>
      </trkpt>
      <trkpt lat="45.59827" lon="2.8364">
        <ele>1308.01</ele>
        <time>2011-09-03T16:08:55Z</time>
      </trkpt>
      <trkpt lat="45.59809" lon="2.83622">
        <ele>1307.53</ele>
        <time>2011-09-03T16:08:56Z</time>
      </trkpt>
      <trkpt lat="45.59776" lon="2.83578">
        <ele>1306.57</ele>
        <time>2011-09-03T16:08:58Z</time>
      </trkpt>
      <trkpt lat="45.5973" lon="2.8351">
        <ele>1302.24</ele>
        <time>2011-09-03T16:09:01Z</time>
      </trkpt>
      <trkpt lat="45.59716" lon="2.83491">
        <ele>1298.88</ele>
        <time>2011-09-03T16:09:02Z</time>
      </trkpt>
      <trkpt lat="45.59704" lon="2.83474">
        <ele>1294.07</ele>
        <time>2011-09-03T16:09:03Z</time>
      </trkpt>
      <trkpt lat="45.59693" lon="2.83459">
        <ele>1292.63</ele>
        <time>2011-09-03T16:09:04Z</time>
      </trkpt>
      <trkpt lat="45.5966" lon="2.8344">
        <ele>1287.82</ele>
        <time>2011-09-03T16:09:07Z</time>
      </trkpt>
      <trkpt lat="45.59648" lon="2.83444">
        <ele>1287.82</ele>
        <time>2011-09-03T16:09:08Z</time>
      </trkpt>
      <trkpt lat="45.59637" lon="2.83452">
        <ele>1287.34</ele>
        <time>2011-09-03T16:09:09Z</time>
      </trkpt>
      <trkpt lat="45.59591" lon="2.83468">
        <ele>1280.61</ele>
        <time>2011-09-03T16:09:13Z</time>
      </trkpt>
      <trkpt lat="45.59568" lon="2.83448">
        <ele>1280.13</ele>
        <time>2011-09-03T16:09:15Z</time>
      </trkpt>
      <trkpt lat="45.59509" lon="2.83407">
        <ele>1278.21</ele>
        <time>2011-09-03T16:09:20Z</time>
      </trkpt>
      <trkpt lat="45.59463" lon="2.83367">
        <ele>1271.48</ele>
        <time>2011-09-03T16:09:24Z</time>
      </trkpt>
      <trkpt lat="45.59438" lon="2.83339">
        <ele>1269.56</ele>
        <time>2011-09-03T16:09:27Z</time>
      </trkpt>
      <trkpt lat="45.59426" lon="2.83338">
        <ele>1268.6</ele>
        <time>2011-09-03T16:09:28Z</time>
      </trkpt>
      <trkpt lat="45.5937" lon="2.83303">
        <ele>1263.79</ele>
        <time>2011-09-03T16:09:33Z</time>
      </trkpt>
      <trkpt lat="45.59364" lon="2.83284">
        <ele>1263.31</ele>
        <time>2011-09-03T16:09:34Z</time>
      </trkpt>
      <trkpt lat="45.59349" lon="2.83214">
        <ele>1257.54</ele>
        <time>2011-09-03T16:09:38Z</time>
      </trkpt>
      <trkpt lat="45.59324" lon="2.83178">
        <ele>1254.18</ele>
        <time>2011-09-03T16:09:42Z</time>
      </trkpt>
      <trkpt lat="45.59315" lon="2.83176">
        <ele>1254.18</ele>
        <time>2011-09-03T16:09:43Z</time>
      </trkpt>
      <trkpt lat="45.59263" lon="2.83201">
        <ele>1254.66</ele>
        <time>2011-09-03T16:09:48Z</time>
      </trkpt>
      <trkpt lat="45.5923" lon="2.83233">
        <ele>1250.81</ele>
        <time>2011-09-03T16:09:51Z</time>
      </trkpt>
      <trkpt lat="45.59222" lon="2.83241">
        <ele>1248.41</ele>
        <time>2011-09-03T16:09:52Z</time>
      </trkpt>
      <trkpt lat="45.59205" lon="2.83245">
        <ele>1245.04</ele>
        <time>2011-09-03T16:09:54Z</time>
      </trkpt>
      <trkpt lat="45.59199" lon="2.8324">
        <ele>1244.08</ele>
        <time>2011-09-03T16:09:55Z</time>
      </trkpt>
      <trkpt lat="45.59196" lon="2.83231">
        <ele>1245.04</ele>
        <time>2011-09-03T16:09:56Z</time>
      </trkpt>
      <trkpt lat="45.59195" lon="2.83218">
        <ele>1245.04</ele>
        <time>2011-09-03T16:09:57Z</time>
      </trkpt>
      <trkpt lat="45.59198" lon="2.83199">
        <ele>1245.53</ele>
        <time>2011-09-03T16:09:58Z</time>
      </trkpt>
      <trkpt lat="45.59203" lon="2.83178">
        <ele>1246.01</ele>
        <time>2011-09-03T16:09:59Z</time>
      </trkpt>
      <trkpt lat="45.5921" lon="2.83157">
        <ele>1246.01</ele>
        <time>2011-09-03T16:10:00Z</time>
      </trkpt>
      <trkpt lat="45.59256" lon="2.83">
        <ele>1242.64</ele>
        <time>2011-09-03T16:10:06Z</time>
      </trkpt>
      <trkpt lat="45.59262" lon="2.82977">
        <ele>1239.28</ele>
        <time>2011-09-03T16:10:07Z</time>
      </trkpt>
      <trkpt lat="45.59267" lon="2.82955">
        <ele>1237.35</ele>
        <time>2011-09-03T16:10:08Z</time>
      </trkpt>
      <trkpt lat="45.59263" lon="2.82878">
        <ele>1232.55</ele>
        <time>2011-09-03T16:10:12Z</time>
      </trkpt>
      <trkpt lat="45.59253" lon="2.8286">
        <ele>1233.03</ele>
        <time>2011-09-03T16:10:13Z</time>
      </trkpt>
      <trkpt lat="45.59184" lon="2.82799">
        <ele>1229.18</ele>
        <time>2011-09-03T16:10:18Z</time>
      </trkpt>
      <trkpt lat="45.59119" lon="2.82766">
        <ele>1226.3</ele>
        <time>2011-09-03T16:10:22Z</time>
      </trkpt>
      <trkpt lat="45.59008" lon="2.82664">
        <ele>1223.42</ele>
        <time>2011-09-03T16:10:28Z</time>
      </trkpt>
      <trkpt lat="45.58974" lon="2.82622">
        <ele>1219.57</ele>
        <time>2011-09-03T16:10:30Z</time>
      </trkpt>
      <trkpt lat="45.58945" lon="2.82578">
        <ele>1215.72</ele>
        <time>2011-09-03T16:10:32Z</time>
      </trkpt>
      <trkpt lat="45.5893" lon="2.82557">
        <ele>1214.76</ele>
        <time>2011-09-03T16:10:33Z</time>
      </trkpt>
      <trkpt lat="45.58913" lon="2.8254">
        <ele>1213.32</ele>
        <time>2011-09-03T16:10:34Z</time>
      </trkpt>
      <trkpt lat="45.58895" lon="2.82526">
        <ele>1212.36</ele>
        <time>2011-09-03T16:10:35Z</time>
      </trkpt>
      <trkpt lat="45.58859" lon="2.825">
        <ele>1209.48</ele>
        <time>2011-09-03T16:10:37Z</time>
      </trkpt>
      <trkpt lat="45.58802" lon="2.82457">
        <ele>1205.63</ele>
        <time>2011-09-03T16:10:40Z</time>
      </trkpt>
      <trkpt lat="45.58782" lon="2.82445">
        <ele>1205.15</ele>
        <time>2011-09-03T16:10:41Z</time>
      </trkpt>
      <trkpt lat="45.58739" lon="2.82422">
        <ele>1202.27</ele>
        <time>2011-09-03T16:10:43Z</time>
      </trkpt>
      <trkpt lat="45.58718" lon="2.82407">
        <ele>1200.34</ele>
        <time>2011-09-03T16:10:44Z</time>
      </trkpt>
      <trkpt lat="45.58699" lon="2.8239">
        <ele>1200.34</ele>
        <time>2011-09-03T16:10:45Z</time>
      </trkpt>
      <trkpt lat="45.58663" lon="2.82355">
        <ele>1195.54</ele>
        <time>2011-09-03T16:10:47Z</time>
      </trkpt>
      <trkpt lat="45.58631" lon="2.82314">
        <ele>1192.65</ele>
        <time>2011-09-03T16:10:49Z</time>
      </trkpt>
      <trkpt lat="45.58617" lon="2.82292">
        <ele>1191.69</ele>
        <time>2011-09-03T16:10:50Z</time>
      </trkpt>
      <trkpt lat="45.58607" lon="2.82271">
        <ele>1187.85</ele>
        <time>2011-09-03T16:10:51Z</time>
      </trkpt>
      <trkpt lat="45.58598" lon="2.82252">
        <ele>1184.96</ele>
        <time>2011-09-03T16:10:52Z</time>
      </trkpt>
      <trkpt lat="45.58585" lon="2.82221">
        <ele>1179.67</ele>
        <time>2011-09-03T16:10:54Z</time>
      </trkpt>
      <trkpt lat="45.58574" lon="2.82199">
        <ele>1177.27</ele>
        <time>2011-09-03T16:10:56Z</time>
      </trkpt>
      <trkpt lat="45.58565" lon="2.82179">
        <ele>1173.91</ele>
        <time>2011-09-03T16:11:00Z</time>
      </trkpt>
      <trkpt lat="45.58565" lon="2.82178">
        <ele>1173.91</ele>
        <time>2011-09-03T16:11:01Z</time>
      </trkpt>
      <trkpt lat="45.58562" lon="2.82172">
        <ele>1174.39</ele>
        <time>2011-09-03T16:11:16Z</time>
      </trkpt>
      <trkpt lat="45.58548" lon="2.82161">
        <ele>1172.95</ele>
        <time>2011-09-03T16:11:24Z</time>
      </trkpt>
      <trkpt lat="45.58523" lon="2.82156">
        <ele>1174.87</ele>
        <time>2011-09-03T16:11:55Z</time>
      </trkpt>
      <trkpt lat="45.5849" lon="2.82148">
        <ele>1174.39</ele>
        <time>2011-09-03T16:11:58Z</time>
      </trkpt>
      <trkpt lat="45.58439" lon="2.82086">
        <ele>1174.87</ele>
        <time>2011-09-03T16:12:03Z</time>
      </trkpt>
      <trkpt lat="45.58433" lon="2.82041">
        <ele>1173.91</ele>
        <time>2011-09-03T16:12:05Z</time>
      </trkpt>
      <trkpt lat="45.58422" lon="2.81972">
        <ele>1171.98</ele>
        <time>2011-09-03T16:12:08Z</time>
      </trkpt>
      <trkpt lat="45.58387" lon="2.81924">
        <ele>1168.62</ele>
        <time>2011-09-03T16:12:11Z</time>
      </trkpt>
      <trkpt lat="45.58325" lon="2.81914">
        <ele>1167.18</ele>
        <time>2011-09-03T16:12:15Z</time>
      </trkpt>
      <trkpt lat="45.58308" lon="2.81922">
        <ele>1165.74</ele>
        <time>2011-09-03T16:12:16Z</time>
      </trkpt>
      <trkpt lat="45.58263" lon="2.81947">
        <ele>1160.93</ele>
        <time>2011-09-03T16:12:19Z</time>
      </trkpt>
      <trkpt lat="45.5824" lon="2.81959">
        <ele>1158.05</ele>
        <time>2011-09-03T16:12:21Z</time>
      </trkpt>
      <trkpt lat="45.58213" lon="2.81945">
        <ele>1154.2</ele>
        <time>2011-09-03T16:12:25Z</time>
      </trkpt>
      <trkpt lat="45.58234" lon="2.81892">
        <ele>1155.16</ele>
        <time>2011-09-03T16:12:29Z</time>
      </trkpt>
      <trkpt lat="45.58286" lon="2.81763">
        <ele>1151.8</ele>
        <time>2011-09-03T16:12:36Z</time>
      </trkpt>
      <trkpt lat="45.58281" lon="2.81718">
        <ele>1149.87</ele>
        <time>2011-09-03T16:12:38Z</time>
      </trkpt>
      <trkpt lat="45.58271" lon="2.81681">
        <ele>1146.51</ele>
        <time>2011-09-03T16:12:40Z</time>
      </trkpt>
      <trkpt lat="45.58294" lon="2.81624">
        <ele>1142.66</ele>
        <time>2011-09-03T16:12:45Z</time>
      </trkpt>
      <trkpt lat="45.58323" lon="2.81614">
        <ele>1144.11</ele>
        <time>2011-09-03T16:12:47Z</time>
      </trkpt>
      <trkpt lat="45.5839" lon="2.81591">
        <ele>1141.7</ele>
        <time>2011-09-03T16:12:51Z</time>
      </trkpt>
      <trkpt lat="45.58431" lon="2.81557">
        <ele>1139.3</ele>
        <time>2011-09-03T16:12:54Z</time>
      </trkpt>
      <trkpt lat="45.58448" lon="2.81521">
        <ele>1136.42</ele>
        <time>2011-09-03T16:12:56Z</time>
      </trkpt>
      <trkpt lat="45.58488" lon="2.81452">
        <ele>1134.49</ele>
        <time>2011-09-03T16:13:00Z</time>
      </trkpt>
      <trkpt lat="45.58513" lon="2.81418">
        <ele>1133.53</ele>
        <time>2011-09-03T16:13:02Z</time>
      </trkpt>
      <trkpt lat="45.58524" lon="2.81398">
        <ele>1133.05</ele>
        <time>2011-09-03T16:13:03Z</time>
      </trkpt>
      <trkpt lat="45.58535" lon="2.81376">
        <ele>1131.61</ele>
        <time>2011-09-03T16:13:04Z</time>
      </trkpt>
      <trkpt lat="45.58544" lon="2.81354">
        <ele>1131.61</ele>
        <time>2011-09-03T16:13:05Z</time>
      </trkpt>
      <trkpt lat="45.58552" lon="2.81329">
        <ele>1130.65</ele>
        <time>2011-09-03T16:13:06Z</time>
      </trkpt>
      <trkpt lat="45.58557" lon="2.81303">
        <ele>1129.69</ele>
        <time>2011-09-03T16:13:07Z</time>
      </trkpt>
      <trkpt lat="45.58562" lon="2.81277">
        <ele>1127.76</ele>
        <time>2011-09-03T16:13:08Z</time>
      </trkpt>
      <trkpt lat="45.58568" lon="2.81253">
        <ele>1125.84</ele>
        <time>2011-09-03T16:13:09Z</time>
      </trkpt>
      <trkpt lat="45.58575" lon="2.81232">
        <ele>1124.88</ele>
        <time>2011-09-03T16:13:10Z</time>
      </trkpt>
      <trkpt lat="45.58582" lon="2.8121">
        <ele>1123.44</ele>
        <time>2011-09-03T16:13:11Z</time>
      </trkpt>
      <trkpt lat="45.58587" lon="2.8119">
        <ele>1121.52</ele>
        <time>2011-09-03T16:13:12Z</time>
      </trkpt>
      <trkpt lat="45.58591" lon="2.81173">
        <ele>1120.07</ele>
        <time>2011-09-03T16:13:13Z</time>
      </trkpt>
      <trkpt lat="45.58597" lon="2.81158">
        <ele>1117.67</ele>
        <time>2011-09-03T16:13:14Z</time>
      </trkpt>
      <trkpt lat="45.58616" lon="2.81136">
        <ele>1116.23</ele>
        <time>2011-09-03T16:13:16Z</time>
      </trkpt>
      <trkpt lat="45.58656" lon="2.81073">
        <ele>1117.19</ele>
        <time>2011-09-03T16:13:20Z</time>
      </trkpt>
      <trkpt lat="45.58699" lon="2.80957">
        <ele>1112.38</ele>
        <time>2011-09-03T16:13:25Z</time>
      </trkpt>
      <trkpt lat="45.58707" lon="2.80935">
        <ele>1110.94</ele>
        <time>2011-09-03T16:13:26Z</time>
      </trkpt>
      <trkpt lat="45.58718" lon="2.80888">
        <ele>1109.5</ele>
        <time>2011-09-03T16:13:28Z</time>
      </trkpt>
      <trkpt lat="45.58723" lon="2.80719">
        <ele>1107.58</ele>
        <time>2011-09-03T16:13:34Z</time>
      </trkpt>
      <trkpt lat="45.58713" lon="2.8063">
        <ele>1103.25</ele>
        <time>2011-09-03T16:13:37Z</time>
      </trkpt>
      <trkpt lat="45.58699" lon="2.80544">
        <ele>1099.4</ele>
        <time>2011-09-03T16:13:40Z</time>
      </trkpt>
      <trkpt lat="45.58692" lon="2.80493">
        <ele>1095.56</ele>
        <time>2011-09-03T16:13:42Z</time>
      </trkpt>
      <trkpt lat="45.58688" lon="2.80448">
        <ele>1091.71</ele>
        <time>2011-09-03T16:13:44Z</time>
      </trkpt>
      <trkpt lat="45.58658" lon="2.80397">
        <ele>1086.91</ele>
        <time>2011-09-03T16:13:48Z</time>
      </trkpt>
      <trkpt lat="45.58603" lon="2.80412">
        <ele>1085.95</ele>
        <time>2011-09-03T16:13:52Z</time>
      </trkpt>
      <trkpt lat="45.58549" lon="2.80457">
        <ele>1082.58</ele>
        <time>2011-09-03T16:13:56Z</time>
      </trkpt>
      <trkpt lat="45.58508" lon="2.80475">
        <ele>1079.22</ele>
        <time>2011-09-03T16:13:59Z</time>
      </trkpt>
      <trkpt lat="45.58398" lon="2.80555">
        <ele>1076.81</ele>
        <time>2011-09-03T16:14:06Z</time>
      </trkpt>
      <trkpt lat="45.58351" lon="2.80597">
        <ele>1072.49</ele>
        <time>2011-09-03T16:14:09Z</time>
      </trkpt>
      <trkpt lat="45.58325" lon="2.8062">
        <ele>1067.2</ele>
        <time>2011-09-03T16:14:11Z</time>
      </trkpt>
      <trkpt lat="45.58294" lon="2.80645">
        <ele>1062.39</ele>
        <time>2011-09-03T16:14:14Z</time>
      </trkpt>
      <trkpt lat="45.58285" lon="2.80653">
        <ele>1062.87</ele>
        <time>2011-09-03T16:14:15Z</time>
      </trkpt>
      <trkpt lat="45.58193" lon="2.80738">
        <ele>1060.95</ele>
        <time>2011-09-03T16:14:24Z</time>
      </trkpt>
      <trkpt lat="45.58165" lon="2.80762">
        <ele>1059.99</ele>
        <time>2011-09-03T16:14:26Z</time>
      </trkpt>
      <trkpt lat="45.58107" lon="2.80803">
        <ele>1055.67</ele>
        <time>2011-09-03T16:14:30Z</time>
      </trkpt>
      <trkpt lat="45.58051" lon="2.80835">
        <ele>1051.82</ele>
        <time>2011-09-03T16:14:34Z</time>
      </trkpt>
      <trkpt lat="45.58037" lon="2.80842">
        <ele>1051.82</ele>
        <time>2011-09-03T16:14:35Z</time>
      </trkpt>
      <trkpt lat="45.57966" lon="2.80876">
        <ele>1047.01</ele>
        <time>2011-09-03T16:14:40Z</time>
      </trkpt>
      <trkpt lat="45.57951" lon="2.80881">
        <ele>1047.01</ele>
        <time>2011-09-03T16:14:41Z</time>
      </trkpt>
      <trkpt lat="45.57895" lon="2.80899">
        <ele>1043.65</ele>
        <time>2011-09-03T16:14:45Z</time>
      </trkpt>
      <trkpt lat="45.57881" lon="2.80903">
        <ele>1043.65</ele>
        <time>2011-09-03T16:14:46Z</time>
      </trkpt>
      <trkpt lat="45.57831" lon="2.80919">
        <ele>1039.8</ele>
        <time>2011-09-03T16:14:50Z</time>
      </trkpt>
      <trkpt lat="45.57791" lon="2.80929">
        <ele>1036.44</ele>
        <time>2011-09-03T16:14:54Z</time>
      </trkpt>
      <trkpt lat="45.57696" lon="2.80967">
        <ele>1034.52</ele>
        <time>2011-09-03T16:15:02Z</time>
      </trkpt>
      <trkpt lat="45.57682" lon="2.80973">
        <ele>1034.52</ele>
        <time>2011-09-03T16:15:03Z</time>
      </trkpt>
      <trkpt lat="45.57629" lon="2.80997">
        <ele>1031.15</ele>
        <time>2011-09-03T16:15:07Z</time>
      </trkpt>
      <trkpt lat="45.57568" lon="2.81024">
        <ele>1027.79</ele>
        <time>2011-09-03T16:15:12Z</time>
      </trkpt>
      <trkpt lat="45.57535" lon="2.81031">
        <ele>1025.86</ele>
        <time>2011-09-03T16:15:15Z</time>
      </trkpt>
      <trkpt lat="45.57506" lon="2.8103">
        <ele>1023.94</ele>
        <time>2011-09-03T16:15:18Z</time>
      </trkpt>
      <trkpt lat="45.57492" lon="2.8102">
        <ele>1022.98</ele>
        <time>2011-09-03T16:15:20Z</time>
      </trkpt>
      <trkpt lat="45.57484" lon="2.80998">
        <ele>1022.5</ele>
        <time>2011-09-03T16:15:22Z</time>
      </trkpt>
      <trkpt lat="45.57467" lon="2.80928">
        <ele>1019.13</ele>
        <time>2011-09-03T16:15:28Z</time>
      </trkpt>
      <trkpt lat="45.5746" lon="2.80917">
        <ele>1019.13</ele>
        <time>2011-09-03T16:15:35Z</time>
      </trkpt>
      <trkpt lat="45.5746" lon="2.80917">
        <ele>1019.13</ele>
        <time>2011-09-03T16:15:44Z</time>
      </trkpt>
      <trkpt lat="45.57445" lon="2.80927">
        <ele>1021.06</ele>
        <time>2011-09-03T16:15:49Z</time>
      </trkpt>
      <trkpt lat="45.57418" lon="2.80941">
        <ele>1022.98</ele>
        <time>2011-09-03T16:15:53Z</time>
      </trkpt>
      <trkpt lat="45.57411" lon="2.80944">
        <ele>1023.46</ele>
        <time>2011-09-03T16:15:54Z</time>
      </trkpt>
      <trkpt lat="45.57355" lon="2.80974">
        <ele>1026.34</ele>
        <time>2011-09-03T16:16:03Z</time>
      </trkpt>
      <trkpt lat="45.57348" lon="2.80977">
        <ele>1026.34</ele>
        <time>2011-09-03T16:16:04Z</time>
      </trkpt>
      <trkpt lat="45.57308" lon="2.80993">
        <ele>1028.27</ele>
        <time>2011-09-03T16:16:09Z</time>
      </trkpt>
      <trkpt lat="45.57256" lon="2.81023">
        <ele>1030.19</ele>
        <time>2011-09-03T16:16:16Z</time>
      </trkpt>
      <trkpt lat="45.57233" lon="2.81027">
        <ele>1029.71</ele>
        <time>2011-09-03T16:16:20Z</time>
      </trkpt>
      <trkpt lat="45.57221" lon="2.8103">
        <ele>1030.67</ele>
        <time>2011-09-03T16:16:23Z</time>
      </trkpt>
      <trkpt lat="45.5722" lon="2.81051">
        <ele>1031.63</ele>
        <time>2011-09-03T16:16:27Z</time>
      </trkpt>
      <trkpt lat="45.57239" lon="2.81126">
        <ele>1031.63</ele>
        <time>2011-09-03T16:16:35Z</time>
      </trkpt>
      <trkpt lat="45.57233" lon="2.81147">
        <ele>1033.07</ele>
        <time>2011-09-03T16:16:39Z</time>
      </trkpt>
      <trkpt lat="45.5722" lon="2.81156">
        <ele>1035</ele>
        <time>2011-09-03T16:16:41Z</time>
      </trkpt>
      <trkpt lat="45.57183" lon="2.81186">
        <ele>1037.88</ele>
        <time>2011-09-03T16:16:45Z</time>
      </trkpt>
      <trkpt lat="45.57154" lon="2.8122">
        <ele>1041.25</ele>
        <time>2011-09-03T16:16:48Z</time>
      </trkpt>
      <trkpt lat="45.57108" lon="2.81265">
        <ele>1044.13</ele>
        <time>2011-09-03T16:16:52Z</time>
      </trkpt>
      <trkpt lat="45.57067" lon="2.81288">
        <ele>1048.94</ele>
        <time>2011-09-03T16:16:55Z</time>
      </trkpt>
      <trkpt lat="45.57052" lon="2.81294">
        <ele>1048.94</ele>
        <time>2011-09-03T16:16:56Z</time>
      </trkpt>
      <trkpt lat="45.57023" lon="2.81306">
        <ele>1050.38</ele>
        <time>2011-09-03T16:16:58Z</time>
      </trkpt>
      <trkpt lat="45.57008" lon="2.81313">
        <ele>1053.26</ele>
        <time>2011-09-03T16:16:59Z</time>
      </trkpt>
      <trkpt lat="45.56955" lon="2.81311">
        <ele>1055.18</ele>
        <time>2011-09-03T16:17:03Z</time>
      </trkpt>
      <trkpt lat="45.56902" lon="2.81298">
        <ele>1060.95</ele>
        <time>2011-09-03T16:17:07Z</time>
      </trkpt>
      <trkpt lat="45.56873" lon="2.813">
        <ele>1065.28</ele>
        <time>2011-09-03T16:17:09Z</time>
      </trkpt>
      <trkpt lat="45.56817" lon="2.81312">
        <ele>1068.64</ele>
        <time>2011-09-03T16:17:13Z</time>
      </trkpt>
      <trkpt lat="45.56781" lon="2.81325">
        <ele>1069.12</ele>
        <time>2011-09-03T16:17:17Z</time>
      </trkpt>
      <trkpt lat="45.56777" lon="2.81376">
        <ele>1073.45</ele>
        <time>2011-09-03T16:17:23Z</time>
      </trkpt>
      <trkpt lat="45.56782" lon="2.81387">
        <ele>1072.97</ele>
        <time>2011-09-03T16:17:24Z</time>
      </trkpt>
      <trkpt lat="45.56807" lon="2.81396">
        <ele>1076.33</ele>
        <time>2011-09-03T16:17:27Z</time>
      </trkpt>
      <trkpt lat="45.56819" lon="2.81392">
        <ele>1077.78</ele>
        <time>2011-09-03T16:17:28Z</time>
      </trkpt>
      <trkpt lat="45.5688" lon="2.81404">
        <ele>1078.74</ele>
        <time>2011-09-03T16:17:34Z</time>
      </trkpt>
      <trkpt lat="45.56881" lon="2.81441">
        <ele>1082.1</ele>
        <time>2011-09-03T16:17:37Z</time>
      </trkpt>
      <trkpt lat="45.5686" lon="2.81469">
        <ele>1085.47</ele>
        <time>2011-09-03T16:17:41Z</time>
      </trkpt>
      <trkpt lat="45.56828" lon="2.81452">
        <ele>1088.35</ele>
        <time>2011-09-03T16:17:44Z</time>
      </trkpt>
      <trkpt lat="45.56802" lon="2.8148">
        <ele>1091.71</ele>
        <time>2011-09-03T16:17:48Z</time>
      </trkpt>
      <trkpt lat="45.56809" lon="2.81514">
        <ele>1095.08</ele>
        <time>2011-09-03T16:17:51Z</time>
      </trkpt>
      <trkpt lat="45.56834" lon="2.8152">
        <ele>1098.92</ele>
        <time>2011-09-03T16:17:54Z</time>
      </trkpt>
      <trkpt lat="45.56844" lon="2.81516">
        <ele>1100.37</ele>
        <time>2011-09-03T16:17:55Z</time>
      </trkpt>
      <trkpt lat="45.56868" lon="2.81504">
        <ele>1102.29</ele>
        <time>2011-09-03T16:17:57Z</time>
      </trkpt>
      <trkpt lat="45.56914" lon="2.81503">
        <ele>1108.06</ele>
        <time>2011-09-03T16:18:00Z</time>
      </trkpt>
      <trkpt lat="45.56932" lon="2.81505">
        <ele>1109.5</ele>
        <time>2011-09-03T16:18:01Z</time>
      </trkpt>
      <trkpt lat="45.56989" lon="2.81502">
        <ele>1117.19</ele>
        <time>2011-09-03T16:18:04Z</time>
      </trkpt>
      <trkpt lat="45.57027" lon="2.815">
        <ele>1121.03</ele>
        <time>2011-09-03T16:18:06Z</time>
      </trkpt>
      <trkpt lat="45.57068" lon="2.81495">
        <ele>1124.4</ele>
        <time>2011-09-03T16:18:08Z</time>
      </trkpt>
      <trkpt lat="45.57111" lon="2.81489">
        <ele>1129.69</ele>
        <time>2011-09-03T16:18:10Z</time>
      </trkpt>
      <trkpt lat="45.57153" lon="2.81481">
        <ele>1133.05</ele>
        <time>2011-09-03T16:18:12Z</time>
      </trkpt>
      <trkpt lat="45.57174" lon="2.81477">
        <ele>1133.53</ele>
        <time>2011-09-03T16:18:13Z</time>
      </trkpt>
      <trkpt lat="45.57257" lon="2.81462">
        <ele>1137.86</ele>
        <time>2011-09-03T16:18:17Z</time>
      </trkpt>
      <trkpt lat="45.57276" lon="2.81458">
        <ele>1138.82</ele>
        <time>2011-09-03T16:18:18Z</time>
      </trkpt>
      <trkpt lat="45.57348" lon="2.81422">
        <ele>1144.59</ele>
        <time>2011-09-03T16:18:22Z</time>
      </trkpt>
      <trkpt lat="45.57399" lon="2.81407">
        <ele>1150.84</ele>
        <time>2011-09-03T16:18:25Z</time>
      </trkpt>
      <trkpt lat="45.57435" lon="2.81395">
        <ele>1152.76</ele>
        <time>2011-09-03T16:18:27Z</time>
      </trkpt>
      <trkpt lat="45.57487" lon="2.81393">
        <ele>1157.56</ele>
        <time>2011-09-03T16:18:30Z</time>
      </trkpt>
      <trkpt lat="45.57522" lon="2.81399">
        <ele>1160.93</ele>
        <time>2011-09-03T16:18:32Z</time>
      </trkpt>
      <trkpt lat="45.57539" lon="2.81403">
        <ele>1160.93</ele>
        <time>2011-09-03T16:18:33Z</time>
      </trkpt>
      <trkpt lat="45.57601" lon="2.8139">
        <ele>1163.81</ele>
        <time>2011-09-03T16:18:37Z</time>
      </trkpt>
      <trkpt lat="45.57634" lon="2.8137">
        <ele>1168.62</ele>
        <time>2011-09-03T16:18:39Z</time>
      </trkpt>
      <trkpt lat="45.57685" lon="2.81315">
        <ele>1172.95</ele>
        <time>2011-09-03T16:18:43Z</time>
      </trkpt>
      <trkpt lat="45.57697" lon="2.81299">
        <ele>1173.91</ele>
        <time>2011-09-03T16:18:44Z</time>
      </trkpt>
      <trkpt lat="45.57735" lon="2.81264">
        <ele>1178.71</ele>
        <time>2011-09-03T16:18:47Z</time>
      </trkpt>
      <trkpt lat="45.5775" lon="2.81257">
        <ele>1179.67</ele>
        <time>2011-09-03T16:18:48Z</time>
      </trkpt>
      <trkpt lat="45.578" lon="2.81235">
        <ele>1185.92</ele>
        <time>2011-09-03T16:18:51Z</time>
      </trkpt>
      <trkpt lat="45.57836" lon="2.81225">
        <ele>1190.73</ele>
        <time>2011-09-03T16:18:53Z</time>
      </trkpt>
      <trkpt lat="45.57877" lon="2.81218">
        <ele>1195.54</ele>
        <time>2011-09-03T16:18:55Z</time>
      </trkpt>
      <trkpt lat="45.57918" lon="2.81213">
        <ele>1198.9</ele>
        <time>2011-09-03T16:18:57Z</time>
      </trkpt>
      <trkpt lat="45.57956" lon="2.81211">
        <ele>1200.34</ele>
        <time>2011-09-03T16:18:59Z</time>
      </trkpt>
      <trkpt lat="45.57988" lon="2.8121">
        <ele>1200.82</ele>
        <time>2011-09-03T16:19:01Z</time>
      </trkpt>
      <trkpt lat="45.58037" lon="2.81245">
        <ele>1201.79</ele>
        <time>2011-09-03T16:19:06Z</time>
      </trkpt>
      <trkpt lat="45.58025" lon="2.81283">
        <ele>1205.63</ele>
        <time>2011-09-03T16:19:09Z</time>
      </trkpt>
      <trkpt lat="45.58014" lon="2.81291">
        <ele>1206.59</ele>
        <time>2011-09-03T16:19:10Z</time>
      </trkpt>
      <trkpt lat="45.57971" lon="2.8132">
        <ele>1214.76</ele>
        <time>2011-09-03T16:19:13Z</time>
      </trkpt>
      <trkpt lat="45.57954" lon="2.81334">
        <ele>1218.13</ele>
        <time>2011-09-03T16:19:14Z</time>
      </trkpt>
      <trkpt lat="45.57937" lon="2.8135">
        <ele>1221.01</ele>
        <time>2011-09-03T16:19:15Z</time>
      </trkpt>
      <trkpt lat="45.57921" lon="2.81367">
        <ele>1221.49</ele>
        <time>2011-09-03T16:19:16Z</time>
      </trkpt>
      <trkpt lat="45.57904" lon="2.81386">
        <ele>1224.86</ele>
        <time>2011-09-03T16:19:17Z</time>
      </trkpt>
      <trkpt lat="45.57868" lon="2.81423">
        <ele>1228.22</ele>
        <time>2011-09-03T16:19:19Z</time>
      </trkpt>
      <trkpt lat="45.57813" lon="2.81472">
        <ele>1230.62</ele>
        <time>2011-09-03T16:19:22Z</time>
      </trkpt>
      <trkpt lat="45.57768" lon="2.8155">
        <ele>1234.95</ele>
        <time>2011-09-03T16:19:26Z</time>
      </trkpt>
      <trkpt lat="45.57749" lon="2.81599">
        <ele>1239.76</ele>
        <time>2011-09-03T16:19:28Z</time>
      </trkpt>
      <trkpt lat="45.57726" lon="2.8165">
        <ele>1243.12</ele>
        <time>2011-09-03T16:19:30Z</time>
      </trkpt>
      <trkpt lat="45.57666" lon="2.81744">
        <ele>1243.6</ele>
        <time>2011-09-03T16:19:35Z</time>
      </trkpt>
      <trkpt lat="45.57612" lon="2.8176">
        <ele>1245.53</ele>
        <time>2011-09-03T16:19:40Z</time>
      </trkpt>
      <trkpt lat="45.57537" lon="2.81771">
        <ele>1248.89</ele>
        <time>2011-09-03T16:19:46Z</time>
      </trkpt>
      <trkpt lat="45.57464" lon="2.81814">
        <ele>1253.22</ele>
        <time>2011-09-03T16:19:52Z</time>
      </trkpt>
      <trkpt lat="45.57452" lon="2.81803">
        <ele>1254.66</ele>
        <time>2011-09-03T16:19:53Z</time>
      </trkpt>
      <trkpt lat="45.57373" lon="2.81782">
        <ele>1259.46</ele>
        <time>2011-09-03T16:19:59Z</time>
      </trkpt>
      <trkpt lat="45.57293" lon="2.81823">
        <ele>1266.19</ele>
        <time>2011-09-03T16:20:04Z</time>
      </trkpt>
      <trkpt lat="45.57257" lon="2.81826">
        <ele>1267.64</ele>
        <time>2011-09-03T16:20:06Z</time>
      </trkpt>
      <trkpt lat="45.57155" lon="2.81813">
        <ele>1264.75</ele>
        <time>2011-09-03T16:20:13Z</time>
      </trkpt>
      <trkpt lat="45.57139" lon="2.81806">
        <ele>1263.31</ele>
        <time>2011-09-03T16:20:16Z</time>
      </trkpt>
      <trkpt lat="45.57138" lon="2.81776">
        <ele>1261.87</ele>
        <time>2011-09-03T16:20:24Z</time>
      </trkpt>
      <trkpt lat="45.5714" lon="2.81775">
        <ele>1262.35</ele>
        <time>2011-09-03T16:20:25Z</time>
      </trkpt>
      <trkpt lat="45.57148" lon="2.81771">
        <ele>1260.43</ele>
        <time>2011-09-03T16:20:29Z</time>
      </trkpt>
      <trkpt lat="45.57154" lon="2.8177">
        <ele>1261.39</ele>
        <time>2011-09-03T16:20:32Z</time>
      </trkpt>
      <trkpt lat="45.57192" lon="2.81754">
        <ele>1260.91</ele>
        <time>2011-09-03T16:20:41Z</time>
      </trkpt>
      <trkpt lat="45.57195" lon="2.81754">
        <ele>1260.91</ele>
        <time>2011-09-03T16:20:42Z</time>
      </trkpt>
      <trkpt lat="45.57202" lon="2.81759">
        <ele>1261.87</ele>
        <time>2011-09-03T16:20:50Z</time>
      </trkpt>
      <trkpt lat="45.57201" lon="2.81758">
        <ele>1264.27</ele>
        <time>2011-09-03T16:22:08Z</time>
      </trkpt>
    </trkseg>
  </trk>
</gpx>